<?xml version="1.0" encoding="UTF-8" standalone="no" ?><gpx xmlns="http://www.topografix.com/GPX/1/1" xmlns:gpxx="http://www.garmin.com/xmlschemas/GpxExtensions/v3" xmlns:wptx1="http://www.garmin.com/xmlschemas/WaypointExtension/v1" xmlns:gpxtpx="http://www.garmin.com/xmlschemas/TrackPointExtension/v1" creator="GuideVTT.com" version="1.1" xmlns:xsi="http://www.w3.org/2001/XMLSchema-instance" xsi:schemaLocation="http://www.topografix.com/GPX/1/1 http://www.topografix.com/GPX/1/1/gpx.xsd http://www.garmin.com/xmlschemas/GpxExtensions/v3 http://www8.garmin.com/xmlschemas/GpxExtensionsv3.xsd http://www.garmin.com/xmlschemas/WaypointExtension/v1 http://www8.garmin.com/xmlschemas/WaypointExtensionv1.xsd http://www.garmin.com/xmlschemas/TrackPointExtension/v1 http://www.garmin.com/xmlschemas/TrackPointExtensionv1.xsd">
<metadata><link href="http://www.garmin.com"><text>Garmin International</text></link><time>2013-06-22T15:13:50Z</time></metadata>
<trk><name>vtt_2015-09-09_55f05f14f454ba48ec006609.gpx</name><extensions><gpxx:TrackExtension><gpxx:DisplayColor>Cyan</gpxx:DisplayColor></gpxx:TrackExtension></extensions><trkseg>
<trkpt lat="48.883960723877" lon="2.6308145523071"><ele></ele><time>2025-5-17T5:37:59Z</time></trkpt>
<trkpt lat="48.88404083252" lon="2.6307282447815"><ele></ele><time>2025-5-17T5:38:2Z</time></trkpt>
<trkpt lat="48.88404083252" lon="2.6307282447815"><ele></ele><time>2025-5-17T5:38:5Z</time></trkpt>
<trkpt lat="48.884113311768" lon="2.6306414604187"><ele></ele><time>2025-5-17T5:38:8Z</time></trkpt>
<trkpt lat="48.884113311768" lon="2.6306414604187"><ele></ele><time>2025-5-17T5:38:11Z</time></trkpt>
<trkpt lat="48.88419342041" lon="2.6305456161499"><ele></ele><time>2025-5-17T5:38:14Z</time></trkpt>
<trkpt lat="48.88419342041" lon="2.6305456161499"><ele></ele><time>2025-5-17T5:38:17Z</time></trkpt>
<trkpt lat="48.884269714355" lon="2.6304519176483"><ele></ele><time>2025-5-17T5:38:20Z</time></trkpt>
<trkpt lat="48.88431930542" lon="2.6304008960724"><ele></ele><time>2025-5-17T5:38:23Z</time></trkpt>
<trkpt lat="48.884376525879" lon="2.6303346157074"><ele></ele><time>2025-5-17T5:38:26Z</time></trkpt>
<trkpt lat="48.884376525879" lon="2.6303346157074"><ele></ele><time>2025-5-17T5:38:29Z</time></trkpt>
<trkpt lat="48.884426116943" lon="2.630274772644"><ele></ele><time>2025-5-17T5:38:32Z</time></trkpt>
<trkpt lat="48.8844871521" lon="2.6302049160004"><ele></ele><time>2025-5-17T5:38:35Z</time></trkpt>
<trkpt lat="48.884544372559" lon="2.6301307678223"><ele></ele><time>2025-5-17T5:38:38Z</time></trkpt>
<trkpt lat="48.884544372559" lon="2.6301307678223"><ele></ele><time>2025-5-17T5:38:41Z</time></trkpt>
<trkpt lat="48.884605407715" lon="2.6300578117371"><ele></ele><time>2025-5-17T5:38:44Z</time></trkpt>
<trkpt lat="48.884666442871" lon="2.6299984455109"><ele></ele><time>2025-5-17T5:38:47Z</time></trkpt>
<trkpt lat="48.884716033936" lon="2.6299340724945"><ele></ele><time>2025-5-17T5:38:50Z</time></trkpt>
<trkpt lat="48.884784698486" lon="2.6298451423645"><ele></ele><time>2025-5-17T5:38:53Z</time></trkpt>
<trkpt lat="48.884857177734" lon="2.6297619342804"><ele></ele><time>2025-5-17T5:38:56Z</time></trkpt>
<trkpt lat="48.884857177734" lon="2.6297619342804"><ele></ele><time>2025-5-17T5:38:59Z</time></trkpt>
<trkpt lat="48.884914398193" lon="2.6297006607056"><ele></ele><time>2025-5-17T5:39:2Z</time></trkpt>
<trkpt lat="48.884979248047" lon="2.6296365261078"><ele></ele><time>2025-5-17T5:39:5Z</time></trkpt>
<trkpt lat="48.8850440979" lon="2.6295599937439"><ele></ele><time>2025-5-17T5:39:8Z</time></trkpt>
<trkpt lat="48.8850440979" lon="2.6295599937439"><ele></ele><time>2025-5-17T5:39:11Z</time></trkpt>
<trkpt lat="48.885116577148" lon="2.6294729709625"><ele></ele><time>2025-5-17T5:39:14Z</time></trkpt>
<trkpt lat="48.885177612305" lon="2.6294069290161"><ele></ele><time>2025-5-17T5:39:17Z</time></trkpt>
<trkpt lat="48.885231018066" lon="2.6293334960938"><ele></ele><time>2025-5-17T5:39:20Z</time></trkpt>
<trkpt lat="48.885231018066" lon="2.6293334960938"><ele></ele><time>2025-5-17T5:39:23Z</time></trkpt>
<trkpt lat="48.885288238525" lon="2.6292569637299"><ele></ele><time>2025-5-17T5:39:26Z</time></trkpt>
<trkpt lat="48.885345458984" lon="2.6291761398315"><ele></ele><time>2025-5-17T5:39:29Z</time></trkpt>
<trkpt lat="48.885402679443" lon="2.6290981769562"><ele></ele><time>2025-5-17T5:39:32Z</time></trkpt>
<trkpt lat="48.885456085205" lon="2.629025220871"><ele></ele><time>2025-5-17T5:39:35Z</time></trkpt>
<trkpt lat="48.88550567627" lon="2.6289596557617"><ele></ele><time>2025-5-17T5:39:38Z</time></trkpt>
<trkpt lat="48.88550567627" lon="2.6289596557617"><ele></ele><time>2025-5-17T5:39:41Z</time></trkpt>
<trkpt lat="48.885570526123" lon="2.6289236545563"><ele></ele><time>2025-5-17T5:39:44Z</time></trkpt>
<trkpt lat="48.885635375977" lon="2.6289501190186"><ele></ele><time>2025-5-17T5:39:47Z</time></trkpt>
<trkpt lat="48.885704040527" lon="2.6290271282196"><ele></ele><time>2025-5-17T5:39:50Z</time></trkpt>
<trkpt lat="48.885704040527" lon="2.6290271282196"><ele></ele><time>2025-5-17T5:39:53Z</time></trkpt>
<trkpt lat="48.885734558105" lon="2.6291337013245"><ele></ele><time>2025-5-17T5:39:56Z</time></trkpt>
<trkpt lat="48.885768890381" lon="2.6292197704315"><ele></ele><time>2025-5-17T5:39:59Z</time></trkpt>
<trkpt lat="48.885814666748" lon="2.6293106079102"><ele></ele><time>2025-5-17T5:40:2Z</time></trkpt>
<trkpt lat="48.885814666748" lon="2.6293106079102"><ele></ele><time>2025-5-17T5:40:5Z</time></trkpt>
<trkpt lat="48.885864257812" lon="2.6294119358063"><ele></ele><time>2025-5-17T5:40:8Z</time></trkpt>
<trkpt lat="48.88591003418" lon="2.6295139789581"><ele></ele><time>2025-5-17T5:40:11Z</time></trkpt>
<trkpt lat="48.885959625244" lon="2.6296117305756"><ele></ele><time>2025-5-17T5:40:14Z</time></trkpt>
<trkpt lat="48.885959625244" lon="2.6296117305756"><ele></ele><time>2025-5-17T5:40:17Z</time></trkpt>
<trkpt lat="48.886013031006" lon="2.6296718120575"><ele></ele><time>2025-5-17T5:40:20Z</time></trkpt>
<trkpt lat="48.886096954346" lon="2.6296753883362"><ele></ele><time>2025-5-17T5:40:23Z</time></trkpt>
<trkpt lat="48.886173248291" lon="2.6296136379242"><ele></ele><time>2025-5-17T5:40:26Z</time></trkpt>
<trkpt lat="48.886173248291" lon="2.6296136379242"><ele></ele><time>2025-5-17T5:40:29Z</time></trkpt>
<trkpt lat="48.886238098145" lon="2.6295278072357"><ele></ele><time>2025-5-17T5:40:32Z</time></trkpt>
<trkpt lat="48.886291503906" lon="2.6294457912445"><ele></ele><time>2025-5-17T5:40:35Z</time></trkpt>
<trkpt lat="48.886348724365" lon="2.6293585300446"><ele></ele><time>2025-5-17T5:40:38Z</time></trkpt>
<trkpt lat="48.886402130127" lon="2.6292812824249"><ele></ele><time>2025-5-17T5:40:41Z</time></trkpt>
<trkpt lat="48.886459350586" lon="2.6292073726654"><ele></ele><time>2025-5-17T5:40:44Z</time></trkpt>
<trkpt lat="48.886459350586" lon="2.6292073726654"><ele></ele><time>2025-5-17T5:40:47Z</time></trkpt>
<trkpt lat="48.886512756348" lon="2.6291348934174"><ele></ele><time>2025-5-17T5:40:50Z</time></trkpt>
<trkpt lat="48.886562347412" lon="2.6290717124939"><ele></ele><time>2025-5-17T5:40:53Z</time></trkpt>
<trkpt lat="48.886619567871" lon="2.6290032863617"><ele></ele><time>2025-5-17T5:40:56Z</time></trkpt>
<trkpt lat="48.886619567871" lon="2.6290032863617"><ele></ele><time>2025-5-17T5:40:59Z</time></trkpt>
<trkpt lat="48.886684417725" lon="2.6289148330688"><ele></ele><time>2025-5-17T5:41:2Z</time></trkpt>
<trkpt lat="48.886756896973" lon="2.6288287639618"><ele></ele><time>2025-5-17T5:41:5Z</time></trkpt>
<trkpt lat="48.886825561523" lon="2.6287376880646"><ele></ele><time>2025-5-17T5:41:8Z</time></trkpt>
<trkpt lat="48.886825561523" lon="2.6287376880646"><ele></ele><time>2025-5-17T5:41:11Z</time></trkpt>
<trkpt lat="48.886867523193" lon="2.6286308765411"><ele></ele><time>2025-5-17T5:41:14Z</time></trkpt>
<trkpt lat="48.886894226074" lon="2.6284825801849"><ele></ele><time>2025-5-17T5:41:17Z</time></trkpt>
<trkpt lat="48.886890411377" lon="2.6283361911774"><ele></ele><time>2025-5-17T5:41:20Z</time></trkpt>
<trkpt lat="48.886871337891" lon="2.6282227039337"><ele></ele><time>2025-5-17T5:41:23Z</time></trkpt>
<trkpt lat="48.886867523193" lon="2.6281249523163"><ele></ele><time>2025-5-17T5:41:26Z</time></trkpt>
<trkpt lat="48.886867523193" lon="2.6281249523163"><ele></ele><time>2025-5-17T5:41:29Z</time></trkpt>
<trkpt lat="48.88688659668" lon="2.6280424594879"><ele></ele><time>2025-5-17T5:41:32Z</time></trkpt>
<trkpt lat="48.886932373047" lon="2.6279602050781"><ele></ele><time>2025-5-17T5:41:35Z</time></trkpt>
<trkpt lat="48.887001037598" lon="2.6278827190399"><ele></ele><time>2025-5-17T5:41:38Z</time></trkpt>
<trkpt lat="48.887073516846" lon="2.6278204917908"><ele></ele><time>2025-5-17T5:41:41Z</time></trkpt>
<trkpt lat="48.887138366699" lon="2.62775182724"><ele></ele><time>2025-5-17T5:41:44Z</time></trkpt>
<trkpt lat="48.887138366699" lon="2.62775182724"><ele></ele><time>2025-5-17T5:41:47Z</time></trkpt>
<trkpt lat="48.88720703125" lon="2.6276776790619"><ele></ele><time>2025-5-17T5:41:50Z</time></trkpt>
<trkpt lat="48.887275695801" lon="2.6275992393494"><ele></ele><time>2025-5-17T5:41:53Z</time></trkpt>
<trkpt lat="48.887275695801" lon="2.6275992393494"><ele></ele><time>2025-5-17T5:41:56Z</time></trkpt>
<trkpt lat="48.88733291626" lon="2.6275131702423"><ele></ele><time>2025-5-17T5:41:59Z</time></trkpt>
<trkpt lat="48.887382507324" lon="2.627406835556"><ele></ele><time>2025-5-17T5:42:2Z</time></trkpt>
<trkpt lat="48.887413024902" lon="2.6272840499878"><ele></ele><time>2025-5-17T5:42:5Z</time></trkpt>
<trkpt lat="48.887413024902" lon="2.6272840499878"><ele></ele><time>2025-5-17T5:42:8Z</time></trkpt>
<trkpt lat="48.887451171875" lon="2.6271328926086"><ele></ele><time>2025-5-17T5:42:11Z</time></trkpt>
<trkpt lat="48.88748550415" lon="2.6270093917847"><ele></ele><time>2025-5-17T5:42:14Z</time></trkpt>
<trkpt lat="48.887542724609" lon="2.6269056797028"><ele></ele><time>2025-5-17T5:42:17Z</time></trkpt>
<trkpt lat="48.887592315674" lon="2.6268317699432"><ele></ele><time>2025-5-17T5:42:20Z</time></trkpt>
<trkpt lat="48.887592315674" lon="2.6268317699432"><ele></ele><time>2025-5-17T5:42:23Z</time></trkpt>
<trkpt lat="48.887592315674" lon="2.6268317699432"><ele></ele><time>2025-5-17T5:42:26Z</time></trkpt>
<trkpt lat="48.887676239014" lon="2.6268157958984"><ele></ele><time>2025-5-17T5:42:29Z</time></trkpt>
<trkpt lat="48.887741088867" lon="2.6268682479858"><ele></ele><time>2025-5-17T5:42:32Z</time></trkpt>
<trkpt lat="48.887805938721" lon="2.6269462108612"><ele></ele><time>2025-5-17T5:42:35Z</time></trkpt>
<trkpt lat="48.887805938721" lon="2.6269462108612"><ele></ele><time>2025-5-17T5:42:38Z</time></trkpt>
<trkpt lat="48.887851715088" lon="2.6270442008972"><ele></ele><time>2025-5-17T5:42:41Z</time></trkpt>
<trkpt lat="48.887912750244" lon="2.6271636486053"><ele></ele><time>2025-5-17T5:42:44Z</time></trkpt>
<trkpt lat="48.887969970703" lon="2.6272773742676"><ele></ele><time>2025-5-17T5:42:47Z</time></trkpt>
<trkpt lat="48.887969970703" lon="2.6272773742676"><ele></ele><time>2025-5-17T5:42:50Z</time></trkpt>
<trkpt lat="48.888027191162" lon="2.6273834705353"><ele></ele><time>2025-5-17T5:42:53Z</time></trkpt>
<trkpt lat="48.888080596924" lon="2.6274878978729"><ele></ele><time>2025-5-17T5:42:56Z</time></trkpt>
<trkpt lat="48.888126373291" lon="2.62757396698"><ele></ele><time>2025-5-17T5:42:59Z</time></trkpt>
<trkpt lat="48.888126373291" lon="2.62757396698"><ele></ele><time>2025-5-17T5:43:2Z</time></trkpt>
<trkpt lat="48.888179779053" lon="2.6276731491089"><ele></ele><time>2025-5-17T5:43:5Z</time></trkpt>
<trkpt lat="48.888248443604" lon="2.6277949810028"><ele></ele><time>2025-5-17T5:43:8Z</time></trkpt>
<trkpt lat="48.888313293457" lon="2.6279196739197"><ele></ele><time>2025-5-17T5:43:11Z</time></trkpt>
<trkpt lat="48.888313293457" lon="2.6279196739197"><ele></ele><time>2025-5-17T5:43:14Z</time></trkpt>
<trkpt lat="48.888381958008" lon="2.6280438899994"><ele></ele><time>2025-5-17T5:43:17Z</time></trkpt>
<trkpt lat="48.888450622559" lon="2.6281745433807"><ele></ele><time>2025-5-17T5:43:20Z</time></trkpt>
<trkpt lat="48.888523101807" lon="2.6283061504364"><ele></ele><time>2025-5-17T5:43:23Z</time></trkpt>
<trkpt lat="48.888523101807" lon="2.6283061504364"><ele></ele><time>2025-5-17T5:43:26Z</time></trkpt>
<trkpt lat="48.888599395752" lon="2.6284430027008"><ele></ele><time>2025-5-17T5:43:29Z</time></trkpt>
<trkpt lat="48.888675689697" lon="2.6285798549652"><ele></ele><time>2025-5-17T5:43:32Z</time></trkpt>
<trkpt lat="48.888751983643" lon="2.6287178993225"><ele></ele><time>2025-5-17T5:43:35Z</time></trkpt>
<trkpt lat="48.888751983643" lon="2.6287178993225"><ele></ele><time>2025-5-17T5:43:38Z</time></trkpt>
<trkpt lat="48.888835906982" lon="2.6288633346558"><ele></ele><time>2025-5-17T5:43:41Z</time></trkpt>
<trkpt lat="48.88892364502" lon="2.6290180683136"><ele></ele><time>2025-5-17T5:43:44Z</time></trkpt>
<trkpt lat="48.889011383057" lon="2.6291785240173"><ele></ele><time>2025-5-17T5:43:47Z</time></trkpt>
<trkpt lat="48.889102935791" lon="2.6293478012085"><ele></ele><time>2025-5-17T5:43:50Z</time></trkpt>
<trkpt lat="48.88920211792" lon="2.6295294761658"><ele></ele><time>2025-5-17T5:43:53Z</time></trkpt>
<trkpt lat="48.88920211792" lon="2.6295294761658"><ele></ele><time>2025-5-17T5:43:56Z</time></trkpt>
<trkpt lat="48.889301300049" lon="2.6297073364258"><ele></ele><time>2025-5-17T5:43:59Z</time></trkpt>
<trkpt lat="48.88939666748" lon="2.629887342453"><ele></ele><time>2025-5-17T5:44:2Z</time></trkpt>
<trkpt lat="48.889488220215" lon="2.6300711631775"><ele></ele><time>2025-5-17T5:44:5Z</time></trkpt>
<trkpt lat="48.889488220215" lon="2.6300711631775"><ele></ele><time>2025-5-17T5:44:8Z</time></trkpt>
<trkpt lat="48.889583587646" lon="2.6302433013916"><ele></ele><time>2025-5-17T5:44:11Z</time></trkpt>
<trkpt lat="48.889671325684" lon="2.6303932666779"><ele></ele><time>2025-5-17T5:44:14Z</time></trkpt>
<trkpt lat="48.889762878418" lon="2.6305541992188"><ele></ele><time>2025-5-17T5:44:17Z</time></trkpt>
<trkpt lat="48.889854431152" lon="2.6307225227356"><ele></ele><time>2025-5-17T5:44:20Z</time></trkpt>
<trkpt lat="48.889942169189" lon="2.6308901309967"><ele></ele><time>2025-5-17T5:44:23Z</time></trkpt>
<trkpt lat="48.889942169189" lon="2.6308901309967"><ele></ele><time>2025-5-17T5:44:26Z</time></trkpt>
<trkpt lat="48.890026092529" lon="2.6310443878174"><ele></ele><time>2025-5-17T5:44:29Z</time></trkpt>
<trkpt lat="48.890110015869" lon="2.6311991214752"><ele></ele><time>2025-5-17T5:44:32Z</time></trkpt>
<trkpt lat="48.890197753906" lon="2.6313571929932"><ele></ele><time>2025-5-17T5:44:35Z</time></trkpt>
<trkpt lat="48.890197753906" lon="2.6313571929932"><ele></ele><time>2025-5-17T5:44:38Z</time></trkpt>
<trkpt lat="48.890285491943" lon="2.6314942836761"><ele></ele><time>2025-5-17T5:44:41Z</time></trkpt>
<trkpt lat="48.890361785889" lon="2.6316111087799"><ele></ele><time>2025-5-17T5:44:44Z</time></trkpt>
<trkpt lat="48.89041519165" lon="2.631715297699"><ele></ele><time>2025-5-17T5:44:47Z</time></trkpt>
<trkpt lat="48.89041519165" lon="2.631715297699"><ele></ele><time>2025-5-17T5:44:50Z</time></trkpt>
<trkpt lat="48.890453338623" lon="2.6317873001099"><ele></ele><time>2025-5-17T5:44:53Z</time></trkpt>
<trkpt lat="48.890491485596" lon="2.6318633556366"><ele></ele><time>2025-5-17T5:44:56Z</time></trkpt>
<trkpt lat="48.890525817871" lon="2.6319556236267"><ele></ele><time>2025-5-17T5:44:59Z</time></trkpt>
<trkpt lat="48.890571594238" lon="2.6320564746857"><ele></ele><time>2025-5-17T5:45:2Z</time></trkpt>
<trkpt lat="48.890613555908" lon="2.6321330070496"><ele></ele><time>2025-5-17T5:45:5Z</time></trkpt>
<trkpt lat="48.890613555908" lon="2.6321330070496"><ele></ele><time>2025-5-17T5:45:8Z</time></trkpt>
<trkpt lat="48.890651702881" lon="2.6322054862976"><ele></ele><time>2025-5-17T5:45:11Z</time></trkpt>
<trkpt lat="48.890689849854" lon="2.6322891712189"><ele></ele><time>2025-5-17T5:45:14Z</time></trkpt>
<trkpt lat="48.890720367432" lon="2.6323692798615"><ele></ele><time>2025-5-17T5:45:17Z</time></trkpt>
<trkpt lat="48.890720367432" lon="2.6323692798615"><ele></ele><time>2025-5-17T5:45:20Z</time></trkpt>
<trkpt lat="48.890720367432" lon="2.6323692798615"><ele></ele><time>2025-5-17T5:45:23Z</time></trkpt>
<trkpt lat="48.89079284668" lon="2.6324903964996"><ele></ele><time>2025-5-17T5:45:26Z</time></trkpt>
<trkpt lat="48.890850067139" lon="2.6325416564941"><ele></ele><time>2025-5-17T5:45:29Z</time></trkpt>
<trkpt lat="48.890850067139" lon="2.6325416564941"><ele></ele><time>2025-5-17T5:45:32Z</time></trkpt>
<trkpt lat="48.890895843506" lon="2.6326048374176"><ele></ele><time>2025-5-17T5:45:35Z</time></trkpt>
<trkpt lat="48.890911102295" lon="2.6327142715454"><ele></ele><time>2025-5-17T5:45:38Z</time></trkpt>
<trkpt lat="48.890914916992" lon="2.6328241825104"><ele></ele><time>2025-5-17T5:45:41Z</time></trkpt>
<trkpt lat="48.890911102295" lon="2.6329321861267"><ele></ele><time>2025-5-17T5:45:44Z</time></trkpt>
<trkpt lat="48.890914916992" lon="2.6330282688141"><ele></ele><time>2025-5-17T5:45:47Z</time></trkpt>
<trkpt lat="48.890914916992" lon="2.6330282688141"><ele></ele><time>2025-5-17T5:45:50Z</time></trkpt>
<trkpt lat="48.890918731689" lon="2.6331303119659"><ele></ele><time>2025-5-17T5:45:53Z</time></trkpt>
<trkpt lat="48.890926361084" lon="2.6332240104675"><ele></ele><time>2025-5-17T5:45:56Z</time></trkpt>
<trkpt lat="48.890926361084" lon="2.6332240104675"><ele></ele><time>2025-5-17T5:45:59Z</time></trkpt>
<trkpt lat="48.890926361084" lon="2.6332240104675"><ele></ele><time>2025-5-17T5:46:2Z</time></trkpt>
<trkpt lat="48.891014099121" lon="2.6333363056183"><ele></ele><time>2025-5-17T5:46:5Z</time></trkpt>
<trkpt lat="48.891078948975" lon="2.63338804245"><ele></ele><time>2025-5-17T5:46:8Z</time></trkpt>
<trkpt lat="48.891078948975" lon="2.63338804245"><ele></ele><time>2025-5-17T5:46:11Z</time></trkpt>
<trkpt lat="48.891078948975" lon="2.63338804245"><ele></ele><time>2025-5-17T5:46:14Z</time></trkpt>
<trkpt lat="48.891147613525" lon="2.6335244178772"><ele></ele><time>2025-5-17T5:46:17Z</time></trkpt>
<trkpt lat="48.891201019287" lon="2.6336040496826"><ele></ele><time>2025-5-17T5:46:20Z</time></trkpt>
<trkpt lat="48.891250610352" lon="2.6336908340454"><ele></ele><time>2025-5-17T5:46:23Z</time></trkpt>
<trkpt lat="48.891250610352" lon="2.6336908340454"><ele></ele><time>2025-5-17T5:46:26Z</time></trkpt>
<trkpt lat="48.891304016113" lon="2.633784532547"><ele></ele><time>2025-5-17T5:46:29Z</time></trkpt>
<trkpt lat="48.891334533691" lon="2.6338822841644"><ele></ele><time>2025-5-17T5:46:32Z</time></trkpt>
<trkpt lat="48.891361236572" lon="2.6339724063873"><ele></ele><time>2025-5-17T5:46:35Z</time></trkpt>
<trkpt lat="48.891361236572" lon="2.6339724063873"><ele></ele><time>2025-5-17T5:46:38Z</time></trkpt>
<trkpt lat="48.891387939453" lon="2.6340615749359"><ele></ele><time>2025-5-17T5:46:41Z</time></trkpt>
<trkpt lat="48.891429901123" lon="2.6341814994812"><ele></ele><time>2025-5-17T5:46:44Z</time></trkpt>
<trkpt lat="48.891429901123" lon="2.6341814994812"><ele></ele><time>2025-5-17T5:46:47Z</time></trkpt>
<trkpt lat="48.891510009766" lon="2.6344316005707"><ele></ele><time>2025-5-17T5:46:50Z</time></trkpt>
<trkpt lat="48.891555786133" lon="2.6345546245575"><ele></ele><time>2025-5-17T5:46:53Z</time></trkpt>
<trkpt lat="48.891616821289" lon="2.6346509456635"><ele></ele><time>2025-5-17T5:46:56Z</time></trkpt>
<trkpt lat="48.891616821289" lon="2.6346509456635"><ele></ele><time>2025-5-17T5:46:59Z</time></trkpt>
<trkpt lat="48.891666412354" lon="2.6347460746765"><ele></ele><time>2025-5-17T5:47:2Z</time></trkpt>
<trkpt lat="48.891754150391" lon="2.6350035667419"><ele></ele><time>2025-5-17T5:47:5Z</time></trkpt>
<trkpt lat="48.891815185547" lon="2.635160446167"><ele></ele><time>2025-5-17T5:47:8Z</time></trkpt>
<trkpt lat="48.891887664795" lon="2.6353306770325"><ele></ele><time>2025-5-17T5:47:11Z</time></trkpt>
<trkpt lat="48.891887664795" lon="2.6353306770325"><ele></ele><time>2025-5-17T5:47:14Z</time></trkpt>
<trkpt lat="48.891929626465" lon="2.6354646682739"><ele></ele><time>2025-5-17T5:47:17Z</time></trkpt>
<trkpt lat="48.891998291016" lon="2.6355798244476"><ele></ele><time>2025-5-17T5:47:20Z</time></trkpt>
<trkpt lat="48.892086029053" lon="2.6356890201569"><ele></ele><time>2025-5-17T5:47:23Z</time></trkpt>
<trkpt lat="48.892086029053" lon="2.6356890201569"><ele></ele><time>2025-5-17T5:47:26Z</time></trkpt>
<trkpt lat="48.892150878906" lon="2.6358211040497"><ele></ele><time>2025-5-17T5:47:29Z</time></trkpt>
<trkpt lat="48.892204284668" lon="2.6359484195709"><ele></ele><time>2025-5-17T5:47:32Z</time></trkpt>
<trkpt lat="48.89225769043" lon="2.6360816955566"><ele></ele><time>2025-5-17T5:47:35Z</time></trkpt>
<trkpt lat="48.89225769043" lon="2.6360816955566"><ele></ele><time>2025-5-17T5:47:38Z</time></trkpt>
<trkpt lat="48.892307281494" lon="2.6362237930298"><ele></ele><time>2025-5-17T5:47:41Z</time></trkpt>
<trkpt lat="48.892360687256" lon="2.6363701820374"><ele></ele><time>2025-5-17T5:47:44Z</time></trkpt>
<trkpt lat="48.892417907715" lon="2.6364991664886"><ele></ele><time>2025-5-17T5:47:47Z</time></trkpt>
<trkpt lat="48.892417907715" lon="2.6364991664886"><ele></ele><time>2025-5-17T5:47:50Z</time></trkpt>
<trkpt lat="48.892459869385" lon="2.6365847587585"><ele></ele><time>2025-5-17T5:47:53Z</time></trkpt>
<trkpt lat="48.892498016357" lon="2.6366760730743"><ele></ele><time>2025-5-17T5:47:56Z</time></trkpt>
<trkpt lat="48.892547607422" lon="2.6367676258087"><ele></ele><time>2025-5-17T5:47:59Z</time></trkpt>
<trkpt lat="48.892547607422" lon="2.6367676258087"><ele></ele><time>2025-5-17T5:48:2Z</time></trkpt>
<trkpt lat="48.892574310303" lon="2.6368632316589"><ele></ele><time>2025-5-17T5:48:5Z</time></trkpt>
<trkpt lat="48.892604827881" lon="2.6369462013245"><ele></ele><time>2025-5-17T5:48:8Z</time></trkpt>
<trkpt lat="48.892646789551" lon="2.6370673179626"><ele></ele><time>2025-5-17T5:48:11Z</time></trkpt>
<trkpt lat="48.892646789551" lon="2.6370673179626"><ele></ele><time>2025-5-17T5:48:14Z</time></trkpt>
<trkpt lat="48.892681121826" lon="2.6371946334839"><ele></ele><time>2025-5-17T5:48:17Z</time></trkpt>
<trkpt lat="48.892742156982" lon="2.6372969150543"><ele></ele><time>2025-5-17T5:48:20Z</time></trkpt>
<trkpt lat="48.892810821533" lon="2.6374053955078"><ele></ele><time>2025-5-17T5:48:23Z</time></trkpt>
<trkpt lat="48.892871856689" lon="2.6375162601471"><ele></ele><time>2025-5-17T5:48:26Z</time></trkpt>
<trkpt lat="48.892917633057" lon="2.637638092041"><ele></ele><time>2025-5-17T5:48:29Z</time></trkpt>
<trkpt lat="48.892963409424" lon="2.6377503871918"><ele></ele><time>2025-5-17T5:48:32Z</time></trkpt>
<trkpt lat="48.893009185791" lon="2.6378607749939"><ele></ele><time>2025-5-17T5:48:35Z</time></trkpt>
<trkpt lat="48.893054962158" lon="2.637957572937"><ele></ele><time>2025-5-17T5:48:38Z</time></trkpt>
<trkpt lat="48.893104553223" lon="2.6380603313446"><ele></ele><time>2025-5-17T5:48:41Z</time></trkpt>
<trkpt lat="48.893154144287" lon="2.6381583213806"><ele></ele><time>2025-5-17T5:48:44Z</time></trkpt>
<trkpt lat="48.893196105957" lon="2.6382412910461"><ele></ele><time>2025-5-17T5:48:47Z</time></trkpt>
<trkpt lat="48.893272399902" lon="2.6382598876953"><ele></ele><time>2025-5-17T5:48:50Z</time></trkpt>
<trkpt lat="48.893352508545" lon="2.6382732391357"><ele></ele><time>2025-5-17T5:48:53Z</time></trkpt>
<trkpt lat="48.893390655518" lon="2.6383426189423"><ele></ele><time>2025-5-17T5:48:56Z</time></trkpt>
<trkpt lat="48.893390655518" lon="2.6383426189423"><ele></ele><time>2025-5-17T5:48:59Z</time></trkpt>
<trkpt lat="48.89342880249" lon="2.6384353637695"><ele></ele><time>2025-5-17T5:49:2Z</time></trkpt>
<trkpt lat="48.893466949463" lon="2.6385440826416"><ele></ele><time>2025-5-17T5:49:5Z</time></trkpt>
<trkpt lat="48.89351272583" lon="2.6386218070984"><ele></ele><time>2025-5-17T5:49:8Z</time></trkpt>
<trkpt lat="48.89351272583" lon="2.6386218070984"><ele></ele><time>2025-5-17T5:49:11Z</time></trkpt>
<trkpt lat="48.893608093262" lon="2.6386315822601"><ele></ele><time>2025-5-17T5:49:14Z</time></trkpt>
<trkpt lat="48.893608093262" lon="2.6386315822601"><ele></ele><time>2025-5-17T5:49:17Z</time></trkpt>
<trkpt lat="48.893692016602" lon="2.6386182308197"><ele></ele><time>2025-5-17T5:49:20Z</time></trkpt>
<trkpt lat="48.893772125244" lon="2.6386046409607"><ele></ele><time>2025-5-17T5:49:23Z</time></trkpt>
<trkpt lat="48.893852233887" lon="2.6385827064514"><ele></ele><time>2025-5-17T5:49:26Z</time></trkpt>
<trkpt lat="48.893924713135" lon="2.6385672092438"><ele></ele><time>2025-5-17T5:49:29Z</time></trkpt>
<trkpt lat="48.893997192383" lon="2.6385509967804"><ele></ele><time>2025-5-17T5:49:32Z</time></trkpt>
<trkpt lat="48.894065856934" lon="2.6385650634766"><ele></ele><time>2025-5-17T5:49:35Z</time></trkpt>
<trkpt lat="48.89412689209" lon="2.6386210918427"><ele></ele><time>2025-5-17T5:49:38Z</time></trkpt>
<trkpt lat="48.894161224365" lon="2.6386981010437"><ele></ele><time>2025-5-17T5:49:41Z</time></trkpt>
<trkpt lat="48.89421081543" lon="2.6387593746185"><ele></ele><time>2025-5-17T5:49:44Z</time></trkpt>
<trkpt lat="48.894268035889" lon="2.6388349533081"><ele></ele><time>2025-5-17T5:49:47Z</time></trkpt>
<trkpt lat="48.894329071045" lon="2.6389276981354"><ele></ele><time>2025-5-17T5:49:50Z</time></trkpt>
<trkpt lat="48.894382476807" lon="2.6390461921692"><ele></ele><time>2025-5-17T5:49:53Z</time></trkpt>
<trkpt lat="48.894435882568" lon="2.6391582489014"><ele></ele><time>2025-5-17T5:49:56Z</time></trkpt>
<trkpt lat="48.894504547119" lon="2.6392939090729"><ele></ele><time>2025-5-17T5:49:59Z</time></trkpt>
<trkpt lat="48.894588470459" lon="2.6394059658051"><ele></ele><time>2025-5-17T5:50:2Z</time></trkpt>
<trkpt lat="48.894664764404" lon="2.63951420784"><ele></ele><time>2025-5-17T5:50:5Z</time></trkpt>
<trkpt lat="48.894733428955" lon="2.639621257782"><ele></ele><time>2025-5-17T5:50:8Z</time></trkpt>
<trkpt lat="48.894790649414" lon="2.639711856842"><ele></ele><time>2025-5-17T5:50:11Z</time></trkpt>
<trkpt lat="48.894840240479" lon="2.6398112773895"><ele></ele><time>2025-5-17T5:50:14Z</time></trkpt>
<trkpt lat="48.894886016846" lon="2.6399266719818"><ele></ele><time>2025-5-17T5:50:17Z</time></trkpt>
<trkpt lat="48.894927978516" lon="2.6400370597839"><ele></ele><time>2025-5-17T5:50:20Z</time></trkpt>
<trkpt lat="48.894969940186" lon="2.6401407718658"><ele></ele><time>2025-5-17T5:50:23Z</time></trkpt>
<trkpt lat="48.89501953125" lon="2.6402604579926"><ele></ele><time>2025-5-17T5:50:26Z</time></trkpt>
<trkpt lat="48.895072937012" lon="2.6403872966766"><ele></ele><time>2025-5-17T5:50:29Z</time></trkpt>
<trkpt lat="48.895122528076" lon="2.6405010223389"><ele></ele><time>2025-5-17T5:50:32Z</time></trkpt>
<trkpt lat="48.895172119141" lon="2.6406004428864"><ele></ele><time>2025-5-17T5:50:35Z</time></trkpt>
<trkpt lat="48.895172119141" lon="2.6406004428864"><ele></ele><time>2025-5-17T5:50:38Z</time></trkpt>
<trkpt lat="48.895225524902" lon="2.640709400177"><ele></ele><time>2025-5-17T5:50:41Z</time></trkpt>
<trkpt lat="48.895374298096" lon="2.6410024166107"><ele></ele><time>2025-5-17T5:50:44Z</time></trkpt>
<trkpt lat="48.895446777344" lon="2.6411070823669"><ele></ele><time>2025-5-17T5:50:47Z</time></trkpt>
<trkpt lat="48.895519256592" lon="2.6412107944489"><ele></ele><time>2025-5-17T5:50:50Z</time></trkpt>
<trkpt lat="48.895587921143" lon="2.6413016319275"><ele></ele><time>2025-5-17T5:50:53Z</time></trkpt>
<trkpt lat="48.895587921143" lon="2.6413016319275"><ele></ele><time>2025-5-17T5:50:56Z</time></trkpt>
<trkpt lat="48.895645141602" lon="2.6413934230804"><ele></ele><time>2025-5-17T5:50:59Z</time></trkpt>
<trkpt lat="48.895679473877" lon="2.6414752006531"><ele></ele><time>2025-5-17T5:51:2Z</time></trkpt>
<trkpt lat="48.895713806152" lon="2.6415762901306"><ele></ele><time>2025-5-17T5:51:5Z</time></trkpt>
<trkpt lat="48.895713806152" lon="2.6415762901306"><ele></ele><time>2025-5-17T5:51:8Z</time></trkpt>
<trkpt lat="48.895763397217" lon="2.6416926383972"><ele></ele><time>2025-5-17T5:51:11Z</time></trkpt>
<trkpt lat="48.895805358887" lon="2.6417996883392"><ele></ele><time>2025-5-17T5:51:14Z</time></trkpt>
<trkpt lat="48.895862579346" lon="2.6419115066528"><ele></ele><time>2025-5-17T5:51:17Z</time></trkpt>
<trkpt lat="48.895927429199" lon="2.6420254707336"><ele></ele><time>2025-5-17T5:51:20Z</time></trkpt>
<trkpt lat="48.895984649658" lon="2.6421382427216"><ele></ele><time>2025-5-17T5:51:23Z</time></trkpt>
<trkpt lat="48.896041870117" lon="2.642245054245"><ele></ele><time>2025-5-17T5:51:26Z</time></trkpt>
<trkpt lat="48.896041870117" lon="2.642245054245"><ele></ele><time>2025-5-17T5:51:29Z</time></trkpt>
<trkpt lat="48.896110534668" lon="2.6423609256744"><ele></ele><time>2025-5-17T5:51:32Z</time></trkpt>
<trkpt lat="48.896183013916" lon="2.6424646377563"><ele></ele><time>2025-5-17T5:51:35Z</time></trkpt>
<trkpt lat="48.896251678467" lon="2.6425769329071"><ele></ele><time>2025-5-17T5:51:38Z</time></trkpt>
<trkpt lat="48.896251678467" lon="2.6425769329071"><ele></ele><time>2025-5-17T5:51:41Z</time></trkpt>
<trkpt lat="48.896305084229" lon="2.6426799297333"><ele></ele><time>2025-5-17T5:51:44Z</time></trkpt>
<trkpt lat="48.896339416504" lon="2.6427843570709"><ele></ele><time>2025-5-17T5:51:47Z</time></trkpt>
<trkpt lat="48.896385192871" lon="2.6428956985474"><ele></ele><time>2025-5-17T5:51:50Z</time></trkpt>
<trkpt lat="48.896385192871" lon="2.6428956985474"><ele></ele><time>2025-5-17T5:51:53Z</time></trkpt>
<trkpt lat="48.896438598633" lon="2.6430084705353"><ele></ele><time>2025-5-17T5:51:56Z</time></trkpt>
<trkpt lat="48.896507263184" lon="2.6431300640106"><ele></ele><time>2025-5-17T5:51:59Z</time></trkpt>
<trkpt lat="48.896553039551" lon="2.6432423591614"><ele></ele><time>2025-5-17T5:52:2Z</time></trkpt>
<trkpt lat="48.896553039551" lon="2.6432423591614"><ele></ele><time>2025-5-17T5:52:5Z</time></trkpt>
<trkpt lat="48.896553039551" lon="2.6432423591614"><ele></ele><time>2025-5-17T5:52:8Z</time></trkpt>
<trkpt lat="48.896549224854" lon="2.6433780193329"><ele></ele><time>2025-5-17T5:52:11Z</time></trkpt>
<trkpt lat="48.896549224854" lon="2.6433780193329"><ele></ele><time>2025-5-17T5:52:14Z</time></trkpt>
<trkpt lat="48.896549224854" lon="2.6433780193329"><ele></ele><time>2025-5-17T5:52:17Z</time></trkpt>
<trkpt lat="48.896579742432" lon="2.6435096263885"><ele></ele><time>2025-5-17T5:52:20Z</time></trkpt>
<trkpt lat="48.89661026001" lon="2.6436252593994"><ele></ele><time>2025-5-17T5:52:23Z</time></trkpt>
<trkpt lat="48.896648406982" lon="2.6437618732452"><ele></ele><time>2025-5-17T5:52:26Z</time></trkpt>
<trkpt lat="48.896648406982" lon="2.6437618732452"><ele></ele><time>2025-5-17T5:52:29Z</time></trkpt>
<trkpt lat="48.896678924561" lon="2.6438746452332"><ele></ele><time>2025-5-17T5:52:32Z</time></trkpt>
<trkpt lat="48.896705627441" lon="2.6439554691315"><ele></ele><time>2025-5-17T5:52:35Z</time></trkpt>
<trkpt lat="48.896781921387" lon="2.6440424919128"><ele></ele><time>2025-5-17T5:52:38Z</time></trkpt>
<trkpt lat="48.896877288818" lon="2.6441192626953"><ele></ele><time>2025-5-17T5:52:41Z</time></trkpt>
<trkpt lat="48.896877288818" lon="2.6441192626953"><ele></ele><time>2025-5-17T5:52:44Z</time></trkpt>
<trkpt lat="48.896877288818" lon="2.6441192626953"><ele></ele><time>2025-5-17T5:52:47Z</time></trkpt>
<trkpt lat="48.896968841553" lon="2.6442461013794"><ele></ele><time>2025-5-17T5:52:50Z</time></trkpt>
<trkpt lat="48.897026062012" lon="2.6443181037903"><ele></ele><time>2025-5-17T5:52:53Z</time></trkpt>
<trkpt lat="48.897064208984" lon="2.6444022655487"><ele></ele><time>2025-5-17T5:52:56Z</time></trkpt>
<trkpt lat="48.897064208984" lon="2.6444022655487"><ele></ele><time>2025-5-17T5:52:59Z</time></trkpt>
<trkpt lat="48.897090911865" lon="2.6444981098175"><ele></ele><time>2025-5-17T5:53:2Z</time></trkpt>
<trkpt lat="48.897121429443" lon="2.6445822715759"><ele></ele><time>2025-5-17T5:53:5Z</time></trkpt>
<trkpt lat="48.897121429443" lon="2.6445822715759"><ele></ele><time>2025-5-17T5:53:8Z</time></trkpt>
<trkpt lat="48.897121429443" lon="2.6445822715759"><ele></ele><time>2025-5-17T5:53:11Z</time></trkpt>
<trkpt lat="48.897186279297" lon="2.644668340683"><ele></ele><time>2025-5-17T5:53:14Z</time></trkpt>
<trkpt lat="48.897243499756" lon="2.6446855068207"><ele></ele><time>2025-5-17T5:53:17Z</time></trkpt>
<trkpt lat="48.897285461426" lon="2.6447625160217"><ele></ele><time>2025-5-17T5:53:20Z</time></trkpt>
<trkpt lat="48.89733505249" lon="2.6449136734009"><ele></ele><time>2025-5-17T5:53:23Z</time></trkpt>
<trkpt lat="48.897350311279" lon="2.6450045108795"><ele></ele><time>2025-5-17T5:53:26Z</time></trkpt>
<trkpt lat="48.897350311279" lon="2.6450045108795"><ele></ele><time>2025-5-17T5:53:29Z</time></trkpt>
<trkpt lat="48.897361755371" lon="2.6451208591461"><ele></ele><time>2025-5-17T5:53:32Z</time></trkpt>
<trkpt lat="48.897373199463" lon="2.645229101181"><ele></ele><time>2025-5-17T5:53:35Z</time></trkpt>
<trkpt lat="48.89737701416" lon="2.6453371047974"><ele></ele><time>2025-5-17T5:53:38Z</time></trkpt>
<trkpt lat="48.89737701416" lon="2.6453371047974"><ele></ele><time>2025-5-17T5:53:41Z</time></trkpt>
<trkpt lat="48.89737701416" lon="2.6453371047974"><ele></ele><time>2025-5-17T5:53:44Z</time></trkpt>
<trkpt lat="48.897411346436" lon="2.6455273628235"><ele></ele><time>2025-5-17T5:53:47Z</time></trkpt>
<trkpt lat="48.897422790527" lon="2.6456561088562"><ele></ele><time>2025-5-17T5:53:50Z</time></trkpt>
<trkpt lat="48.897407531738" lon="2.6457941532135"><ele></ele><time>2025-5-17T5:53:53Z</time></trkpt>
<trkpt lat="48.897399902344" lon="2.6459102630615"><ele></ele><time>2025-5-17T5:53:56Z</time></trkpt>
<trkpt lat="48.897399902344" lon="2.6459102630615"><ele></ele><time>2025-5-17T5:53:59Z</time></trkpt>
<trkpt lat="48.897403717041" lon="2.6460158824921"><ele></ele><time>2025-5-17T5:54:2Z</time></trkpt>
<trkpt lat="48.897426605225" lon="2.6460967063904"><ele></ele><time>2025-5-17T5:54:5Z</time></trkpt>
<trkpt lat="48.897426605225" lon="2.6460967063904"><ele></ele><time>2025-5-17T5:54:8Z</time></trkpt>
<trkpt lat="48.897426605225" lon="2.6460967063904"><ele></ele><time>2025-5-17T5:54:11Z</time></trkpt>
<trkpt lat="48.897514343262" lon="2.6462223529816"><ele></ele><time>2025-5-17T5:54:14Z</time></trkpt>
<trkpt lat="48.897583007812" lon="2.6463122367859"><ele></ele><time>2025-5-17T5:54:17Z</time></trkpt>
<trkpt lat="48.897674560547" lon="2.6464085578918"><ele></ele><time>2025-5-17T5:54:20Z</time></trkpt>
<trkpt lat="48.897674560547" lon="2.6464085578918"><ele></ele><time>2025-5-17T5:54:23Z</time></trkpt>
<trkpt lat="48.897754669189" lon="2.6464743614197"><ele></ele><time>2025-5-17T5:54:26Z</time></trkpt>
<trkpt lat="48.897834777832" lon="2.6465380191803"><ele></ele><time>2025-5-17T5:54:29Z</time></trkpt>
<trkpt lat="48.897914886475" lon="2.6466121673584"><ele></ele><time>2025-5-17T5:54:32Z</time></trkpt>
<trkpt lat="48.897914886475" lon="2.6466121673584"><ele></ele><time>2025-5-17T5:54:35Z</time></trkpt>
<trkpt lat="48.897994995117" lon="2.6467099189758"><ele></ele><time>2025-5-17T5:54:38Z</time></trkpt>
<trkpt lat="48.898063659668" lon="2.6467981338501"><ele></ele><time>2025-5-17T5:54:41Z</time></trkpt>
<trkpt lat="48.898139953613" lon="2.6468889713287"><ele></ele><time>2025-5-17T5:54:44Z</time></trkpt>
<trkpt lat="48.898139953613" lon="2.6468889713287"><ele></ele><time>2025-5-17T5:54:47Z</time></trkpt>
<trkpt lat="48.898220062256" lon="2.6469795703888"><ele></ele><time>2025-5-17T5:54:50Z</time></trkpt>
<trkpt lat="48.898292541504" lon="2.6470675468445"><ele></ele><time>2025-5-17T5:54:53Z</time></trkpt>
<trkpt lat="48.898368835449" lon="2.6471486091614"><ele></ele><time>2025-5-17T5:54:56Z</time></trkpt>
<trkpt lat="48.898368835449" lon="2.6471486091614"><ele></ele><time>2025-5-17T5:54:59Z</time></trkpt>
<trkpt lat="48.898441314697" lon="2.647233247757"><ele></ele><time>2025-5-17T5:55:2Z</time></trkpt>
<trkpt lat="48.898525238037" lon="2.6473324298859"><ele></ele><time>2025-5-17T5:55:5Z</time></trkpt>
<trkpt lat="48.898616790771" lon="2.6474373340607"><ele></ele><time>2025-5-17T5:55:8Z</time></trkpt>
<trkpt lat="48.898696899414" lon="2.6475167274475"><ele></ele><time>2025-5-17T5:55:11Z</time></trkpt>
<trkpt lat="48.898777008057" lon="2.6476027965546"><ele></ele><time>2025-5-17T5:55:14Z</time></trkpt>
<trkpt lat="48.898777008057" lon="2.6476027965546"><ele></ele><time>2025-5-17T5:55:17Z</time></trkpt>
<trkpt lat="48.89884185791" lon="2.6476852893829"><ele></ele><time>2025-5-17T5:55:20Z</time></trkpt>
<trkpt lat="48.898914337158" lon="2.6477687358856"><ele></ele><time>2025-5-17T5:55:23Z</time></trkpt>
<trkpt lat="48.898979187012" lon="2.6478397846222"><ele></ele><time>2025-5-17T5:55:26Z</time></trkpt>
<trkpt lat="48.898979187012" lon="2.6478397846222"><ele></ele><time>2025-5-17T5:55:29Z</time></trkpt>
<trkpt lat="48.899059295654" lon="2.6479110717773"><ele></ele><time>2025-5-17T5:55:32Z</time></trkpt>
<trkpt lat="48.899139404297" lon="2.6479887962341"><ele></ele><time>2025-5-17T5:55:35Z</time></trkpt>
<trkpt lat="48.899211883545" lon="2.6480560302734"><ele></ele><time>2025-5-17T5:55:38Z</time></trkpt>
<trkpt lat="48.899211883545" lon="2.6480560302734"><ele></ele><time>2025-5-17T5:55:41Z</time></trkpt>
<trkpt lat="48.899211883545" lon="2.6480560302734"><ele></ele><time>2025-5-17T5:55:44Z</time></trkpt>
<trkpt lat="48.899345397949" lon="2.6481745243073"><ele></ele><time>2025-5-17T5:55:47Z</time></trkpt>
<trkpt lat="48.899417877197" lon="2.6482048034668"><ele></ele><time>2025-5-17T5:55:50Z</time></trkpt>
<trkpt lat="48.899417877197" lon="2.6482048034668"><ele></ele><time>2025-5-17T5:55:53Z</time></trkpt>
<trkpt lat="48.899505615234" lon="2.6482429504395"><ele></ele><time>2025-5-17T5:55:56Z</time></trkpt>
<trkpt lat="48.899600982666" lon="2.6482708454132"><ele></ele><time>2025-5-17T5:55:59Z</time></trkpt>
<trkpt lat="48.8996925354" lon="2.6482882499695"><ele></ele><time>2025-5-17T5:56:2Z</time></trkpt>
<trkpt lat="48.8996925354" lon="2.6482882499695"><ele></ele><time>2025-5-17T5:56:5Z</time></trkpt>
<trkpt lat="48.899799346924" lon="2.6483061313629"><ele></ele><time>2025-5-17T5:56:8Z</time></trkpt>
<trkpt lat="48.899906158447" lon="2.6483042240143"><ele></ele><time>2025-5-17T5:56:11Z</time></trkpt>
<trkpt lat="48.899993896484" lon="2.6482865810394"><ele></ele><time>2025-5-17T5:56:14Z</time></trkpt>
<trkpt lat="48.899993896484" lon="2.6482865810394"><ele></ele><time>2025-5-17T5:56:17Z</time></trkpt>
<trkpt lat="48.90007019043" lon="2.6482758522034"><ele></ele><time>2025-5-17T5:56:20Z</time></trkpt>
<trkpt lat="48.900131225586" lon="2.6482656002045"><ele></ele><time>2025-5-17T5:56:23Z</time></trkpt>
<trkpt lat="48.900192260742" lon="2.6482648849487"><ele></ele><time>2025-5-17T5:56:26Z</time></trkpt>
<trkpt lat="48.900253295898" lon="2.6482656002045"><ele></ele><time>2025-5-17T5:56:29Z</time></trkpt>
<trkpt lat="48.900321960449" lon="2.6482598781586"><ele></ele><time>2025-5-17T5:56:32Z</time></trkpt>
<trkpt lat="48.900321960449" lon="2.6482598781586"><ele></ele><time>2025-5-17T5:56:35Z</time></trkpt>
<trkpt lat="48.900421142578" lon="2.6482603549957"><ele></ele><time>2025-5-17T5:56:38Z</time></trkpt>
<trkpt lat="48.900508880615" lon="2.6482691764832"><ele></ele><time>2025-5-17T5:56:41Z</time></trkpt>
<trkpt lat="48.900592803955" lon="2.6482899188995"><ele></ele><time>2025-5-17T5:56:44Z</time></trkpt>
<trkpt lat="48.900592803955" lon="2.6482899188995"><ele></ele><time>2025-5-17T5:56:47Z</time></trkpt>
<trkpt lat="48.900657653809" lon="2.6483166217804"><ele></ele><time>2025-5-17T5:56:50Z</time></trkpt>
<trkpt lat="48.900768280029" lon="2.6483654975891"><ele></ele><time>2025-5-17T5:56:53Z</time></trkpt>
<trkpt lat="48.900768280029" lon="2.6483654975891"><ele></ele><time>2025-5-17T5:56:56Z</time></trkpt>
<trkpt lat="48.90083694458" lon="2.6483924388885"><ele></ele><time>2025-5-17T5:56:59Z</time></trkpt>
<trkpt lat="48.900901794434" lon="2.6484291553497"><ele></ele><time>2025-5-17T5:57:2Z</time></trkpt>
<trkpt lat="48.900978088379" lon="2.6484708786011"><ele></ele><time>2025-5-17T5:57:5Z</time></trkpt>
<trkpt lat="48.900978088379" lon="2.6484708786011"><ele></ele><time>2025-5-17T5:57:8Z</time></trkpt>
<trkpt lat="48.901065826416" lon="2.6485238075256"><ele></ele><time>2025-5-17T5:57:11Z</time></trkpt>
<trkpt lat="48.901145935059" lon="2.6485753059387"><ele></ele><time>2025-5-17T5:57:14Z</time></trkpt>
<trkpt lat="48.901218414307" lon="2.648636341095"><ele></ele><time>2025-5-17T5:57:17Z</time></trkpt>
<trkpt lat="48.901218414307" lon="2.648636341095"><ele></ele><time>2025-5-17T5:57:20Z</time></trkpt>
<trkpt lat="48.901279449463" lon="2.6486883163452"><ele></ele><time>2025-5-17T5:57:23Z</time></trkpt>
<trkpt lat="48.901374816895" lon="2.6487703323364"><ele></ele><time>2025-5-17T5:57:26Z</time></trkpt>
<trkpt lat="48.901374816895" lon="2.6487703323364"><ele></ele><time>2025-5-17T5:57:29Z</time></trkpt>
<trkpt lat="48.901420593262" lon="2.648827791214"><ele></ele><time>2025-5-17T5:57:32Z</time></trkpt>
<trkpt lat="48.901420593262" lon="2.648827791214"><ele></ele><time>2025-5-17T5:57:35Z</time></trkpt>
<trkpt lat="48.901420593262" lon="2.648827791214"><ele></ele><time>2025-5-17T5:57:38Z</time></trkpt>
<trkpt lat="48.901420593262" lon="2.648827791214"><ele></ele><time>2025-5-17T5:57:41Z</time></trkpt>
<trkpt lat="48.901561737061" lon="2.6489763259888"><ele></ele><time>2025-5-17T5:57:44Z</time></trkpt>
<trkpt lat="48.901561737061" lon="2.6489763259888"><ele></ele><time>2025-5-17T5:57:47Z</time></trkpt>
<trkpt lat="48.901653289795" lon="2.6490459442139"><ele></ele><time>2025-5-17T5:57:50Z</time></trkpt>
<trkpt lat="48.901702880859" lon="2.649097442627"><ele></ele><time>2025-5-17T5:57:53Z</time></trkpt>
<trkpt lat="48.901702880859" lon="2.649097442627"><ele></ele><time>2025-5-17T5:57:56Z</time></trkpt>
<trkpt lat="48.901790618896" lon="2.6492173671722"><ele></ele><time>2025-5-17T5:57:59Z</time></trkpt>
<trkpt lat="48.901836395264" lon="2.6492764949799"><ele></ele><time>2025-5-17T5:58:2Z</time></trkpt>
<trkpt lat="48.901836395264" lon="2.6492764949799"><ele></ele><time>2025-5-17T5:58:5Z</time></trkpt>
<trkpt lat="48.901912689209" lon="2.6493661403656"><ele></ele><time>2025-5-17T5:58:8Z</time></trkpt>
<trkpt lat="48.901977539062" lon="2.6494226455688"><ele></ele><time>2025-5-17T5:58:11Z</time></trkpt>
<trkpt lat="48.901977539062" lon="2.6494226455688"><ele></ele><time>2025-5-17T5:58:14Z</time></trkpt>
<trkpt lat="48.902038574219" lon="2.6494753360748"><ele></ele><time>2025-5-17T5:58:17Z</time></trkpt>
<trkpt lat="48.90209197998" lon="2.6495349407196"><ele></ele><time>2025-5-17T5:58:20Z</time></trkpt>
<trkpt lat="48.902145385742" lon="2.6495988368988"><ele></ele><time>2025-5-17T5:58:23Z</time></trkpt>
<trkpt lat="48.902145385742" lon="2.6495988368988"><ele></ele><time>2025-5-17T5:58:26Z</time></trkpt>
<trkpt lat="48.902194976807" lon="2.6496505737305"><ele></ele><time>2025-5-17T5:58:29Z</time></trkpt>
<trkpt lat="48.902248382568" lon="2.6497123241425"><ele></ele><time>2025-5-17T5:58:32Z</time></trkpt>
<trkpt lat="48.902305603027" lon="2.6497721672058"><ele></ele><time>2025-5-17T5:58:35Z</time></trkpt>
<trkpt lat="48.902305603027" lon="2.6497721672058"><ele></ele><time>2025-5-17T5:58:38Z</time></trkpt>
<trkpt lat="48.902370452881" lon="2.6498401165009"><ele></ele><time>2025-5-17T5:58:41Z</time></trkpt>
<trkpt lat="48.902423858643" lon="2.6499035358429"><ele></ele><time>2025-5-17T5:58:44Z</time></trkpt>
<trkpt lat="48.902477264404" lon="2.6499674320221"><ele></ele><time>2025-5-17T5:58:47Z</time></trkpt>
<trkpt lat="48.902542114258" lon="2.6500437259674"><ele></ele><time>2025-5-17T5:58:50Z</time></trkpt>
<trkpt lat="48.902591705322" lon="2.6501038074493"><ele></ele><time>2025-5-17T5:58:53Z</time></trkpt>
<trkpt lat="48.902645111084" lon="2.6501822471619"><ele></ele><time>2025-5-17T5:58:56Z</time></trkpt>
<trkpt lat="48.902645111084" lon="2.6501822471619"><ele></ele><time>2025-5-17T5:58:59Z</time></trkpt>
<trkpt lat="48.902709960938" lon="2.6502816677094"><ele></ele><time>2025-5-17T5:59:2Z</time></trkpt>
<trkpt lat="48.902767181396" lon="2.6503753662109"><ele></ele><time>2025-5-17T5:59:5Z</time></trkpt>
<trkpt lat="48.902824401855" lon="2.6504731178284"><ele></ele><time>2025-5-17T5:59:8Z</time></trkpt>
<trkpt lat="48.902824401855" lon="2.6504731178284"><ele></ele><time>2025-5-17T5:59:11Z</time></trkpt>
<trkpt lat="48.902885437012" lon="2.6505854129791"><ele></ele><time>2025-5-17T5:59:14Z</time></trkpt>
<trkpt lat="48.902946472168" lon="2.6506969928741"><ele></ele><time>2025-5-17T5:59:17Z</time></trkpt>
<trkpt lat="48.903003692627" lon="2.6508042812347"><ele></ele><time>2025-5-17T5:59:20Z</time></trkpt>
<trkpt lat="48.903003692627" lon="2.6508042812347"><ele></ele><time>2025-5-17T5:59:23Z</time></trkpt>
<trkpt lat="48.903064727783" lon="2.6509289741516"><ele></ele><time>2025-5-17T5:59:26Z</time></trkpt>
<trkpt lat="48.903133392334" lon="2.6510548591614"><ele></ele><time>2025-5-17T5:59:29Z</time></trkpt>
<trkpt lat="48.903179168701" lon="2.6511600017548"><ele></ele><time>2025-5-17T5:59:32Z</time></trkpt>
<trkpt lat="48.903179168701" lon="2.6511600017548"><ele></ele><time>2025-5-17T5:59:35Z</time></trkpt>
<trkpt lat="48.903224945068" lon="2.651270866394"><ele></ele><time>2025-5-17T5:59:38Z</time></trkpt>
<trkpt lat="48.903274536133" lon="2.6513893604279"><ele></ele><time>2025-5-17T5:59:41Z</time></trkpt>
<trkpt lat="48.903335571289" lon="2.6515085697174"><ele></ele><time>2025-5-17T5:59:44Z</time></trkpt>
<trkpt lat="48.903335571289" lon="2.6515085697174"><ele></ele><time>2025-5-17T5:59:47Z</time></trkpt>
<trkpt lat="48.903396606445" lon="2.6516194343567"><ele></ele><time>2025-5-17T5:59:50Z</time></trkpt>
<trkpt lat="48.903457641602" lon="2.6517250537872"><ele></ele><time>2025-5-17T5:59:53Z</time></trkpt>
<trkpt lat="48.903518676758" lon="2.6518235206604"><ele></ele><time>2025-5-17T5:59:56Z</time></trkpt>
<trkpt lat="48.903587341309" lon="2.6519157886505"><ele></ele><time>2025-5-17T5:59:59Z</time></trkpt>
<trkpt lat="48.903663635254" lon="2.6519982814789"><ele></ele><time>2025-5-17T6:0:2Z</time></trkpt>
<trkpt lat="48.903743743896" lon="2.6520771980286"><ele></ele><time>2025-5-17T6:0:5Z</time></trkpt>
<trkpt lat="48.903827667236" lon="2.6521687507629"><ele></ele><time>2025-5-17T6:0:8Z</time></trkpt>
<trkpt lat="48.903911590576" lon="2.6522614955902"><ele></ele><time>2025-5-17T6:0:11Z</time></trkpt>
<trkpt lat="48.903987884521" lon="2.6523325443268"><ele></ele><time>2025-5-17T6:0:14Z</time></trkpt>
<trkpt lat="48.904075622559" lon="2.6523923873901"><ele></ele><time>2025-5-17T6:0:17Z</time></trkpt>
<trkpt lat="48.904163360596" lon="2.6524403095245"><ele></ele><time>2025-5-17T6:0:20Z</time></trkpt>
<trkpt lat="48.904251098633" lon="2.6524934768677"><ele></ele><time>2025-5-17T6:0:23Z</time></trkpt>
<trkpt lat="48.904327392578" lon="2.6525542736053"><ele></ele><time>2025-5-17T6:0:26Z</time></trkpt>
<trkpt lat="48.904327392578" lon="2.6525542736053"><ele></ele><time>2025-5-17T6:0:29Z</time></trkpt>
<trkpt lat="48.904411315918" lon="2.6526253223419"><ele></ele><time>2025-5-17T6:0:32Z</time></trkpt>
<trkpt lat="48.904499053955" lon="2.6526947021484"><ele></ele><time>2025-5-17T6:0:35Z</time></trkpt>
<trkpt lat="48.904586791992" lon="2.6527624130249"><ele></ele><time>2025-5-17T6:0:38Z</time></trkpt>
<trkpt lat="48.904678344727" lon="2.6528346538544"><ele></ele><time>2025-5-17T6:0:41Z</time></trkpt>
<trkpt lat="48.904766082764" lon="2.652909040451"><ele></ele><time>2025-5-17T6:0:44Z</time></trkpt>
<trkpt lat="48.904842376709" lon="2.6529846191406"><ele></ele><time>2025-5-17T6:0:47Z</time></trkpt>
<trkpt lat="48.904930114746" lon="2.6530628204346"><ele></ele><time>2025-5-17T6:0:50Z</time></trkpt>
<trkpt lat="48.905010223389" lon="2.6531434059143"><ele></ele><time>2025-5-17T6:0:53Z</time></trkpt>
<trkpt lat="48.905010223389" lon="2.6531434059143"><ele></ele><time>2025-5-17T6:0:56Z</time></trkpt>
<trkpt lat="48.905090332031" lon="2.6532244682312"><ele></ele><time>2025-5-17T6:0:59Z</time></trkpt>
<trkpt lat="48.905166625977" lon="2.6533000469208"><ele></ele><time>2025-5-17T6:1:2Z</time></trkpt>
<trkpt lat="48.905242919922" lon="2.6533739566803"><ele></ele><time>2025-5-17T6:1:5Z</time></trkpt>
<trkpt lat="48.905330657959" lon="2.6534540653229"><ele></ele><time>2025-5-17T6:1:8Z</time></trkpt>
<trkpt lat="48.905414581299" lon="2.6535422801971"><ele></ele><time>2025-5-17T6:1:11Z</time></trkpt>
<trkpt lat="48.905475616455" lon="2.6536161899567"><ele></ele><time>2025-5-17T6:1:14Z</time></trkpt>
<trkpt lat="48.905544281006" lon="2.6536903381348"><ele></ele><time>2025-5-17T6:1:17Z</time></trkpt>
<trkpt lat="48.905624389648" lon="2.6537652015686"><ele></ele><time>2025-5-17T6:1:20Z</time></trkpt>
<trkpt lat="48.905624389648" lon="2.6537652015686"><ele></ele><time>2025-5-17T6:1:23Z</time></trkpt>
<trkpt lat="48.905696868896" lon="2.6538345813751"><ele></ele><time>2025-5-17T6:1:26Z</time></trkpt>
<trkpt lat="48.905769348145" lon="2.6539089679718"><ele></ele><time>2025-5-17T6:1:29Z</time></trkpt>
<trkpt lat="48.905830383301" lon="2.653975725174"><ele></ele><time>2025-5-17T6:1:32Z</time></trkpt>
<trkpt lat="48.905895233154" lon="2.6540544033051"><ele></ele><time>2025-5-17T6:1:35Z</time></trkpt>
<trkpt lat="48.905967712402" lon="2.6541345119476"><ele></ele><time>2025-5-17T6:1:38Z</time></trkpt>
<trkpt lat="48.90604019165" lon="2.6542108058929"><ele></ele><time>2025-5-17T6:1:41Z</time></trkpt>
<trkpt lat="48.906101226807" lon="2.6542825698853"><ele></ele><time>2025-5-17T6:1:44Z</time></trkpt>
<trkpt lat="48.906173706055" lon="2.6543719768524"><ele></ele><time>2025-5-17T6:1:47Z</time></trkpt>
<trkpt lat="48.906242370605" lon="2.6544432640076"><ele></ele><time>2025-5-17T6:1:50Z</time></trkpt>
<trkpt lat="48.906303405762" lon="2.6545026302338"><ele></ele><time>2025-5-17T6:1:53Z</time></trkpt>
<trkpt lat="48.906368255615" lon="2.6545650959015"><ele></ele><time>2025-5-17T6:1:56Z</time></trkpt>
<trkpt lat="48.906433105469" lon="2.6546318531036"><ele></ele><time>2025-5-17T6:1:59Z</time></trkpt>
<trkpt lat="48.906509399414" lon="2.6546981334686"><ele></ele><time>2025-5-17T6:2:2Z</time></trkpt>
<trkpt lat="48.906585693359" lon="2.6547684669495"><ele></ele><time>2025-5-17T6:2:5Z</time></trkpt>
<trkpt lat="48.906646728516" lon="2.6548235416412"><ele></ele><time>2025-5-17T6:2:8Z</time></trkpt>
<trkpt lat="48.90669631958" lon="2.6548774242401"><ele></ele><time>2025-5-17T6:2:11Z</time></trkpt>
<trkpt lat="48.906757354736" lon="2.6549386978149"><ele></ele><time>2025-5-17T6:2:14Z</time></trkpt>
<trkpt lat="48.90682220459" lon="2.6549892425537"><ele></ele><time>2025-5-17T6:2:17Z</time></trkpt>
<trkpt lat="48.906890869141" lon="2.655041217804"><ele></ele><time>2025-5-17T6:2:20Z</time></trkpt>
<trkpt lat="48.906970977783" lon="2.6551005840302"><ele></ele><time>2025-5-17T6:2:23Z</time></trkpt>
<trkpt lat="48.906970977783" lon="2.6551005840302"><ele></ele><time>2025-5-17T6:2:26Z</time></trkpt>
<trkpt lat="48.907062530518" lon="2.6551632881165"><ele></ele><time>2025-5-17T6:2:29Z</time></trkpt>
<trkpt lat="48.907154083252" lon="2.6552157402039"><ele></ele><time>2025-5-17T6:2:32Z</time></trkpt>
<trkpt lat="48.907245635986" lon="2.6552641391754"><ele></ele><time>2025-5-17T6:2:35Z</time></trkpt>
<trkpt lat="48.907245635986" lon="2.6552641391754"><ele></ele><time>2025-5-17T6:2:38Z</time></trkpt>
<trkpt lat="48.907337188721" lon="2.6553156375885"><ele></ele><time>2025-5-17T6:2:41Z</time></trkpt>
<trkpt lat="48.907417297363" lon="2.6553556919098"><ele></ele><time>2025-5-17T6:2:44Z</time></trkpt>
<trkpt lat="48.9075050354" lon="2.6554002761841"><ele></ele><time>2025-5-17T6:2:47Z</time></trkpt>
<trkpt lat="48.9075050354" lon="2.6554002761841"><ele></ele><time>2025-5-17T6:2:50Z</time></trkpt>
<trkpt lat="48.907592773438" lon="2.6554443836212"><ele></ele><time>2025-5-17T6:2:53Z</time></trkpt>
<trkpt lat="48.90767288208" lon="2.6554834842682"><ele></ele><time>2025-5-17T6:2:56Z</time></trkpt>
<trkpt lat="48.907745361328" lon="2.6555182933807"><ele></ele><time>2025-5-17T6:2:59Z</time></trkpt>
<trkpt lat="48.907745361328" lon="2.6555182933807"><ele></ele><time>2025-5-17T6:3:2Z</time></trkpt>
<trkpt lat="48.907806396484" lon="2.6555495262146"><ele></ele><time>2025-5-17T6:3:5Z</time></trkpt>
<trkpt lat="48.907806396484" lon="2.6555495262146"><ele></ele><time>2025-5-17T6:3:8Z</time></trkpt>
<trkpt lat="48.907886505127" lon="2.6555891036987"><ele></ele><time>2025-5-17T6:3:11Z</time></trkpt>
<trkpt lat="48.907886505127" lon="2.6555891036987"><ele></ele><time>2025-5-17T6:3:14Z</time></trkpt>
<trkpt lat="48.907886505127" lon="2.6555891036987"><ele></ele><time>2025-5-17T6:3:17Z</time></trkpt>
<trkpt lat="48.907886505127" lon="2.6555891036987"><ele></ele><time>2025-5-17T6:3:20Z</time></trkpt>
<trkpt lat="48.907932281494" lon="2.6556453704834"><ele></ele><time>2025-5-17T6:3:23Z</time></trkpt>
<trkpt lat="48.907932281494" lon="2.6556453704834"><ele></ele><time>2025-5-17T6:3:26Z</time></trkpt>
<trkpt lat="48.907932281494" lon="2.6556453704834"><ele></ele><time>2025-5-17T6:3:29Z</time></trkpt>
<trkpt lat="48.908023834229" lon="2.6556406021118"><ele></ele><time>2025-5-17T6:3:32Z</time></trkpt>
<trkpt lat="48.908023834229" lon="2.6556406021118"><ele></ele><time>2025-5-17T6:3:35Z</time></trkpt>
<trkpt lat="48.908096313477" lon="2.6556627750397"><ele></ele><time>2025-5-17T6:3:38Z</time></trkpt>
<trkpt lat="48.908172607422" lon="2.6557030677795"><ele></ele><time>2025-5-17T6:3:41Z</time></trkpt>
<trkpt lat="48.90824508667" lon="2.6557321548462"><ele></ele><time>2025-5-17T6:3:44Z</time></trkpt>
<trkpt lat="48.90824508667" lon="2.6557321548462"><ele></ele><time>2025-5-17T6:3:47Z</time></trkpt>
<trkpt lat="48.90832901001" lon="2.6557810306549"><ele></ele><time>2025-5-17T6:3:50Z</time></trkpt>
<trkpt lat="48.908393859863" lon="2.6558229923248"><ele></ele><time>2025-5-17T6:3:53Z</time></trkpt>
<trkpt lat="48.908473968506" lon="2.6558606624603"><ele></ele><time>2025-5-17T6:3:56Z</time></trkpt>
<trkpt lat="48.908546447754" lon="2.6558949947357"><ele></ele><time>2025-5-17T6:3:59Z</time></trkpt>
<trkpt lat="48.908618927002" lon="2.6559348106384"><ele></ele><time>2025-5-17T6:4:2Z</time></trkpt>
<trkpt lat="48.908618927002" lon="2.6559348106384"><ele></ele><time>2025-5-17T6:4:5Z</time></trkpt>
<trkpt lat="48.908676147461" lon="2.6559638977051"><ele></ele><time>2025-5-17T6:4:8Z</time></trkpt>
<trkpt lat="48.90873336792" lon="2.6559915542603"><ele></ele><time>2025-5-17T6:4:11Z</time></trkpt>
<trkpt lat="48.90873336792" lon="2.6559915542603"><ele></ele><time>2025-5-17T6:4:14Z</time></trkpt>
<trkpt lat="48.90873336792" lon="2.6559915542603"><ele></ele><time>2025-5-17T6:4:17Z</time></trkpt>
<trkpt lat="48.908851623535" lon="2.6560397148132"><ele></ele><time>2025-5-17T6:4:20Z</time></trkpt>
<trkpt lat="48.908916473389" lon="2.6560697555542"><ele></ele><time>2025-5-17T6:4:23Z</time></trkpt>
<trkpt lat="48.908981323242" lon="2.6561036109924"><ele></ele><time>2025-5-17T6:4:26Z</time></trkpt>
<trkpt lat="48.908981323242" lon="2.6561036109924"><ele></ele><time>2025-5-17T6:4:29Z</time></trkpt>
<trkpt lat="48.909049987793" lon="2.6561391353607"><ele></ele><time>2025-5-17T6:4:32Z</time></trkpt>
<trkpt lat="48.909118652344" lon="2.6561675071716"><ele></ele><time>2025-5-17T6:4:35Z</time></trkpt>
<trkpt lat="48.9091796875" lon="2.6561954021454"><ele></ele><time>2025-5-17T6:4:38Z</time></trkpt>
<trkpt lat="48.909240722656" lon="2.6562280654907"><ele></ele><time>2025-5-17T6:4:41Z</time></trkpt>
<trkpt lat="48.909297943115" lon="2.6562650203705"><ele></ele><time>2025-5-17T6:4:44Z</time></trkpt>
<trkpt lat="48.909297943115" lon="2.6562650203705"><ele></ele><time>2025-5-17T6:4:47Z</time></trkpt>
<trkpt lat="48.909355163574" lon="2.6563086509705"><ele></ele><time>2025-5-17T6:4:50Z</time></trkpt>
<trkpt lat="48.909408569336" lon="2.6563541889191"><ele></ele><time>2025-5-17T6:4:53Z</time></trkpt>
<trkpt lat="48.909469604492" lon="2.6564040184021"><ele></ele><time>2025-5-17T6:4:56Z</time></trkpt>
<trkpt lat="48.909469604492" lon="2.6564040184021"><ele></ele><time>2025-5-17T6:4:59Z</time></trkpt>
<trkpt lat="48.909530639648" lon="2.6564540863037"><ele></ele><time>2025-5-17T6:5:2Z</time></trkpt>
<trkpt lat="48.90958404541" lon="2.656494140625"><ele></ele><time>2025-5-17T6:5:5Z</time></trkpt>
<trkpt lat="48.90958404541" lon="2.656494140625"><ele></ele><time>2025-5-17T6:5:8Z</time></trkpt>
<trkpt lat="48.90958404541" lon="2.656494140625"><ele></ele><time>2025-5-17T6:5:11Z</time></trkpt>
<trkpt lat="48.909679412842" lon="2.6565861701965"><ele></ele><time>2025-5-17T6:5:14Z</time></trkpt>
<trkpt lat="48.909740447998" lon="2.6566424369812"><ele></ele><time>2025-5-17T6:5:17Z</time></trkpt>
<trkpt lat="48.909797668457" lon="2.6567034721375"><ele></ele><time>2025-5-17T6:5:20Z</time></trkpt>
<trkpt lat="48.909797668457" lon="2.6567034721375"><ele></ele><time>2025-5-17T6:5:23Z</time></trkpt>
<trkpt lat="48.909854888916" lon="2.656759262085"><ele></ele><time>2025-5-17T6:5:26Z</time></trkpt>
<trkpt lat="48.909908294678" lon="2.6568167209625"><ele></ele><time>2025-5-17T6:5:29Z</time></trkpt>
<trkpt lat="48.909969329834" lon="2.6568751335144"><ele></ele><time>2025-5-17T6:5:32Z</time></trkpt>
<trkpt lat="48.909969329834" lon="2.6568751335144"><ele></ele><time>2025-5-17T6:5:35Z</time></trkpt>
<trkpt lat="48.91003036499" lon="2.6569292545319"><ele></ele><time>2025-5-17T6:5:38Z</time></trkpt>
<trkpt lat="48.910091400146" lon="2.6569838523865"><ele></ele><time>2025-5-17T6:5:41Z</time></trkpt>
<trkpt lat="48.910152435303" lon="2.6570363044739"><ele></ele><time>2025-5-17T6:5:44Z</time></trkpt>
<trkpt lat="48.910152435303" lon="2.6570363044739"><ele></ele><time>2025-5-17T6:5:47Z</time></trkpt>
<trkpt lat="48.910209655762" lon="2.6570925712585"><ele></ele><time>2025-5-17T6:5:50Z</time></trkpt>
<trkpt lat="48.910263061523" lon="2.6571445465088"><ele></ele><time>2025-5-17T6:5:53Z</time></trkpt>
<trkpt lat="48.910316467285" lon="2.6572046279907"><ele></ele><time>2025-5-17T6:5:56Z</time></trkpt>
<trkpt lat="48.910316467285" lon="2.6572046279907"><ele></ele><time>2025-5-17T6:5:59Z</time></trkpt>
<trkpt lat="48.910369873047" lon="2.6572668552399"><ele></ele><time>2025-5-17T6:6:2Z</time></trkpt>
<trkpt lat="48.9104347229" lon="2.6573278903961"><ele></ele><time>2025-5-17T6:6:5Z</time></trkpt>
<trkpt lat="48.910503387451" lon="2.657395362854"><ele></ele><time>2025-5-17T6:6:8Z</time></trkpt>
<trkpt lat="48.910503387451" lon="2.657395362854"><ele></ele><time>2025-5-17T6:6:11Z</time></trkpt>
<trkpt lat="48.910572052002" lon="2.6574585437775"><ele></ele><time>2025-5-17T6:6:14Z</time></trkpt>
<trkpt lat="48.910648345947" lon="2.6575262546539"><ele></ele><time>2025-5-17T6:6:17Z</time></trkpt>
<trkpt lat="48.910713195801" lon="2.6575908660889"><ele></ele><time>2025-5-17T6:6:20Z</time></trkpt>
<trkpt lat="48.910713195801" lon="2.6575908660889"><ele></ele><time>2025-5-17T6:6:23Z</time></trkpt>
<trkpt lat="48.910781860352" lon="2.6576662063599"><ele></ele><time>2025-5-17T6:6:26Z</time></trkpt>
<trkpt lat="48.910858154297" lon="2.6577429771423"><ele></ele><time>2025-5-17T6:6:29Z</time></trkpt>
<trkpt lat="48.910926818848" lon="2.6578140258789"><ele></ele><time>2025-5-17T6:6:32Z</time></trkpt>
<trkpt lat="48.910926818848" lon="2.6578140258789"><ele></ele><time>2025-5-17T6:6:35Z</time></trkpt>
<trkpt lat="48.911003112793" lon="2.6578826904297"><ele></ele><time>2025-5-17T6:6:38Z</time></trkpt>
<trkpt lat="48.911079406738" lon="2.6579329967499"><ele></ele><time>2025-5-17T6:6:41Z</time></trkpt>
<trkpt lat="48.911155700684" lon="2.6579780578613"><ele></ele><time>2025-5-17T6:6:44Z</time></trkpt>
<trkpt lat="48.911235809326" lon="2.6580126285553"><ele></ele><time>2025-5-17T6:6:47Z</time></trkpt>
<trkpt lat="48.911323547363" lon="2.6580369472504"><ele></ele><time>2025-5-17T6:6:50Z</time></trkpt>
<trkpt lat="48.911323547363" lon="2.6580369472504"><ele></ele><time>2025-5-17T6:6:53Z</time></trkpt>
<trkpt lat="48.911415100098" lon="2.6580493450165"><ele></ele><time>2025-5-17T6:6:56Z</time></trkpt>
<trkpt lat="48.911518096924" lon="2.6580495834351"><ele></ele><time>2025-5-17T6:6:59Z</time></trkpt>
<trkpt lat="48.911613464355" lon="2.6580448150635"><ele></ele><time>2025-5-17T6:7:2Z</time></trkpt>
<trkpt lat="48.911613464355" lon="2.6580448150635"><ele></ele><time>2025-5-17T6:7:5Z</time></trkpt>
<trkpt lat="48.911689758301" lon="2.6580336093903"><ele></ele><time>2025-5-17T6:7:8Z</time></trkpt>
<trkpt lat="48.911769866943" lon="2.6580243110657"><ele></ele><time>2025-5-17T6:7:11Z</time></trkpt>
<trkpt lat="48.911853790283" lon="2.6580202579498"><ele></ele><time>2025-5-17T6:7:14Z</time></trkpt>
<trkpt lat="48.911853790283" lon="2.6580202579498"><ele></ele><time>2025-5-17T6:7:17Z</time></trkpt>
<trkpt lat="48.911930084229" lon="2.6580216884613"><ele></ele><time>2025-5-17T6:7:20Z</time></trkpt>
<trkpt lat="48.912014007568" lon="2.6580302715302"><ele></ele><time>2025-5-17T6:7:23Z</time></trkpt>
<trkpt lat="48.912086486816" lon="2.6580481529236"><ele></ele><time>2025-5-17T6:7:26Z</time></trkpt>
<trkpt lat="48.912086486816" lon="2.6580481529236"><ele></ele><time>2025-5-17T6:7:29Z</time></trkpt>
<trkpt lat="48.912155151367" lon="2.6580681800842"><ele></ele><time>2025-5-17T6:7:32Z</time></trkpt>
<trkpt lat="48.912227630615" lon="2.6580948829651"><ele></ele><time>2025-5-17T6:7:35Z</time></trkpt>
<trkpt lat="48.912300109863" lon="2.6581184864044"><ele></ele><time>2025-5-17T6:7:38Z</time></trkpt>
<trkpt lat="48.912300109863" lon="2.6581184864044"><ele></ele><time>2025-5-17T6:7:41Z</time></trkpt>
<trkpt lat="48.912384033203" lon="2.6581482887268"><ele></ele><time>2025-5-17T6:7:44Z</time></trkpt>
<trkpt lat="48.912467956543" lon="2.6581792831421"><ele></ele><time>2025-5-17T6:7:47Z</time></trkpt>
<trkpt lat="48.912540435791" lon="2.6582059860229"><ele></ele><time>2025-5-17T6:7:50Z</time></trkpt>
<trkpt lat="48.912540435791" lon="2.6582059860229"><ele></ele><time>2025-5-17T6:7:53Z</time></trkpt>
<trkpt lat="48.91259765625" lon="2.6582248210907"><ele></ele><time>2025-5-17T6:7:56Z</time></trkpt>
<trkpt lat="48.912673950195" lon="2.6582486629486"><ele></ele><time>2025-5-17T6:7:59Z</time></trkpt>
<trkpt lat="48.912738800049" lon="2.6582705974579"><ele></ele><time>2025-5-17T6:8:2Z</time></trkpt>
<trkpt lat="48.912799835205" lon="2.6582903862"><ele></ele><time>2025-5-17T6:8:5Z</time></trkpt>
<trkpt lat="48.912864685059" lon="2.6583170890808"><ele></ele><time>2025-5-17T6:8:8Z</time></trkpt>
<trkpt lat="48.912937164307" lon="2.658344745636"><ele></ele><time>2025-5-17T6:8:11Z</time></trkpt>
<trkpt lat="48.913005828857" lon="2.6583755016327"><ele></ele><time>2025-5-17T6:8:14Z</time></trkpt>
<trkpt lat="48.913070678711" lon="2.6584033966064"><ele></ele><time>2025-5-17T6:8:17Z</time></trkpt>
<trkpt lat="48.913070678711" lon="2.6584033966064"><ele></ele><time>2025-5-17T6:8:20Z</time></trkpt>
<trkpt lat="48.913192749023" lon="2.6584467887878"><ele></ele><time>2025-5-17T6:8:23Z</time></trkpt>
<trkpt lat="48.913249969482" lon="2.6584687232971"><ele></ele><time>2025-5-17T6:8:26Z</time></trkpt>
<trkpt lat="48.913311004639" lon="2.6584842205048"><ele></ele><time>2025-5-17T6:8:29Z</time></trkpt>
<trkpt lat="48.913372039795" lon="2.6585011482239"><ele></ele><time>2025-5-17T6:8:32Z</time></trkpt>
<trkpt lat="48.913372039795" lon="2.6585011482239"><ele></ele><time>2025-5-17T6:8:35Z</time></trkpt>
<trkpt lat="48.913475036621" lon="2.658519744873"><ele></ele><time>2025-5-17T6:8:38Z</time></trkpt>
<trkpt lat="48.913475036621" lon="2.658519744873"><ele></ele><time>2025-5-17T6:8:41Z</time></trkpt>
<trkpt lat="48.913581848145" lon="2.6585550308228"><ele></ele><time>2025-5-17T6:8:44Z</time></trkpt>
<trkpt lat="48.913581848145" lon="2.6585550308228"><ele></ele><time>2025-5-17T6:8:47Z</time></trkpt>
<trkpt lat="48.913681030273" lon="2.658593416214"><ele></ele><time>2025-5-17T6:8:50Z</time></trkpt>
<trkpt lat="48.913738250732" lon="2.6586298942566"><ele></ele><time>2025-5-17T6:8:53Z</time></trkpt>
<trkpt lat="48.913803100586" lon="2.6586785316467"><ele></ele><time>2025-5-17T6:8:56Z</time></trkpt>
<trkpt lat="48.913837432861" lon="2.6588139533997"><ele></ele><time>2025-5-17T6:8:59Z</time></trkpt>
<trkpt lat="48.913833618164" lon="2.6589689254761"><ele></ele><time>2025-5-17T6:9:2Z</time></trkpt>
<trkpt lat="48.913814544678" lon="2.6591081619263"><ele></ele><time>2025-5-17T6:9:5Z</time></trkpt>
<trkpt lat="48.913799285889" lon="2.6592676639557"><ele></ele><time>2025-5-17T6:9:8Z</time></trkpt>
<trkpt lat="48.913776397705" lon="2.659428358078"><ele></ele><time>2025-5-17T6:9:11Z</time></trkpt>
<trkpt lat="48.913753509521" lon="2.6595947742462"><ele></ele><time>2025-5-17T6:9:14Z</time></trkpt>
<trkpt lat="48.913726806641" lon="2.6597807407379"><ele></ele><time>2025-5-17T6:9:17Z</time></trkpt>
<trkpt lat="48.913707733154" lon="2.6599509716034"><ele></ele><time>2025-5-17T6:9:20Z</time></trkpt>
<trkpt lat="48.913688659668" lon="2.6600890159607"><ele></ele><time>2025-5-17T6:9:23Z</time></trkpt>
<trkpt lat="48.913661956787" lon="2.6602246761322"><ele></ele><time>2025-5-17T6:9:26Z</time></trkpt>
<trkpt lat="48.913627624512" lon="2.6603598594666"><ele></ele><time>2025-5-17T6:9:29Z</time></trkpt>
<trkpt lat="48.913600921631" lon="2.6605041027069"><ele></ele><time>2025-5-17T6:9:32Z</time></trkpt>
<trkpt lat="48.913589477539" lon="2.6606178283691"><ele></ele><time>2025-5-17T6:9:35Z</time></trkpt>
<trkpt lat="48.913597106934" lon="2.6607089042664"><ele></ele><time>2025-5-17T6:9:38Z</time></trkpt>
<trkpt lat="48.913597106934" lon="2.6607089042664"><ele></ele><time>2025-5-17T6:9:41Z</time></trkpt>
<trkpt lat="48.913604736328" lon="2.660813331604"><ele></ele><time>2025-5-17T6:9:44Z</time></trkpt>
<trkpt lat="48.913619995117" lon="2.6609301567078"><ele></ele><time>2025-5-17T6:9:47Z</time></trkpt>
<trkpt lat="48.913646697998" lon="2.6610264778137"><ele></ele><time>2025-5-17T6:9:50Z</time></trkpt>
<trkpt lat="48.913646697998" lon="2.6610264778137"><ele></ele><time>2025-5-17T6:9:53Z</time></trkpt>
<trkpt lat="48.913665771484" lon="2.6611104011536"><ele></ele><time>2025-5-17T6:9:56Z</time></trkpt>
<trkpt lat="48.913673400879" lon="2.6612071990967"><ele></ele><time>2025-5-17T6:9:59Z</time></trkpt>
<trkpt lat="48.913673400879" lon="2.6612071990967"><ele></ele><time>2025-5-17T6:10:2Z</time></trkpt>
<trkpt lat="48.913673400879" lon="2.6612071990967"><ele></ele><time>2025-5-17T6:10:5Z</time></trkpt>
<trkpt lat="48.913654327393" lon="2.6613025665283"><ele></ele><time>2025-5-17T6:10:8Z</time></trkpt>
<trkpt lat="48.913654327393" lon="2.6613025665283"><ele></ele><time>2025-5-17T6:10:11Z</time></trkpt>
<trkpt lat="48.913654327393" lon="2.6613025665283"><ele></ele><time>2025-5-17T6:10:14Z</time></trkpt>
<trkpt lat="48.913654327393" lon="2.6613025665283"><ele></ele><time>2025-5-17T6:10:17Z</time></trkpt>
<trkpt lat="48.913654327393" lon="2.6613025665283"><ele></ele><time>2025-5-17T6:10:20Z</time></trkpt>
<trkpt lat="48.913665771484" lon="2.6615550518036"><ele></ele><time>2025-5-17T6:10:23Z</time></trkpt>
<trkpt lat="48.913665771484" lon="2.6615550518036"><ele></ele><time>2025-5-17T6:10:26Z</time></trkpt>
<trkpt lat="48.91365814209" lon="2.6617095470428"><ele></ele><time>2025-5-17T6:10:29Z</time></trkpt>
<trkpt lat="48.91365814209" lon="2.6617095470428"><ele></ele><time>2025-5-17T6:10:32Z</time></trkpt>
<trkpt lat="48.913654327393" lon="2.6618628501892"><ele></ele><time>2025-5-17T6:10:35Z</time></trkpt>
<trkpt lat="48.913654327393" lon="2.661988735199"><ele></ele><time>2025-5-17T6:10:38Z</time></trkpt>
<trkpt lat="48.913654327393" lon="2.661988735199"><ele></ele><time>2025-5-17T6:10:41Z</time></trkpt>
<trkpt lat="48.913654327393" lon="2.661988735199"><ele></ele><time>2025-5-17T6:10:44Z</time></trkpt>
<trkpt lat="48.913654327393" lon="2.662113904953"><ele></ele><time>2025-5-17T6:10:47Z</time></trkpt>
<trkpt lat="48.913654327393" lon="2.662113904953"><ele></ele><time>2025-5-17T6:10:50Z</time></trkpt>
<trkpt lat="48.913654327393" lon="2.662113904953"><ele></ele><time>2025-5-17T6:10:53Z</time></trkpt>
<trkpt lat="48.91365814209" lon="2.6622362136841"><ele></ele><time>2025-5-17T6:10:56Z</time></trkpt>
<trkpt lat="48.91365814209" lon="2.6622362136841"><ele></ele><time>2025-5-17T6:10:59Z</time></trkpt>
<trkpt lat="48.91365814209" lon="2.6622362136841"><ele></ele><time>2025-5-17T6:11:2Z</time></trkpt>
<trkpt lat="48.91365814209" lon="2.6622362136841"><ele></ele><time>2025-5-17T6:11:5Z</time></trkpt>
<trkpt lat="48.913696289062" lon="2.6623349189758"><ele></ele><time>2025-5-17T6:11:8Z</time></trkpt>
<trkpt lat="48.913696289062" lon="2.6623349189758"><ele></ele><time>2025-5-17T6:11:11Z</time></trkpt>
<trkpt lat="48.913696289062" lon="2.6623349189758"><ele></ele><time>2025-5-17T6:11:14Z</time></trkpt>
<trkpt lat="48.913696289062" lon="2.6623349189758"><ele></ele><time>2025-5-17T6:11:17Z</time></trkpt>
<trkpt lat="48.913722991943" lon="2.6624245643616"><ele></ele><time>2025-5-17T6:11:20Z</time></trkpt>
<trkpt lat="48.913722991943" lon="2.6624245643616"><ele></ele><time>2025-5-17T6:11:23Z</time></trkpt>
<trkpt lat="48.913722991943" lon="2.6624245643616"><ele></ele><time>2025-5-17T6:11:26Z</time></trkpt>
<trkpt lat="48.913722991943" lon="2.6624245643616"><ele></ele><time>2025-5-17T6:11:29Z</time></trkpt>
<trkpt lat="48.913749694824" lon="2.6625280380249"><ele></ele><time>2025-5-17T6:11:32Z</time></trkpt>
<trkpt lat="48.913749694824" lon="2.6625280380249"><ele></ele><time>2025-5-17T6:11:35Z</time></trkpt>
<trkpt lat="48.913749694824" lon="2.6625280380249"><ele></ele><time>2025-5-17T6:11:38Z</time></trkpt>
<trkpt lat="48.913749694824" lon="2.6625280380249"><ele></ele><time>2025-5-17T6:11:41Z</time></trkpt>
<trkpt lat="48.913780212402" lon="2.6626124382019"><ele></ele><time>2025-5-17T6:11:44Z</time></trkpt>
<trkpt lat="48.913780212402" lon="2.6626124382019"><ele></ele><time>2025-5-17T6:11:47Z</time></trkpt>
<trkpt lat="48.913780212402" lon="2.6627042293549"><ele></ele><time>2025-5-17T6:11:50Z</time></trkpt>
<trkpt lat="48.913780212402" lon="2.6627042293549"><ele></ele><time>2025-5-17T6:11:53Z</time></trkpt>
<trkpt lat="48.913772583008" lon="2.6628234386444"><ele></ele><time>2025-5-17T6:11:56Z</time></trkpt>
<trkpt lat="48.913772583008" lon="2.6628234386444"><ele></ele><time>2025-5-17T6:11:59Z</time></trkpt>
<trkpt lat="48.913764953613" lon="2.662914276123"><ele></ele><time>2025-5-17T6:12:2Z</time></trkpt>
<trkpt lat="48.913753509521" lon="2.6630036830902"><ele></ele><time>2025-5-17T6:12:5Z</time></trkpt>
<trkpt lat="48.913753509521" lon="2.6630036830902"><ele></ele><time>2025-5-17T6:12:8Z</time></trkpt>
<trkpt lat="48.913753509521" lon="2.6630036830902"><ele></ele><time>2025-5-17T6:12:11Z</time></trkpt>
<trkpt lat="48.913753509521" lon="2.6630964279175"><ele></ele><time>2025-5-17T6:12:14Z</time></trkpt>
<trkpt lat="48.913753509521" lon="2.6630964279175"><ele></ele><time>2025-5-17T6:12:17Z</time></trkpt>
<trkpt lat="48.913753509521" lon="2.6630964279175"><ele></ele><time>2025-5-17T6:12:20Z</time></trkpt>
<trkpt lat="48.913753509521" lon="2.6630964279175"><ele></ele><time>2025-5-17T6:12:23Z</time></trkpt>
<trkpt lat="48.913749694824" lon="2.6632108688354"><ele></ele><time>2025-5-17T6:12:26Z</time></trkpt>
<trkpt lat="48.913749694824" lon="2.6632108688354"><ele></ele><time>2025-5-17T6:12:29Z</time></trkpt>
<trkpt lat="48.913749694824" lon="2.6632108688354"><ele></ele><time>2025-5-17T6:12:32Z</time></trkpt>
<trkpt lat="48.913749694824" lon="2.6632108688354"><ele></ele><time>2025-5-17T6:12:35Z</time></trkpt>
<trkpt lat="48.913749694824" lon="2.6632108688354"><ele></ele><time>2025-5-17T6:12:38Z</time></trkpt>
<trkpt lat="48.913768768311" lon="2.6633186340332"><ele></ele><time>2025-5-17T6:12:41Z</time></trkpt>
<trkpt lat="48.913768768311" lon="2.6633186340332"><ele></ele><time>2025-5-17T6:12:44Z</time></trkpt>
<trkpt lat="48.913768768311" lon="2.6633186340332"><ele></ele><time>2025-5-17T6:12:47Z</time></trkpt>
<trkpt lat="48.913768768311" lon="2.6633186340332"><ele></ele><time>2025-5-17T6:12:50Z</time></trkpt>
<trkpt lat="48.9137840271" lon="2.6634361743927"><ele></ele><time>2025-5-17T6:12:53Z</time></trkpt>
<trkpt lat="48.9137840271" lon="2.6634361743927"><ele></ele><time>2025-5-17T6:12:56Z</time></trkpt>
<trkpt lat="48.9137840271" lon="2.6634361743927"><ele></ele><time>2025-5-17T6:12:59Z</time></trkpt>
<trkpt lat="48.9137840271" lon="2.6634361743927"><ele></ele><time>2025-5-17T6:13:2Z</time></trkpt>
<trkpt lat="48.913795471191" lon="2.6635360717773"><ele></ele><time>2025-5-17T6:13:5Z</time></trkpt>
<trkpt lat="48.913795471191" lon="2.6635360717773"><ele></ele><time>2025-5-17T6:13:8Z</time></trkpt>
<trkpt lat="48.913795471191" lon="2.6635360717773"><ele></ele><time>2025-5-17T6:13:11Z</time></trkpt>
<trkpt lat="48.913795471191" lon="2.6635360717773"><ele></ele><time>2025-5-17T6:13:14Z</time></trkpt>
<trkpt lat="48.913799285889" lon="2.6635944843292"><ele></ele><time>2025-5-17T6:13:17Z</time></trkpt>
<trkpt lat="48.913803100586" lon="2.6636409759521"><ele></ele><time>2025-5-17T6:13:20Z</time></trkpt>
<trkpt lat="48.913803100586" lon="2.6636409759521"><ele></ele><time>2025-5-17T6:13:23Z</time></trkpt>
<trkpt lat="48.913806915283" lon="2.6636881828308"><ele></ele><time>2025-5-17T6:13:26Z</time></trkpt>
<trkpt lat="48.913806915283" lon="2.6636881828308"><ele></ele><time>2025-5-17T6:13:29Z</time></trkpt>
<trkpt lat="48.913814544678" lon="2.6637325286865"><ele></ele><time>2025-5-17T6:13:32Z</time></trkpt>
<trkpt lat="48.913814544678" lon="2.6637325286865"><ele></ele><time>2025-5-17T6:13:35Z</time></trkpt>
<trkpt lat="48.91382598877" lon="2.6637809276581"><ele></ele><time>2025-5-17T6:13:38Z</time></trkpt>
<trkpt lat="48.91382598877" lon="2.6637809276581"><ele></ele><time>2025-5-17T6:13:41Z</time></trkpt>
<trkpt lat="48.91382598877" lon="2.6637809276581"><ele></ele><time>2025-5-17T6:13:44Z</time></trkpt>
<trkpt lat="48.913837432861" lon="2.6638290882111"><ele></ele><time>2025-5-17T6:13:47Z</time></trkpt>
<trkpt lat="48.913837432861" lon="2.6638290882111"><ele></ele><time>2025-5-17T6:13:50Z</time></trkpt>
<trkpt lat="48.913848876953" lon="2.6638886928558"><ele></ele><time>2025-5-17T6:13:53Z</time></trkpt>
<trkpt lat="48.913848876953" lon="2.6638886928558"><ele></ele><time>2025-5-17T6:13:56Z</time></trkpt>
<trkpt lat="48.913856506348" lon="2.6639318466187"><ele></ele><time>2025-5-17T6:13:59Z</time></trkpt>
<trkpt lat="48.913856506348" lon="2.6639318466187"><ele></ele><time>2025-5-17T6:14:2Z</time></trkpt>
<trkpt lat="48.913867950439" lon="2.6639785766602"><ele></ele><time>2025-5-17T6:14:5Z</time></trkpt>
<trkpt lat="48.913867950439" lon="2.6639785766602"><ele></ele><time>2025-5-17T6:14:8Z</time></trkpt>
<trkpt lat="48.913867950439" lon="2.6639785766602"><ele></ele><time>2025-5-17T6:14:11Z</time></trkpt>
<trkpt lat="48.913875579834" lon="2.6640317440033"><ele></ele><time>2025-5-17T6:14:14Z</time></trkpt>
<trkpt lat="48.913883209229" lon="2.6640746593475"><ele></ele><time>2025-5-17T6:14:17Z</time></trkpt>
<trkpt lat="48.913883209229" lon="2.6640746593475"><ele></ele><time>2025-5-17T6:14:20Z</time></trkpt>
<trkpt lat="48.913890838623" lon="2.6641166210175"><ele></ele><time>2025-5-17T6:14:23Z</time></trkpt>
<trkpt lat="48.913890838623" lon="2.6641166210175"><ele></ele><time>2025-5-17T6:14:26Z</time></trkpt>
<trkpt lat="48.913898468018" lon="2.6641693115234"><ele></ele><time>2025-5-17T6:14:29Z</time></trkpt>
<trkpt lat="48.913898468018" lon="2.6641693115234"><ele></ele><time>2025-5-17T6:14:32Z</time></trkpt>
<trkpt lat="48.913898468018" lon="2.6641693115234"><ele></ele><time>2025-5-17T6:14:35Z</time></trkpt>
<trkpt lat="48.913898468018" lon="2.6641693115234"><ele></ele><time>2025-5-17T6:14:38Z</time></trkpt>
<trkpt lat="48.913898468018" lon="2.6641693115234"><ele></ele><time>2025-5-17T6:14:41Z</time></trkpt>
<trkpt lat="48.913951873779" lon="2.6644864082336"><ele></ele><time>2025-5-17T6:14:44Z</time></trkpt>
<trkpt lat="48.913951873779" lon="2.6644864082336"><ele></ele><time>2025-5-17T6:14:47Z</time></trkpt>
<trkpt lat="48.913951873779" lon="2.6644864082336"><ele></ele><time>2025-5-17T6:14:50Z</time></trkpt>
<trkpt lat="48.913951873779" lon="2.6644864082336"><ele></ele><time>2025-5-17T6:14:53Z</time></trkpt>
<trkpt lat="48.913951873779" lon="2.6644864082336"><ele></ele><time>2025-5-17T6:14:56Z</time></trkpt>
<trkpt lat="48.913951873779" lon="2.6644864082336"><ele></ele><time>2025-5-17T6:14:59Z</time></trkpt>
<trkpt lat="48.913951873779" lon="2.6644864082336"><ele></ele><time>2025-5-17T6:15:2Z</time></trkpt>
<trkpt lat="48.913951873779" lon="2.6644864082336"><ele></ele><time>2025-5-17T6:15:5Z</time></trkpt>
<trkpt lat="48.913951873779" lon="2.6644864082336"><ele></ele><time>2025-5-17T6:15:8Z</time></trkpt>
<trkpt lat="48.913951873779" lon="2.6644864082336"><ele></ele><time>2025-5-17T6:15:11Z</time></trkpt>
<trkpt lat="48.913951873779" lon="2.6644864082336"><ele></ele><time>2025-5-17T6:15:14Z</time></trkpt>
<trkpt lat="48.913951873779" lon="2.6644864082336"><ele></ele><time>2025-5-17T6:15:17Z</time></trkpt>
<trkpt lat="48.913951873779" lon="2.6644864082336"><ele></ele><time>2025-5-17T6:15:20Z</time></trkpt>
<trkpt lat="48.914108276367" lon="2.6650831699371"><ele></ele><time>2025-5-17T6:15:23Z</time></trkpt>
<trkpt lat="48.914108276367" lon="2.6650831699371"><ele></ele><time>2025-5-17T6:15:26Z</time></trkpt>
<trkpt lat="48.914138793945" lon="2.6651737689972"><ele></ele><time>2025-5-17T6:15:29Z</time></trkpt>
<trkpt lat="48.914138793945" lon="2.6651737689972"><ele></ele><time>2025-5-17T6:15:32Z</time></trkpt>
<trkpt lat="48.914161682129" lon="2.6652586460114"><ele></ele><time>2025-5-17T6:15:35Z</time></trkpt>
<trkpt lat="48.914161682129" lon="2.6652586460114"><ele></ele><time>2025-5-17T6:15:38Z</time></trkpt>
<trkpt lat="48.914161682129" lon="2.6652586460114"><ele></ele><time>2025-5-17T6:15:41Z</time></trkpt>
<trkpt lat="48.914161682129" lon="2.6652586460114"><ele></ele><time>2025-5-17T6:15:44Z</time></trkpt>
<trkpt lat="48.914161682129" lon="2.6652586460114"><ele></ele><time>2025-5-17T6:15:47Z</time></trkpt>
<trkpt lat="48.914161682129" lon="2.6652586460114"><ele></ele><time>2025-5-17T6:15:50Z</time></trkpt>
<trkpt lat="48.914161682129" lon="2.6652586460114"><ele></ele><time>2025-5-17T6:15:53Z</time></trkpt>
<trkpt lat="48.914161682129" lon="2.6652586460114"><ele></ele><time>2025-5-17T6:15:56Z</time></trkpt>
<trkpt lat="48.91429901123" lon="2.6652553081512"><ele></ele><time>2025-5-17T6:15:59Z</time></trkpt>
<trkpt lat="48.91429901123" lon="2.6652553081512"><ele></ele><time>2025-5-17T6:16:2Z</time></trkpt>
<trkpt lat="48.914371490479" lon="2.6652176380157"><ele></ele><time>2025-5-17T6:16:5Z</time></trkpt>
<trkpt lat="48.914371490479" lon="2.6652176380157"><ele></ele><time>2025-5-17T6:16:8Z</time></trkpt>
<trkpt lat="48.914482116699" lon="2.6651589870453"><ele></ele><time>2025-5-17T6:16:11Z</time></trkpt>
<trkpt lat="48.914554595947" lon="2.6651539802551"><ele></ele><time>2025-5-17T6:16:14Z</time></trkpt>
<trkpt lat="48.914554595947" lon="2.6651539802551"><ele></ele><time>2025-5-17T6:16:17Z</time></trkpt>
<trkpt lat="48.914608001709" lon="2.6652665138245"><ele></ele><time>2025-5-17T6:16:20Z</time></trkpt>
<trkpt lat="48.914661407471" lon="2.6653678417206"><ele></ele><time>2025-5-17T6:16:23Z</time></trkpt>
<trkpt lat="48.914661407471" lon="2.6653678417206"><ele></ele><time>2025-5-17T6:16:26Z</time></trkpt>
<trkpt lat="48.914733886719" lon="2.6654303073883"><ele></ele><time>2025-5-17T6:16:29Z</time></trkpt>
<trkpt lat="48.914733886719" lon="2.6654303073883"><ele></ele><time>2025-5-17T6:16:32Z</time></trkpt>
<trkpt lat="48.91482925415" lon="2.6654849052429"><ele></ele><time>2025-5-17T6:16:35Z</time></trkpt>
<trkpt lat="48.914897918701" lon="2.6655225753784"><ele></ele><time>2025-5-17T6:16:38Z</time></trkpt>
<trkpt lat="48.914978027344" lon="2.6655580997467"><ele></ele><time>2025-5-17T6:16:41Z</time></trkpt>
<trkpt lat="48.915042877197" lon="2.6655895709991"><ele></ele><time>2025-5-17T6:16:44Z</time></trkpt>
<trkpt lat="48.915103912354" lon="2.6656205654144"><ele></ele><time>2025-5-17T6:16:47Z</time></trkpt>
<trkpt lat="48.915103912354" lon="2.6656205654144"><ele></ele><time>2025-5-17T6:16:50Z</time></trkpt>
<trkpt lat="48.91516494751" lon="2.6656482219696"><ele></ele><time>2025-5-17T6:16:53Z</time></trkpt>
<trkpt lat="48.91527557373" lon="2.6656968593597"><ele></ele><time>2025-5-17T6:16:56Z</time></trkpt>
<trkpt lat="48.915332794189" lon="2.6657269001007"><ele></ele><time>2025-5-17T6:16:59Z</time></trkpt>
<trkpt lat="48.915431976318" lon="2.6657860279083"><ele></ele><time>2025-5-17T6:17:2Z</time></trkpt>
<trkpt lat="48.915431976318" lon="2.6657860279083"><ele></ele><time>2025-5-17T6:17:5Z</time></trkpt>
<trkpt lat="48.915534973145" lon="2.6658520698547"><ele></ele><time>2025-5-17T6:17:8Z</time></trkpt>
<trkpt lat="48.915596008301" lon="2.6658861637115"><ele></ele><time>2025-5-17T6:17:11Z</time></trkpt>
<trkpt lat="48.915649414062" lon="2.6659295558929"><ele></ele><time>2025-5-17T6:17:14Z</time></trkpt>
<trkpt lat="48.915649414062" lon="2.6659295558929"><ele></ele><time>2025-5-17T6:17:17Z</time></trkpt>
<trkpt lat="48.9157371521" lon="2.6659646034241"><ele></ele><time>2025-5-17T6:17:20Z</time></trkpt>
<trkpt lat="48.9157371521" lon="2.6659646034241"><ele></ele><time>2025-5-17T6:17:23Z</time></trkpt>
<trkpt lat="48.9157371521" lon="2.6659646034241"><ele></ele><time>2025-5-17T6:17:26Z</time></trkpt>
<trkpt lat="48.915809631348" lon="2.6659460067749"><ele></ele><time>2025-5-17T6:17:29Z</time></trkpt>
<trkpt lat="48.915809631348" lon="2.6659460067749"><ele></ele><time>2025-5-17T6:17:32Z</time></trkpt>
<trkpt lat="48.915870666504" lon="2.6659574508667"><ele></ele><time>2025-5-17T6:17:35Z</time></trkpt>
<trkpt lat="48.915943145752" lon="2.6659214496613"><ele></ele><time>2025-5-17T6:17:38Z</time></trkpt>
<trkpt lat="48.916011810303" lon="2.6658697128296"><ele></ele><time>2025-5-17T6:17:41Z</time></trkpt>
<trkpt lat="48.916011810303" lon="2.6658697128296"><ele></ele><time>2025-5-17T6:17:44Z</time></trkpt>
<trkpt lat="48.916011810303" lon="2.6658697128296"><ele></ele><time>2025-5-17T6:17:47Z</time></trkpt>
<trkpt lat="48.916011810303" lon="2.6658697128296"><ele></ele><time>2025-5-17T6:17:50Z</time></trkpt>
<trkpt lat="48.916011810303" lon="2.6658697128296"><ele></ele><time>2025-5-17T6:17:53Z</time></trkpt>
<trkpt lat="48.916011810303" lon="2.6658697128296"><ele></ele><time>2025-5-17T6:17:56Z</time></trkpt>
<trkpt lat="48.916011810303" lon="2.6658697128296"><ele></ele><time>2025-5-17T6:17:59Z</time></trkpt>
<trkpt lat="48.916130065918" lon="2.6657934188843"><ele></ele><time>2025-5-17T6:18:2Z</time></trkpt>
<trkpt lat="48.916130065918" lon="2.6657934188843"><ele></ele><time>2025-5-17T6:18:5Z</time></trkpt>
<trkpt lat="48.916175842285" lon="2.6659276485443"><ele></ele><time>2025-5-17T6:18:8Z</time></trkpt>
<trkpt lat="48.916168212891" lon="2.6660177707672"><ele></ele><time>2025-5-17T6:18:11Z</time></trkpt>
<trkpt lat="48.916133880615" lon="2.6661891937256"><ele></ele><time>2025-5-17T6:18:14Z</time></trkpt>
<trkpt lat="48.916133880615" lon="2.6661891937256"><ele></ele><time>2025-5-17T6:18:17Z</time></trkpt>
<trkpt lat="48.916114807129" lon="2.6662976741791"><ele></ele><time>2025-5-17T6:18:20Z</time></trkpt>
<trkpt lat="48.916076660156" lon="2.6664266586304"><ele></ele><time>2025-5-17T6:18:23Z</time></trkpt>
<trkpt lat="48.916076660156" lon="2.6664266586304"><ele></ele><time>2025-5-17T6:18:26Z</time></trkpt>
<trkpt lat="48.916076660156" lon="2.6664266586304"><ele></ele><time>2025-5-17T6:18:29Z</time></trkpt>
<trkpt lat="48.916027069092" lon="2.6665632724762"><ele></ele><time>2025-5-17T6:18:32Z</time></trkpt>
<trkpt lat="48.916011810303" lon="2.6666464805603"><ele></ele><time>2025-5-17T6:18:35Z</time></trkpt>
<trkpt lat="48.916011810303" lon="2.6666464805603"><ele></ele><time>2025-5-17T6:18:38Z</time></trkpt>
<trkpt lat="48.915969848633" lon="2.6668004989624"><ele></ele><time>2025-5-17T6:18:41Z</time></trkpt>
<trkpt lat="48.915969848633" lon="2.6668004989624"><ele></ele><time>2025-5-17T6:18:44Z</time></trkpt>
<trkpt lat="48.91593170166" lon="2.6669836044312"><ele></ele><time>2025-5-17T6:18:47Z</time></trkpt>
<trkpt lat="48.91593170166" lon="2.6669836044312"><ele></ele><time>2025-5-17T6:18:50Z</time></trkpt>
<trkpt lat="48.915863037109" lon="2.6672027111053"><ele></ele><time>2025-5-17T6:18:53Z</time></trkpt>
<trkpt lat="48.915863037109" lon="2.6672027111053"><ele></ele><time>2025-5-17T6:18:56Z</time></trkpt>
<trkpt lat="48.915828704834" lon="2.6673367023468"><ele></ele><time>2025-5-17T6:18:59Z</time></trkpt>
<trkpt lat="48.915782928467" lon="2.6674880981445"><ele></ele><time>2025-5-17T6:19:2Z</time></trkpt>
<trkpt lat="48.9157371521" lon="2.6676394939423"><ele></ele><time>2025-5-17T6:19:5Z</time></trkpt>
<trkpt lat="48.91569519043" lon="2.6677732467651"><ele></ele><time>2025-5-17T6:19:8Z</time></trkpt>
<trkpt lat="48.915660858154" lon="2.6678907871246"><ele></ele><time>2025-5-17T6:19:11Z</time></trkpt>
<trkpt lat="48.915626525879" lon="2.6679947376251"><ele></ele><time>2025-5-17T6:19:14Z</time></trkpt>
<trkpt lat="48.915596008301" lon="2.6680917739868"><ele></ele><time>2025-5-17T6:19:17Z</time></trkpt>
<trkpt lat="48.915573120117" lon="2.6681797504425"><ele></ele><time>2025-5-17T6:19:20Z</time></trkpt>
<trkpt lat="48.915534973145" lon="2.6682605743408"><ele></ele><time>2025-5-17T6:19:23Z</time></trkpt>
<trkpt lat="48.915534973145" lon="2.6682605743408"><ele></ele><time>2025-5-17T6:19:26Z</time></trkpt>
<trkpt lat="48.915504455566" lon="2.6683974266052"><ele></ele><time>2025-5-17T6:19:29Z</time></trkpt>
<trkpt lat="48.91548538208" lon="2.6684944629669"><ele></ele><time>2025-5-17T6:19:32Z</time></trkpt>
<trkpt lat="48.915447235107" lon="2.6686308383942"><ele></ele><time>2025-5-17T6:19:35Z</time></trkpt>
<trkpt lat="48.915382385254" lon="2.6687366962433"><ele></ele><time>2025-5-17T6:19:38Z</time></trkpt>
<trkpt lat="48.91529083252" lon="2.6687777042389"><ele></ele><time>2025-5-17T6:19:41Z</time></trkpt>
<trkpt lat="48.91529083252" lon="2.6687777042389"><ele></ele><time>2025-5-17T6:19:44Z</time></trkpt>
<trkpt lat="48.915195465088" lon="2.6687958240509"><ele></ele><time>2025-5-17T6:19:47Z</time></trkpt>
<trkpt lat="48.915111541748" lon="2.6688024997711"><ele></ele><time>2025-5-17T6:19:50Z</time></trkpt>
<trkpt lat="48.915042877197" lon="2.6687669754028"><ele></ele><time>2025-5-17T6:19:53Z</time></trkpt>
<trkpt lat="48.915042877197" lon="2.6687669754028"><ele></ele><time>2025-5-17T6:19:56Z</time></trkpt>
<trkpt lat="48.914970397949" lon="2.6687138080597"><ele></ele><time>2025-5-17T6:19:59Z</time></trkpt>
<trkpt lat="48.914901733398" lon="2.6686763763428"><ele></ele><time>2025-5-17T6:20:2Z</time></trkpt>
<trkpt lat="48.914836883545" lon="2.6686568260193"><ele></ele><time>2025-5-17T6:20:5Z</time></trkpt>
<trkpt lat="48.914836883545" lon="2.6686568260193"><ele></ele><time>2025-5-17T6:20:8Z</time></trkpt>
<trkpt lat="48.914772033691" lon="2.6686525344849"><ele></ele><time>2025-5-17T6:20:11Z</time></trkpt>
<trkpt lat="48.914772033691" lon="2.6686525344849"><ele></ele><time>2025-5-17T6:20:14Z</time></trkpt>
<trkpt lat="48.914638519287" lon="2.6685905456543"><ele></ele><time>2025-5-17T6:20:17Z</time></trkpt>
<trkpt lat="48.91455078125" lon="2.6685476303101"><ele></ele><time>2025-5-17T6:20:20Z</time></trkpt>
<trkpt lat="48.914470672607" lon="2.6685132980347"><ele></ele><time>2025-5-17T6:20:23Z</time></trkpt>
<trkpt lat="48.914470672607" lon="2.6685132980347"><ele></ele><time>2025-5-17T6:20:26Z</time></trkpt>
<trkpt lat="48.914375305176" lon="2.6684277057648"><ele></ele><time>2025-5-17T6:20:29Z</time></trkpt>
<trkpt lat="48.914310455322" lon="2.6684165000916"><ele></ele><time>2025-5-17T6:20:32Z</time></trkpt>
<trkpt lat="48.914310455322" lon="2.6684165000916"><ele></ele><time>2025-5-17T6:20:35Z</time></trkpt>
<trkpt lat="48.914245605469" lon="2.6683883666992"><ele></ele><time>2025-5-17T6:20:38Z</time></trkpt>
<trkpt lat="48.914245605469" lon="2.6683883666992"><ele></ele><time>2025-5-17T6:20:41Z</time></trkpt>
<trkpt lat="48.914154052734" lon="2.6683189868927"><ele></ele><time>2025-5-17T6:20:44Z</time></trkpt>
<trkpt lat="48.914154052734" lon="2.6683189868927"><ele></ele><time>2025-5-17T6:20:47Z</time></trkpt>
<trkpt lat="48.914154052734" lon="2.6683189868927"><ele></ele><time>2025-5-17T6:20:50Z</time></trkpt>
<trkpt lat="48.914093017578" lon="2.6682422161102"><ele></ele><time>2025-5-17T6:20:53Z</time></trkpt>
<trkpt lat="48.914093017578" lon="2.6682422161102"><ele></ele><time>2025-5-17T6:20:56Z</time></trkpt>
<trkpt lat="48.914093017578" lon="2.6682422161102"><ele></ele><time>2025-5-17T6:20:59Z</time></trkpt>
<trkpt lat="48.914093017578" lon="2.6682422161102"><ele></ele><time>2025-5-17T6:21:2Z</time></trkpt>
<trkpt lat="48.914131164551" lon="2.6682994365692"><ele></ele><time>2025-5-17T6:21:5Z</time></trkpt>
<trkpt lat="48.914131164551" lon="2.6682994365692"><ele></ele><time>2025-5-17T6:21:8Z</time></trkpt>
<trkpt lat="48.914211273193" lon="2.6683685779572"><ele></ele><time>2025-5-17T6:21:11Z</time></trkpt>
<trkpt lat="48.914268493652" lon="2.6683895587921"><ele></ele><time>2025-5-17T6:21:14Z</time></trkpt>
<trkpt lat="48.914321899414" lon="2.6684408187866"><ele></ele><time>2025-5-17T6:21:17Z</time></trkpt>
<trkpt lat="48.914375305176" lon="2.6684813499451"><ele></ele><time>2025-5-17T6:21:20Z</time></trkpt>
<trkpt lat="48.914375305176" lon="2.6684813499451"><ele></ele><time>2025-5-17T6:21:23Z</time></trkpt>
<trkpt lat="48.914375305176" lon="2.6684813499451"><ele></ele><time>2025-5-17T6:21:26Z</time></trkpt>
<trkpt lat="48.914489746094" lon="2.6685411930084"><ele></ele><time>2025-5-17T6:21:29Z</time></trkpt>
<trkpt lat="48.914546966553" lon="2.6685709953308"><ele></ele><time>2025-5-17T6:21:32Z</time></trkpt>
<trkpt lat="48.914604187012" lon="2.668604850769"><ele></ele><time>2025-5-17T6:21:35Z</time></trkpt>
<trkpt lat="48.914653778076" lon="2.6686992645264"><ele></ele><time>2025-5-17T6:21:38Z</time></trkpt>
<trkpt lat="48.914646148682" lon="2.6687879562378"><ele></ele><time>2025-5-17T6:21:41Z</time></trkpt>
<trkpt lat="48.914646148682" lon="2.6688966751099"><ele></ele><time>2025-5-17T6:21:44Z</time></trkpt>
<trkpt lat="48.914646148682" lon="2.6690075397491"><ele></ele><time>2025-5-17T6:21:47Z</time></trkpt>
<trkpt lat="48.914646148682" lon="2.6690075397491"><ele></ele><time>2025-5-17T6:21:50Z</time></trkpt>
<trkpt lat="48.914608001709" lon="2.6691279411316"><ele></ele><time>2025-5-17T6:21:53Z</time></trkpt>
<trkpt lat="48.914562225342" lon="2.6691989898682"><ele></ele><time>2025-5-17T6:21:56Z</time></trkpt>
<trkpt lat="48.914489746094" lon="2.6692597866058"><ele></ele><time>2025-5-17T6:21:59Z</time></trkpt>
<trkpt lat="48.914413452148" lon="2.669341802597"><ele></ele><time>2025-5-17T6:22:2Z</time></trkpt>
<trkpt lat="48.914337158203" lon="2.6694414615631"><ele></ele><time>2025-5-17T6:22:5Z</time></trkpt>
<trkpt lat="48.914264678955" lon="2.6695375442505"><ele></ele><time>2025-5-17T6:22:8Z</time></trkpt>
<trkpt lat="48.914184570312" lon="2.6696462631226"><ele></ele><time>2025-5-17T6:22:11Z</time></trkpt>
<trkpt lat="48.914138793945" lon="2.6697356700897"><ele></ele><time>2025-5-17T6:22:14Z</time></trkpt>
<trkpt lat="48.914112091064" lon="2.6698169708252"><ele></ele><time>2025-5-17T6:22:17Z</time></trkpt>
<trkpt lat="48.914066314697" lon="2.66987657547"><ele></ele><time>2025-5-17T6:22:20Z</time></trkpt>
<trkpt lat="48.914066314697" lon="2.66987657547"><ele></ele><time>2025-5-17T6:22:23Z</time></trkpt>
<trkpt lat="48.913974761963" lon="2.6699829101562"><ele></ele><time>2025-5-17T6:22:26Z</time></trkpt>
<trkpt lat="48.913909912109" lon="2.6700377464294"><ele></ele><time>2025-5-17T6:22:29Z</time></trkpt>
<trkpt lat="48.913909912109" lon="2.6700377464294"><ele></ele><time>2025-5-17T6:22:32Z</time></trkpt>
<trkpt lat="48.913837432861" lon="2.6701266765594"><ele></ele><time>2025-5-17T6:22:35Z</time></trkpt>
<trkpt lat="48.913768768311" lon="2.6702060699463"><ele></ele><time>2025-5-17T6:22:38Z</time></trkpt>
<trkpt lat="48.91370010376" lon="2.6702721118927"><ele></ele><time>2025-5-17T6:22:41Z</time></trkpt>
<trkpt lat="48.913646697998" lon="2.6703858375549"><ele></ele><time>2025-5-17T6:22:44Z</time></trkpt>
<trkpt lat="48.913581848145" lon="2.6704025268555"><ele></ele><time>2025-5-17T6:22:47Z</time></trkpt>
<trkpt lat="48.913581848145" lon="2.6704025268555"><ele></ele><time>2025-5-17T6:22:50Z</time></trkpt>
<trkpt lat="48.913524627686" lon="2.6703782081604"><ele></ele><time>2025-5-17T6:22:53Z</time></trkpt>
<trkpt lat="48.913467407227" lon="2.6703381538391"><ele></ele><time>2025-5-17T6:22:56Z</time></trkpt>
<trkpt lat="48.913398742676" lon="2.6702928543091"><ele></ele><time>2025-5-17T6:22:59Z</time></trkpt>
<trkpt lat="48.913398742676" lon="2.6702928543091"><ele></ele><time>2025-5-17T6:23:2Z</time></trkpt>
<trkpt lat="48.913326263428" lon="2.6702480316162"><ele></ele><time>2025-5-17T6:23:5Z</time></trkpt>
<trkpt lat="48.913192749023" lon="2.6701855659485"><ele></ele><time>2025-5-17T6:23:8Z</time></trkpt>
<trkpt lat="48.913108825684" lon="2.6701469421387"><ele></ele><time>2025-5-17T6:23:11Z</time></trkpt>
<trkpt lat="48.91304397583" lon="2.6701066493988"><ele></ele><time>2025-5-17T6:23:14Z</time></trkpt>
<trkpt lat="48.91304397583" lon="2.6701066493988"><ele></ele><time>2025-5-17T6:23:17Z</time></trkpt>
<trkpt lat="48.912940979004" lon="2.6700267791748"><ele></ele><time>2025-5-17T6:23:20Z</time></trkpt>
<trkpt lat="48.912940979004" lon="2.6700267791748"><ele></ele><time>2025-5-17T6:23:23Z</time></trkpt>
<trkpt lat="48.912872314453" lon="2.6699824333191"><ele></ele><time>2025-5-17T6:23:26Z</time></trkpt>
<trkpt lat="48.912872314453" lon="2.6699824333191"><ele></ele><time>2025-5-17T6:23:29Z</time></trkpt>
<trkpt lat="48.912872314453" lon="2.6699824333191"><ele></ele><time>2025-5-17T6:23:32Z</time></trkpt>
<trkpt lat="48.912872314453" lon="2.6699824333191"><ele></ele><time>2025-5-17T6:23:35Z</time></trkpt>
<trkpt lat="48.912872314453" lon="2.6699824333191"><ele></ele><time>2025-5-17T6:23:38Z</time></trkpt>
<trkpt lat="48.91287612915" lon="2.6698858737946"><ele></ele><time>2025-5-17T6:23:41Z</time></trkpt>
<trkpt lat="48.912811279297" lon="2.6697943210602"><ele></ele><time>2025-5-17T6:23:44Z</time></trkpt>
<trkpt lat="48.912811279297" lon="2.6697943210602"><ele></ele><time>2025-5-17T6:23:47Z</time></trkpt>
<trkpt lat="48.912746429443" lon="2.6696960926056"><ele></ele><time>2025-5-17T6:23:50Z</time></trkpt>
<trkpt lat="48.912677764893" lon="2.6697416305542"><ele></ele><time>2025-5-17T6:23:53Z</time></trkpt>
<trkpt lat="48.912658691406" lon="2.6698961257935"><ele></ele><time>2025-5-17T6:23:56Z</time></trkpt>
<trkpt lat="48.912658691406" lon="2.6700043678284"><ele></ele><time>2025-5-17T6:23:59Z</time></trkpt>
<trkpt lat="48.912658691406" lon="2.6700043678284"><ele></ele><time>2025-5-17T6:24:2Z</time></trkpt>
<trkpt lat="48.912658691406" lon="2.6701147556305"><ele></ele><time>2025-5-17T6:24:5Z</time></trkpt>
<trkpt lat="48.912662506104" lon="2.670227766037"><ele></ele><time>2025-5-17T6:24:8Z</time></trkpt>
<trkpt lat="48.912670135498" lon="2.6703503131866"><ele></ele><time>2025-5-17T6:24:11Z</time></trkpt>
<trkpt lat="48.912670135498" lon="2.6703503131866"><ele></ele><time>2025-5-17T6:24:14Z</time></trkpt>
<trkpt lat="48.912677764893" lon="2.670464515686"><ele></ele><time>2025-5-17T6:24:17Z</time></trkpt>
<trkpt lat="48.912685394287" lon="2.6706080436707"><ele></ele><time>2025-5-17T6:24:20Z</time></trkpt>
<trkpt lat="48.912685394287" lon="2.6707525253296"><ele></ele><time>2025-5-17T6:24:23Z</time></trkpt>
<trkpt lat="48.912689208984" lon="2.6708996295929"><ele></ele><time>2025-5-17T6:24:26Z</time></trkpt>
<trkpt lat="48.912689208984" lon="2.6710402965546"><ele></ele><time>2025-5-17T6:24:29Z</time></trkpt>
<trkpt lat="48.912689208984" lon="2.6711931228638"><ele></ele><time>2025-5-17T6:24:32Z</time></trkpt>
<trkpt lat="48.912696838379" lon="2.6713590621948"><ele></ele><time>2025-5-17T6:24:35Z</time></trkpt>
<trkpt lat="48.912700653076" lon="2.6715302467346"><ele></ele><time>2025-5-17T6:24:38Z</time></trkpt>
<trkpt lat="48.912700653076" lon="2.6716914176941"><ele></ele><time>2025-5-17T6:24:41Z</time></trkpt>
<trkpt lat="48.912704467773" lon="2.6718363761902"><ele></ele><time>2025-5-17T6:24:44Z</time></trkpt>
<trkpt lat="48.912704467773" lon="2.6719880104065"><ele></ele><time>2025-5-17T6:24:47Z</time></trkpt>
<trkpt lat="48.912708282471" lon="2.6721532344818"><ele></ele><time>2025-5-17T6:24:50Z</time></trkpt>
<trkpt lat="48.912715911865" lon="2.6723282337189"><ele></ele><time>2025-5-17T6:24:53Z</time></trkpt>
<trkpt lat="48.91272354126" lon="2.6725060939789"><ele></ele><time>2025-5-17T6:24:56Z</time></trkpt>
<trkpt lat="48.91272354126" lon="2.6726677417755"><ele></ele><time>2025-5-17T6:24:59Z</time></trkpt>
<trkpt lat="48.91272354126" lon="2.6728374958038"><ele></ele><time>2025-5-17T6:25:2Z</time></trkpt>
<trkpt lat="48.912731170654" lon="2.6729969978333"><ele></ele><time>2025-5-17T6:25:5Z</time></trkpt>
<trkpt lat="48.912738800049" lon="2.6731824874878"><ele></ele><time>2025-5-17T6:25:8Z</time></trkpt>
<trkpt lat="48.912746429443" lon="2.6733558177948"><ele></ele><time>2025-5-17T6:25:11Z</time></trkpt>
<trkpt lat="48.912746429443" lon="2.6735394001007"><ele></ele><time>2025-5-17T6:25:14Z</time></trkpt>
<trkpt lat="48.912754058838" lon="2.6737506389618"><ele></ele><time>2025-5-17T6:25:17Z</time></trkpt>
<trkpt lat="48.912773132324" lon="2.6739313602448"><ele></ele><time>2025-5-17T6:25:20Z</time></trkpt>
<trkpt lat="48.912788391113" lon="2.6741390228271"><ele></ele><time>2025-5-17T6:25:23Z</time></trkpt>
<trkpt lat="48.912788391113" lon="2.6741390228271"><ele></ele><time>2025-5-17T6:25:26Z</time></trkpt>
<trkpt lat="48.912796020508" lon="2.6743657588959"><ele></ele><time>2025-5-17T6:25:29Z</time></trkpt>
<trkpt lat="48.912792205811" lon="2.6745765209198"><ele></ele><time>2025-5-17T6:25:32Z</time></trkpt>
<trkpt lat="48.912792205811" lon="2.674783706665"><ele></ele><time>2025-5-17T6:25:35Z</time></trkpt>
<trkpt lat="48.912784576416" lon="2.6749882698059"><ele></ele><time>2025-5-17T6:25:38Z</time></trkpt>
<trkpt lat="48.912776947021" lon="2.6751799583435"><ele></ele><time>2025-5-17T6:25:41Z</time></trkpt>
<trkpt lat="48.912754058838" lon="2.6753756999969"><ele></ele><time>2025-5-17T6:25:44Z</time></trkpt>
<trkpt lat="48.912727355957" lon="2.6755528450012"><ele></ele><time>2025-5-17T6:25:47Z</time></trkpt>
<trkpt lat="48.912696838379" lon="2.6757097244263"><ele></ele><time>2025-5-17T6:25:50Z</time></trkpt>
<trkpt lat="48.912696838379" lon="2.6757097244263"><ele></ele><time>2025-5-17T6:25:53Z</time></trkpt>
<trkpt lat="48.912670135498" lon="2.6758570671082"><ele></ele><time>2025-5-17T6:25:56Z</time></trkpt>
<trkpt lat="48.912643432617" lon="2.6759898662567"><ele></ele><time>2025-5-17T6:25:59Z</time></trkpt>
<trkpt lat="48.912616729736" lon="2.6761238574982"><ele></ele><time>2025-5-17T6:26:2Z</time></trkpt>
<trkpt lat="48.912586212158" lon="2.6762745380402"><ele></ele><time>2025-5-17T6:26:5Z</time></trkpt>
<trkpt lat="48.912559509277" lon="2.6764023303986"><ele></ele><time>2025-5-17T6:26:8Z</time></trkpt>
<trkpt lat="48.912532806396" lon="2.6765270233154"><ele></ele><time>2025-5-17T6:26:11Z</time></trkpt>
<trkpt lat="48.912506103516" lon="2.6766581535339"><ele></ele><time>2025-5-17T6:26:14Z</time></trkpt>
<trkpt lat="48.912479400635" lon="2.6767859458923"><ele></ele><time>2025-5-17T6:26:17Z</time></trkpt>
<trkpt lat="48.912456512451" lon="2.6769123077393"><ele></ele><time>2025-5-17T6:26:20Z</time></trkpt>
<trkpt lat="48.91242980957" lon="2.6770284175873"><ele></ele><time>2025-5-17T6:26:23Z</time></trkpt>
<trkpt lat="48.912410736084" lon="2.677143573761"><ele></ele><time>2025-5-17T6:26:26Z</time></trkpt>
<trkpt lat="48.912384033203" lon="2.6772520542145"><ele></ele><time>2025-5-17T6:26:29Z</time></trkpt>
<trkpt lat="48.91236114502" lon="2.6773838996887"><ele></ele><time>2025-5-17T6:26:32Z</time></trkpt>
<trkpt lat="48.912334442139" lon="2.6775081157684"><ele></ele><time>2025-5-17T6:26:35Z</time></trkpt>
<trkpt lat="48.912307739258" lon="2.6776323318481"><ele></ele><time>2025-5-17T6:26:38Z</time></trkpt>
<trkpt lat="48.912281036377" lon="2.6777555942535"><ele></ele><time>2025-5-17T6:26:41Z</time></trkpt>
<trkpt lat="48.912258148193" lon="2.6778852939606"><ele></ele><time>2025-5-17T6:26:44Z</time></trkpt>
<trkpt lat="48.91223526001" lon="2.6780304908752"><ele></ele><time>2025-5-17T6:26:47Z</time></trkpt>
<trkpt lat="48.912212371826" lon="2.6781725883484"><ele></ele><time>2025-5-17T6:26:50Z</time></trkpt>
<trkpt lat="48.91219329834" lon="2.6783204078674"><ele></ele><time>2025-5-17T6:26:53Z</time></trkpt>
<trkpt lat="48.912178039551" lon="2.6784648895264"><ele></ele><time>2025-5-17T6:26:56Z</time></trkpt>
<trkpt lat="48.912158966064" lon="2.6786262989044"><ele></ele><time>2025-5-17T6:26:59Z</time></trkpt>
<trkpt lat="48.912139892578" lon="2.6787812709808"><ele></ele><time>2025-5-17T6:27:2Z</time></trkpt>
<trkpt lat="48.912120819092" lon="2.678914308548"><ele></ele><time>2025-5-17T6:27:5Z</time></trkpt>
<trkpt lat="48.912109375" lon="2.6790390014648"><ele></ele><time>2025-5-17T6:27:8Z</time></trkpt>
<trkpt lat="48.912094116211" lon="2.6791632175446"><ele></ele><time>2025-5-17T6:27:11Z</time></trkpt>
<trkpt lat="48.912075042725" lon="2.6792998313904"><ele></ele><time>2025-5-17T6:27:14Z</time></trkpt>
<trkpt lat="48.912040710449" lon="2.6794352531433"><ele></ele><time>2025-5-17T6:27:17Z</time></trkpt>
<trkpt lat="48.911994934082" lon="2.6795561313629"><ele></ele><time>2025-5-17T6:27:20Z</time></trkpt>
<trkpt lat="48.911949157715" lon="2.679669380188"><ele></ele><time>2025-5-17T6:27:23Z</time></trkpt>
<trkpt lat="48.911949157715" lon="2.679669380188"><ele></ele><time>2025-5-17T6:27:26Z</time></trkpt>
<trkpt lat="48.911918640137" lon="2.6797711849213"><ele></ele><time>2025-5-17T6:27:29Z</time></trkpt>
<trkpt lat="48.911918640137" lon="2.6797711849213"><ele></ele><time>2025-5-17T6:27:32Z</time></trkpt>
<trkpt lat="48.911918640137" lon="2.6797711849213"><ele></ele><time>2025-5-17T6:27:35Z</time></trkpt>
<trkpt lat="48.911876678467" lon="2.6798396110535"><ele></ele><time>2025-5-17T6:27:38Z</time></trkpt>
<trkpt lat="48.911876678467" lon="2.6798396110535"><ele></ele><time>2025-5-17T6:27:41Z</time></trkpt>
<trkpt lat="48.911842346191" lon="2.6799855232239"><ele></ele><time>2025-5-17T6:27:44Z</time></trkpt>
<trkpt lat="48.911815643311" lon="2.6800906658173"><ele></ele><time>2025-5-17T6:27:47Z</time></trkpt>
<trkpt lat="48.911796569824" lon="2.6802020072937"><ele></ele><time>2025-5-17T6:27:50Z</time></trkpt>
<trkpt lat="48.911777496338" lon="2.6803095340729"><ele></ele><time>2025-5-17T6:27:53Z</time></trkpt>
<trkpt lat="48.911754608154" lon="2.680431842804"><ele></ele><time>2025-5-17T6:27:56Z</time></trkpt>
<trkpt lat="48.911724090576" lon="2.6805760860443"><ele></ele><time>2025-5-17T6:27:59Z</time></trkpt>
<trkpt lat="48.911701202393" lon="2.6806879043579"><ele></ele><time>2025-5-17T6:28:2Z</time></trkpt>
<trkpt lat="48.911666870117" lon="2.6808059215546"><ele></ele><time>2025-5-17T6:28:5Z</time></trkpt>
<trkpt lat="48.911632537842" lon="2.6809248924255"><ele></ele><time>2025-5-17T6:28:8Z</time></trkpt>
<trkpt lat="48.911598205566" lon="2.6810474395752"><ele></ele><time>2025-5-17T6:28:11Z</time></trkpt>
<trkpt lat="48.911571502686" lon="2.681156873703"><ele></ele><time>2025-5-17T6:28:14Z</time></trkpt>
<trkpt lat="48.911533355713" lon="2.6812920570374"><ele></ele><time>2025-5-17T6:28:17Z</time></trkpt>
<trkpt lat="48.91149520874" lon="2.681423664093"><ele></ele><time>2025-5-17T6:28:20Z</time></trkpt>
<trkpt lat="48.911460876465" lon="2.6815521717072"><ele></ele><time>2025-5-17T6:28:23Z</time></trkpt>
<trkpt lat="48.911415100098" lon="2.681706905365"><ele></ele><time>2025-5-17T6:28:26Z</time></trkpt>
<trkpt lat="48.911365509033" lon="2.6818668842316"><ele></ele><time>2025-5-17T6:28:29Z</time></trkpt>
<trkpt lat="48.911308288574" lon="2.6820170879364"><ele></ele><time>2025-5-17T6:28:32Z</time></trkpt>
<trkpt lat="48.91125869751" lon="2.6821501255035"><ele></ele><time>2025-5-17T6:28:35Z</time></trkpt>
<trkpt lat="48.911212921143" lon="2.6822867393494"><ele></ele><time>2025-5-17T6:28:38Z</time></trkpt>
<trkpt lat="48.911159515381" lon="2.6824450492859"><ele></ele><time>2025-5-17T6:28:41Z</time></trkpt>
<trkpt lat="48.911098480225" lon="2.6826210021973"><ele></ele><time>2025-5-17T6:28:44Z</time></trkpt>
<trkpt lat="48.91104888916" lon="2.6827707290649"><ele></ele><time>2025-5-17T6:28:47Z</time></trkpt>
<trkpt lat="48.91100692749" lon="2.6829164028168"><ele></ele><time>2025-5-17T6:28:50Z</time></trkpt>
<trkpt lat="48.91100692749" lon="2.6829164028168"><ele></ele><time>2025-5-17T6:28:53Z</time></trkpt>
<trkpt lat="48.910961151123" lon="2.6830713748932"><ele></ele><time>2025-5-17T6:28:56Z</time></trkpt>
<trkpt lat="48.91092300415" lon="2.6832277774811"><ele></ele><time>2025-5-17T6:28:59Z</time></trkpt>
<trkpt lat="48.910884857178" lon="2.6833758354187"><ele></ele><time>2025-5-17T6:29:2Z</time></trkpt>
<trkpt lat="48.910839080811" lon="2.6835076808929"><ele></ele><time>2025-5-17T6:29:5Z</time></trkpt>
<trkpt lat="48.910758972168" lon="2.6836304664612"><ele></ele><time>2025-5-17T6:29:8Z</time></trkpt>
<trkpt lat="48.910758972168" lon="2.6836304664612"><ele></ele><time>2025-5-17T6:29:11Z</time></trkpt>
<trkpt lat="48.910682678223" lon="2.6837532520294"><ele></ele><time>2025-5-17T6:29:14Z</time></trkpt>
<trkpt lat="48.910606384277" lon="2.6838519573212"><ele></ele><time>2025-5-17T6:29:17Z</time></trkpt>
<trkpt lat="48.910526275635" lon="2.6839466094971"><ele></ele><time>2025-5-17T6:29:20Z</time></trkpt>
<trkpt lat="48.910430908203" lon="2.6840436458588"><ele></ele><time>2025-5-17T6:29:23Z</time></trkpt>
<trkpt lat="48.910331726074" lon="2.6841430664062"><ele></ele><time>2025-5-17T6:29:26Z</time></trkpt>
<trkpt lat="48.91024017334" lon="2.6842470169067"><ele></ele><time>2025-5-17T6:29:29Z</time></trkpt>
<trkpt lat="48.910167694092" lon="2.6843438148499"><ele></ele><time>2025-5-17T6:29:32Z</time></trkpt>
<trkpt lat="48.910110473633" lon="2.6844160556793"><ele></ele><time>2025-5-17T6:29:35Z</time></trkpt>
<trkpt lat="48.910053253174" lon="2.6844561100006"><ele></ele><time>2025-5-17T6:29:38Z</time></trkpt>
<trkpt lat="48.910053253174" lon="2.6844561100006"><ele></ele><time>2025-5-17T6:29:41Z</time></trkpt>
<trkpt lat="48.90998840332" lon="2.6845510005951"><ele></ele><time>2025-5-17T6:29:44Z</time></trkpt>
<trkpt lat="48.909938812256" lon="2.6846103668213"><ele></ele><time>2025-5-17T6:29:47Z</time></trkpt>
<trkpt lat="48.909885406494" lon="2.6846714019775"><ele></ele><time>2025-5-17T6:29:50Z</time></trkpt>
<trkpt lat="48.909805297852" lon="2.6847677230835"><ele></ele><time>2025-5-17T6:29:53Z</time></trkpt>
<trkpt lat="48.90970993042" lon="2.6848797798157"><ele></ele><time>2025-5-17T6:29:56Z</time></trkpt>
<trkpt lat="48.909614562988" lon="2.6850023269653"><ele></ele><time>2025-5-17T6:29:59Z</time></trkpt>
<trkpt lat="48.909526824951" lon="2.685120344162"><ele></ele><time>2025-5-17T6:30:2Z</time></trkpt>
<trkpt lat="48.909442901611" lon="2.6852304935455"><ele></ele><time>2025-5-17T6:30:5Z</time></trkpt>
<trkpt lat="48.909355163574" lon="2.6853442192078"><ele></ele><time>2025-5-17T6:30:8Z</time></trkpt>
<trkpt lat="48.909355163574" lon="2.6853442192078"><ele></ele><time>2025-5-17T6:30:11Z</time></trkpt>
<trkpt lat="48.909275054932" lon="2.6854510307312"><ele></ele><time>2025-5-17T6:30:14Z</time></trkpt>
<trkpt lat="48.909206390381" lon="2.6855456829071"><ele></ele><time>2025-5-17T6:30:17Z</time></trkpt>
<trkpt lat="48.909141540527" lon="2.6856400966644"><ele></ele><time>2025-5-17T6:30:20Z</time></trkpt>
<trkpt lat="48.909080505371" lon="2.6857359409332"><ele></ele><time>2025-5-17T6:30:23Z</time></trkpt>
<trkpt lat="48.909015655518" lon="2.6858429908752"><ele></ele><time>2025-5-17T6:30:26Z</time></trkpt>
<trkpt lat="48.908954620361" lon="2.6859426498413"><ele></ele><time>2025-5-17T6:30:29Z</time></trkpt>
<trkpt lat="48.908905029297" lon="2.6860287189484"><ele></ele><time>2025-5-17T6:30:32Z</time></trkpt>
<trkpt lat="48.908843994141" lon="2.6861209869385"><ele></ele><time>2025-5-17T6:30:35Z</time></trkpt>
<trkpt lat="48.908771514893" lon="2.6862273216248"><ele></ele><time>2025-5-17T6:30:38Z</time></trkpt>
<trkpt lat="48.90869140625" lon="2.6863374710083"><ele></ele><time>2025-5-17T6:30:41Z</time></trkpt>
<trkpt lat="48.908596038818" lon="2.6864719390869"><ele></ele><time>2025-5-17T6:30:44Z</time></trkpt>
<trkpt lat="48.908493041992" lon="2.6866159439087"><ele></ele><time>2025-5-17T6:30:47Z</time></trkpt>
<trkpt lat="48.908374786377" lon="2.686779499054"><ele></ele><time>2025-5-17T6:30:50Z</time></trkpt>
<trkpt lat="48.908248901367" lon="2.6869578361511"><ele></ele><time>2025-5-17T6:30:53Z</time></trkpt>
<trkpt lat="48.908107757568" lon="2.6871502399445"><ele></ele><time>2025-5-17T6:30:56Z</time></trkpt>
<trkpt lat="48.907981872559" lon="2.68732380867"><ele></ele><time>2025-5-17T6:30:59Z</time></trkpt>
<trkpt lat="48.907855987549" lon="2.6874902248383"><ele></ele><time>2025-5-17T6:31:2Z</time></trkpt>
<trkpt lat="48.907768249512" lon="2.6876108646393"><ele></ele><time>2025-5-17T6:31:5Z</time></trkpt>
<trkpt lat="48.907711029053" lon="2.6877381801605"><ele></ele><time>2025-5-17T6:31:8Z</time></trkpt>
<trkpt lat="48.907722473145" lon="2.6878805160522"><ele></ele><time>2025-5-17T6:31:11Z</time></trkpt>
<trkpt lat="48.907760620117" lon="2.6880295276642"><ele></ele><time>2025-5-17T6:31:14Z</time></trkpt>
<trkpt lat="48.907810211182" lon="2.6882312297821"><ele></ele><time>2025-5-17T6:31:17Z</time></trkpt>
<trkpt lat="48.907867431641" lon="2.6884386539459"><ele></ele><time>2025-5-17T6:31:20Z</time></trkpt>
<trkpt lat="48.907913208008" lon="2.6886274814606"><ele></ele><time>2025-5-17T6:31:23Z</time></trkpt>
<trkpt lat="48.907962799072" lon="2.6888160705566"><ele></ele><time>2025-5-17T6:31:26Z</time></trkpt>
<trkpt lat="48.907943725586" lon="2.6890170574188"><ele></ele><time>2025-5-17T6:31:29Z</time></trkpt>
<trkpt lat="48.90784072876" lon="2.6891274452209"><ele></ele><time>2025-5-17T6:31:32Z</time></trkpt>
<trkpt lat="48.907733917236" lon="2.6892092227936"><ele></ele><time>2025-5-17T6:31:35Z</time></trkpt>
<trkpt lat="48.907642364502" lon="2.689325094223"><ele></ele><time>2025-5-17T6:31:38Z</time></trkpt>
<trkpt lat="48.907550811768" lon="2.6893889904022"><ele></ele><time>2025-5-17T6:31:41Z</time></trkpt>
<trkpt lat="48.907485961914" lon="2.6893992424011"><ele></ele><time>2025-5-17T6:31:44Z</time></trkpt>
<trkpt lat="48.907409667969" lon="2.6894090175629"><ele></ele><time>2025-5-17T6:31:47Z</time></trkpt>
<trkpt lat="48.907409667969" lon="2.6894090175629"><ele></ele><time>2025-5-17T6:31:50Z</time></trkpt>
<trkpt lat="48.907329559326" lon="2.6894359588623"><ele></ele><time>2025-5-17T6:31:53Z</time></trkpt>
<trkpt lat="48.907264709473" lon="2.6894617080688"><ele></ele><time>2025-5-17T6:31:56Z</time></trkpt>
<trkpt lat="48.907211303711" lon="2.6895015239716"><ele></ele><time>2025-5-17T6:31:59Z</time></trkpt>
<trkpt lat="48.90714263916" lon="2.689492225647"><ele></ele><time>2025-5-17T6:32:2Z</time></trkpt>
<trkpt lat="48.907062530518" lon="2.6894981861115"><ele></ele><time>2025-5-17T6:32:5Z</time></trkpt>
<trkpt lat="48.906982421875" lon="2.6894948482513"><ele></ele><time>2025-5-17T6:32:8Z</time></trkpt>
<trkpt lat="48.906898498535" lon="2.6894841194153"><ele></ele><time>2025-5-17T6:32:11Z</time></trkpt>
<trkpt lat="48.906818389893" lon="2.6894681453705"><ele></ele><time>2025-5-17T6:32:14Z</time></trkpt>
<trkpt lat="48.906818389893" lon="2.6894681453705"><ele></ele><time>2025-5-17T6:32:17Z</time></trkpt>
<trkpt lat="48.906757354736" lon="2.6895070075989"><ele></ele><time>2025-5-17T6:32:20Z</time></trkpt>
<trkpt lat="48.906677246094" lon="2.6895673274994"><ele></ele><time>2025-5-17T6:32:23Z</time></trkpt>
<trkpt lat="48.906608581543" lon="2.6895866394043"><ele></ele><time>2025-5-17T6:32:26Z</time></trkpt>
<trkpt lat="48.906608581543" lon="2.6895866394043"><ele></ele><time>2025-5-17T6:32:29Z</time></trkpt>
<trkpt lat="48.906543731689" lon="2.6895933151245"><ele></ele><time>2025-5-17T6:32:32Z</time></trkpt>
<trkpt lat="48.906543731689" lon="2.6895933151245"><ele></ele><time>2025-5-17T6:32:35Z</time></trkpt>
<trkpt lat="48.906433105469" lon="2.6895790100098"><ele></ele><time>2025-5-17T6:32:38Z</time></trkpt>
<trkpt lat="48.90637588501" lon="2.6895761489868"><ele></ele><time>2025-5-17T6:32:41Z</time></trkpt>
<trkpt lat="48.90637588501" lon="2.6895761489868"><ele></ele><time>2025-5-17T6:32:44Z</time></trkpt>
<trkpt lat="48.90637588501" lon="2.6895761489868"><ele></ele><time>2025-5-17T6:32:47Z</time></trkpt>
<trkpt lat="48.906265258789" lon="2.689599275589"><ele></ele><time>2025-5-17T6:32:50Z</time></trkpt>
<trkpt lat="48.906196594238" lon="2.6895997524261"><ele></ele><time>2025-5-17T6:32:53Z</time></trkpt>
<trkpt lat="48.906135559082" lon="2.6896028518677"><ele></ele><time>2025-5-17T6:32:56Z</time></trkpt>
<trkpt lat="48.906074523926" lon="2.689626455307"><ele></ele><time>2025-5-17T6:32:59Z</time></trkpt>
<trkpt lat="48.905990600586" lon="2.6896493434906"><ele></ele><time>2025-5-17T6:33:2Z</time></trkpt>
<trkpt lat="48.905914306641" lon="2.6896553039551"><ele></ele><time>2025-5-17T6:33:5Z</time></trkpt>
<trkpt lat="48.905815124512" lon="2.6896705627441"><ele></ele><time>2025-5-17T6:33:8Z</time></trkpt>
<trkpt lat="48.905700683594" lon="2.6896967887878"><ele></ele><time>2025-5-17T6:33:11Z</time></trkpt>
<trkpt lat="48.905578613281" lon="2.6897332668304"><ele></ele><time>2025-5-17T6:33:14Z</time></trkpt>
<trkpt lat="48.905456542969" lon="2.689772605896"><ele></ele><time>2025-5-17T6:33:17Z</time></trkpt>
<trkpt lat="48.905361175537" lon="2.6897933483124"><ele></ele><time>2025-5-17T6:33:20Z</time></trkpt>
<trkpt lat="48.905269622803" lon="2.6898138523102"><ele></ele><time>2025-5-17T6:33:23Z</time></trkpt>
<trkpt lat="48.905193328857" lon="2.6898512840271"><ele></ele><time>2025-5-17T6:33:26Z</time></trkpt>
<trkpt lat="48.905094146729" lon="2.6898865699768"><ele></ele><time>2025-5-17T6:33:29Z</time></trkpt>
<trkpt lat="48.904987335205" lon="2.689914226532"><ele></ele><time>2025-5-17T6:33:32Z</time></trkpt>
<trkpt lat="48.904865264893" lon="2.6899461746216"><ele></ele><time>2025-5-17T6:33:35Z</time></trkpt>
<trkpt lat="48.904735565186" lon="2.6899766921997"><ele></ele><time>2025-5-17T6:33:38Z</time></trkpt>
<trkpt lat="48.904609680176" lon="2.6900084018707"><ele></ele><time>2025-5-17T6:33:41Z</time></trkpt>
<trkpt lat="48.904491424561" lon="2.6900410652161"><ele></ele><time>2025-5-17T6:33:44Z</time></trkpt>
<trkpt lat="48.904373168945" lon="2.690132856369"><ele></ele><time>2025-5-17T6:33:47Z</time></trkpt>
<trkpt lat="48.904281616211" lon="2.6902322769165"><ele></ele><time>2025-5-17T6:33:50Z</time></trkpt>
<trkpt lat="48.904197692871" lon="2.6903474330902"><ele></ele><time>2025-5-17T6:33:53Z</time></trkpt>
<trkpt lat="48.904106140137" lon="2.6904511451721"><ele></ele><time>2025-5-17T6:33:56Z</time></trkpt>
<trkpt lat="48.903991699219" lon="2.6905498504639"><ele></ele><time>2025-5-17T6:33:59Z</time></trkpt>
<trkpt lat="48.903873443604" lon="2.6906187534332"><ele></ele><time>2025-5-17T6:34:2Z</time></trkpt>
<trkpt lat="48.903736114502" lon="2.690726518631"><ele></ele><time>2025-5-17T6:34:5Z</time></trkpt>
<trkpt lat="48.903606414795" lon="2.690860748291"><ele></ele><time>2025-5-17T6:34:8Z</time></trkpt>
<trkpt lat="48.903491973877" lon="2.6909923553467"><ele></ele><time>2025-5-17T6:34:11Z</time></trkpt>
<trkpt lat="48.903373718262" lon="2.6911318302155"><ele></ele><time>2025-5-17T6:34:14Z</time></trkpt>
<trkpt lat="48.903293609619" lon="2.6912393569946"><ele></ele><time>2025-5-17T6:34:17Z</time></trkpt>
<trkpt lat="48.90323638916" lon="2.6913287639618"><ele></ele><time>2025-5-17T6:34:20Z</time></trkpt>
<trkpt lat="48.903167724609" lon="2.6914482116699"><ele></ele><time>2025-5-17T6:34:23Z</time></trkpt>
<trkpt lat="48.903167724609" lon="2.6914482116699"><ele></ele><time>2025-5-17T6:34:26Z</time></trkpt>
<trkpt lat="48.903102874756" lon="2.6916153430939"><ele></ele><time>2025-5-17T6:34:29Z</time></trkpt>
<trkpt lat="48.903034210205" lon="2.6918065547943"><ele></ele><time>2025-5-17T6:34:32Z</time></trkpt>
<trkpt lat="48.903034210205" lon="2.6918065547943"><ele></ele><time>2025-5-17T6:34:35Z</time></trkpt>
<trkpt lat="48.902843475342" lon="2.6921126842499"><ele></ele><time>2025-5-17T6:34:38Z</time></trkpt>
<trkpt lat="48.902717590332" lon="2.6922354698181"><ele></ele><time>2025-5-17T6:34:41Z</time></trkpt>
<trkpt lat="48.902591705322" lon="2.6923584938049"><ele></ele><time>2025-5-17T6:34:44Z</time></trkpt>
<trkpt lat="48.902591705322" lon="2.6923584938049"><ele></ele><time>2025-5-17T6:34:47Z</time></trkpt>
<trkpt lat="48.90246963501" lon="2.6924722194672"><ele></ele><time>2025-5-17T6:34:50Z</time></trkpt>
<trkpt lat="48.902355194092" lon="2.692574262619"><ele></ele><time>2025-5-17T6:34:53Z</time></trkpt>
<trkpt lat="48.902206420898" lon="2.6927001476288"><ele></ele><time>2025-5-17T6:34:56Z</time></trkpt>
<trkpt lat="48.902206420898" lon="2.6927001476288"><ele></ele><time>2025-5-17T6:34:59Z</time></trkpt>
<trkpt lat="48.902069091797" lon="2.6927993297577"><ele></ele><time>2025-5-17T6:35:2Z</time></trkpt>
<trkpt lat="48.901931762695" lon="2.6928195953369"><ele></ele><time>2025-5-17T6:35:5Z</time></trkpt>
<trkpt lat="48.901931762695" lon="2.6928195953369"><ele></ele><time>2025-5-17T6:35:8Z</time></trkpt>
<trkpt lat="48.901824951172" lon="2.692818403244"><ele></ele><time>2025-5-17T6:35:11Z</time></trkpt>
<trkpt lat="48.901824951172" lon="2.692818403244"><ele></ele><time>2025-5-17T6:35:14Z</time></trkpt>
<trkpt lat="48.901824951172" lon="2.692818403244"><ele></ele><time>2025-5-17T6:35:17Z</time></trkpt>
<trkpt lat="48.901718139648" lon="2.6928656101227"><ele></ele><time>2025-5-17T6:35:20Z</time></trkpt>
<trkpt lat="48.901641845703" lon="2.6928720474243"><ele></ele><time>2025-5-17T6:35:23Z</time></trkpt>
<trkpt lat="48.901641845703" lon="2.6928720474243"><ele></ele><time>2025-5-17T6:35:26Z</time></trkpt>
<trkpt lat="48.901561737061" lon="2.6928651332855"><ele></ele><time>2025-5-17T6:35:29Z</time></trkpt>
<trkpt lat="48.901470184326" lon="2.6928567886353"><ele></ele><time>2025-5-17T6:35:32Z</time></trkpt>
<trkpt lat="48.901382446289" lon="2.6928391456604"><ele></ele><time>2025-5-17T6:35:35Z</time></trkpt>
<trkpt lat="48.901382446289" lon="2.6928391456604"><ele></ele><time>2025-5-17T6:35:38Z</time></trkpt>
<trkpt lat="48.901287078857" lon="2.6928198337555"><ele></ele><time>2025-5-17T6:35:41Z</time></trkpt>
<trkpt lat="48.901172637939" lon="2.692804813385"><ele></ele><time>2025-5-17T6:35:44Z</time></trkpt>
<trkpt lat="48.901073455811" lon="2.6927843093872"><ele></ele><time>2025-5-17T6:35:47Z</time></trkpt>
<trkpt lat="48.901073455811" lon="2.6927843093872"><ele></ele><time>2025-5-17T6:35:50Z</time></trkpt>
<trkpt lat="48.900985717773" lon="2.6927678585052"><ele></ele><time>2025-5-17T6:35:53Z</time></trkpt>
<trkpt lat="48.900901794434" lon="2.6927633285522"><ele></ele><time>2025-5-17T6:35:56Z</time></trkpt>
<trkpt lat="48.900787353516" lon="2.6927351951599"><ele></ele><time>2025-5-17T6:35:59Z</time></trkpt>
<trkpt lat="48.900787353516" lon="2.6927351951599"><ele></ele><time>2025-5-17T6:36:2Z</time></trkpt>
<trkpt lat="48.900691986084" lon="2.6927025318146"><ele></ele><time>2025-5-17T6:36:5Z</time></trkpt>
<trkpt lat="48.900577545166" lon="2.6927015781403"><ele></ele><time>2025-5-17T6:36:8Z</time></trkpt>
<trkpt lat="48.900466918945" lon="2.6927375793457"><ele></ele><time>2025-5-17T6:36:11Z</time></trkpt>
<trkpt lat="48.900466918945" lon="2.6927375793457"><ele></ele><time>2025-5-17T6:36:14Z</time></trkpt>
<trkpt lat="48.900375366211" lon="2.6927921772003"><ele></ele><time>2025-5-17T6:36:17Z</time></trkpt>
<trkpt lat="48.900287628174" lon="2.6928415298462"><ele></ele><time>2025-5-17T6:36:20Z</time></trkpt>
<trkpt lat="48.900211334229" lon="2.6928603649139"><ele></ele><time>2025-5-17T6:36:23Z</time></trkpt>
<trkpt lat="48.900127410889" lon="2.6928763389587"><ele></ele><time>2025-5-17T6:36:26Z</time></trkpt>
<trkpt lat="48.900039672852" lon="2.6928958892822"><ele></ele><time>2025-5-17T6:36:29Z</time></trkpt>
<trkpt lat="48.900039672852" lon="2.6928958892822"><ele></ele><time>2025-5-17T6:36:32Z</time></trkpt>
<trkpt lat="48.899963378906" lon="2.6929180622101"><ele></ele><time>2025-5-17T6:36:35Z</time></trkpt>
<trkpt lat="48.899887084961" lon="2.6929349899292"><ele></ele><time>2025-5-17T6:36:38Z</time></trkpt>
<trkpt lat="48.899799346924" lon="2.6929571628571"><ele></ele><time>2025-5-17T6:36:41Z</time></trkpt>
<trkpt lat="48.899799346924" lon="2.6929571628571"><ele></ele><time>2025-5-17T6:36:44Z</time></trkpt>
<trkpt lat="48.899711608887" lon="2.6929726600647"><ele></ele><time>2025-5-17T6:36:47Z</time></trkpt>
<trkpt lat="48.899604797363" lon="2.6929819583893"><ele></ele><time>2025-5-17T6:36:50Z</time></trkpt>
<trkpt lat="48.899517059326" lon="2.6929805278778"><ele></ele><time>2025-5-17T6:36:53Z</time></trkpt>
<trkpt lat="48.899517059326" lon="2.6929805278778"><ele></ele><time>2025-5-17T6:36:56Z</time></trkpt>
<trkpt lat="48.899440765381" lon="2.6929738521576"><ele></ele><time>2025-5-17T6:36:59Z</time></trkpt>
<trkpt lat="48.899368286133" lon="2.6929721832275"><ele></ele><time>2025-5-17T6:37:2Z</time></trkpt>
<trkpt lat="48.89928817749" lon="2.6929671764374"><ele></ele><time>2025-5-17T6:37:5Z</time></trkpt>
<trkpt lat="48.89928817749" lon="2.6929671764374"><ele></ele><time>2025-5-17T6:37:8Z</time></trkpt>
<trkpt lat="48.899208068848" lon="2.6929564476013"><ele></ele><time>2025-5-17T6:37:11Z</time></trkpt>
<trkpt lat="48.899116516113" lon="2.6929521560669"><ele></ele><time>2025-5-17T6:37:14Z</time></trkpt>
<trkpt lat="48.899024963379" lon="2.6929545402527"><ele></ele><time>2025-5-17T6:37:17Z</time></trkpt>
<trkpt lat="48.899024963379" lon="2.6929545402527"><ele></ele><time>2025-5-17T6:37:20Z</time></trkpt>
<trkpt lat="48.898929595947" lon="2.6929607391357"><ele></ele><time>2025-5-17T6:37:23Z</time></trkpt>
<trkpt lat="48.898845672607" lon="2.6929686069489"><ele></ele><time>2025-5-17T6:37:26Z</time></trkpt>
<trkpt lat="48.898769378662" lon="2.6929757595062"><ele></ele><time>2025-5-17T6:37:29Z</time></trkpt>
<trkpt lat="48.898769378662" lon="2.6929757595062"><ele></ele><time>2025-5-17T6:37:32Z</time></trkpt>
<trkpt lat="48.898681640625" lon="2.6929850578308"><ele></ele><time>2025-5-17T6:37:35Z</time></trkpt>
<trkpt lat="48.898578643799" lon="2.6929862499237"><ele></ele><time>2025-5-17T6:37:38Z</time></trkpt>
<trkpt lat="48.89847946167" lon="2.6929821968079"><ele></ele><time>2025-5-17T6:37:41Z</time></trkpt>
<trkpt lat="48.89847946167" lon="2.6929821968079"><ele></ele><time>2025-5-17T6:37:44Z</time></trkpt>
<trkpt lat="48.89839553833" lon="2.6929850578308"><ele></ele><time>2025-5-17T6:37:47Z</time></trkpt>
<trkpt lat="48.898319244385" lon="2.6929941177368"><ele></ele><time>2025-5-17T6:37:50Z</time></trkpt>
<trkpt lat="48.898242950439" lon="2.6930072307587"><ele></ele><time>2025-5-17T6:37:53Z</time></trkpt>
<trkpt lat="48.898242950439" lon="2.6930072307587"><ele></ele><time>2025-5-17T6:37:56Z</time></trkpt>
<trkpt lat="48.8981590271" lon="2.6930215358734"><ele></ele><time>2025-5-17T6:37:59Z</time></trkpt>
<trkpt lat="48.898071289062" lon="2.6930274963379"><ele></ele><time>2025-5-17T6:38:2Z</time></trkpt>
<trkpt lat="48.89799118042" lon="2.6930320262909"><ele></ele><time>2025-5-17T6:38:5Z</time></trkpt>
<trkpt lat="48.89799118042" lon="2.6930320262909"><ele></ele><time>2025-5-17T6:38:8Z</time></trkpt>
<trkpt lat="48.897903442383" lon="2.6930396556854"><ele></ele><time>2025-5-17T6:38:11Z</time></trkpt>
<trkpt lat="48.897804260254" lon="2.6930477619171"><ele></ele><time>2025-5-17T6:38:14Z</time></trkpt>
<trkpt lat="48.897701263428" lon="2.6930546760559"><ele></ele><time>2025-5-17T6:38:17Z</time></trkpt>
<trkpt lat="48.897701263428" lon="2.6930546760559"><ele></ele><time>2025-5-17T6:38:20Z</time></trkpt>
<trkpt lat="48.897594451904" lon="2.6930680274963"><ele></ele><time>2025-5-17T6:38:23Z</time></trkpt>
<trkpt lat="48.897495269775" lon="2.6930844783783"><ele></ele><time>2025-5-17T6:38:26Z</time></trkpt>
<trkpt lat="48.897380828857" lon="2.6930999755859"><ele></ele><time>2025-5-17T6:38:29Z</time></trkpt>
<trkpt lat="48.897380828857" lon="2.6930999755859"><ele></ele><time>2025-5-17T6:38:32Z</time></trkpt>
<trkpt lat="48.897266387939" lon="2.6931116580963"><ele></ele><time>2025-5-17T6:38:35Z</time></trkpt>
<trkpt lat="48.897129058838" lon="2.6931319236755"><ele></ele><time>2025-5-17T6:38:38Z</time></trkpt>
<trkpt lat="48.896991729736" lon="2.6931545734406"><ele></ele><time>2025-5-17T6:38:41Z</time></trkpt>
<trkpt lat="48.896991729736" lon="2.6931545734406"><ele></ele><time>2025-5-17T6:38:44Z</time></trkpt>
<trkpt lat="48.896850585938" lon="2.69318318367"><ele></ele><time>2025-5-17T6:38:47Z</time></trkpt>
<trkpt lat="48.896732330322" lon="2.693216085434"><ele></ele><time>2025-5-17T6:38:50Z</time></trkpt>
<trkpt lat="48.896633148193" lon="2.6932399272919"><ele></ele><time>2025-5-17T6:38:53Z</time></trkpt>
<trkpt lat="48.896633148193" lon="2.6932399272919"><ele></ele><time>2025-5-17T6:38:56Z</time></trkpt>
<trkpt lat="48.896553039551" lon="2.6932561397552"><ele></ele><time>2025-5-17T6:38:59Z</time></trkpt>
<trkpt lat="48.896472930908" lon="2.6932663917542"><ele></ele><time>2025-5-17T6:39:2Z</time></trkpt>
<trkpt lat="48.896389007568" lon="2.6932775974274"><ele></ele><time>2025-5-17T6:39:5Z</time></trkpt>
<trkpt lat="48.896389007568" lon="2.6932775974274"><ele></ele><time>2025-5-17T6:39:8Z</time></trkpt>
<trkpt lat="48.896308898926" lon="2.6932911872864"><ele></ele><time>2025-5-17T6:39:11Z</time></trkpt>
<trkpt lat="48.896224975586" lon="2.6933059692383"><ele></ele><time>2025-5-17T6:39:14Z</time></trkpt>
<trkpt lat="48.896137237549" lon="2.6933197975159"><ele></ele><time>2025-5-17T6:39:17Z</time></trkpt>
<trkpt lat="48.896137237549" lon="2.6933197975159"><ele></ele><time>2025-5-17T6:39:20Z</time></trkpt>
<trkpt lat="48.896057128906" lon="2.6933305263519"><ele></ele><time>2025-5-17T6:39:23Z</time></trkpt>
<trkpt lat="48.895984649658" lon="2.6933400630951"><ele></ele><time>2025-5-17T6:39:26Z</time></trkpt>
<trkpt lat="48.89591217041" lon="2.6933434009552"><ele></ele><time>2025-5-17T6:39:29Z</time></trkpt>
<trkpt lat="48.89591217041" lon="2.6933434009552"><ele></ele><time>2025-5-17T6:39:32Z</time></trkpt>
<trkpt lat="48.895847320557" lon="2.6933515071869"><ele></ele><time>2025-5-17T6:39:35Z</time></trkpt>
<trkpt lat="48.895778656006" lon="2.6933670043945"><ele></ele><time>2025-5-17T6:39:38Z</time></trkpt>
<trkpt lat="48.895706176758" lon="2.6933860778809"><ele></ele><time>2025-5-17T6:39:41Z</time></trkpt>
<trkpt lat="48.895706176758" lon="2.6933860778809"><ele></ele><time>2025-5-17T6:39:44Z</time></trkpt>
<trkpt lat="48.89563369751" lon="2.693409204483"><ele></ele><time>2025-5-17T6:39:47Z</time></trkpt>
<trkpt lat="48.895557403564" lon="2.6934335231781"><ele></ele><time>2025-5-17T6:39:50Z</time></trkpt>
<trkpt lat="48.895469665527" lon="2.6934669017792"><ele></ele><time>2025-5-17T6:39:53Z</time></trkpt>
<trkpt lat="48.895469665527" lon="2.6934669017792"><ele></ele><time>2025-5-17T6:39:56Z</time></trkpt>
<trkpt lat="48.895385742188" lon="2.6935067176819"><ele></ele><time>2025-5-17T6:39:59Z</time></trkpt>
<trkpt lat="48.895305633545" lon="2.693553686142"><ele></ele><time>2025-5-17T6:40:2Z</time></trkpt>
<trkpt lat="48.895221710205" lon="2.6936042308807"><ele></ele><time>2025-5-17T6:40:5Z</time></trkpt>
<trkpt lat="48.895149230957" lon="2.6936523914337"><ele></ele><time>2025-5-17T6:40:8Z</time></trkpt>
<trkpt lat="48.895072937012" lon="2.6936991214752"><ele></ele><time>2025-5-17T6:40:11Z</time></trkpt>
<trkpt lat="48.895072937012" lon="2.6936991214752"><ele></ele><time>2025-5-17T6:40:14Z</time></trkpt>
<trkpt lat="48.894985198975" lon="2.6937508583069"><ele></ele><time>2025-5-17T6:40:17Z</time></trkpt>
<trkpt lat="48.894901275635" lon="2.6938004493713"><ele></ele><time>2025-5-17T6:40:20Z</time></trkpt>
<trkpt lat="48.894813537598" lon="2.693855047226"><ele></ele><time>2025-5-17T6:40:23Z</time></trkpt>
<trkpt lat="48.894813537598" lon="2.693855047226"><ele></ele><time>2025-5-17T6:40:26Z</time></trkpt>
<trkpt lat="48.894721984863" lon="2.6939158439636"><ele></ele><time>2025-5-17T6:40:29Z</time></trkpt>
<trkpt lat="48.894622802734" lon="2.6939744949341"><ele></ele><time>2025-5-17T6:40:32Z</time></trkpt>
<trkpt lat="48.894538879395" lon="2.6940228939056"><ele></ele><time>2025-5-17T6:40:35Z</time></trkpt>
<trkpt lat="48.894538879395" lon="2.6940228939056"><ele></ele><time>2025-5-17T6:40:38Z</time></trkpt>
<trkpt lat="48.894454956055" lon="2.6940622329712"><ele></ele><time>2025-5-17T6:40:41Z</time></trkpt>
<trkpt lat="48.894374847412" lon="2.6941058635712"><ele></ele><time>2025-5-17T6:40:44Z</time></trkpt>
<trkpt lat="48.89427947998" lon="2.6941561698914"><ele></ele><time>2025-5-17T6:40:47Z</time></trkpt>
<trkpt lat="48.894184112549" lon="2.6942024230957"><ele></ele><time>2025-5-17T6:40:50Z</time></trkpt>
<trkpt lat="48.894088745117" lon="2.694244146347"><ele></ele><time>2025-5-17T6:40:53Z</time></trkpt>
<trkpt lat="48.894088745117" lon="2.694244146347"><ele></ele><time>2025-5-17T6:40:56Z</time></trkpt>
<trkpt lat="48.893993377686" lon="2.6942934989929"><ele></ele><time>2025-5-17T6:40:59Z</time></trkpt>
<trkpt lat="48.893886566162" lon="2.6943519115448"><ele></ele><time>2025-5-17T6:41:2Z</time></trkpt>
<trkpt lat="48.893787384033" lon="2.6944072246552"><ele></ele><time>2025-5-17T6:41:5Z</time></trkpt>
<trkpt lat="48.893692016602" lon="2.6944680213928"><ele></ele><time>2025-5-17T6:41:8Z</time></trkpt>
<trkpt lat="48.893589019775" lon="2.6945343017578"><ele></ele><time>2025-5-17T6:41:11Z</time></trkpt>
<trkpt lat="48.893589019775" lon="2.6945343017578"><ele></ele><time>2025-5-17T6:41:14Z</time></trkpt>
<trkpt lat="48.893478393555" lon="2.694598197937"><ele></ele><time>2025-5-17T6:41:17Z</time></trkpt>
<trkpt lat="48.893371582031" lon="2.6946601867676"><ele></ele><time>2025-5-17T6:41:20Z</time></trkpt>
<trkpt lat="48.893272399902" lon="2.6947212219238"><ele></ele><time>2025-5-17T6:41:23Z</time></trkpt>
<trkpt lat="48.893272399902" lon="2.6947212219238"><ele></ele><time>2025-5-17T6:41:26Z</time></trkpt>
<trkpt lat="48.893180847168" lon="2.6947736740112"><ele></ele><time>2025-5-17T6:41:29Z</time></trkpt>
<trkpt lat="48.893077850342" lon="2.6948246955872"><ele></ele><time>2025-5-17T6:41:32Z</time></trkpt>
<trkpt lat="48.893077850342" lon="2.6948246955872"><ele></ele><time>2025-5-17T6:41:35Z</time></trkpt>
<trkpt lat="48.892963409424" lon="2.694881439209"><ele></ele><time>2025-5-17T6:41:38Z</time></trkpt>
<trkpt lat="48.892841339111" lon="2.6949388980865"><ele></ele><time>2025-5-17T6:41:41Z</time></trkpt>
<trkpt lat="48.892726898193" lon="2.6949667930603"><ele></ele><time>2025-5-17T6:41:44Z</time></trkpt>
<trkpt lat="48.892608642578" lon="2.6949753761292"><ele></ele><time>2025-5-17T6:41:47Z</time></trkpt>
<trkpt lat="48.89249420166" lon="2.6949856281281"><ele></ele><time>2025-5-17T6:41:50Z</time></trkpt>
<trkpt lat="48.892372131348" lon="2.6949996948242"><ele></ele><time>2025-5-17T6:41:53Z</time></trkpt>
<trkpt lat="48.892246246338" lon="2.6950271129608"><ele></ele><time>2025-5-17T6:41:56Z</time></trkpt>
<trkpt lat="48.892135620117" lon="2.6950755119324"><ele></ele><time>2025-5-17T6:41:59Z</time></trkpt>
<trkpt lat="48.892044067383" lon="2.6951839923859"><ele></ele><time>2025-5-17T6:42:2Z</time></trkpt>
<trkpt lat="48.891975402832" lon="2.695339679718"><ele></ele><time>2025-5-17T6:42:5Z</time></trkpt>
<trkpt lat="48.891910552979" lon="2.6955275535583"><ele></ele><time>2025-5-17T6:42:8Z</time></trkpt>
<trkpt lat="48.891845703125" lon="2.6957240104675"><ele></ele><time>2025-5-17T6:42:11Z</time></trkpt>
<trkpt lat="48.891784667969" lon="2.6959149837494"><ele></ele><time>2025-5-17T6:42:14Z</time></trkpt>
<trkpt lat="48.891723632812" lon="2.6961245536804"><ele></ele><time>2025-5-17T6:42:17Z</time></trkpt>
<trkpt lat="48.891723632812" lon="2.6961245536804"><ele></ele><time>2025-5-17T6:42:20Z</time></trkpt>
<trkpt lat="48.891658782959" lon="2.6963593959808"><ele></ele><time>2025-5-17T6:42:23Z</time></trkpt>
<trkpt lat="48.891586303711" lon="2.6966259479523"><ele></ele><time>2025-5-17T6:42:26Z</time></trkpt>
<trkpt lat="48.891506195068" lon="2.6969289779663"><ele></ele><time>2025-5-17T6:42:29Z</time></trkpt>
<trkpt lat="48.891422271729" lon="2.6972222328186"><ele></ele><time>2025-5-17T6:42:32Z</time></trkpt>
<trkpt lat="48.891330718994" lon="2.6975014209747"><ele></ele><time>2025-5-17T6:42:35Z</time></trkpt>
<trkpt lat="48.891250610352" lon="2.6977579593658"><ele></ele><time>2025-5-17T6:42:38Z</time></trkpt>
<trkpt lat="48.891181945801" lon="2.6979870796204"><ele></ele><time>2025-5-17T6:42:41Z</time></trkpt>
<trkpt lat="48.891117095947" lon="2.6981937885284"><ele></ele><time>2025-5-17T6:42:44Z</time></trkpt>
<trkpt lat="48.891059875488" lon="2.6983644962311"><ele></ele><time>2025-5-17T6:42:47Z</time></trkpt>
<trkpt lat="48.891010284424" lon="2.6984977722168"><ele></ele><time>2025-5-17T6:42:50Z</time></trkpt>
<trkpt lat="48.890979766846" lon="2.6985802650452"><ele></ele><time>2025-5-17T6:42:53Z</time></trkpt>
<trkpt lat="48.890979766846" lon="2.6985802650452"><ele></ele><time>2025-5-17T6:42:56Z</time></trkpt>
<trkpt lat="48.891036987305" lon="2.6987121105194"><ele></ele><time>2025-5-17T6:42:59Z</time></trkpt>
<trkpt lat="48.891105651855" lon="2.6987318992615"><ele></ele><time>2025-5-17T6:43:2Z</time></trkpt>
<trkpt lat="48.891193389893" lon="2.6987466812134"><ele></ele><time>2025-5-17T6:43:5Z</time></trkpt>
<trkpt lat="48.891284942627" lon="2.6987569332123"><ele></ele><time>2025-5-17T6:43:8Z</time></trkpt>
<trkpt lat="48.891368865967" lon="2.6987664699554"><ele></ele><time>2025-5-17T6:43:11Z</time></trkpt>
<trkpt lat="48.89143371582" lon="2.6987900733948"><ele></ele><time>2025-5-17T6:43:14Z</time></trkpt>
<trkpt lat="48.891494750977" lon="2.6988205909729"><ele></ele><time>2025-5-17T6:43:17Z</time></trkpt>
<trkpt lat="48.891555786133" lon="2.6988072395325"><ele></ele><time>2025-5-17T6:43:20Z</time></trkpt>
<trkpt lat="48.891616821289" lon="2.6987979412079"><ele></ele><time>2025-5-17T6:43:23Z</time></trkpt>
<trkpt lat="48.891677856445" lon="2.6988005638123"><ele></ele><time>2025-5-17T6:43:26Z</time></trkpt>
<trkpt lat="48.891757965088" lon="2.6988003253937"><ele></ele><time>2025-5-17T6:43:29Z</time></trkpt>
<trkpt lat="48.891845703125" lon="2.6988084316254"><ele></ele><time>2025-5-17T6:43:32Z</time></trkpt>
<trkpt lat="48.89192199707" lon="2.6988234519958"><ele></ele><time>2025-5-17T6:43:35Z</time></trkpt>
<trkpt lat="48.892002105713" lon="2.6988351345062"><ele></ele><time>2025-5-17T6:43:38Z</time></trkpt>
<trkpt lat="48.892002105713" lon="2.6988351345062"><ele></ele><time>2025-5-17T6:43:41Z</time></trkpt>
<trkpt lat="48.892078399658" lon="2.6988475322723"><ele></ele><time>2025-5-17T6:43:44Z</time></trkpt>
<trkpt lat="48.892154693604" lon="2.6988615989685"><ele></ele><time>2025-5-17T6:43:47Z</time></trkpt>
<trkpt lat="48.892230987549" lon="2.6988723278046"><ele></ele><time>2025-5-17T6:43:50Z</time></trkpt>
<trkpt lat="48.8922996521" lon="2.6988770961761"><ele></ele><time>2025-5-17T6:43:53Z</time></trkpt>
<trkpt lat="48.89236831665" lon="2.698878288269"><ele></ele><time>2025-5-17T6:43:56Z</time></trkpt>
<trkpt lat="48.892436981201" lon="2.6988787651062"><ele></ele><time>2025-5-17T6:43:59Z</time></trkpt>
<trkpt lat="48.892517089844" lon="2.6988759040833"><ele></ele><time>2025-5-17T6:44:2Z</time></trkpt>
<trkpt lat="48.892597198486" lon="2.6988694667816"><ele></ele><time>2025-5-17T6:44:5Z</time></trkpt>
<trkpt lat="48.892665863037" lon="2.6988656520844"><ele></ele><time>2025-5-17T6:44:8Z</time></trkpt>
<trkpt lat="48.892738342285" lon="2.6988666057587"><ele></ele><time>2025-5-17T6:44:11Z</time></trkpt>
<trkpt lat="48.892807006836" lon="2.6988849639893"><ele></ele><time>2025-5-17T6:44:14Z</time></trkpt>
<trkpt lat="48.892807006836" lon="2.6988849639893"><ele></ele><time>2025-5-17T6:44:17Z</time></trkpt>
<trkpt lat="48.892848968506" lon="2.6989524364471"><ele></ele><time>2025-5-17T6:44:20Z</time></trkpt>
<trkpt lat="48.892883300781" lon="2.6990416049957"><ele></ele><time>2025-5-17T6:44:23Z</time></trkpt>
<trkpt lat="48.892906188965" lon="2.699159860611"><ele></ele><time>2025-5-17T6:44:26Z</time></trkpt>
<trkpt lat="48.892906188965" lon="2.699159860611"><ele></ele><time>2025-5-17T6:44:29Z</time></trkpt>
<trkpt lat="48.892921447754" lon="2.6992602348328"><ele></ele><time>2025-5-17T6:44:32Z</time></trkpt>
<trkpt lat="48.892925262451" lon="2.6993658542633"><ele></ele><time>2025-5-17T6:44:35Z</time></trkpt>
<trkpt lat="48.892932891846" lon="2.6994686126709"><ele></ele><time>2025-5-17T6:44:38Z</time></trkpt>
<trkpt lat="48.89294052124" lon="2.6995596885681"><ele></ele><time>2025-5-17T6:44:41Z</time></trkpt>
<trkpt lat="48.892948150635" lon="2.6996643543243"><ele></ele><time>2025-5-17T6:44:44Z</time></trkpt>
<trkpt lat="48.892948150635" lon="2.6996643543243"><ele></ele><time>2025-5-17T6:44:47Z</time></trkpt>
<trkpt lat="48.892955780029" lon="2.6997580528259"><ele></ele><time>2025-5-17T6:44:50Z</time></trkpt>
<trkpt lat="48.892955780029" lon="2.6997580528259"><ele></ele><time>2025-5-17T6:44:53Z</time></trkpt>
<trkpt lat="48.892978668213" lon="2.6999237537384"><ele></ele><time>2025-5-17T6:44:56Z</time></trkpt>
<trkpt lat="48.892978668213" lon="2.6999237537384"><ele></ele><time>2025-5-17T6:44:59Z</time></trkpt>
<trkpt lat="48.89298248291" lon="2.7000102996826"><ele></ele><time>2025-5-17T6:45:2Z</time></trkpt>
<trkpt lat="48.89298248291" lon="2.7000102996826"><ele></ele><time>2025-5-17T6:45:5Z</time></trkpt>
<trkpt lat="48.893001556396" lon="2.7001442909241"><ele></ele><time>2025-5-17T6:45:8Z</time></trkpt>
<trkpt lat="48.893001556396" lon="2.7001442909241"><ele></ele><time>2025-5-17T6:45:11Z</time></trkpt>
<trkpt lat="48.893001556396" lon="2.7001442909241"><ele></ele><time>2025-5-17T6:45:14Z</time></trkpt>
<trkpt lat="48.893032073975" lon="2.7002942562103"><ele></ele><time>2025-5-17T6:45:17Z</time></trkpt>
<trkpt lat="48.893032073975" lon="2.7002942562103"><ele></ele><time>2025-5-17T6:45:20Z</time></trkpt>
<trkpt lat="48.893032073975" lon="2.7002942562103"><ele></ele><time>2025-5-17T6:45:23Z</time></trkpt>
<trkpt lat="48.893043518066" lon="2.700413942337"><ele></ele><time>2025-5-17T6:45:26Z</time></trkpt>
<trkpt lat="48.893043518066" lon="2.700413942337"><ele></ele><time>2025-5-17T6:45:29Z</time></trkpt>
<trkpt lat="48.893043518066" lon="2.700413942337"><ele></ele><time>2025-5-17T6:45:32Z</time></trkpt>
<trkpt lat="48.893043518066" lon="2.700413942337"><ele></ele><time>2025-5-17T6:45:35Z</time></trkpt>
<trkpt lat="48.893104553223" lon="2.7004284858704"><ele></ele><time>2025-5-17T6:45:38Z</time></trkpt>
<trkpt lat="48.893180847168" lon="2.7004005908966"><ele></ele><time>2025-5-17T6:45:41Z</time></trkpt>
<trkpt lat="48.893180847168" lon="2.7004005908966"><ele></ele><time>2025-5-17T6:45:44Z</time></trkpt>
<trkpt lat="48.8932762146" lon="2.7004158496857"><ele></ele><time>2025-5-17T6:45:47Z</time></trkpt>
<trkpt lat="48.8932762146" lon="2.7004158496857"><ele></ele><time>2025-5-17T6:45:50Z</time></trkpt>
<trkpt lat="48.893375396729" lon="2.7004222869873"><ele></ele><time>2025-5-17T6:45:53Z</time></trkpt>
<trkpt lat="48.893432617188" lon="2.7004189491272"><ele></ele><time>2025-5-17T6:45:56Z</time></trkpt>
<trkpt lat="48.893432617188" lon="2.7004189491272"><ele></ele><time>2025-5-17T6:45:59Z</time></trkpt>
<trkpt lat="48.893543243408" lon="2.7004055976868"><ele></ele><time>2025-5-17T6:46:2Z</time></trkpt>
<trkpt lat="48.893611907959" lon="2.7003991603851"><ele></ele><time>2025-5-17T6:46:5Z</time></trkpt>
<trkpt lat="48.893692016602" lon="2.7003905773163"><ele></ele><time>2025-5-17T6:46:8Z</time></trkpt>
<trkpt lat="48.893692016602" lon="2.7003905773163"><ele></ele><time>2025-5-17T6:46:11Z</time></trkpt>
<trkpt lat="48.893787384033" lon="2.7003786563873"><ele></ele><time>2025-5-17T6:46:14Z</time></trkpt>
<trkpt lat="48.893882751465" lon="2.7003684043884"><ele></ele><time>2025-5-17T6:46:17Z</time></trkpt>
<trkpt lat="48.893978118896" lon="2.7003600597382"><ele></ele><time>2025-5-17T6:46:20Z</time></trkpt>
<trkpt lat="48.893978118896" lon="2.7003600597382"><ele></ele><time>2025-5-17T6:46:23Z</time></trkpt>
<trkpt lat="48.894077301025" lon="2.7003531455994"><ele></ele><time>2025-5-17T6:46:26Z</time></trkpt>
<trkpt lat="48.89416885376" lon="2.7003469467163"><ele></ele><time>2025-5-17T6:46:29Z</time></trkpt>
<trkpt lat="48.894248962402" lon="2.700347661972"><ele></ele><time>2025-5-17T6:46:32Z</time></trkpt>
<trkpt lat="48.894248962402" lon="2.700347661972"><ele></ele><time>2025-5-17T6:46:35Z</time></trkpt>
<trkpt lat="48.894325256348" lon="2.7003757953644"><ele></ele><time>2025-5-17T6:46:38Z</time></trkpt>
<trkpt lat="48.894386291504" lon="2.7004542350769"><ele></ele><time>2025-5-17T6:46:41Z</time></trkpt>
<trkpt lat="48.894424438477" lon="2.7005667686462"><ele></ele><time>2025-5-17T6:46:44Z</time></trkpt>
<trkpt lat="48.894451141357" lon="2.7006542682648"><ele></ele><time>2025-5-17T6:46:47Z</time></trkpt>
<trkpt lat="48.894451141357" lon="2.7006542682648"><ele></ele><time>2025-5-17T6:46:50Z</time></trkpt>
<trkpt lat="48.894451141357" lon="2.7006542682648"><ele></ele><time>2025-5-17T6:46:53Z</time></trkpt>
<trkpt lat="48.894569396973" lon="2.7006182670593"><ele></ele><time>2025-5-17T6:46:56Z</time></trkpt>
<trkpt lat="48.894649505615" lon="2.7005767822266"><ele></ele><time>2025-5-17T6:46:59Z</time></trkpt>
<trkpt lat="48.894649505615" lon="2.7005767822266"><ele></ele><time>2025-5-17T6:47:2Z</time></trkpt>
<trkpt lat="48.894748687744" lon="2.7005045413971"><ele></ele><time>2025-5-17T6:47:5Z</time></trkpt>
<trkpt lat="48.894798278809" lon="2.7004611492157"><ele></ele><time>2025-5-17T6:47:8Z</time></trkpt>
<trkpt lat="48.894798278809" lon="2.7004611492157"><ele></ele><time>2025-5-17T6:47:11Z</time></trkpt>
<trkpt lat="48.89485168457" lon="2.7004203796387"><ele></ele><time>2025-5-17T6:47:14Z</time></trkpt>
<trkpt lat="48.894947052002" lon="2.7003531455994"><ele></ele><time>2025-5-17T6:47:17Z</time></trkpt>
<trkpt lat="48.895000457764" lon="2.7003178596497"><ele></ele><time>2025-5-17T6:47:20Z</time></trkpt>
<trkpt lat="48.895057678223" lon="2.7002820968628"><ele></ele><time>2025-5-17T6:47:23Z</time></trkpt>
<trkpt lat="48.895057678223" lon="2.7002820968628"><ele></ele><time>2025-5-17T6:47:26Z</time></trkpt>
<trkpt lat="48.895107269287" lon="2.7002458572388"><ele></ele><time>2025-5-17T6:47:29Z</time></trkpt>
<trkpt lat="48.895107269287" lon="2.7002458572388"><ele></ele><time>2025-5-17T6:47:32Z</time></trkpt>
<trkpt lat="48.89518737793" lon="2.7001910209656"><ele></ele><time>2025-5-17T6:47:35Z</time></trkpt>
<trkpt lat="48.89518737793" lon="2.7001910209656"><ele></ele><time>2025-5-17T6:47:38Z</time></trkpt>
<trkpt lat="48.89518737793" lon="2.7001910209656"><ele></ele><time>2025-5-17T6:47:41Z</time></trkpt>
<trkpt lat="48.895275115967" lon="2.7001354694366"><ele></ele><time>2025-5-17T6:47:44Z</time></trkpt>
<trkpt lat="48.895275115967" lon="2.7001354694366"><ele></ele><time>2025-5-17T6:47:47Z</time></trkpt>
<trkpt lat="48.895275115967" lon="2.7001354694366"><ele></ele><time>2025-5-17T6:47:50Z</time></trkpt>
<trkpt lat="48.895359039307" lon="2.7000813484192"><ele></ele><time>2025-5-17T6:47:53Z</time></trkpt>
<trkpt lat="48.895359039307" lon="2.7000813484192"><ele></ele><time>2025-5-17T6:47:56Z</time></trkpt>
<trkpt lat="48.895442962646" lon="2.7000293731689"><ele></ele><time>2025-5-17T6:47:59Z</time></trkpt>
<trkpt lat="48.895442962646" lon="2.7000293731689"><ele></ele><time>2025-5-17T6:48:2Z</time></trkpt>
<trkpt lat="48.895442962646" lon="2.7000293731689"><ele></ele><time>2025-5-17T6:48:5Z</time></trkpt>
<trkpt lat="48.895526885986" lon="2.6999802589417"><ele></ele><time>2025-5-17T6:48:8Z</time></trkpt>
<trkpt lat="48.895526885986" lon="2.6999802589417"><ele></ele><time>2025-5-17T6:48:11Z</time></trkpt>
<trkpt lat="48.895595550537" lon="2.6999351978302"><ele></ele><time>2025-5-17T6:48:14Z</time></trkpt>
<trkpt lat="48.895702362061" lon="2.6998538970947"><ele></ele><time>2025-5-17T6:48:17Z</time></trkpt>
<trkpt lat="48.895702362061" lon="2.6998538970947"><ele></ele><time>2025-5-17T6:48:20Z</time></trkpt>
<trkpt lat="48.895755767822" lon="2.6998145580292"><ele></ele><time>2025-5-17T6:48:23Z</time></trkpt>
<trkpt lat="48.895809173584" lon="2.6997761726379"><ele></ele><time>2025-5-17T6:48:26Z</time></trkpt>
<trkpt lat="48.895866394043" lon="2.6997339725494"><ele></ele><time>2025-5-17T6:48:29Z</time></trkpt>
<trkpt lat="48.895866394043" lon="2.6997339725494"><ele></ele><time>2025-5-17T6:48:32Z</time></trkpt>
<trkpt lat="48.895973205566" lon="2.6996591091156"><ele></ele><time>2025-5-17T6:48:35Z</time></trkpt>
<trkpt lat="48.895973205566" lon="2.6996591091156"><ele></ele><time>2025-5-17T6:48:38Z</time></trkpt>
<trkpt lat="48.896072387695" lon="2.6995894908905"><ele></ele><time>2025-5-17T6:48:41Z</time></trkpt>
<trkpt lat="48.896171569824" lon="2.6995203495026"><ele></ele><time>2025-5-17T6:48:44Z</time></trkpt>
<trkpt lat="48.896171569824" lon="2.6995203495026"><ele></ele><time>2025-5-17T6:48:47Z</time></trkpt>
<trkpt lat="48.896171569824" lon="2.6995203495026"><ele></ele><time>2025-5-17T6:48:50Z</time></trkpt>
<trkpt lat="48.896270751953" lon="2.6994452476501"><ele></ele><time>2025-5-17T6:48:53Z</time></trkpt>
<trkpt lat="48.896320343018" lon="2.6993997097015"><ele></ele><time>2025-5-17T6:48:56Z</time></trkpt>
<trkpt lat="48.896320343018" lon="2.6993997097015"><ele></ele><time>2025-5-17T6:48:59Z</time></trkpt>
<trkpt lat="48.896320343018" lon="2.6993997097015"><ele></ele><time>2025-5-17T6:49:2Z</time></trkpt>
<trkpt lat="48.896396636963" lon="2.6993443965912"><ele></ele><time>2025-5-17T6:49:5Z</time></trkpt>
<trkpt lat="48.896396636963" lon="2.6993443965912"><ele></ele><time>2025-5-17T6:49:8Z</time></trkpt>
<trkpt lat="48.896396636963" lon="2.6993443965912"><ele></ele><time>2025-5-17T6:49:11Z</time></trkpt>
<trkpt lat="48.896472930908" lon="2.6992993354797"><ele></ele><time>2025-5-17T6:49:14Z</time></trkpt>
<trkpt lat="48.89656829834" lon="2.6992359161377"><ele></ele><time>2025-5-17T6:49:17Z</time></trkpt>
<trkpt lat="48.89656829834" lon="2.6992359161377"><ele></ele><time>2025-5-17T6:49:20Z</time></trkpt>
<trkpt lat="48.896625518799" lon="2.6991980075836"><ele></ele><time>2025-5-17T6:49:23Z</time></trkpt>
<trkpt lat="48.896678924561" lon="2.6991596221924"><ele></ele><time>2025-5-17T6:49:26Z</time></trkpt>
<trkpt lat="48.89673614502" lon="2.6991055011749"><ele></ele><time>2025-5-17T6:49:29Z</time></trkpt>
<trkpt lat="48.89673614502" lon="2.6991055011749"><ele></ele><time>2025-5-17T6:49:32Z</time></trkpt>
<trkpt lat="48.896812438965" lon="2.6990325450897"><ele></ele><time>2025-5-17T6:49:35Z</time></trkpt>
<trkpt lat="48.896903991699" lon="2.698956489563"><ele></ele><time>2025-5-17T6:49:38Z</time></trkpt>
<trkpt lat="48.896999359131" lon="2.6988928318024"><ele></ele><time>2025-5-17T6:49:41Z</time></trkpt>
<trkpt lat="48.896999359131" lon="2.6988928318024"><ele></ele><time>2025-5-17T6:49:44Z</time></trkpt>
<trkpt lat="48.897083282471" lon="2.6988415718079"><ele></ele><time>2025-5-17T6:49:47Z</time></trkpt>
<trkpt lat="48.897155761719" lon="2.6988010406494"><ele></ele><time>2025-5-17T6:49:50Z</time></trkpt>
<trkpt lat="48.897235870361" lon="2.6987547874451"><ele></ele><time>2025-5-17T6:49:53Z</time></trkpt>
<trkpt lat="48.897235870361" lon="2.6987547874451"><ele></ele><time>2025-5-17T6:49:56Z</time></trkpt>
<trkpt lat="48.897319793701" lon="2.6986970901489"><ele></ele><time>2025-5-17T6:49:59Z</time></trkpt>
<trkpt lat="48.897392272949" lon="2.6986300945282"><ele></ele><time>2025-5-17T6:50:2Z</time></trkpt>
<trkpt lat="48.897441864014" lon="2.6985814571381"><ele></ele><time>2025-5-17T6:50:5Z</time></trkpt>
<trkpt lat="48.897441864014" lon="2.6985814571381"><ele></ele><time>2025-5-17T6:50:8Z</time></trkpt>
<trkpt lat="48.897441864014" lon="2.6985814571381"><ele></ele><time>2025-5-17T6:50:11Z</time></trkpt>
<trkpt lat="48.897529602051" lon="2.698513507843"><ele></ele><time>2025-5-17T6:50:14Z</time></trkpt>
<trkpt lat="48.897529602051" lon="2.698513507843"><ele></ele><time>2025-5-17T6:50:17Z</time></trkpt>
<trkpt lat="48.897617340088" lon="2.6984446048737"><ele></ele><time>2025-5-17T6:50:20Z</time></trkpt>
<trkpt lat="48.897617340088" lon="2.6984446048737"><ele></ele><time>2025-5-17T6:50:23Z</time></trkpt>
<trkpt lat="48.897682189941" lon="2.6983981132507"><ele></ele><time>2025-5-17T6:50:26Z</time></trkpt>
<trkpt lat="48.897682189941" lon="2.6983981132507"><ele></ele><time>2025-5-17T6:50:29Z</time></trkpt>
<trkpt lat="48.897743225098" lon="2.6983308792114"><ele></ele><time>2025-5-17T6:50:32Z</time></trkpt>
<trkpt lat="48.897743225098" lon="2.6983308792114"><ele></ele><time>2025-5-17T6:50:35Z</time></trkpt>
<trkpt lat="48.897819519043" lon="2.6982679367065"><ele></ele><time>2025-5-17T6:50:38Z</time></trkpt>
<trkpt lat="48.897819519043" lon="2.6982679367065"><ele></ele><time>2025-5-17T6:50:41Z</time></trkpt>
<trkpt lat="48.897872924805" lon="2.6982214450836"><ele></ele><time>2025-5-17T6:50:44Z</time></trkpt>
<trkpt lat="48.897872924805" lon="2.6982214450836"><ele></ele><time>2025-5-17T6:50:47Z</time></trkpt>
<trkpt lat="48.897933959961" lon="2.6981735229492"><ele></ele><time>2025-5-17T6:50:50Z</time></trkpt>
<trkpt lat="48.897933959961" lon="2.6981735229492"><ele></ele><time>2025-5-17T6:50:53Z</time></trkpt>
<trkpt lat="48.897987365723" lon="2.6981222629547"><ele></ele><time>2025-5-17T6:50:56Z</time></trkpt>
<trkpt lat="48.897987365723" lon="2.6981222629547"><ele></ele><time>2025-5-17T6:50:59Z</time></trkpt>
<trkpt lat="48.897987365723" lon="2.6981222629547"><ele></ele><time>2025-5-17T6:51:2Z</time></trkpt>
<trkpt lat="48.897987365723" lon="2.6981222629547"><ele></ele><time>2025-5-17T6:51:5Z</time></trkpt>
<trkpt lat="48.897987365723" lon="2.6981222629547"><ele></ele><time>2025-5-17T6:51:8Z</time></trkpt>
<trkpt lat="48.897987365723" lon="2.6981222629547"><ele></ele><time>2025-5-17T6:51:11Z</time></trkpt>
<trkpt lat="48.89807510376" lon="2.6981611251831"><ele></ele><time>2025-5-17T6:51:14Z</time></trkpt>
<trkpt lat="48.898105621338" lon="2.6982502937317"><ele></ele><time>2025-5-17T6:51:17Z</time></trkpt>
<trkpt lat="48.898139953613" lon="2.6983280181885"><ele></ele><time>2025-5-17T6:51:20Z</time></trkpt>
<trkpt lat="48.898139953613" lon="2.6983280181885"><ele></ele><time>2025-5-17T6:51:23Z</time></trkpt>
<trkpt lat="48.89818572998" lon="2.6984043121338"><ele></ele><time>2025-5-17T6:51:26Z</time></trkpt>
<trkpt lat="48.898239135742" lon="2.6985001564026"><ele></ele><time>2025-5-17T6:51:29Z</time></trkpt>
<trkpt lat="48.898284912109" lon="2.6986029148102"><ele></ele><time>2025-5-17T6:51:32Z</time></trkpt>
<trkpt lat="48.898284912109" lon="2.6986029148102"><ele></ele><time>2025-5-17T6:51:35Z</time></trkpt>
<trkpt lat="48.898338317871" lon="2.6987082958221"><ele></ele><time>2025-5-17T6:51:38Z</time></trkpt>
<trkpt lat="48.89839553833" lon="2.6988162994385"><ele></ele><time>2025-5-17T6:51:41Z</time></trkpt>
<trkpt lat="48.89839553833" lon="2.6988162994385"><ele></ele><time>2025-5-17T6:51:44Z</time></trkpt>
<trkpt lat="48.898445129395" lon="2.6989216804504"><ele></ele><time>2025-5-17T6:51:47Z</time></trkpt>
<trkpt lat="48.898445129395" lon="2.6989216804504"><ele></ele><time>2025-5-17T6:51:50Z</time></trkpt>
<trkpt lat="48.898490905762" lon="2.6990058422089"><ele></ele><time>2025-5-17T6:51:53Z</time></trkpt>
<trkpt lat="48.898490905762" lon="2.6990058422089"><ele></ele><time>2025-5-17T6:51:56Z</time></trkpt>
<trkpt lat="48.898540496826" lon="2.6991310119629"><ele></ele><time>2025-5-17T6:51:59Z</time></trkpt>
<trkpt lat="48.898540496826" lon="2.6991310119629"><ele></ele><time>2025-5-17T6:52:2Z</time></trkpt>
<trkpt lat="48.898582458496" lon="2.6992158889771"><ele></ele><time>2025-5-17T6:52:5Z</time></trkpt>
<trkpt lat="48.898582458496" lon="2.6992158889771"><ele></ele><time>2025-5-17T6:52:8Z</time></trkpt>
<trkpt lat="48.898643493652" lon="2.6992917060852"><ele></ele><time>2025-5-17T6:52:11Z</time></trkpt>
<trkpt lat="48.898693084717" lon="2.6993770599365"><ele></ele><time>2025-5-17T6:52:14Z</time></trkpt>
<trkpt lat="48.898693084717" lon="2.6993770599365"><ele></ele><time>2025-5-17T6:52:17Z</time></trkpt>
<trkpt lat="48.898738861084" lon="2.6994760036469"><ele></ele><time>2025-5-17T6:52:20Z</time></trkpt>
<trkpt lat="48.898738861084" lon="2.6994760036469"><ele></ele><time>2025-5-17T6:52:23Z</time></trkpt>
<trkpt lat="48.898738861084" lon="2.6994760036469"><ele></ele><time>2025-5-17T6:52:26Z</time></trkpt>
<trkpt lat="48.898792266846" lon="2.6995782852173"><ele></ele><time>2025-5-17T6:52:29Z</time></trkpt>
<trkpt lat="48.898792266846" lon="2.6995782852173"><ele></ele><time>2025-5-17T6:52:32Z</time></trkpt>
<trkpt lat="48.898849487305" lon="2.6996743679047"><ele></ele><time>2025-5-17T6:52:35Z</time></trkpt>
<trkpt lat="48.898849487305" lon="2.6996743679047"><ele></ele><time>2025-5-17T6:52:38Z</time></trkpt>
<trkpt lat="48.898849487305" lon="2.6996743679047"><ele></ele><time>2025-5-17T6:52:41Z</time></trkpt>
<trkpt lat="48.898914337158" lon="2.6997447013855"><ele></ele><time>2025-5-17T6:52:44Z</time></trkpt>
<trkpt lat="48.898914337158" lon="2.6997447013855"><ele></ele><time>2025-5-17T6:52:47Z</time></trkpt>
<trkpt lat="48.898914337158" lon="2.6997447013855"><ele></ele><time>2025-5-17T6:52:50Z</time></trkpt>
<trkpt lat="48.898990631104" lon="2.699800491333"><ele></ele><time>2025-5-17T6:52:53Z</time></trkpt>
<trkpt lat="48.898990631104" lon="2.699800491333"><ele></ele><time>2025-5-17T6:52:56Z</time></trkpt>
<trkpt lat="48.899044036865" lon="2.699887752533"><ele></ele><time>2025-5-17T6:52:59Z</time></trkpt>
<trkpt lat="48.899044036865" lon="2.699887752533"><ele></ele><time>2025-5-17T6:53:2Z</time></trkpt>
<trkpt lat="48.899044036865" lon="2.699887752533"><ele></ele><time>2025-5-17T6:53:5Z</time></trkpt>
<trkpt lat="48.899108886719" lon="2.6999404430389"><ele></ele><time>2025-5-17T6:53:8Z</time></trkpt>
<trkpt lat="48.899108886719" lon="2.6999404430389"><ele></ele><time>2025-5-17T6:53:11Z</time></trkpt>
<trkpt lat="48.899108886719" lon="2.6999404430389"><ele></ele><time>2025-5-17T6:53:14Z</time></trkpt>
<trkpt lat="48.89917755127" lon="2.6999566555023"><ele></ele><time>2025-5-17T6:53:17Z</time></trkpt>
<trkpt lat="48.89917755127" lon="2.6999566555023"><ele></ele><time>2025-5-17T6:53:20Z</time></trkpt>
<trkpt lat="48.899234771729" lon="2.6999564170837"><ele></ele><time>2025-5-17T6:53:23Z</time></trkpt>
<trkpt lat="48.899234771729" lon="2.6999564170837"><ele></ele><time>2025-5-17T6:53:26Z</time></trkpt>
<trkpt lat="48.899234771729" lon="2.6999564170837"><ele></ele><time>2025-5-17T6:53:29Z</time></trkpt>
<trkpt lat="48.899311065674" lon="2.6999635696411"><ele></ele><time>2025-5-17T6:53:32Z</time></trkpt>
<trkpt lat="48.899311065674" lon="2.6999635696411"><ele></ele><time>2025-5-17T6:53:35Z</time></trkpt>
<trkpt lat="48.899311065674" lon="2.6999635696411"><ele></ele><time>2025-5-17T6:53:38Z</time></trkpt>
<trkpt lat="48.899311065674" lon="2.6999635696411"><ele></ele><time>2025-5-17T6:53:41Z</time></trkpt>
<trkpt lat="48.899383544922" lon="2.6999690532684"><ele></ele><time>2025-5-17T6:53:44Z</time></trkpt>
<trkpt lat="48.899383544922" lon="2.6999690532684"><ele></ele><time>2025-5-17T6:53:47Z</time></trkpt>
<trkpt lat="48.899383544922" lon="2.6999690532684"><ele></ele><time>2025-5-17T6:53:50Z</time></trkpt>
<trkpt lat="48.899475097656" lon="2.7000160217285"><ele></ele><time>2025-5-17T6:53:53Z</time></trkpt>
<trkpt lat="48.899532318115" lon="2.7000503540039"><ele></ele><time>2025-5-17T6:53:56Z</time></trkpt>
<trkpt lat="48.899532318115" lon="2.7000503540039"><ele></ele><time>2025-5-17T6:53:59Z</time></trkpt>
<trkpt lat="48.899604797363" lon="2.7001354694366"><ele></ele><time>2025-5-17T6:54:2Z</time></trkpt>
<trkpt lat="48.899681091309" lon="2.7002456188202"><ele></ele><time>2025-5-17T6:54:5Z</time></trkpt>
<trkpt lat="48.899681091309" lon="2.7002456188202"><ele></ele><time>2025-5-17T6:54:8Z</time></trkpt>
<trkpt lat="48.899738311768" lon="2.7003281116486"><ele></ele><time>2025-5-17T6:54:11Z</time></trkpt>
<trkpt lat="48.899768829346" lon="2.7003722190857"><ele></ele><time>2025-5-17T6:54:14Z</time></trkpt>
<trkpt lat="48.899795532227" lon="2.7004146575928"><ele></ele><time>2025-5-17T6:54:17Z</time></trkpt>
<trkpt lat="48.89981842041" lon="2.7004532814026"><ele></ele><time>2025-5-17T6:54:20Z</time></trkpt>
<trkpt lat="48.899841308594" lon="2.7005031108856"><ele></ele><time>2025-5-17T6:54:23Z</time></trkpt>
<trkpt lat="48.899856567383" lon="2.70054936409"><ele></ele><time>2025-5-17T6:54:26Z</time></trkpt>
<trkpt lat="48.899856567383" lon="2.70054936409"><ele></ele><time>2025-5-17T6:54:29Z</time></trkpt>
<trkpt lat="48.899856567383" lon="2.70054936409"><ele></ele><time>2025-5-17T6:54:32Z</time></trkpt>
<trkpt lat="48.899929046631" lon="2.7006359100342"><ele></ele><time>2025-5-17T6:54:35Z</time></trkpt>
<trkpt lat="48.899929046631" lon="2.7006359100342"><ele></ele><time>2025-5-17T6:54:38Z</time></trkpt>
<trkpt lat="48.899978637695" lon="2.7007026672363"><ele></ele><time>2025-5-17T6:54:41Z</time></trkpt>
<trkpt lat="48.900020599365" lon="2.700763463974"><ele></ele><time>2025-5-17T6:54:44Z</time></trkpt>
<trkpt lat="48.900020599365" lon="2.700763463974"><ele></ele><time>2025-5-17T6:54:47Z</time></trkpt>
<trkpt lat="48.900020599365" lon="2.700763463974"><ele></ele><time>2025-5-17T6:54:50Z</time></trkpt>
<trkpt lat="48.900188446045" lon="2.7007842063904"><ele></ele><time>2025-5-17T6:54:53Z</time></trkpt>
<trkpt lat="48.900302886963" lon="2.7007794380188"><ele></ele><time>2025-5-17T6:54:56Z</time></trkpt>
<trkpt lat="48.900371551514" lon="2.7007739543915"><ele></ele><time>2025-5-17T6:54:59Z</time></trkpt>
<trkpt lat="48.900447845459" lon="2.7007737159729"><ele></ele><time>2025-5-17T6:55:2Z</time></trkpt>
<trkpt lat="48.900531768799" lon="2.7007746696472"><ele></ele><time>2025-5-17T6:55:5Z</time></trkpt>
<trkpt lat="48.900531768799" lon="2.7007746696472"><ele></ele><time>2025-5-17T6:55:8Z</time></trkpt>
<trkpt lat="48.900615692139" lon="2.7007737159729"><ele></ele><time>2025-5-17T6:55:11Z</time></trkpt>
<trkpt lat="48.900695800781" lon="2.7007777690887"><ele></ele><time>2025-5-17T6:55:14Z</time></trkpt>
<trkpt lat="48.900775909424" lon="2.7007834911346"><ele></ele><time>2025-5-17T6:55:17Z</time></trkpt>
<trkpt lat="48.90083694458" lon="2.7008306980133"><ele></ele><time>2025-5-17T6:55:20Z</time></trkpt>
<trkpt lat="48.900840759277" lon="2.7009556293488"><ele></ele><time>2025-5-17T6:55:23Z</time></trkpt>
<trkpt lat="48.900840759277" lon="2.7009556293488"><ele></ele><time>2025-5-17T6:55:26Z</time></trkpt>
<trkpt lat="48.900840759277" lon="2.7009556293488"><ele></ele><time>2025-5-17T6:55:29Z</time></trkpt>
<trkpt lat="48.900840759277" lon="2.7009556293488"><ele></ele><time>2025-5-17T6:55:32Z</time></trkpt>
<trkpt lat="48.900787353516" lon="2.7010400295258"><ele></ele><time>2025-5-17T6:55:35Z</time></trkpt>
<trkpt lat="48.900787353516" lon="2.7010400295258"><ele></ele><time>2025-5-17T6:55:38Z</time></trkpt>
<trkpt lat="48.900764465332" lon="2.7011318206787"><ele></ele><time>2025-5-17T6:55:41Z</time></trkpt>
<trkpt lat="48.900764465332" lon="2.7011318206787"><ele></ele><time>2025-5-17T6:55:44Z</time></trkpt>
<trkpt lat="48.900741577148" lon="2.7012176513672"><ele></ele><time>2025-5-17T6:55:47Z</time></trkpt>
<trkpt lat="48.900741577148" lon="2.7012176513672"><ele></ele><time>2025-5-17T6:55:50Z</time></trkpt>
<trkpt lat="48.900718688965" lon="2.7013139724731"><ele></ele><time>2025-5-17T6:55:53Z</time></trkpt>
<trkpt lat="48.900718688965" lon="2.7013139724731"><ele></ele><time>2025-5-17T6:55:56Z</time></trkpt>
<trkpt lat="48.900672912598" lon="2.7014322280884"><ele></ele><time>2025-5-17T6:55:59Z</time></trkpt>
<trkpt lat="48.900672912598" lon="2.7014322280884"><ele></ele><time>2025-5-17T6:56:2Z</time></trkpt>
<trkpt lat="48.90062713623" lon="2.7015376091003"><ele></ele><time>2025-5-17T6:56:5Z</time></trkpt>
<trkpt lat="48.900588989258" lon="2.7016229629517"><ele></ele><time>2025-5-17T6:56:8Z</time></trkpt>
<trkpt lat="48.900588989258" lon="2.7016229629517"><ele></ele><time>2025-5-17T6:56:11Z</time></trkpt>
<trkpt lat="48.900588989258" lon="2.7016229629517"><ele></ele><time>2025-5-17T6:56:14Z</time></trkpt>
<trkpt lat="48.900508880615" lon="2.701672077179"><ele></ele><time>2025-5-17T6:56:17Z</time></trkpt>
<trkpt lat="48.900508880615" lon="2.701672077179"><ele></ele><time>2025-5-17T6:56:20Z</time></trkpt>
<trkpt lat="48.900508880615" lon="2.701672077179"><ele></ele><time>2025-5-17T6:56:23Z</time></trkpt>
<trkpt lat="48.900424957275" lon="2.7016942501068"><ele></ele><time>2025-5-17T6:56:26Z</time></trkpt>
<trkpt lat="48.900341033936" lon="2.7017047405243"><ele></ele><time>2025-5-17T6:56:29Z</time></trkpt>
<trkpt lat="48.900341033936" lon="2.7017047405243"><ele></ele><time>2025-5-17T6:56:32Z</time></trkpt>
<trkpt lat="48.90026473999" lon="2.7017297744751"><ele></ele><time>2025-5-17T6:56:35Z</time></trkpt>
<trkpt lat="48.90026473999" lon="2.7017297744751"><ele></ele><time>2025-5-17T6:56:38Z</time></trkpt>
<trkpt lat="48.90026473999" lon="2.7017297744751"><ele></ele><time>2025-5-17T6:56:41Z</time></trkpt>
<trkpt lat="48.90026473999" lon="2.7017297744751"><ele></ele><time>2025-5-17T6:56:44Z</time></trkpt>
<trkpt lat="48.900096893311" lon="2.7017860412598"><ele></ele><time>2025-5-17T6:56:47Z</time></trkpt>
<trkpt lat="48.900096893311" lon="2.7017860412598"><ele></ele><time>2025-5-17T6:56:50Z</time></trkpt>
<trkpt lat="48.900012969971" lon="2.7018346786499"><ele></ele><time>2025-5-17T6:56:53Z</time></trkpt>
<trkpt lat="48.900012969971" lon="2.7018346786499"><ele></ele><time>2025-5-17T6:56:56Z</time></trkpt>
<trkpt lat="48.899959564209" lon="2.7019255161285"><ele></ele><time>2025-5-17T6:56:59Z</time></trkpt>
<trkpt lat="48.899963378906" lon="2.7020244598389"><ele></ele><time>2025-5-17T6:57:2Z</time></trkpt>
<trkpt lat="48.899978637695" lon="2.7021102905273"><ele></ele><time>2025-5-17T6:57:5Z</time></trkpt>
<trkpt lat="48.899978637695" lon="2.7021102905273"><ele></ele><time>2025-5-17T6:57:8Z</time></trkpt>
<trkpt lat="48.900012969971" lon="2.7022686004639"><ele></ele><time>2025-5-17T6:57:11Z</time></trkpt>
<trkpt lat="48.900032043457" lon="2.7023527622223"><ele></ele><time>2025-5-17T6:57:14Z</time></trkpt>
<trkpt lat="48.900032043457" lon="2.7023527622223"><ele></ele><time>2025-5-17T6:57:17Z</time></trkpt>
<trkpt lat="48.900047302246" lon="2.7024433612823"><ele></ele><time>2025-5-17T6:57:20Z</time></trkpt>
<trkpt lat="48.900062561035" lon="2.7025384902954"><ele></ele><time>2025-5-17T6:57:23Z</time></trkpt>
<trkpt lat="48.900077819824" lon="2.7026379108429"><ele></ele><time>2025-5-17T6:57:26Z</time></trkpt>
<trkpt lat="48.900096893311" lon="2.7027339935303"><ele></ele><time>2025-5-17T6:57:29Z</time></trkpt>
<trkpt lat="48.900108337402" lon="2.702821969986"><ele></ele><time>2025-5-17T6:57:32Z</time></trkpt>
<trkpt lat="48.900127410889" lon="2.7029309272766"><ele></ele><time>2025-5-17T6:57:35Z</time></trkpt>
<trkpt lat="48.90015411377" lon="2.7030248641968"><ele></ele><time>2025-5-17T6:57:38Z</time></trkpt>
<trkpt lat="48.90015411377" lon="2.7030248641968"><ele></ele><time>2025-5-17T6:57:41Z</time></trkpt>
<trkpt lat="48.900218963623" lon="2.7031733989716"><ele></ele><time>2025-5-17T6:57:44Z</time></trkpt>
<trkpt lat="48.900283813477" lon="2.7033092975616"><ele></ele><time>2025-5-17T6:57:47Z</time></trkpt>
<trkpt lat="48.900283813477" lon="2.7033092975616"><ele></ele><time>2025-5-17T6:57:50Z</time></trkpt>
<trkpt lat="48.900314331055" lon="2.7033841609955"><ele></ele><time>2025-5-17T6:57:53Z</time></trkpt>
<trkpt lat="48.900314331055" lon="2.7033841609955"><ele></ele><time>2025-5-17T6:57:56Z</time></trkpt>
<trkpt lat="48.900367736816" lon="2.703497171402"><ele></ele><time>2025-5-17T6:57:59Z</time></trkpt>
<trkpt lat="48.900367736816" lon="2.703497171402"><ele></ele><time>2025-5-17T6:58:2Z</time></trkpt>
<trkpt lat="48.900367736816" lon="2.703497171402"><ele></ele><time>2025-5-17T6:58:5Z</time></trkpt>
<trkpt lat="48.900428771973" lon="2.7036170959473"><ele></ele><time>2025-5-17T6:58:8Z</time></trkpt>
<trkpt lat="48.900459289551" lon="2.7036938667297"><ele></ele><time>2025-5-17T6:58:11Z</time></trkpt>
<trkpt lat="48.900459289551" lon="2.7036938667297"><ele></ele><time>2025-5-17T6:58:14Z</time></trkpt>
<trkpt lat="48.900524139404" lon="2.7038285732269"><ele></ele><time>2025-5-17T6:58:17Z</time></trkpt>
<trkpt lat="48.900524139404" lon="2.7038285732269"><ele></ele><time>2025-5-17T6:58:20Z</time></trkpt>
<trkpt lat="48.900524139404" lon="2.7038285732269"><ele></ele><time>2025-5-17T6:58:23Z</time></trkpt>
<trkpt lat="48.900592803955" lon="2.7039699554443"><ele></ele><time>2025-5-17T6:58:26Z</time></trkpt>
<trkpt lat="48.900634765625" lon="2.7040734291077"><ele></ele><time>2025-5-17T6:58:29Z</time></trkpt>
<trkpt lat="48.900634765625" lon="2.7040734291077"><ele></ele><time>2025-5-17T6:58:32Z</time></trkpt>
<trkpt lat="48.900676727295" lon="2.7041804790497"><ele></ele><time>2025-5-17T6:58:35Z</time></trkpt>
<trkpt lat="48.900707244873" lon="2.70427775383"><ele></ele><time>2025-5-17T6:58:38Z</time></trkpt>
<trkpt lat="48.900756835938" lon="2.7043759822845"><ele></ele><time>2025-5-17T6:58:41Z</time></trkpt>
<trkpt lat="48.900756835938" lon="2.7043759822845"><ele></ele><time>2025-5-17T6:58:44Z</time></trkpt>
<trkpt lat="48.90071105957" lon="2.7044532299042"><ele></ele><time>2025-5-17T6:58:47Z</time></trkpt>
<trkpt lat="48.900684356689" lon="2.7046263217926"><ele></ele><time>2025-5-17T6:58:50Z</time></trkpt>
<trkpt lat="48.900684356689" lon="2.7046263217926"><ele></ele><time>2025-5-17T6:58:53Z</time></trkpt>
<trkpt lat="48.900684356689" lon="2.7046263217926"><ele></ele><time>2025-5-17T6:58:56Z</time></trkpt>
<trkpt lat="48.900718688965" lon="2.7047913074493"><ele></ele><time>2025-5-17T6:58:59Z</time></trkpt>
<trkpt lat="48.900718688965" lon="2.7047913074493"><ele></ele><time>2025-5-17T6:59:2Z</time></trkpt>
<trkpt lat="48.900775909424" lon="2.7049062252045"><ele></ele><time>2025-5-17T6:59:5Z</time></trkpt>
<trkpt lat="48.900775909424" lon="2.7049062252045"><ele></ele><time>2025-5-17T6:59:8Z</time></trkpt>
<trkpt lat="48.900833129883" lon="2.7050187587738"><ele></ele><time>2025-5-17T6:59:11Z</time></trkpt>
<trkpt lat="48.900833129883" lon="2.7050187587738"><ele></ele><time>2025-5-17T6:59:14Z</time></trkpt>
<trkpt lat="48.900897979736" lon="2.7051196098328"><ele></ele><time>2025-5-17T6:59:17Z</time></trkpt>
<trkpt lat="48.900897979736" lon="2.7051196098328"><ele></ele><time>2025-5-17T6:59:20Z</time></trkpt>
<trkpt lat="48.900951385498" lon="2.7052114009857"><ele></ele><time>2025-5-17T6:59:23Z</time></trkpt>
<trkpt lat="48.900951385498" lon="2.7052114009857"><ele></ele><time>2025-5-17T6:59:26Z</time></trkpt>
<trkpt lat="48.901000976562" lon="2.705310344696"><ele></ele><time>2025-5-17T6:59:29Z</time></trkpt>
<trkpt lat="48.901000976562" lon="2.705310344696"><ele></ele><time>2025-5-17T6:59:32Z</time></trkpt>
<trkpt lat="48.901000976562" lon="2.705310344696"><ele></ele><time>2025-5-17T6:59:35Z</time></trkpt>
<trkpt lat="48.901023864746" lon="2.7054297924042"><ele></ele><time>2025-5-17T6:59:38Z</time></trkpt>
<trkpt lat="48.901023864746" lon="2.7054297924042"><ele></ele><time>2025-5-17T6:59:41Z</time></trkpt>
<trkpt lat="48.900943756104" lon="2.7055294513702"><ele></ele><time>2025-5-17T6:59:44Z</time></trkpt>
<trkpt lat="48.900890350342" lon="2.7055876255035"><ele></ele><time>2025-5-17T6:59:47Z</time></trkpt>
<trkpt lat="48.900840759277" lon="2.7056365013123"><ele></ele><time>2025-5-17T6:59:50Z</time></trkpt>
<trkpt lat="48.900775909424" lon="2.7056908607483"><ele></ele><time>2025-5-17T6:59:53Z</time></trkpt>
<trkpt lat="48.90071105957" lon="2.7057375907898"><ele></ele><time>2025-5-17T6:59:56Z</time></trkpt>
<trkpt lat="48.90064239502" lon="2.7057917118073"><ele></ele><time>2025-5-17T6:59:59Z</time></trkpt>
<trkpt lat="48.90064239502" lon="2.7057917118073"><ele></ele><time>2025-5-17T7:0:2Z</time></trkpt>
<trkpt lat="48.900566101074" lon="2.7058398723602"><ele></ele><time>2025-5-17T7:0:5Z</time></trkpt>
<trkpt lat="48.900485992432" lon="2.7058811187744"><ele></ele><time>2025-5-17T7:0:8Z</time></trkpt>
<trkpt lat="48.900405883789" lon="2.7059075832367"><ele></ele><time>2025-5-17T7:0:11Z</time></trkpt>
<trkpt lat="48.900314331055" lon="2.7059319019318"><ele></ele><time>2025-5-17T7:0:14Z</time></trkpt>
<trkpt lat="48.900234222412" lon="2.7059652805328"><ele></ele><time>2025-5-17T7:0:17Z</time></trkpt>
<trkpt lat="48.900150299072" lon="2.7059984207153"><ele></ele><time>2025-5-17T7:0:20Z</time></trkpt>
<trkpt lat="48.900150299072" lon="2.7059984207153"><ele></ele><time>2025-5-17T7:0:23Z</time></trkpt>
<trkpt lat="48.900062561035" lon="2.7060239315033"><ele></ele><time>2025-5-17T7:0:26Z</time></trkpt>
<trkpt lat="48.899963378906" lon="2.7060558795929"><ele></ele><time>2025-5-17T7:0:29Z</time></trkpt>
<trkpt lat="48.899864196777" lon="2.7060902118683"><ele></ele><time>2025-5-17T7:0:32Z</time></trkpt>
<trkpt lat="48.89977645874" lon="2.7061245441437"><ele></ele><time>2025-5-17T7:0:35Z</time></trkpt>
<trkpt lat="48.899681091309" lon="2.7061567306519"><ele></ele><time>2025-5-17T7:0:38Z</time></trkpt>
<trkpt lat="48.899600982666" lon="2.7061767578125"><ele></ele><time>2025-5-17T7:0:41Z</time></trkpt>
<trkpt lat="48.89953994751" lon="2.7061767578125"><ele></ele><time>2025-5-17T7:0:44Z</time></trkpt>
<trkpt lat="48.89953994751" lon="2.7061767578125"><ele></ele><time>2025-5-17T7:0:47Z</time></trkpt>
<trkpt lat="48.89945602417" lon="2.7062242031097"><ele></ele><time>2025-5-17T7:0:50Z</time></trkpt>
<trkpt lat="48.89945602417" lon="2.7062242031097"><ele></ele><time>2025-5-17T7:0:53Z</time></trkpt>
<trkpt lat="48.899520874023" lon="2.7062151432037"><ele></ele><time>2025-5-17T7:0:56Z</time></trkpt>
<trkpt lat="48.899520874023" lon="2.7062151432037"><ele></ele><time>2025-5-17T7:0:59Z</time></trkpt>
<trkpt lat="48.899520874023" lon="2.7062151432037"><ele></ele><time>2025-5-17T7:1:2Z</time></trkpt>
<trkpt lat="48.899593353271" lon="2.7061548233032"><ele></ele><time>2025-5-17T7:1:5Z</time></trkpt>
<trkpt lat="48.899658203125" lon="2.7061207294464"><ele></ele><time>2025-5-17T7:1:8Z</time></trkpt>
<trkpt lat="48.899730682373" lon="2.7060911655426"><ele></ele><time>2025-5-17T7:1:11Z</time></trkpt>
<trkpt lat="48.899730682373" lon="2.7060911655426"><ele></ele><time>2025-5-17T7:1:14Z</time></trkpt>
<trkpt lat="48.899730682373" lon="2.7060911655426"><ele></ele><time>2025-5-17T7:1:17Z</time></trkpt>
<trkpt lat="48.899719238281" lon="2.7059595584869"><ele></ele><time>2025-5-17T7:1:20Z</time></trkpt>
<trkpt lat="48.8996925354" lon="2.7058727741241"><ele></ele><time>2025-5-17T7:1:23Z</time></trkpt>
<trkpt lat="48.899662017822" lon="2.7057795524597"><ele></ele><time>2025-5-17T7:1:26Z</time></trkpt>
<trkpt lat="48.899662017822" lon="2.7057795524597"><ele></ele><time>2025-5-17T7:1:29Z</time></trkpt>
<trkpt lat="48.899635314941" lon="2.7056934833527"><ele></ele><time>2025-5-17T7:1:32Z</time></trkpt>
<trkpt lat="48.899585723877" lon="2.7055296897888"><ele></ele><time>2025-5-17T7:1:35Z</time></trkpt>
<trkpt lat="48.899585723877" lon="2.7055296897888"><ele></ele><time>2025-5-17T7:1:38Z</time></trkpt>
<trkpt lat="48.899559020996" lon="2.7054464817047"><ele></ele><time>2025-5-17T7:1:41Z</time></trkpt>
<trkpt lat="48.899524688721" lon="2.7053582668304"><ele></ele><time>2025-5-17T7:1:44Z</time></trkpt>
<trkpt lat="48.899524688721" lon="2.7053582668304"><ele></ele><time>2025-5-17T7:1:47Z</time></trkpt>
<trkpt lat="48.899490356445" lon="2.7052264213562"><ele></ele><time>2025-5-17T7:1:50Z</time></trkpt>
<trkpt lat="48.899490356445" lon="2.7052264213562"><ele></ele><time>2025-5-17T7:1:53Z</time></trkpt>
<trkpt lat="48.899490356445" lon="2.7052264213562"><ele></ele><time>2025-5-17T7:1:56Z</time></trkpt>
<trkpt lat="48.89945602417" lon="2.7051479816437"><ele></ele><time>2025-5-17T7:1:59Z</time></trkpt>
<trkpt lat="48.89945602417" lon="2.7051479816437"><ele></ele><time>2025-5-17T7:2:2Z</time></trkpt>
<trkpt lat="48.89945602417" lon="2.7051479816437"><ele></ele><time>2025-5-17T7:2:5Z</time></trkpt>
<trkpt lat="48.89945602417" lon="2.7051479816437"><ele></ele><time>2025-5-17T7:2:8Z</time></trkpt>
<trkpt lat="48.899444580078" lon="2.7050993442535"><ele></ele><time>2025-5-17T7:2:11Z</time></trkpt>
<trkpt lat="48.899436950684" lon="2.7050547599792"><ele></ele><time>2025-5-17T7:2:14Z</time></trkpt>
<trkpt lat="48.899436950684" lon="2.7050087451935"><ele></ele><time>2025-5-17T7:2:17Z</time></trkpt>
<trkpt lat="48.899436950684" lon="2.7050087451935"><ele></ele><time>2025-5-17T7:2:20Z</time></trkpt>
<trkpt lat="48.899448394775" lon="2.7049584388733"><ele></ele><time>2025-5-17T7:2:23Z</time></trkpt>
<trkpt lat="48.899463653564" lon="2.7049026489258"><ele></ele><time>2025-5-17T7:2:26Z</time></trkpt>
<trkpt lat="48.899490356445" lon="2.7047874927521"><ele></ele><time>2025-5-17T7:2:29Z</time></trkpt>
<trkpt lat="48.899490356445" lon="2.7047874927521"><ele></ele><time>2025-5-17T7:2:32Z</time></trkpt>
<trkpt lat="48.899501800537" lon="2.704687833786"><ele></ele><time>2025-5-17T7:2:35Z</time></trkpt>
<trkpt lat="48.899501800537" lon="2.704687833786"><ele></ele><time>2025-5-17T7:2:38Z</time></trkpt>
<trkpt lat="48.899543762207" lon="2.7045576572418"><ele></ele><time>2025-5-17T7:2:41Z</time></trkpt>
<trkpt lat="48.899597167969" lon="2.7044456005096"><ele></ele><time>2025-5-17T7:2:44Z</time></trkpt>
<trkpt lat="48.899597167969" lon="2.7044456005096"><ele></ele><time>2025-5-17T7:2:47Z</time></trkpt>
<trkpt lat="48.899631500244" lon="2.7043461799622"><ele></ele><time>2025-5-17T7:2:50Z</time></trkpt>
<trkpt lat="48.899631500244" lon="2.7043461799622"><ele></ele><time>2025-5-17T7:2:53Z</time></trkpt>
<trkpt lat="48.899639129639" lon="2.7042212486267"><ele></ele><time>2025-5-17T7:2:56Z</time></trkpt>
<trkpt lat="48.899620056152" lon="2.7040688991547"><ele></ele><time>2025-5-17T7:2:59Z</time></trkpt>
<trkpt lat="48.899620056152" lon="2.7040688991547"><ele></ele><time>2025-5-17T7:3:2Z</time></trkpt>
<trkpt lat="48.899608612061" lon="2.7039833068848"><ele></ele><time>2025-5-17T7:3:5Z</time></trkpt>
<trkpt lat="48.899589538574" lon="2.7038881778717"><ele></ele><time>2025-5-17T7:3:8Z</time></trkpt>
<trkpt lat="48.899578094482" lon="2.7037909030914"><ele></ele><time>2025-5-17T7:3:11Z</time></trkpt>
<trkpt lat="48.899578094482" lon="2.7037909030914"><ele></ele><time>2025-5-17T7:3:14Z</time></trkpt>
<trkpt lat="48.899532318115" lon="2.7037134170532"><ele></ele><time>2025-5-17T7:3:17Z</time></trkpt>
<trkpt lat="48.899532318115" lon="2.7037134170532"><ele></ele><time>2025-5-17T7:3:20Z</time></trkpt>
<trkpt lat="48.899532318115" lon="2.7037134170532"><ele></ele><time>2025-5-17T7:3:23Z</time></trkpt>
<trkpt lat="48.899532318115" lon="2.7037134170532"><ele></ele><time>2025-5-17T7:3:26Z</time></trkpt>
<trkpt lat="48.899532318115" lon="2.7037134170532"><ele></ele><time>2025-5-17T7:3:29Z</time></trkpt>
<trkpt lat="48.899532318115" lon="2.7037134170532"><ele></ele><time>2025-5-17T7:3:32Z</time></trkpt>
<trkpt lat="48.899635314941" lon="2.7035896778107"><ele></ele><time>2025-5-17T7:3:35Z</time></trkpt>
<trkpt lat="48.899688720703" lon="2.7035417556763"><ele></ele><time>2025-5-17T7:3:38Z</time></trkpt>
<trkpt lat="48.899738311768" lon="2.7034962177277"><ele></ele><time>2025-5-17T7:3:41Z</time></trkpt>
<trkpt lat="48.899738311768" lon="2.7034962177277"><ele></ele><time>2025-5-17T7:3:44Z</time></trkpt>
<trkpt lat="48.899795532227" lon="2.7034423351288"><ele></ele><time>2025-5-17T7:3:47Z</time></trkpt>
<trkpt lat="48.899848937988" lon="2.703399181366"><ele></ele><time>2025-5-17T7:3:50Z</time></trkpt>
<trkpt lat="48.899848937988" lon="2.703399181366"><ele></ele><time>2025-5-17T7:3:53Z</time></trkpt>
<trkpt lat="48.899948120117" lon="2.7033159732819"><ele></ele><time>2025-5-17T7:3:56Z</time></trkpt>
<trkpt lat="48.900047302246" lon="2.7032294273376"><ele></ele><time>2025-5-17T7:3:59Z</time></trkpt>
<trkpt lat="48.900047302246" lon="2.7032294273376"><ele></ele><time>2025-5-17T7:4:2Z</time></trkpt>
<trkpt lat="48.900108337402" lon="2.7031850814819"><ele></ele><time>2025-5-17T7:4:5Z</time></trkpt>
<trkpt lat="48.900157928467" lon="2.7031502723694"><ele></ele><time>2025-5-17T7:4:8Z</time></trkpt>
<trkpt lat="48.900157928467" lon="2.7031502723694"><ele></ele><time>2025-5-17T7:4:11Z</time></trkpt>
<trkpt lat="48.900188446045" lon="2.7030229568481"><ele></ele><time>2025-5-17T7:4:14Z</time></trkpt>
<trkpt lat="48.900188446045" lon="2.7030229568481"><ele></ele><time>2025-5-17T7:4:17Z</time></trkpt>
<trkpt lat="48.900157928467" lon="2.7028849124908"><ele></ele><time>2025-5-17T7:4:20Z</time></trkpt>
<trkpt lat="48.900157928467" lon="2.7028849124908"><ele></ele><time>2025-5-17T7:4:23Z</time></trkpt>
<trkpt lat="48.900157928467" lon="2.7028849124908"><ele></ele><time>2025-5-17T7:4:26Z</time></trkpt>
<trkpt lat="48.900127410889" lon="2.7027251720428"><ele></ele><time>2025-5-17T7:4:29Z</time></trkpt>
<trkpt lat="48.900115966797" lon="2.702627658844"><ele></ele><time>2025-5-17T7:4:32Z</time></trkpt>
<trkpt lat="48.900104522705" lon="2.7025196552277"><ele></ele><time>2025-5-17T7:4:35Z</time></trkpt>
<trkpt lat="48.900081634521" lon="2.7024140357971"><ele></ele><time>2025-5-17T7:4:38Z</time></trkpt>
<trkpt lat="48.900081634521" lon="2.7024140357971"><ele></ele><time>2025-5-17T7:4:41Z</time></trkpt>
<trkpt lat="48.900058746338" lon="2.7023067474365"><ele></ele><time>2025-5-17T7:4:44Z</time></trkpt>
<trkpt lat="48.90002822876" lon="2.7022111415863"><ele></ele><time>2025-5-17T7:4:47Z</time></trkpt>
<trkpt lat="48.900005340576" lon="2.7021160125732"><ele></ele><time>2025-5-17T7:4:50Z</time></trkpt>
<trkpt lat="48.900005340576" lon="2.7021160125732"><ele></ele><time>2025-5-17T7:4:53Z</time></trkpt>
<trkpt lat="48.899982452393" lon="2.7020206451416"><ele></ele><time>2025-5-17T7:4:56Z</time></trkpt>
<trkpt lat="48.899971008301" lon="2.7019262313843"><ele></ele><time>2025-5-17T7:4:59Z</time></trkpt>
<trkpt lat="48.899971008301" lon="2.7019262313843"><ele></ele><time>2025-5-17T7:5:2Z</time></trkpt>
<trkpt lat="48.899971008301" lon="2.7019262313843"><ele></ele><time>2025-5-17T7:5:5Z</time></trkpt>
<trkpt lat="48.90002822876" lon="2.7018344402313"><ele></ele><time>2025-5-17T7:5:8Z</time></trkpt>
<trkpt lat="48.90002822876" lon="2.7018344402313"><ele></ele><time>2025-5-17T7:5:11Z</time></trkpt>
<trkpt lat="48.900119781494" lon="2.7018065452576"><ele></ele><time>2025-5-17T7:5:14Z</time></trkpt>
<trkpt lat="48.900119781494" lon="2.7018065452576"><ele></ele><time>2025-5-17T7:5:17Z</time></trkpt>
<trkpt lat="48.900119781494" lon="2.7018065452576"><ele></ele><time>2025-5-17T7:5:20Z</time></trkpt>
<trkpt lat="48.900188446045" lon="2.7017633914948"><ele></ele><time>2025-5-17T7:5:23Z</time></trkpt>
<trkpt lat="48.900188446045" lon="2.7017633914948"><ele></ele><time>2025-5-17T7:5:26Z</time></trkpt>
<trkpt lat="48.900188446045" lon="2.7017633914948"><ele></ele><time>2025-5-17T7:5:29Z</time></trkpt>
<trkpt lat="48.900188446045" lon="2.7017633914948"><ele></ele><time>2025-5-17T7:5:32Z</time></trkpt>
<trkpt lat="48.900188446045" lon="2.7017633914948"><ele></ele><time>2025-5-17T7:5:35Z</time></trkpt>
<trkpt lat="48.900302886963" lon="2.7016913890839"><ele></ele><time>2025-5-17T7:5:38Z</time></trkpt>
<trkpt lat="48.900402069092" lon="2.7016654014587"><ele></ele><time>2025-5-17T7:5:41Z</time></trkpt>
<trkpt lat="48.900402069092" lon="2.7016654014587"><ele></ele><time>2025-5-17T7:5:44Z</time></trkpt>
<trkpt lat="48.900520324707" lon="2.7016305923462"><ele></ele><time>2025-5-17T7:5:47Z</time></trkpt>
<trkpt lat="48.900585174561" lon="2.7015659809113"><ele></ele><time>2025-5-17T7:5:50Z</time></trkpt>
<trkpt lat="48.900585174561" lon="2.7015659809113"><ele></ele><time>2025-5-17T7:5:53Z</time></trkpt>
<trkpt lat="48.900585174561" lon="2.7015659809113"><ele></ele><time>2025-5-17T7:5:56Z</time></trkpt>
<trkpt lat="48.900585174561" lon="2.7015659809113"><ele></ele><time>2025-5-17T7:5:59Z</time></trkpt>
<trkpt lat="48.900585174561" lon="2.7015659809113"><ele></ele><time>2025-5-17T7:6:2Z</time></trkpt>
<trkpt lat="48.900707244873" lon="2.7016639709473"><ele></ele><time>2025-5-17T7:6:5Z</time></trkpt>
<trkpt lat="48.90075302124" lon="2.7017207145691"><ele></ele><time>2025-5-17T7:6:8Z</time></trkpt>
<trkpt lat="48.900798797607" lon="2.7017858028412"><ele></ele><time>2025-5-17T7:6:11Z</time></trkpt>
<trkpt lat="48.900798797607" lon="2.7017858028412"><ele></ele><time>2025-5-17T7:6:14Z</time></trkpt>
<trkpt lat="48.900871276855" lon="2.7018828392029"><ele></ele><time>2025-5-17T7:6:17Z</time></trkpt>
<trkpt lat="48.900947570801" lon="2.7019784450531"><ele></ele><time>2025-5-17T7:6:20Z</time></trkpt>
<trkpt lat="48.901008605957" lon="2.7020750045776"><ele></ele><time>2025-5-17T7:6:23Z</time></trkpt>
<trkpt lat="48.901008605957" lon="2.7020750045776"><ele></ele><time>2025-5-17T7:6:26Z</time></trkpt>
<trkpt lat="48.901096343994" lon="2.7021870613098"><ele></ele><time>2025-5-17T7:6:29Z</time></trkpt>
<trkpt lat="48.901134490967" lon="2.7022526264191"><ele></ele><time>2025-5-17T7:6:32Z</time></trkpt>
<trkpt lat="48.901134490967" lon="2.7022526264191"><ele></ele><time>2025-5-17T7:6:35Z</time></trkpt>
<trkpt lat="48.901210784912" lon="2.7023684978485"><ele></ele><time>2025-5-17T7:6:38Z</time></trkpt>
<trkpt lat="48.901210784912" lon="2.7023684978485"><ele></ele><time>2025-5-17T7:6:41Z</time></trkpt>
<trkpt lat="48.90128326416" lon="2.7024927139282"><ele></ele><time>2025-5-17T7:6:44Z</time></trkpt>
<trkpt lat="48.90124130249" lon="2.7026181221008"><ele></ele><time>2025-5-17T7:6:47Z</time></trkpt>
<trkpt lat="48.901184082031" lon="2.7026379108429"><ele></ele><time>2025-5-17T7:6:50Z</time></trkpt>
<trkpt lat="48.901123046875" lon="2.7026679515839"><ele></ele><time>2025-5-17T7:6:53Z</time></trkpt>
<trkpt lat="48.901069641113" lon="2.7026934623718"><ele></ele><time>2025-5-17T7:6:56Z</time></trkpt>
<trkpt lat="48.900974273682" lon="2.7027657032013"><ele></ele><time>2025-5-17T7:6:59Z</time></trkpt>
<trkpt lat="48.900974273682" lon="2.7027657032013"><ele></ele><time>2025-5-17T7:7:2Z</time></trkpt>
<trkpt lat="48.90092086792" lon="2.7028353214264"><ele></ele><time>2025-5-17T7:7:5Z</time></trkpt>
<trkpt lat="48.90092086792" lon="2.7028353214264"><ele></ele><time>2025-5-17T7:7:8Z</time></trkpt>
<trkpt lat="48.900894165039" lon="2.7029232978821"><ele></ele><time>2025-5-17T7:7:11Z</time></trkpt>
<trkpt lat="48.900894165039" lon="2.7029232978821"><ele></ele><time>2025-5-17T7:7:14Z</time></trkpt>
<trkpt lat="48.900936126709" lon="2.7029955387115"><ele></ele><time>2025-5-17T7:7:17Z</time></trkpt>
<trkpt lat="48.900936126709" lon="2.7029955387115"><ele></ele><time>2025-5-17T7:7:20Z</time></trkpt>
<trkpt lat="48.90100479126" lon="2.7031142711639"><ele></ele><time>2025-5-17T7:7:23Z</time></trkpt>
<trkpt lat="48.901050567627" lon="2.7031757831573"><ele></ele><time>2025-5-17T7:7:26Z</time></trkpt>
<trkpt lat="48.901050567627" lon="2.7031757831573"><ele></ele><time>2025-5-17T7:7:29Z</time></trkpt>
<trkpt lat="48.901126861572" lon="2.7032916545868"><ele></ele><time>2025-5-17T7:7:32Z</time></trkpt>
<trkpt lat="48.901172637939" lon="2.7033615112305"><ele></ele><time>2025-5-17T7:7:35Z</time></trkpt>
<trkpt lat="48.901218414307" lon="2.7034351825714"><ele></ele><time>2025-5-17T7:7:38Z</time></trkpt>
<trkpt lat="48.901268005371" lon="2.703501701355"><ele></ele><time>2025-5-17T7:7:41Z</time></trkpt>
<trkpt lat="48.901313781738" lon="2.7035658359528"><ele></ele><time>2025-5-17T7:7:44Z</time></trkpt>
<trkpt lat="48.9013671875" lon="2.7036435604095"><ele></ele><time>2025-5-17T7:7:47Z</time></trkpt>
<trkpt lat="48.90140914917" lon="2.7037088871002"><ele></ele><time>2025-5-17T7:7:50Z</time></trkpt>
<trkpt lat="48.901496887207" lon="2.7038230895996"><ele></ele><time>2025-5-17T7:7:53Z</time></trkpt>
<trkpt lat="48.901569366455" lon="2.7039363384247"><ele></ele><time>2025-5-17T7:7:56Z</time></trkpt>
<trkpt lat="48.901569366455" lon="2.7039363384247"><ele></ele><time>2025-5-17T7:7:59Z</time></trkpt>
<trkpt lat="48.901634216309" lon="2.7040452957153"><ele></ele><time>2025-5-17T7:8:2Z</time></trkpt>
<trkpt lat="48.901634216309" lon="2.7040452957153"><ele></ele><time>2025-5-17T7:8:5Z</time></trkpt>
<trkpt lat="48.901699066162" lon="2.7041749954224"><ele></ele><time>2025-5-17T7:8:8Z</time></trkpt>
<trkpt lat="48.901699066162" lon="2.7041749954224"><ele></ele><time>2025-5-17T7:8:11Z</time></trkpt>
<trkpt lat="48.901763916016" lon="2.7043077945709"><ele></ele><time>2025-5-17T7:8:14Z</time></trkpt>
<trkpt lat="48.901794433594" lon="2.7043845653534"><ele></ele><time>2025-5-17T7:8:17Z</time></trkpt>
<trkpt lat="48.901832580566" lon="2.7044680118561"><ele></ele><time>2025-5-17T7:8:20Z</time></trkpt>
<trkpt lat="48.901874542236" lon="2.7045676708221"><ele></ele><time>2025-5-17T7:8:23Z</time></trkpt>
<trkpt lat="48.901920318604" lon="2.704660654068"><ele></ele><time>2025-5-17T7:8:26Z</time></trkpt>
<trkpt lat="48.901969909668" lon="2.7047522068024"><ele></ele><time>2025-5-17T7:8:29Z</time></trkpt>
<trkpt lat="48.902015686035" lon="2.7048442363739"><ele></ele><time>2025-5-17T7:8:32Z</time></trkpt>
<trkpt lat="48.9020652771" lon="2.7049531936646"><ele></ele><time>2025-5-17T7:8:35Z</time></trkpt>
<trkpt lat="48.90210723877" lon="2.7050619125366"><ele></ele><time>2025-5-17T7:8:38Z</time></trkpt>
<trkpt lat="48.902153015137" lon="2.705157995224"><ele></ele><time>2025-5-17T7:8:41Z</time></trkpt>
<trkpt lat="48.902153015137" lon="2.705157995224"><ele></ele><time>2025-5-17T7:8:44Z</time></trkpt>
<trkpt lat="48.902278900146" lon="2.705127954483"><ele></ele><time>2025-5-17T7:8:47Z</time></trkpt>
<trkpt lat="48.902332305908" lon="2.7050225734711"><ele></ele><time>2025-5-17T7:8:50Z</time></trkpt>
<trkpt lat="48.90238571167" lon="2.7049179077148"><ele></ele><time>2025-5-17T7:8:53Z</time></trkpt>
<trkpt lat="48.902439117432" lon="2.7048428058624"><ele></ele><time>2025-5-17T7:8:56Z</time></trkpt>
<trkpt lat="48.902488708496" lon="2.7047536373138"><ele></ele><time>2025-5-17T7:8:59Z</time></trkpt>
<trkpt lat="48.902542114258" lon="2.7046608924866"><ele></ele><time>2025-5-17T7:9:2Z</time></trkpt>
<trkpt lat="48.902599334717" lon="2.7045769691467"><ele></ele><time>2025-5-17T7:9:5Z</time></trkpt>
<trkpt lat="48.902648925781" lon="2.7045183181763"><ele></ele><time>2025-5-17T7:9:8Z</time></trkpt>
<trkpt lat="48.902648925781" lon="2.7045183181763"><ele></ele><time>2025-5-17T7:9:11Z</time></trkpt>
<trkpt lat="48.902725219727" lon="2.7044367790222"><ele></ele><time>2025-5-17T7:9:14Z</time></trkpt>
<trkpt lat="48.902797698975" lon="2.704357624054"><ele></ele><time>2025-5-17T7:9:17Z</time></trkpt>
<trkpt lat="48.902797698975" lon="2.704357624054"><ele></ele><time>2025-5-17T7:9:20Z</time></trkpt>
<trkpt lat="48.902885437012" lon="2.7043223381042"><ele></ele><time>2025-5-17T7:9:23Z</time></trkpt>
<trkpt lat="48.902965545654" lon="2.7043142318726"><ele></ele><time>2025-5-17T7:9:26Z</time></trkpt>
<trkpt lat="48.903045654297" lon="2.7042946815491"><ele></ele><time>2025-5-17T7:9:29Z</time></trkpt>
<trkpt lat="48.903045654297" lon="2.7042946815491"><ele></ele><time>2025-5-17T7:9:32Z</time></trkpt>
<trkpt lat="48.90311050415" lon="2.7042427062988"><ele></ele><time>2025-5-17T7:9:35Z</time></trkpt>
<trkpt lat="48.903179168701" lon="2.7041585445404"><ele></ele><time>2025-5-17T7:9:38Z</time></trkpt>
<trkpt lat="48.903244018555" lon="2.7040779590607"><ele></ele><time>2025-5-17T7:9:41Z</time></trkpt>
<trkpt lat="48.903244018555" lon="2.7040779590607"><ele></ele><time>2025-5-17T7:9:44Z</time></trkpt>
<trkpt lat="48.9033203125" lon="2.7039873600006"><ele></ele><time>2025-5-17T7:9:47Z</time></trkpt>
<trkpt lat="48.903369903564" lon="2.7039029598236"><ele></ele><time>2025-5-17T7:9:50Z</time></trkpt>
<trkpt lat="48.903423309326" lon="2.7038221359253"><ele></ele><time>2025-5-17T7:9:53Z</time></trkpt>
<trkpt lat="48.903472900391" lon="2.7037739753723"><ele></ele><time>2025-5-17T7:9:56Z</time></trkpt>
<trkpt lat="48.903511047363" lon="2.7037036418915"><ele></ele><time>2025-5-17T7:9:59Z</time></trkpt>
<trkpt lat="48.903511047363" lon="2.7037036418915"><ele></ele><time>2025-5-17T7:10:2Z</time></trkpt>
<trkpt lat="48.903545379639" lon="2.703622341156"><ele></ele><time>2025-5-17T7:10:5Z</time></trkpt>
<trkpt lat="48.903564453125" lon="2.7035415172577"><ele></ele><time>2025-5-17T7:10:8Z</time></trkpt>
<trkpt lat="48.903564453125" lon="2.7035415172577"><ele></ele><time>2025-5-17T7:10:11Z</time></trkpt>
<trkpt lat="48.903564453125" lon="2.7035415172577"><ele></ele><time>2025-5-17T7:10:14Z</time></trkpt>
<trkpt lat="48.903564453125" lon="2.7035415172577"><ele></ele><time>2025-5-17T7:10:17Z</time></trkpt>
<trkpt lat="48.903564453125" lon="2.7035415172577"><ele></ele><time>2025-5-17T7:10:20Z</time></trkpt>
<trkpt lat="48.903564453125" lon="2.7035415172577"><ele></ele><time>2025-5-17T7:10:23Z</time></trkpt>
<trkpt lat="48.903564453125" lon="2.7035415172577"><ele></ele><time>2025-5-17T7:10:26Z</time></trkpt>
<trkpt lat="48.903690338135" lon="2.7035427093506"><ele></ele><time>2025-5-17T7:10:29Z</time></trkpt>
<trkpt lat="48.903762817383" lon="2.7036609649658"><ele></ele><time>2025-5-17T7:10:32Z</time></trkpt>
<trkpt lat="48.903762817383" lon="2.7036609649658"><ele></ele><time>2025-5-17T7:10:35Z</time></trkpt>
<trkpt lat="48.903858184814" lon="2.7037651538849"><ele></ele><time>2025-5-17T7:10:38Z</time></trkpt>
<trkpt lat="48.903919219971" lon="2.7038087844849"><ele></ele><time>2025-5-17T7:10:41Z</time></trkpt>
<trkpt lat="48.903919219971" lon="2.7038087844849"><ele></ele><time>2025-5-17T7:10:44Z</time></trkpt>
<trkpt lat="48.903919219971" lon="2.7038087844849"><ele></ele><time>2025-5-17T7:10:47Z</time></trkpt>
<trkpt lat="48.903919219971" lon="2.7038087844849"><ele></ele><time>2025-5-17T7:10:50Z</time></trkpt>
<trkpt lat="48.904098510742" lon="2.7039031982422"><ele></ele><time>2025-5-17T7:10:53Z</time></trkpt>
<trkpt lat="48.904335021973" lon="2.7040598392487"><ele></ele><time>2025-5-17T7:10:56Z</time></trkpt>
<trkpt lat="48.904426574707" lon="2.7041175365448"><ele></ele><time>2025-5-17T7:10:59Z</time></trkpt>
<trkpt lat="48.904518127441" lon="2.7041661739349"><ele></ele><time>2025-5-17T7:11:2Z</time></trkpt>
<trkpt lat="48.904518127441" lon="2.7041661739349"><ele></ele><time>2025-5-17T7:11:5Z</time></trkpt>
<trkpt lat="48.904613494873" lon="2.7042319774628"><ele></ele><time>2025-5-17T7:11:8Z</time></trkpt>
<trkpt lat="48.904716491699" lon="2.7042994499207"><ele></ele><time>2025-5-17T7:11:11Z</time></trkpt>
<trkpt lat="48.90482711792" lon="2.7043590545654"><ele></ele><time>2025-5-17T7:11:14Z</time></trkpt>
<trkpt lat="48.904926300049" lon="2.7044122219086"><ele></ele><time>2025-5-17T7:11:17Z</time></trkpt>
<trkpt lat="48.905029296875" lon="2.704460144043"><ele></ele><time>2025-5-17T7:11:20Z</time></trkpt>
<trkpt lat="48.905139923096" lon="2.7044978141785"><ele></ele><time>2025-5-17T7:11:23Z</time></trkpt>
<trkpt lat="48.905261993408" lon="2.7045369148254"><ele></ele><time>2025-5-17T7:11:26Z</time></trkpt>
<trkpt lat="48.905391693115" lon="2.7045662403107"><ele></ele><time>2025-5-17T7:11:29Z</time></trkpt>
<trkpt lat="48.905502319336" lon="2.704567193985"><ele></ele><time>2025-5-17T7:11:32Z</time></trkpt>
<trkpt lat="48.905612945557" lon="2.7045428752899"><ele></ele><time>2025-5-17T7:11:35Z</time></trkpt>
<trkpt lat="48.905723571777" lon="2.7045109272003"><ele></ele><time>2025-5-17T7:11:38Z</time></trkpt>
<trkpt lat="48.905830383301" lon="2.704478263855"><ele></ele><time>2025-5-17T7:11:41Z</time></trkpt>
<trkpt lat="48.905937194824" lon="2.7044441699982"><ele></ele><time>2025-5-17T7:11:44Z</time></trkpt>
<trkpt lat="48.906036376953" lon="2.7044014930725"><ele></ele><time>2025-5-17T7:11:47Z</time></trkpt>
<trkpt lat="48.906147003174" lon="2.7043395042419"><ele></ele><time>2025-5-17T7:11:50Z</time></trkpt>
<trkpt lat="48.906253814697" lon="2.7042734622955"><ele></ele><time>2025-5-17T7:11:53Z</time></trkpt>
<trkpt lat="48.906349182129" lon="2.7042093276978"><ele></ele><time>2025-5-17T7:11:56Z</time></trkpt>
<trkpt lat="48.906433105469" lon="2.7041480541229"><ele></ele><time>2025-5-17T7:11:59Z</time></trkpt>
<trkpt lat="48.906520843506" lon="2.7040839195251"><ele></ele><time>2025-5-17T7:12:2Z</time></trkpt>
<trkpt lat="48.906600952148" lon="2.7040071487427"><ele></ele><time>2025-5-17T7:12:5Z</time></trkpt>
<trkpt lat="48.906669616699" lon="2.7039260864258"><ele></ele><time>2025-5-17T7:12:8Z</time></trkpt>
<trkpt lat="48.906745910645" lon="2.7038185596466"><ele></ele><time>2025-5-17T7:12:11Z</time></trkpt>
<trkpt lat="48.90682220459" lon="2.7037041187286"><ele></ele><time>2025-5-17T7:12:14Z</time></trkpt>
<trkpt lat="48.90682220459" lon="2.7037041187286"><ele></ele><time>2025-5-17T7:12:17Z</time></trkpt>
<trkpt lat="48.906894683838" lon="2.703601360321"><ele></ele><time>2025-5-17T7:12:20Z</time></trkpt>
<trkpt lat="48.906963348389" lon="2.7035059928894"><ele></ele><time>2025-5-17T7:12:23Z</time></trkpt>
<trkpt lat="48.907035827637" lon="2.7034151554108"><ele></ele><time>2025-5-17T7:12:26Z</time></trkpt>
<trkpt lat="48.907077789307" lon="2.7033507823944"><ele></ele><time>2025-5-17T7:12:29Z</time></trkpt>
<trkpt lat="48.907127380371" lon="2.7032980918884"><ele></ele><time>2025-5-17T7:12:32Z</time></trkpt>
<trkpt lat="48.907127380371" lon="2.7032980918884"><ele></ele><time>2025-5-17T7:12:35Z</time></trkpt>
<trkpt lat="48.90718460083" lon="2.7032537460327"><ele></ele><time>2025-5-17T7:12:38Z</time></trkpt>
<trkpt lat="48.90718460083" lon="2.7032537460327"><ele></ele><time>2025-5-17T7:12:41Z</time></trkpt>
<trkpt lat="48.90718460083" lon="2.7032537460327"><ele></ele><time>2025-5-17T7:12:44Z</time></trkpt>
<trkpt lat="48.90718460083" lon="2.7032537460327"><ele></ele><time>2025-5-17T7:12:47Z</time></trkpt>
<trkpt lat="48.907241821289" lon="2.7031438350677"><ele></ele><time>2025-5-17T7:12:50Z</time></trkpt>
<trkpt lat="48.907241821289" lon="2.7031438350677"><ele></ele><time>2025-5-17T7:12:53Z</time></trkpt>
<trkpt lat="48.907295227051" lon="2.703057050705"><ele></ele><time>2025-5-17T7:12:56Z</time></trkpt>
<trkpt lat="48.907379150391" lon="2.7029650211334"><ele></ele><time>2025-5-17T7:12:59Z</time></trkpt>
<trkpt lat="48.907455444336" lon="2.7028956413269"><ele></ele><time>2025-5-17T7:13:2Z</time></trkpt>
<trkpt lat="48.907535552979" lon="2.7028477191925"><ele></ele><time>2025-5-17T7:13:5Z</time></trkpt>
<trkpt lat="48.907623291016" lon="2.702805519104"><ele></ele><time>2025-5-17T7:13:8Z</time></trkpt>
<trkpt lat="48.907707214355" lon="2.7027986049652"><ele></ele><time>2025-5-17T7:13:11Z</time></trkpt>
<trkpt lat="48.907787322998" lon="2.7027986049652"><ele></ele><time>2025-5-17T7:13:14Z</time></trkpt>
<trkpt lat="48.907875061035" lon="2.7027640342712"><ele></ele><time>2025-5-17T7:13:17Z</time></trkpt>
<trkpt lat="48.907970428467" lon="2.7027258872986"><ele></ele><time>2025-5-17T7:13:20Z</time></trkpt>
<trkpt lat="48.908073425293" lon="2.7026784420013"><ele></ele><time>2025-5-17T7:13:23Z</time></trkpt>
<trkpt lat="48.908180236816" lon="2.702620267868"><ele></ele><time>2025-5-17T7:13:26Z</time></trkpt>
<trkpt lat="48.908290863037" lon="2.7025527954102"><ele></ele><time>2025-5-17T7:13:29Z</time></trkpt>
<trkpt lat="48.908382415771" lon="2.7024834156036"><ele></ele><time>2025-5-17T7:13:32Z</time></trkpt>
<trkpt lat="48.908382415771" lon="2.7024834156036"><ele></ele><time>2025-5-17T7:13:35Z</time></trkpt>
<trkpt lat="48.9084815979" lon="2.7023944854736"><ele></ele><time>2025-5-17T7:13:38Z</time></trkpt>
<trkpt lat="48.908569335938" lon="2.7022950649261"><ele></ele><time>2025-5-17T7:13:41Z</time></trkpt>
<trkpt lat="48.908641815186" lon="2.702171087265"><ele></ele><time>2025-5-17T7:13:44Z</time></trkpt>
<trkpt lat="48.908702850342" lon="2.7020325660706"><ele></ele><time>2025-5-17T7:13:47Z</time></trkpt>
<trkpt lat="48.908752441406" lon="2.7018632888794"><ele></ele><time>2025-5-17T7:13:50Z</time></trkpt>
<trkpt lat="48.908782958984" lon="2.7017114162445"><ele></ele><time>2025-5-17T7:13:53Z</time></trkpt>
<trkpt lat="48.908798217773" lon="2.701548576355"><ele></ele><time>2025-5-17T7:13:56Z</time></trkpt>
<trkpt lat="48.908813476562" lon="2.7013776302338"><ele></ele><time>2025-5-17T7:13:59Z</time></trkpt>
<trkpt lat="48.908824920654" lon="2.7012071609497"><ele></ele><time>2025-5-17T7:14:2Z</time></trkpt>
<trkpt lat="48.908840179443" lon="2.7010636329651"><ele></ele><time>2025-5-17T7:14:5Z</time></trkpt>
<trkpt lat="48.908863067627" lon="2.7009227275848"><ele></ele><time>2025-5-17T7:14:8Z</time></trkpt>
<trkpt lat="48.908893585205" lon="2.7007536888123"><ele></ele><time>2025-5-17T7:14:11Z</time></trkpt>
<trkpt lat="48.908920288086" lon="2.7005968093872"><ele></ele><time>2025-5-17T7:14:14Z</time></trkpt>
<trkpt lat="48.908939361572" lon="2.7004435062408"><ele></ele><time>2025-5-17T7:14:17Z</time></trkpt>
<trkpt lat="48.908954620361" lon="2.7002911567688"><ele></ele><time>2025-5-17T7:14:20Z</time></trkpt>
<trkpt lat="48.908985137939" lon="2.7001259326935"><ele></ele><time>2025-5-17T7:14:23Z</time></trkpt>
<trkpt lat="48.909019470215" lon="2.6999592781067"><ele></ele><time>2025-5-17T7:14:26Z</time></trkpt>
<trkpt lat="48.909057617188" lon="2.6998019218445"><ele></ele><time>2025-5-17T7:14:29Z</time></trkpt>
<trkpt lat="48.909099578857" lon="2.6996490955353"><ele></ele><time>2025-5-17T7:14:32Z</time></trkpt>
<trkpt lat="48.909122467041" lon="2.6994724273682"><ele></ele><time>2025-5-17T7:14:35Z</time></trkpt>
<trkpt lat="48.909130096436" lon="2.6993014812469"><ele></ele><time>2025-5-17T7:14:38Z</time></trkpt>
<trkpt lat="48.909118652344" lon="2.699134349823"><ele></ele><time>2025-5-17T7:14:41Z</time></trkpt>
<trkpt lat="48.909103393555" lon="2.6989903450012"><ele></ele><time>2025-5-17T7:14:44Z</time></trkpt>
<trkpt lat="48.909069061279" lon="2.6988322734833"><ele></ele><time>2025-5-17T7:14:47Z</time></trkpt>
<trkpt lat="48.909019470215" lon="2.6986734867096"><ele></ele><time>2025-5-17T7:14:50Z</time></trkpt>
<trkpt lat="48.90896987915" lon="2.698522567749"><ele></ele><time>2025-5-17T7:14:53Z</time></trkpt>
<trkpt lat="48.908924102783" lon="2.6983683109283"><ele></ele><time>2025-5-17T7:14:56Z</time></trkpt>
<trkpt lat="48.908878326416" lon="2.6982123851776"><ele></ele><time>2025-5-17T7:14:59Z</time></trkpt>
<trkpt lat="48.908855438232" lon="2.6980419158936"><ele></ele><time>2025-5-17T7:15:2Z</time></trkpt>
<trkpt lat="48.908832550049" lon="2.6978507041931"><ele></ele><time>2025-5-17T7:15:5Z</time></trkpt>
<trkpt lat="48.908809661865" lon="2.6976597309113"><ele></ele><time>2025-5-17T7:15:8Z</time></trkpt>
<trkpt lat="48.908779144287" lon="2.6974935531616"><ele></ele><time>2025-5-17T7:15:11Z</time></trkpt>
<trkpt lat="48.908729553223" lon="2.6973383426666"><ele></ele><time>2025-5-17T7:15:14Z</time></trkpt>
<trkpt lat="48.908664703369" lon="2.6971843242645"><ele></ele><time>2025-5-17T7:15:17Z</time></trkpt>
<trkpt lat="48.908603668213" lon="2.6970496177673"><ele></ele><time>2025-5-17T7:15:20Z</time></trkpt>
<trkpt lat="48.908542633057" lon="2.6969168186188"><ele></ele><time>2025-5-17T7:15:23Z</time></trkpt>
<trkpt lat="48.908493041992" lon="2.6967678070068"><ele></ele><time>2025-5-17T7:15:26Z</time></trkpt>
<trkpt lat="48.908462524414" lon="2.6966052055359"><ele></ele><time>2025-5-17T7:15:29Z</time></trkpt>
<trkpt lat="48.908435821533" lon="2.6964354515076"><ele></ele><time>2025-5-17T7:15:32Z</time></trkpt>
<trkpt lat="48.908428192139" lon="2.6962752342224"><ele></ele><time>2025-5-17T7:15:35Z</time></trkpt>
<trkpt lat="48.908416748047" lon="2.696129322052"><ele></ele><time>2025-5-17T7:15:38Z</time></trkpt>
<trkpt lat="48.908401489258" lon="2.6959803104401"><ele></ele><time>2025-5-17T7:15:41Z</time></trkpt>
<trkpt lat="48.908386230469" lon="2.695818901062"><ele></ele><time>2025-5-17T7:15:44Z</time></trkpt>
<trkpt lat="48.908363342285" lon="2.6956467628479"><ele></ele><time>2025-5-17T7:15:47Z</time></trkpt>
<trkpt lat="48.908340454102" lon="2.6954736709595"><ele></ele><time>2025-5-17T7:15:50Z</time></trkpt>
<trkpt lat="48.908313751221" lon="2.6953108310699"><ele></ele><time>2025-5-17T7:15:53Z</time></trkpt>
<trkpt lat="48.908290863037" lon="2.6951422691345"><ele></ele><time>2025-5-17T7:15:56Z</time></trkpt>
<trkpt lat="48.908271789551" lon="2.6949732303619"><ele></ele><time>2025-5-17T7:15:59Z</time></trkpt>
<trkpt lat="48.908260345459" lon="2.6948003768921"><ele></ele><time>2025-5-17T7:16:2Z</time></trkpt>
<trkpt lat="48.908267974854" lon="2.6946375370026"><ele></ele><time>2025-5-17T7:16:5Z</time></trkpt>
<trkpt lat="48.908267974854" lon="2.6946375370026"><ele></ele><time>2025-5-17T7:16:8Z</time></trkpt>
<trkpt lat="48.908302307129" lon="2.6944842338562"><ele></ele><time>2025-5-17T7:16:11Z</time></trkpt>
<trkpt lat="48.908348083496" lon="2.6943287849426"><ele></ele><time>2025-5-17T7:16:14Z</time></trkpt>
<trkpt lat="48.908420562744" lon="2.6941847801208"><ele></ele><time>2025-5-17T7:16:17Z</time></trkpt>
<trkpt lat="48.908496856689" lon="2.6940588951111"><ele></ele><time>2025-5-17T7:16:20Z</time></trkpt>
<trkpt lat="48.908576965332" lon="2.6939427852631"><ele></ele><time>2025-5-17T7:16:23Z</time></trkpt>
<trkpt lat="48.908657073975" lon="2.693826675415"><ele></ele><time>2025-5-17T7:16:26Z</time></trkpt>
<trkpt lat="48.90873336792" lon="2.6937031745911"><ele></ele><time>2025-5-17T7:16:29Z</time></trkpt>
<trkpt lat="48.908809661865" lon="2.6935884952545"><ele></ele><time>2025-5-17T7:16:32Z</time></trkpt>
<trkpt lat="48.908893585205" lon="2.6934773921967"><ele></ele><time>2025-5-17T7:16:35Z</time></trkpt>
<trkpt lat="48.908981323242" lon="2.6933746337891"><ele></ele><time>2025-5-17T7:16:38Z</time></trkpt>
<trkpt lat="48.909069061279" lon="2.6932861804962"><ele></ele><time>2025-5-17T7:16:41Z</time></trkpt>
<trkpt lat="48.909160614014" lon="2.6932051181793"><ele></ele><time>2025-5-17T7:16:44Z</time></trkpt>
<trkpt lat="48.909252166748" lon="2.6931302547455"><ele></ele><time>2025-5-17T7:16:47Z</time></trkpt>
<trkpt lat="48.90934753418" lon="2.693058013916"><ele></ele><time>2025-5-17T7:16:50Z</time></trkpt>
<trkpt lat="48.909442901611" lon="2.6929929256439"><ele></ele><time>2025-5-17T7:16:53Z</time></trkpt>
<trkpt lat="48.909553527832" lon="2.6929183006287"><ele></ele><time>2025-5-17T7:16:56Z</time></trkpt>
<trkpt lat="48.909652709961" lon="2.6928684711456"><ele></ele><time>2025-5-17T7:16:59Z</time></trkpt>
<trkpt lat="48.909774780273" lon="2.6927812099457"><ele></ele><time>2025-5-17T7:17:2Z</time></trkpt>
<trkpt lat="48.909866333008" lon="2.6926915645599"><ele></ele><time>2025-5-17T7:17:5Z</time></trkpt>
<trkpt lat="48.90994644165" lon="2.6925883293152"><ele></ele><time>2025-5-17T7:17:8Z</time></trkpt>
<trkpt lat="48.910022735596" lon="2.6924669742584"><ele></ele><time>2025-5-17T7:17:11Z</time></trkpt>
<trkpt lat="48.910099029541" lon="2.6923487186432"><ele></ele><time>2025-5-17T7:17:14Z</time></trkpt>
<trkpt lat="48.910175323486" lon="2.6922302246094"><ele></ele><time>2025-5-17T7:17:17Z</time></trkpt>
<trkpt lat="48.910255432129" lon="2.6921100616455"><ele></ele><time>2025-5-17T7:17:20Z</time></trkpt>
<trkpt lat="48.910327911377" lon="2.6919891834259"><ele></ele><time>2025-5-17T7:17:23Z</time></trkpt>
<trkpt lat="48.910396575928" lon="2.6918783187866"><ele></ele><time>2025-5-17T7:17:26Z</time></trkpt>
<trkpt lat="48.91047668457" lon="2.6917657852173"><ele></ele><time>2025-5-17T7:17:29Z</time></trkpt>
<trkpt lat="48.910564422607" lon="2.6916794776917"><ele></ele><time>2025-5-17T7:17:32Z</time></trkpt>
<trkpt lat="48.910652160645" lon="2.6916086673737"><ele></ele><time>2025-5-17T7:17:35Z</time></trkpt>
<trkpt lat="48.910736083984" lon="2.6915299892426"><ele></ele><time>2025-5-17T7:17:38Z</time></trkpt>
<trkpt lat="48.910820007324" lon="2.6914367675781"><ele></ele><time>2025-5-17T7:17:41Z</time></trkpt>
<trkpt lat="48.910903930664" lon="2.6913385391235"><ele></ele><time>2025-5-17T7:17:44Z</time></trkpt>
<trkpt lat="48.910980224609" lon="2.6912319660187"><ele></ele><time>2025-5-17T7:17:47Z</time></trkpt>
<trkpt lat="48.911056518555" lon="2.6911156177521"><ele></ele><time>2025-5-17T7:17:50Z</time></trkpt>
<trkpt lat="48.911163330078" lon="2.6909852027893"><ele></ele><time>2025-5-17T7:17:53Z</time></trkpt>
<trkpt lat="48.911277770996" lon="2.6908321380615"><ele></ele><time>2025-5-17T7:17:56Z</time></trkpt>
<trkpt lat="48.911376953125" lon="2.690691947937"><ele></ele><time>2025-5-17T7:17:59Z</time></trkpt>
<trkpt lat="48.911464691162" lon="2.6905689239502"><ele></ele><time>2025-5-17T7:18:2Z</time></trkpt>
<trkpt lat="48.911544799805" lon="2.6904716491699"><ele></ele><time>2025-5-17T7:18:5Z</time></trkpt>
<trkpt lat="48.911632537842" lon="2.690393447876"><ele></ele><time>2025-5-17T7:18:8Z</time></trkpt>
<trkpt lat="48.911693572998" lon="2.6903729438782"><ele></ele><time>2025-5-17T7:18:11Z</time></trkpt>
<trkpt lat="48.911769866943" lon="2.6903347969055"><ele></ele><time>2025-5-17T7:18:14Z</time></trkpt>
<trkpt lat="48.9118309021" lon="2.6903054714203"><ele></ele><time>2025-5-17T7:18:17Z</time></trkpt>
<trkpt lat="48.9118309021" lon="2.6903054714203"><ele></ele><time>2025-5-17T7:18:20Z</time></trkpt>
<trkpt lat="48.9118309021" lon="2.6903054714203"><ele></ele><time>2025-5-17T7:18:23Z</time></trkpt>
<trkpt lat="48.911907196045" lon="2.6903018951416"><ele></ele><time>2025-5-17T7:18:26Z</time></trkpt>
<trkpt lat="48.911907196045" lon="2.6903018951416"><ele></ele><time>2025-5-17T7:18:29Z</time></trkpt>
<trkpt lat="48.911907196045" lon="2.6903018951416"><ele></ele><time>2025-5-17T7:18:32Z</time></trkpt>
<trkpt lat="48.911979675293" lon="2.6903295516968"><ele></ele><time>2025-5-17T7:18:35Z</time></trkpt>
<trkpt lat="48.912036895752" lon="2.6903209686279"><ele></ele><time>2025-5-17T7:18:38Z</time></trkpt>
<trkpt lat="48.912036895752" lon="2.6903209686279"><ele></ele><time>2025-5-17T7:18:41Z</time></trkpt>
<trkpt lat="48.912036895752" lon="2.6903209686279"><ele></ele><time>2025-5-17T7:18:44Z</time></trkpt>
<trkpt lat="48.912101745605" lon="2.6902985572815"><ele></ele><time>2025-5-17T7:18:47Z</time></trkpt>
<trkpt lat="48.912158966064" lon="2.6902847290039"><ele></ele><time>2025-5-17T7:18:50Z</time></trkpt>
<trkpt lat="48.912158966064" lon="2.6902847290039"><ele></ele><time>2025-5-17T7:18:53Z</time></trkpt>
<trkpt lat="48.912223815918" lon="2.6902723312378"><ele></ele><time>2025-5-17T7:18:56Z</time></trkpt>
<trkpt lat="48.912223815918" lon="2.6902723312378"><ele></ele><time>2025-5-17T7:18:59Z</time></trkpt>
<trkpt lat="48.912303924561" lon="2.6902589797974"><ele></ele><time>2025-5-17T7:19:2Z</time></trkpt>
<trkpt lat="48.912368774414" lon="2.6902453899384"><ele></ele><time>2025-5-17T7:19:5Z</time></trkpt>
<trkpt lat="48.912368774414" lon="2.6902453899384"><ele></ele><time>2025-5-17T7:19:8Z</time></trkpt>
<trkpt lat="48.912441253662" lon="2.6902332305908"><ele></ele><time>2025-5-17T7:19:11Z</time></trkpt>
<trkpt lat="48.91251373291" lon="2.6902210712433"><ele></ele><time>2025-5-17T7:19:14Z</time></trkpt>
<trkpt lat="48.91251373291" lon="2.6902210712433"><ele></ele><time>2025-5-17T7:19:17Z</time></trkpt>
<trkpt lat="48.912586212158" lon="2.6902117729187"><ele></ele><time>2025-5-17T7:19:20Z</time></trkpt>
<trkpt lat="48.912586212158" lon="2.6902117729187"><ele></ele><time>2025-5-17T7:19:23Z</time></trkpt>
<trkpt lat="48.912654876709" lon="2.6901986598969"><ele></ele><time>2025-5-17T7:19:26Z</time></trkpt>
<trkpt lat="48.912654876709" lon="2.6901986598969"><ele></ele><time>2025-5-17T7:19:29Z</time></trkpt>
<trkpt lat="48.912715911865" lon="2.6901841163635"><ele></ele><time>2025-5-17T7:19:32Z</time></trkpt>
<trkpt lat="48.912784576416" lon="2.6901683807373"><ele></ele><time>2025-5-17T7:19:35Z</time></trkpt>
<trkpt lat="48.912857055664" lon="2.6901450157166"><ele></ele><time>2025-5-17T7:19:38Z</time></trkpt>
<trkpt lat="48.912857055664" lon="2.6901450157166"><ele></ele><time>2025-5-17T7:19:41Z</time></trkpt>
<trkpt lat="48.912948608398" lon="2.6901142597198"><ele></ele><time>2025-5-17T7:19:44Z</time></trkpt>
<trkpt lat="48.913028717041" lon="2.6900963783264"><ele></ele><time>2025-5-17T7:19:47Z</time></trkpt>
<trkpt lat="48.913028717041" lon="2.6900963783264"><ele></ele><time>2025-5-17T7:19:50Z</time></trkpt>
<trkpt lat="48.913116455078" lon="2.6900770664215"><ele></ele><time>2025-5-17T7:19:53Z</time></trkpt>
<trkpt lat="48.913116455078" lon="2.6900770664215"><ele></ele><time>2025-5-17T7:19:56Z</time></trkpt>
<trkpt lat="48.913204193115" lon="2.690052986145"><ele></ele><time>2025-5-17T7:19:59Z</time></trkpt>
<trkpt lat="48.913299560547" lon="2.6900396347046"><ele></ele><time>2025-5-17T7:20:2Z</time></trkpt>
<trkpt lat="48.91340637207" lon="2.6900117397308"><ele></ele><time>2025-5-17T7:20:5Z</time></trkpt>
<trkpt lat="48.913475036621" lon="2.6899809837341"><ele></ele><time>2025-5-17T7:20:8Z</time></trkpt>
<trkpt lat="48.913539886475" lon="2.689950466156"><ele></ele><time>2025-5-17T7:20:11Z</time></trkpt>
<trkpt lat="48.913600921631" lon="2.6899266242981"><ele></ele><time>2025-5-17T7:20:14Z</time></trkpt>
<trkpt lat="48.913661956787" lon="2.689900636673"><ele></ele><time>2025-5-17T7:20:17Z</time></trkpt>
<trkpt lat="48.913738250732" lon="2.689873456955"><ele></ele><time>2025-5-17T7:20:20Z</time></trkpt>
<trkpt lat="48.913799285889" lon="2.6898519992828"><ele></ele><time>2025-5-17T7:20:23Z</time></trkpt>
<trkpt lat="48.913799285889" lon="2.6898519992828"><ele></ele><time>2025-5-17T7:20:26Z</time></trkpt>
<trkpt lat="48.913883209229" lon="2.6898326873779"><ele></ele><time>2025-5-17T7:20:29Z</time></trkpt>
<trkpt lat="48.913883209229" lon="2.6898326873779"><ele></ele><time>2025-5-17T7:20:32Z</time></trkpt>
<trkpt lat="48.913928985596" lon="2.6898260116577"><ele></ele><time>2025-5-17T7:20:35Z</time></trkpt>
<trkpt lat="48.913986206055" lon="2.6898114681244"><ele></ele><time>2025-5-17T7:20:38Z</time></trkpt>
<trkpt lat="48.914051055908" lon="2.6897909641266"><ele></ele><time>2025-5-17T7:20:41Z</time></trkpt>
<trkpt lat="48.914112091064" lon="2.6897642612457"><ele></ele><time>2025-5-17T7:20:44Z</time></trkpt>
<trkpt lat="48.914169311523" lon="2.6897263526917"><ele></ele><time>2025-5-17T7:20:47Z</time></trkpt>
<trkpt lat="48.914264678955" lon="2.6896336078644"><ele></ele><time>2025-5-17T7:20:50Z</time></trkpt>
<trkpt lat="48.914264678955" lon="2.6896336078644"><ele></ele><time>2025-5-17T7:20:53Z</time></trkpt>
<trkpt lat="48.914321899414" lon="2.6895821094513"><ele></ele><time>2025-5-17T7:20:56Z</time></trkpt>
<trkpt lat="48.914375305176" lon="2.6895368099213"><ele></ele><time>2025-5-17T7:20:59Z</time></trkpt>
<trkpt lat="48.914451599121" lon="2.6894629001617"><ele></ele><time>2025-5-17T7:21:2Z</time></trkpt>
<trkpt lat="48.914524078369" lon="2.6893854141235"><ele></ele><time>2025-5-17T7:21:5Z</time></trkpt>
<trkpt lat="48.914604187012" lon="2.6893036365509"><ele></ele><time>2025-5-17T7:21:8Z</time></trkpt>
<trkpt lat="48.914604187012" lon="2.6893036365509"><ele></ele><time>2025-5-17T7:21:11Z</time></trkpt>
<trkpt lat="48.914680480957" lon="2.6892220973969"><ele></ele><time>2025-5-17T7:21:14Z</time></trkpt>
<trkpt lat="48.914749145508" lon="2.6891527175903"><ele></ele><time>2025-5-17T7:21:17Z</time></trkpt>
<trkpt lat="48.914817810059" lon="2.6890971660614"><ele></ele><time>2025-5-17T7:21:20Z</time></trkpt>
<trkpt lat="48.914897918701" lon="2.6890349388123"><ele></ele><time>2025-5-17T7:21:23Z</time></trkpt>
<trkpt lat="48.914958953857" lon="2.6889839172363"><ele></ele><time>2025-5-17T7:21:26Z</time></trkpt>
<trkpt lat="48.915012359619" lon="2.68891954422"><ele></ele><time>2025-5-17T7:21:29Z</time></trkpt>
<trkpt lat="48.915012359619" lon="2.68891954422"><ele></ele><time>2025-5-17T7:21:32Z</time></trkpt>
<trkpt lat="48.915088653564" lon="2.688839673996"><ele></ele><time>2025-5-17T7:21:35Z</time></trkpt>
<trkpt lat="48.915145874023" lon="2.6888086795807"><ele></ele><time>2025-5-17T7:21:38Z</time></trkpt>
<trkpt lat="48.915195465088" lon="2.6887693405151"><ele></ele><time>2025-5-17T7:21:41Z</time></trkpt>
<trkpt lat="48.91524887085" lon="2.6887238025665"><ele></ele><time>2025-5-17T7:21:44Z</time></trkpt>
<trkpt lat="48.915306091309" lon="2.6886954307556"><ele></ele><time>2025-5-17T7:21:47Z</time></trkpt>
<trkpt lat="48.915306091309" lon="2.6886954307556"><ele></ele><time>2025-5-17T7:21:50Z</time></trkpt>
<trkpt lat="48.91540145874" lon="2.6886837482452"><ele></ele><time>2025-5-17T7:21:53Z</time></trkpt>
<trkpt lat="48.91540145874" lon="2.6886837482452"><ele></ele><time>2025-5-17T7:21:56Z</time></trkpt>
<trkpt lat="48.915504455566" lon="2.6887264251709"><ele></ele><time>2025-5-17T7:21:59Z</time></trkpt>
<trkpt lat="48.915615081787" lon="2.6887772083282"><ele></ele><time>2025-5-17T7:22:2Z</time></trkpt>
<trkpt lat="48.915683746338" lon="2.6888098716736"><ele></ele><time>2025-5-17T7:22:5Z</time></trkpt>
<trkpt lat="48.915748596191" lon="2.6888425350189"><ele></ele><time>2025-5-17T7:22:8Z</time></trkpt>
<trkpt lat="48.91580581665" lon="2.6888699531555"><ele></ele><time>2025-5-17T7:22:11Z</time></trkpt>
<trkpt lat="48.915870666504" lon="2.6889050006866"><ele></ele><time>2025-5-17T7:22:14Z</time></trkpt>
<trkpt lat="48.91593170166" lon="2.688937664032"><ele></ele><time>2025-5-17T7:22:17Z</time></trkpt>
<trkpt lat="48.91593170166" lon="2.688937664032"><ele></ele><time>2025-5-17T7:22:20Z</time></trkpt>
<trkpt lat="48.915985107422" lon="2.6889679431915"><ele></ele><time>2025-5-17T7:22:23Z</time></trkpt>
<trkpt lat="48.916046142578" lon="2.6889984607697"><ele></ele><time>2025-5-17T7:22:26Z</time></trkpt>
<trkpt lat="48.916110992432" lon="2.6890280246735"><ele></ele><time>2025-5-17T7:22:29Z</time></trkpt>
<trkpt lat="48.916187286377" lon="2.6890604496002"><ele></ele><time>2025-5-17T7:22:32Z</time></trkpt>
<trkpt lat="48.916244506836" lon="2.6890845298767"><ele></ele><time>2025-5-17T7:22:35Z</time></trkpt>
<trkpt lat="48.916313171387" lon="2.689108133316"><ele></ele><time>2025-5-17T7:22:38Z</time></trkpt>
<trkpt lat="48.916381835938" lon="2.689138174057"><ele></ele><time>2025-5-17T7:22:41Z</time></trkpt>
<trkpt lat="48.916442871094" lon="2.6891567707062"><ele></ele><time>2025-5-17T7:22:44Z</time></trkpt>
<trkpt lat="48.916442871094" lon="2.6891567707062"><ele></ele><time>2025-5-17T7:22:47Z</time></trkpt>
<trkpt lat="48.916568756104" lon="2.6891565322876"><ele></ele><time>2025-5-17T7:22:50Z</time></trkpt>
<trkpt lat="48.916645050049" lon="2.6891448497772"><ele></ele><time>2025-5-17T7:22:53Z</time></trkpt>
<trkpt lat="48.91674041748" lon="2.6891105175018"><ele></ele><time>2025-5-17T7:22:56Z</time></trkpt>
<trkpt lat="48.916851043701" lon="2.6890752315521"><ele></ele><time>2025-5-17T7:22:59Z</time></trkpt>
<trkpt lat="48.91695022583" lon="2.6890389919281"><ele></ele><time>2025-5-17T7:23:2Z</time></trkpt>
<trkpt lat="48.91695022583" lon="2.6890389919281"><ele></ele><time>2025-5-17T7:23:5Z</time></trkpt>
<trkpt lat="48.917045593262" lon="2.6890113353729"><ele></ele><time>2025-5-17T7:23:8Z</time></trkpt>
<trkpt lat="48.91711807251" lon="2.6889846324921"><ele></ele><time>2025-5-17T7:23:11Z</time></trkpt>
<trkpt lat="48.917194366455" lon="2.6889533996582"><ele></ele><time>2025-5-17T7:23:14Z</time></trkpt>
<trkpt lat="48.9172706604" lon="2.6889476776123"><ele></ele><time>2025-5-17T7:23:17Z</time></trkpt>
<trkpt lat="48.917335510254" lon="2.6889615058899"><ele></ele><time>2025-5-17T7:23:20Z</time></trkpt>
<trkpt lat="48.917427062988" lon="2.6889524459839"><ele></ele><time>2025-5-17T7:23:23Z</time></trkpt>
<trkpt lat="48.917781829834" lon="2.6888692378998"><ele></ele><time>2025-5-17T7:23:26Z</time></trkpt>
<trkpt lat="48.917964935303" lon="2.6888134479523"><ele></ele><time>2025-5-17T7:23:29Z</time></trkpt>
<trkpt lat="48.918151855469" lon="2.6887211799622"><ele></ele><time>2025-5-17T7:23:32Z</time></trkpt>
<trkpt lat="48.918258666992" lon="2.6885302066803"><ele></ele><time>2025-5-17T7:23:35Z</time></trkpt>
<trkpt lat="48.918319702148" lon="2.6883203983307"><ele></ele><time>2025-5-17T7:23:38Z</time></trkpt>
<trkpt lat="48.91841506958" lon="2.6881184577942"><ele></ele><time>2025-5-17T7:23:41Z</time></trkpt>
<trkpt lat="48.918506622314" lon="2.6879827976227"><ele></ele><time>2025-5-17T7:23:44Z</time></trkpt>
<trkpt lat="48.918506622314" lon="2.6879827976227"><ele></ele><time>2025-5-17T7:23:47Z</time></trkpt>
<trkpt lat="48.918601989746" lon="2.6878798007965"><ele></ele><time>2025-5-17T7:23:50Z</time></trkpt>
<trkpt lat="48.918720245361" lon="2.6878125667572"><ele></ele><time>2025-5-17T7:23:53Z</time></trkpt>
<trkpt lat="48.918823242188" lon="2.687769651413"><ele></ele><time>2025-5-17T7:23:56Z</time></trkpt>
<trkpt lat="48.918823242188" lon="2.687769651413"><ele></ele><time>2025-5-17T7:23:59Z</time></trkpt>
<trkpt lat="48.918922424316" lon="2.687748670578"><ele></ele><time>2025-5-17T7:24:2Z</time></trkpt>
<trkpt lat="48.919048309326" lon="2.6877243518829"><ele></ele><time>2025-5-17T7:24:5Z</time></trkpt>
<trkpt lat="48.919166564941" lon="2.6876895427704"><ele></ele><time>2025-5-17T7:24:8Z</time></trkpt>
<trkpt lat="48.919166564941" lon="2.6876895427704"><ele></ele><time>2025-5-17T7:24:11Z</time></trkpt>
<trkpt lat="48.919277191162" lon="2.6876380443573"><ele></ele><time>2025-5-17T7:24:14Z</time></trkpt>
<trkpt lat="48.919368743896" lon="2.6875371932983"><ele></ele><time>2025-5-17T7:24:17Z</time></trkpt>
<trkpt lat="48.919452667236" lon="2.6874153614044"><ele></ele><time>2025-5-17T7:24:20Z</time></trkpt>
<trkpt lat="48.919452667236" lon="2.6874153614044"><ele></ele><time>2025-5-17T7:24:23Z</time></trkpt>
<trkpt lat="48.919513702393" lon="2.6872777938843"><ele></ele><time>2025-5-17T7:24:26Z</time></trkpt>
<trkpt lat="48.91960144043" lon="2.6871693134308"><ele></ele><time>2025-5-17T7:24:29Z</time></trkpt>
<trkpt lat="48.919704437256" lon="2.6870484352112"><ele></ele><time>2025-5-17T7:24:32Z</time></trkpt>
<trkpt lat="48.919704437256" lon="2.6870484352112"><ele></ele><time>2025-5-17T7:24:35Z</time></trkpt>
<trkpt lat="48.919799804688" lon="2.6869428157806"><ele></ele><time>2025-5-17T7:24:38Z</time></trkpt>
<trkpt lat="48.919891357422" lon="2.6868317127228"><ele></ele><time>2025-5-17T7:24:41Z</time></trkpt>
<trkpt lat="48.919998168945" lon="2.6866800785065"><ele></ele><time>2025-5-17T7:24:44Z</time></trkpt>
<trkpt lat="48.919998168945" lon="2.6866800785065"><ele></ele><time>2025-5-17T7:24:47Z</time></trkpt>
<trkpt lat="48.920093536377" lon="2.6865537166595"><ele></ele><time>2025-5-17T7:24:50Z</time></trkpt>
<trkpt lat="48.920185089111" lon="2.6864383220673"><ele></ele><time>2025-5-17T7:24:53Z</time></trkpt>
<trkpt lat="48.920276641846" lon="2.6863331794739"><ele></ele><time>2025-5-17T7:24:56Z</time></trkpt>
<trkpt lat="48.920276641846" lon="2.6863331794739"><ele></ele><time>2025-5-17T7:24:59Z</time></trkpt>
<trkpt lat="48.920383453369" lon="2.6862170696259"><ele></ele><time>2025-5-17T7:25:2Z</time></trkpt>
<trkpt lat="48.92049407959" lon="2.6861510276794"><ele></ele><time>2025-5-17T7:25:5Z</time></trkpt>
<trkpt lat="48.920600891113" lon="2.6860883235931"><ele></ele><time>2025-5-17T7:25:8Z</time></trkpt>
<trkpt lat="48.920600891113" lon="2.6860883235931"><ele></ele><time>2025-5-17T7:25:11Z</time></trkpt>
<trkpt lat="48.920703887939" lon="2.6860270500183"><ele></ele><time>2025-5-17T7:25:14Z</time></trkpt>
<trkpt lat="48.920803070068" lon="2.6859724521637"><ele></ele><time>2025-5-17T7:25:17Z</time></trkpt>
<trkpt lat="48.920883178711" lon="2.6859309673309"><ele></ele><time>2025-5-17T7:25:20Z</time></trkpt>
<trkpt lat="48.920883178711" lon="2.6859309673309"><ele></ele><time>2025-5-17T7:25:23Z</time></trkpt>
<trkpt lat="48.920978546143" lon="2.6858756542206"><ele></ele><time>2025-5-17T7:25:26Z</time></trkpt>
<trkpt lat="48.921092987061" lon="2.6858143806458"><ele></ele><time>2025-5-17T7:25:29Z</time></trkpt>
<trkpt lat="48.921188354492" lon="2.6857495307922"><ele></ele><time>2025-5-17T7:25:32Z</time></trkpt>
<trkpt lat="48.921188354492" lon="2.6857495307922"><ele></ele><time>2025-5-17T7:25:35Z</time></trkpt>
<trkpt lat="48.921279907227" lon="2.6856784820557"><ele></ele><time>2025-5-17T7:25:38Z</time></trkpt>
<trkpt lat="48.921382904053" lon="2.6856091022491"><ele></ele><time>2025-5-17T7:25:41Z</time></trkpt>
<trkpt lat="48.921382904053" lon="2.6856091022491"><ele></ele><time>2025-5-17T7:25:44Z</time></trkpt>
<trkpt lat="48.921382904053" lon="2.6856091022491"><ele></ele><time>2025-5-17T7:25:47Z</time></trkpt>
<trkpt lat="48.921478271484" lon="2.6855473518372"><ele></ele><time>2025-5-17T7:25:50Z</time></trkpt>
<trkpt lat="48.921520233154" lon="2.6854865550995"><ele></ele><time>2025-5-17T7:25:53Z</time></trkpt>
<trkpt lat="48.921520233154" lon="2.6854865550995"><ele></ele><time>2025-5-17T7:25:56Z</time></trkpt>
<trkpt lat="48.921520233154" lon="2.6854865550995"><ele></ele><time>2025-5-17T7:25:59Z</time></trkpt>
<trkpt lat="48.921581268311" lon="2.6854386329651"><ele></ele><time>2025-5-17T7:26:2Z</time></trkpt>
<trkpt lat="48.921581268311" lon="2.6854386329651"><ele></ele><time>2025-5-17T7:26:5Z</time></trkpt>
<trkpt lat="48.921581268311" lon="2.6854386329651"><ele></ele><time>2025-5-17T7:26:8Z</time></trkpt>
<trkpt lat="48.921649932861" lon="2.6854178905487"><ele></ele><time>2025-5-17T7:26:11Z</time></trkpt>
<trkpt lat="48.921745300293" lon="2.6853394508362"><ele></ele><time>2025-5-17T7:26:14Z</time></trkpt>
<trkpt lat="48.921745300293" lon="2.6853394508362"><ele></ele><time>2025-5-17T7:26:17Z</time></trkpt>
<trkpt lat="48.921802520752" lon="2.685284614563"><ele></ele><time>2025-5-17T7:26:20Z</time></trkpt>
<trkpt lat="48.921855926514" lon="2.6852173805237"><ele></ele><time>2025-5-17T7:26:23Z</time></trkpt>
<trkpt lat="48.92191696167" lon="2.6851499080658"><ele></ele><time>2025-5-17T7:26:26Z</time></trkpt>
<trkpt lat="48.92191696167" lon="2.6851499080658"><ele></ele><time>2025-5-17T7:26:29Z</time></trkpt>
<trkpt lat="48.921977996826" lon="2.6850690841675"><ele></ele><time>2025-5-17T7:26:32Z</time></trkpt>
<trkpt lat="48.922023773193" lon="2.6849927902222"><ele></ele><time>2025-5-17T7:26:35Z</time></trkpt>
<trkpt lat="48.922073364258" lon="2.6848919391632"><ele></ele><time>2025-5-17T7:26:38Z</time></trkpt>
<trkpt lat="48.922073364258" lon="2.6848919391632"><ele></ele><time>2025-5-17T7:26:41Z</time></trkpt>
<trkpt lat="48.922122955322" lon="2.6847946643829"><ele></ele><time>2025-5-17T7:26:44Z</time></trkpt>
<trkpt lat="48.922164916992" lon="2.6847043037415"><ele></ele><time>2025-5-17T7:26:47Z</time></trkpt>
<trkpt lat="48.922206878662" lon="2.6846039295197"><ele></ele><time>2025-5-17T7:26:50Z</time></trkpt>
<trkpt lat="48.922206878662" lon="2.6846039295197"><ele></ele><time>2025-5-17T7:26:53Z</time></trkpt>
<trkpt lat="48.922241210938" lon="2.684502363205"><ele></ele><time>2025-5-17T7:26:56Z</time></trkpt>
<trkpt lat="48.922260284424" lon="2.6843893527985"><ele></ele><time>2025-5-17T7:26:59Z</time></trkpt>
<trkpt lat="48.922267913818" lon="2.6842770576477"><ele></ele><time>2025-5-17T7:27:2Z</time></trkpt>
<trkpt lat="48.922267913818" lon="2.6842770576477"><ele></ele><time>2025-5-17T7:27:5Z</time></trkpt>
<trkpt lat="48.922260284424" lon="2.684121131897"><ele></ele><time>2025-5-17T7:27:8Z</time></trkpt>
<trkpt lat="48.922248840332" lon="2.683958530426"><ele></ele><time>2025-5-17T7:27:11Z</time></trkpt>
<trkpt lat="48.922229766846" lon="2.6837975978851"><ele></ele><time>2025-5-17T7:27:14Z</time></trkpt>
<trkpt lat="48.922229766846" lon="2.6837975978851"><ele></ele><time>2025-5-17T7:27:17Z</time></trkpt>
<trkpt lat="48.922206878662" lon="2.6836585998535"><ele></ele><time>2025-5-17T7:27:20Z</time></trkpt>
<trkpt lat="48.922191619873" lon="2.6835289001465"><ele></ele><time>2025-5-17T7:27:23Z</time></trkpt>
<trkpt lat="48.922164916992" lon="2.6834139823914"><ele></ele><time>2025-5-17T7:27:26Z</time></trkpt>
<trkpt lat="48.922164916992" lon="2.6834139823914"><ele></ele><time>2025-5-17T7:27:29Z</time></trkpt>
<trkpt lat="48.922130584717" lon="2.6832902431488"><ele></ele><time>2025-5-17T7:27:32Z</time></trkpt>
<trkpt lat="48.922077178955" lon="2.6831731796265"><ele></ele><time>2025-5-17T7:27:35Z</time></trkpt>
<trkpt lat="48.922016143799" lon="2.6830475330353"><ele></ele><time>2025-5-17T7:27:38Z</time></trkpt>
<trkpt lat="48.921951293945" lon="2.6829388141632"><ele></ele><time>2025-5-17T7:27:41Z</time></trkpt>
<trkpt lat="48.921890258789" lon="2.6828374862671"><ele></ele><time>2025-5-17T7:27:44Z</time></trkpt>
<trkpt lat="48.921890258789" lon="2.6828374862671"><ele></ele><time>2025-5-17T7:27:47Z</time></trkpt>
<trkpt lat="48.921821594238" lon="2.6827230453491"><ele></ele><time>2025-5-17T7:27:50Z</time></trkpt>
<trkpt lat="48.921756744385" lon="2.6826148033142"><ele></ele><time>2025-5-17T7:27:53Z</time></trkpt>
<trkpt lat="48.921699523926" lon="2.6825206279755"><ele></ele><time>2025-5-17T7:27:56Z</time></trkpt>
<trkpt lat="48.921699523926" lon="2.6825206279755"><ele></ele><time>2025-5-17T7:27:59Z</time></trkpt>
<trkpt lat="48.921630859375" lon="2.6824259757996"><ele></ele><time>2025-5-17T7:28:2Z</time></trkpt>
<trkpt lat="48.921562194824" lon="2.6823256015778"><ele></ele><time>2025-5-17T7:28:5Z</time></trkpt>
<trkpt lat="48.921504974365" lon="2.6822190284729"><ele></ele><time>2025-5-17T7:28:8Z</time></trkpt>
<trkpt lat="48.921443939209" lon="2.6820957660675"><ele></ele><time>2025-5-17T7:28:11Z</time></trkpt>
<trkpt lat="48.921409606934" lon="2.6819286346436"><ele></ele><time>2025-5-17T7:28:14Z</time></trkpt>
<trkpt lat="48.921409606934" lon="2.6819286346436"><ele></ele><time>2025-5-17T7:28:17Z</time></trkpt>
<trkpt lat="48.921421051025" lon="2.6817646026611"><ele></ele><time>2025-5-17T7:28:20Z</time></trkpt>
<trkpt lat="48.921466827393" lon="2.681624174118"><ele></ele><time>2025-5-17T7:28:23Z</time></trkpt>
<trkpt lat="48.921531677246" lon="2.6814873218536"><ele></ele><time>2025-5-17T7:28:26Z</time></trkpt>
<trkpt lat="48.921531677246" lon="2.6814873218536"><ele></ele><time>2025-5-17T7:28:29Z</time></trkpt>
<trkpt lat="48.921592712402" lon="2.6813733577728"><ele></ele><time>2025-5-17T7:28:32Z</time></trkpt>
<trkpt lat="48.921661376953" lon="2.68123960495"><ele></ele><time>2025-5-17T7:28:35Z</time></trkpt>
<trkpt lat="48.921730041504" lon="2.6811013221741"><ele></ele><time>2025-5-17T7:28:38Z</time></trkpt>
<trkpt lat="48.921787261963" lon="2.6809689998627"><ele></ele><time>2025-5-17T7:28:41Z</time></trkpt>
<trkpt lat="48.921836853027" lon="2.6808388233185"><ele></ele><time>2025-5-17T7:28:44Z</time></trkpt>
<trkpt lat="48.921836853027" lon="2.6808388233185"><ele></ele><time>2025-5-17T7:28:47Z</time></trkpt>
<trkpt lat="48.921878814697" lon="2.6807286739349"><ele></ele><time>2025-5-17T7:28:50Z</time></trkpt>
<trkpt lat="48.921943664551" lon="2.6805808544159"><ele></ele><time>2025-5-17T7:28:53Z</time></trkpt>
<trkpt lat="48.92200088501" lon="2.6804587841034"><ele></ele><time>2025-5-17T7:28:56Z</time></trkpt>
<trkpt lat="48.92200088501" lon="2.6804587841034"><ele></ele><time>2025-5-17T7:28:59Z</time></trkpt>
<trkpt lat="48.922058105469" lon="2.6803224086761"><ele></ele><time>2025-5-17T7:29:2Z</time></trkpt>
<trkpt lat="48.922115325928" lon="2.6801977157593"><ele></ele><time>2025-5-17T7:29:5Z</time></trkpt>
<trkpt lat="48.922176361084" lon="2.6800746917725"><ele></ele><time>2025-5-17T7:29:8Z</time></trkpt>
<trkpt lat="48.922225952148" lon="2.6799442768097"><ele></ele><time>2025-5-17T7:29:11Z</time></trkpt>
<trkpt lat="48.922241210938" lon="2.6798338890076"><ele></ele><time>2025-5-17T7:29:14Z</time></trkpt>
<trkpt lat="48.922241210938" lon="2.6798338890076"><ele></ele><time>2025-5-17T7:29:17Z</time></trkpt>
<trkpt lat="48.922248840332" lon="2.6797306537628"><ele></ele><time>2025-5-17T7:29:20Z</time></trkpt>
<trkpt lat="48.922256469727" lon="2.6796424388885"><ele></ele><time>2025-5-17T7:29:23Z</time></trkpt>
<trkpt lat="48.922260284424" lon="2.6795556545258"><ele></ele><time>2025-5-17T7:29:26Z</time></trkpt>
<trkpt lat="48.922260284424" lon="2.6795556545258"><ele></ele><time>2025-5-17T7:29:29Z</time></trkpt>
<trkpt lat="48.922260284424" lon="2.6793730258942"><ele></ele><time>2025-5-17T7:29:32Z</time></trkpt>
<trkpt lat="48.922260284424" lon="2.6793730258942"><ele></ele><time>2025-5-17T7:29:35Z</time></trkpt>
<trkpt lat="48.922267913818" lon="2.6792845726013"><ele></ele><time>2025-5-17T7:29:38Z</time></trkpt>
<trkpt lat="48.922271728516" lon="2.6791956424713"><ele></ele><time>2025-5-17T7:29:41Z</time></trkpt>
<trkpt lat="48.92227935791" lon="2.6790976524353"><ele></ele><time>2025-5-17T7:29:44Z</time></trkpt>
<trkpt lat="48.92227935791" lon="2.6790976524353"><ele></ele><time>2025-5-17T7:29:47Z</time></trkpt>
<trkpt lat="48.922283172607" lon="2.6790103912354"><ele></ele><time>2025-5-17T7:29:50Z</time></trkpt>
<trkpt lat="48.922283172607" lon="2.6789121627808"><ele></ele><time>2025-5-17T7:29:53Z</time></trkpt>
<trkpt lat="48.922286987305" lon="2.67879986763"><ele></ele><time>2025-5-17T7:29:56Z</time></trkpt>
<trkpt lat="48.922286987305" lon="2.67879986763"><ele></ele><time>2025-5-17T7:29:59Z</time></trkpt>
<trkpt lat="48.922302246094" lon="2.6786947250366"><ele></ele><time>2025-5-17T7:30:2Z</time></trkpt>
<trkpt lat="48.922313690186" lon="2.6785881519318"><ele></ele><time>2025-5-17T7:30:5Z</time></trkpt>
<trkpt lat="48.922328948975" lon="2.6784660816193"><ele></ele><time>2025-5-17T7:30:8Z</time></trkpt>
<trkpt lat="48.922328948975" lon="2.6784660816193"><ele></ele><time>2025-5-17T7:30:11Z</time></trkpt>
<trkpt lat="48.922336578369" lon="2.6783585548401"><ele></ele><time>2025-5-17T7:30:14Z</time></trkpt>
<trkpt lat="48.922344207764" lon="2.6782557964325"><ele></ele><time>2025-5-17T7:30:17Z</time></trkpt>
<trkpt lat="48.922355651855" lon="2.6781451702118"><ele></ele><time>2025-5-17T7:30:20Z</time></trkpt>
<trkpt lat="48.922355651855" lon="2.6781451702118"><ele></ele><time>2025-5-17T7:30:23Z</time></trkpt>
<trkpt lat="48.922355651855" lon="2.6780462265015"><ele></ele><time>2025-5-17T7:30:26Z</time></trkpt>
<trkpt lat="48.92236328125" lon="2.6779518127441"><ele></ele><time>2025-5-17T7:30:29Z</time></trkpt>
<trkpt lat="48.92236328125" lon="2.6778528690338"><ele></ele><time>2025-5-17T7:30:32Z</time></trkpt>
<trkpt lat="48.92236328125" lon="2.6778528690338"><ele></ele><time>2025-5-17T7:30:35Z</time></trkpt>
<trkpt lat="48.92236328125" lon="2.6777558326721"><ele></ele><time>2025-5-17T7:30:38Z</time></trkpt>
<trkpt lat="48.922367095947" lon="2.6776566505432"><ele></ele><time>2025-5-17T7:30:41Z</time></trkpt>
<trkpt lat="48.922370910645" lon="2.6775295734406"><ele></ele><time>2025-5-17T7:30:44Z</time></trkpt>
<trkpt lat="48.922370910645" lon="2.677387714386"><ele></ele><time>2025-5-17T7:30:47Z</time></trkpt>
<trkpt lat="48.922370910645" lon="2.6772449016571"><ele></ele><time>2025-5-17T7:30:50Z</time></trkpt>
<trkpt lat="48.922370910645" lon="2.6772449016571"><ele></ele><time>2025-5-17T7:30:53Z</time></trkpt>
<trkpt lat="48.922367095947" lon="2.677107334137"><ele></ele><time>2025-5-17T7:30:56Z</time></trkpt>
<trkpt lat="48.922359466553" lon="2.6769697666168"><ele></ele><time>2025-5-17T7:30:59Z</time></trkpt>
<trkpt lat="48.922359466553" lon="2.6768090724945"><ele></ele><time>2025-5-17T7:31:2Z</time></trkpt>
<trkpt lat="48.922359466553" lon="2.6768090724945"><ele></ele><time>2025-5-17T7:31:5Z</time></trkpt>
<trkpt lat="48.922359466553" lon="2.676647901535"><ele></ele><time>2025-5-17T7:31:8Z</time></trkpt>
<trkpt lat="48.92236328125" lon="2.6765093803406"><ele></ele><time>2025-5-17T7:31:11Z</time></trkpt>
<trkpt lat="48.922367095947" lon="2.6763823032379"><ele></ele><time>2025-5-17T7:31:14Z</time></trkpt>
<trkpt lat="48.922367095947" lon="2.6763823032379"><ele></ele><time>2025-5-17T7:31:17Z</time></trkpt>
<trkpt lat="48.922367095947" lon="2.6762652397156"><ele></ele><time>2025-5-17T7:31:20Z</time></trkpt>
<trkpt lat="48.922367095947" lon="2.6761054992676"><ele></ele><time>2025-5-17T7:31:23Z</time></trkpt>
<trkpt lat="48.922367095947" lon="2.6759748458862"><ele></ele><time>2025-5-17T7:31:26Z</time></trkpt>
<trkpt lat="48.922367095947" lon="2.6759748458862"><ele></ele><time>2025-5-17T7:31:29Z</time></trkpt>
<trkpt lat="48.92236328125" lon="2.6758613586426"><ele></ele><time>2025-5-17T7:31:32Z</time></trkpt>
<trkpt lat="48.922370910645" lon="2.6757643222809"><ele></ele><time>2025-5-17T7:31:35Z</time></trkpt>
<trkpt lat="48.922378540039" lon="2.6756360530853"><ele></ele><time>2025-5-17T7:31:38Z</time></trkpt>
<trkpt lat="48.922378540039" lon="2.6756360530853"><ele></ele><time>2025-5-17T7:31:41Z</time></trkpt>
<trkpt lat="48.922382354736" lon="2.6755015850067"><ele></ele><time>2025-5-17T7:31:44Z</time></trkpt>
<trkpt lat="48.922386169434" lon="2.6754004955292"><ele></ele><time>2025-5-17T7:31:47Z</time></trkpt>
<trkpt lat="48.922389984131" lon="2.6753129959106"><ele></ele><time>2025-5-17T7:31:50Z</time></trkpt>
<trkpt lat="48.922389984131" lon="2.6753129959106"><ele></ele><time>2025-5-17T7:31:53Z</time></trkpt>
<trkpt lat="48.922389984131" lon="2.6752002239227"><ele></ele><time>2025-5-17T7:31:56Z</time></trkpt>
<trkpt lat="48.922401428223" lon="2.6750950813293"><ele></ele><time>2025-5-17T7:31:59Z</time></trkpt>
<trkpt lat="48.922412872314" lon="2.6749992370605"><ele></ele><time>2025-5-17T7:32:2Z</time></trkpt>
<trkpt lat="48.922412872314" lon="2.6749992370605"><ele></ele><time>2025-5-17T7:32:5Z</time></trkpt>
<trkpt lat="48.922420501709" lon="2.6749031543732"><ele></ele><time>2025-5-17T7:32:8Z</time></trkpt>
<trkpt lat="48.922428131104" lon="2.6748044490814"><ele></ele><time>2025-5-17T7:32:11Z</time></trkpt>
<trkpt lat="48.922431945801" lon="2.6747181415558"><ele></ele><time>2025-5-17T7:32:14Z</time></trkpt>
<trkpt lat="48.922431945801" lon="2.6747181415558"><ele></ele><time>2025-5-17T7:32:17Z</time></trkpt>
<trkpt lat="48.922431945801" lon="2.6747181415558"><ele></ele><time>2025-5-17T7:32:20Z</time></trkpt>
<trkpt lat="48.922443389893" lon="2.6745524406433"><ele></ele><time>2025-5-17T7:32:23Z</time></trkpt>
<trkpt lat="48.92244720459" lon="2.6744608879089"><ele></ele><time>2025-5-17T7:32:26Z</time></trkpt>
<trkpt lat="48.92244720459" lon="2.6744608879089"><ele></ele><time>2025-5-17T7:32:29Z</time></trkpt>
<trkpt lat="48.922451019287" lon="2.674352645874"><ele></ele><time>2025-5-17T7:32:32Z</time></trkpt>
<trkpt lat="48.922458648682" lon="2.6742336750031"><ele></ele><time>2025-5-17T7:32:35Z</time></trkpt>
<trkpt lat="48.922470092773" lon="2.6741056442261"><ele></ele><time>2025-5-17T7:32:38Z</time></trkpt>
<trkpt lat="48.922470092773" lon="2.6741056442261"><ele></ele><time>2025-5-17T7:32:41Z</time></trkpt>
<trkpt lat="48.922477722168" lon="2.6739683151245"><ele></ele><time>2025-5-17T7:32:44Z</time></trkpt>
<trkpt lat="48.922485351562" lon="2.6738169193268"><ele></ele><time>2025-5-17T7:32:47Z</time></trkpt>
<trkpt lat="48.922492980957" lon="2.673659324646"><ele></ele><time>2025-5-17T7:32:50Z</time></trkpt>
<trkpt lat="48.922492980957" lon="2.673659324646"><ele></ele><time>2025-5-17T7:32:53Z</time></trkpt>
<trkpt lat="48.922496795654" lon="2.6735174655914"><ele></ele><time>2025-5-17T7:32:56Z</time></trkpt>
<trkpt lat="48.922504425049" lon="2.6733763217926"><ele></ele><time>2025-5-17T7:32:59Z</time></trkpt>
<trkpt lat="48.922508239746" lon="2.6732082366943"><ele></ele><time>2025-5-17T7:33:2Z</time></trkpt>
<trkpt lat="48.922508239746" lon="2.6732082366943"><ele></ele><time>2025-5-17T7:33:5Z</time></trkpt>
<trkpt lat="48.922519683838" lon="2.6730470657349"><ele></ele><time>2025-5-17T7:33:8Z</time></trkpt>
<trkpt lat="48.92253112793" lon="2.6729028224945"><ele></ele><time>2025-5-17T7:33:11Z</time></trkpt>
<trkpt lat="48.922534942627" lon="2.6727442741394"><ele></ele><time>2025-5-17T7:33:14Z</time></trkpt>
<trkpt lat="48.922534942627" lon="2.6727442741394"><ele></ele><time>2025-5-17T7:33:17Z</time></trkpt>
<trkpt lat="48.922538757324" lon="2.6725709438324"><ele></ele><time>2025-5-17T7:33:20Z</time></trkpt>
<trkpt lat="48.922538757324" lon="2.6724269390106"><ele></ele><time>2025-5-17T7:33:23Z</time></trkpt>
<trkpt lat="48.922542572021" lon="2.6722812652588"><ele></ele><time>2025-5-17T7:33:26Z</time></trkpt>
<trkpt lat="48.922542572021" lon="2.6722812652588"><ele></ele><time>2025-5-17T7:33:29Z</time></trkpt>
<trkpt lat="48.922542572021" lon="2.6721148490906"><ele></ele><time>2025-5-17T7:33:32Z</time></trkpt>
<trkpt lat="48.922546386719" lon="2.671959400177"><ele></ele><time>2025-5-17T7:33:35Z</time></trkpt>
<trkpt lat="48.922550201416" lon="2.6717960834503"><ele></ele><time>2025-5-17T7:33:38Z</time></trkpt>
<trkpt lat="48.922550201416" lon="2.6717960834503"><ele></ele><time>2025-5-17T7:33:41Z</time></trkpt>
<trkpt lat="48.922557830811" lon="2.6716227531433"><ele></ele><time>2025-5-17T7:33:44Z</time></trkpt>
<trkpt lat="48.922565460205" lon="2.6714339256287"><ele></ele><time>2025-5-17T7:33:47Z</time></trkpt>
<trkpt lat="48.9225730896" lon="2.6712741851807"><ele></ele><time>2025-5-17T7:33:50Z</time></trkpt>
<trkpt lat="48.9225730896" lon="2.6712741851807"><ele></ele><time>2025-5-17T7:33:53Z</time></trkpt>
<trkpt lat="48.922584533691" lon="2.671117067337"><ele></ele><time>2025-5-17T7:33:56Z</time></trkpt>
<trkpt lat="48.922588348389" lon="2.6709396839142"><ele></ele><time>2025-5-17T7:33:59Z</time></trkpt>
<trkpt lat="48.922588348389" lon="2.670755147934"><ele></ele><time>2025-5-17T7:34:2Z</time></trkpt>
<trkpt lat="48.922588348389" lon="2.670755147934"><ele></ele><time>2025-5-17T7:34:5Z</time></trkpt>
<trkpt lat="48.922592163086" lon="2.6705713272095"><ele></ele><time>2025-5-17T7:34:8Z</time></trkpt>
<trkpt lat="48.922592163086" lon="2.6704068183899"><ele></ele><time>2025-5-17T7:34:11Z</time></trkpt>
<trkpt lat="48.92259979248" lon="2.6702365875244"><ele></ele><time>2025-5-17T7:34:14Z</time></trkpt>
<trkpt lat="48.92259979248" lon="2.6702365875244"><ele></ele><time>2025-5-17T7:34:17Z</time></trkpt>
<trkpt lat="48.922611236572" lon="2.6700434684753"><ele></ele><time>2025-5-17T7:34:20Z</time></trkpt>
<trkpt lat="48.922622680664" lon="2.6698412895203"><ele></ele><time>2025-5-17T7:34:23Z</time></trkpt>
<trkpt lat="48.922634124756" lon="2.6696453094482"><ele></ele><time>2025-5-17T7:34:26Z</time></trkpt>
<trkpt lat="48.922634124756" lon="2.6696453094482"><ele></ele><time>2025-5-17T7:34:29Z</time></trkpt>
<trkpt lat="48.922653198242" lon="2.6694405078888"><ele></ele><time>2025-5-17T7:34:32Z</time></trkpt>
<trkpt lat="48.922611236572" lon="2.6692259311676"><ele></ele><time>2025-5-17T7:34:35Z</time></trkpt>
<trkpt lat="48.922515869141" lon="2.6690626144409"><ele></ele><time>2025-5-17T7:34:38Z</time></trkpt>
<trkpt lat="48.922515869141" lon="2.6690626144409"><ele></ele><time>2025-5-17T7:34:41Z</time></trkpt>
<trkpt lat="48.922389984131" lon="2.6689665317535"><ele></ele><time>2025-5-17T7:34:44Z</time></trkpt>
<trkpt lat="48.922260284424" lon="2.6688890457153"><ele></ele><time>2025-5-17T7:34:47Z</time></trkpt>
<trkpt lat="48.922134399414" lon="2.6688058376312"><ele></ele><time>2025-5-17T7:34:50Z</time></trkpt>
<trkpt lat="48.922134399414" lon="2.6688058376312"><ele></ele><time>2025-5-17T7:34:53Z</time></trkpt>
<trkpt lat="48.922035217285" lon="2.6686689853668"><ele></ele><time>2025-5-17T7:34:56Z</time></trkpt>
<trkpt lat="48.921943664551" lon="2.6685121059418"><ele></ele><time>2025-5-17T7:34:59Z</time></trkpt>
<trkpt lat="48.921855926514" lon="2.6683528423309"><ele></ele><time>2025-5-17T7:35:2Z</time></trkpt>
<trkpt lat="48.921855926514" lon="2.6683528423309"><ele></ele><time>2025-5-17T7:35:5Z</time></trkpt>
<trkpt lat="48.921783447266" lon="2.6682126522064"><ele></ele><time>2025-5-17T7:35:8Z</time></trkpt>
<trkpt lat="48.921710968018" lon="2.6680700778961"><ele></ele><time>2025-5-17T7:35:11Z</time></trkpt>
<trkpt lat="48.921657562256" lon="2.6679401397705"><ele></ele><time>2025-5-17T7:35:14Z</time></trkpt>
<trkpt lat="48.921657562256" lon="2.6679401397705"><ele></ele><time>2025-5-17T7:35:17Z</time></trkpt>
<trkpt lat="48.921619415283" lon="2.667813539505"><ele></ele><time>2025-5-17T7:35:20Z</time></trkpt>
<trkpt lat="48.921607971191" lon="2.6676597595215"><ele></ele><time>2025-5-17T7:35:23Z</time></trkpt>
<trkpt lat="48.921604156494" lon="2.6674904823303"><ele></ele><time>2025-5-17T7:35:26Z</time></trkpt>
<trkpt lat="48.921604156494" lon="2.6674904823303"><ele></ele><time>2025-5-17T7:35:29Z</time></trkpt>
<trkpt lat="48.92162322998" lon="2.667355298996"><ele></ele><time>2025-5-17T7:35:32Z</time></trkpt>
<trkpt lat="48.921649932861" lon="2.6672210693359"><ele></ele><time>2025-5-17T7:35:35Z</time></trkpt>
<trkpt lat="48.921680450439" lon="2.6670954227448"><ele></ele><time>2025-5-17T7:35:38Z</time></trkpt>
<trkpt lat="48.921680450439" lon="2.6670954227448"><ele></ele><time>2025-5-17T7:35:41Z</time></trkpt>
<trkpt lat="48.921718597412" lon="2.6669573783875"><ele></ele><time>2025-5-17T7:35:44Z</time></trkpt>
<trkpt lat="48.921745300293" lon="2.666805267334"><ele></ele><time>2025-5-17T7:35:47Z</time></trkpt>
<trkpt lat="48.921756744385" lon="2.6666378974915"><ele></ele><time>2025-5-17T7:35:50Z</time></trkpt>
<trkpt lat="48.921756744385" lon="2.6666378974915"><ele></ele><time>2025-5-17T7:35:53Z</time></trkpt>
<trkpt lat="48.921764373779" lon="2.6664888858795"><ele></ele><time>2025-5-17T7:35:56Z</time></trkpt>
<trkpt lat="48.921783447266" lon="2.6663467884064"><ele></ele><time>2025-5-17T7:35:59Z</time></trkpt>
<trkpt lat="48.921798706055" lon="2.6662199497223"><ele></ele><time>2025-5-17T7:36:2Z</time></trkpt>
<trkpt lat="48.921798706055" lon="2.6662199497223"><ele></ele><time>2025-5-17T7:36:5Z</time></trkpt>
<trkpt lat="48.921810150146" lon="2.6661252975464"><ele></ele><time>2025-5-17T7:36:8Z</time></trkpt>
<trkpt lat="48.921825408936" lon="2.6660294532776"><ele></ele><time>2025-5-17T7:36:11Z</time></trkpt>
<trkpt lat="48.921844482422" lon="2.6659259796143"><ele></ele><time>2025-5-17T7:36:14Z</time></trkpt>
<trkpt lat="48.921867370605" lon="2.6658296585083"><ele></ele><time>2025-5-17T7:36:17Z</time></trkpt>
<trkpt lat="48.921867370605" lon="2.6658296585083"><ele></ele><time>2025-5-17T7:36:20Z</time></trkpt>
<trkpt lat="48.921867370605" lon="2.6658296585083"><ele></ele><time>2025-5-17T7:36:23Z</time></trkpt>
<trkpt lat="48.921901702881" lon="2.6657059192657"><ele></ele><time>2025-5-17T7:36:26Z</time></trkpt>
<trkpt lat="48.921901702881" lon="2.6657059192657"><ele></ele><time>2025-5-17T7:36:29Z</time></trkpt>
<trkpt lat="48.921901702881" lon="2.6657059192657"><ele></ele><time>2025-5-17T7:36:32Z</time></trkpt>
<trkpt lat="48.921901702881" lon="2.6657059192657"><ele></ele><time>2025-5-17T7:36:35Z</time></trkpt>
<trkpt lat="48.921848297119" lon="2.665619134903"><ele></ele><time>2025-5-17T7:36:38Z</time></trkpt>
<trkpt lat="48.921848297119" lon="2.665619134903"><ele></ele><time>2025-5-17T7:36:41Z</time></trkpt>
<trkpt lat="48.921764373779" lon="2.6655671596527"><ele></ele><time>2025-5-17T7:36:44Z</time></trkpt>
<trkpt lat="48.921764373779" lon="2.6655671596527"><ele></ele><time>2025-5-17T7:36:47Z</time></trkpt>
<trkpt lat="48.921695709229" lon="2.6655020713806"><ele></ele><time>2025-5-17T7:36:50Z</time></trkpt>
<trkpt lat="48.921695709229" lon="2.6655020713806"><ele></ele><time>2025-5-17T7:36:53Z</time></trkpt>
<trkpt lat="48.921615600586" lon="2.6654396057129"><ele></ele><time>2025-5-17T7:36:56Z</time></trkpt>
<trkpt lat="48.921562194824" lon="2.6654014587402"><ele></ele><time>2025-5-17T7:36:59Z</time></trkpt>
<trkpt lat="48.921501159668" lon="2.6653614044189"><ele></ele><time>2025-5-17T7:37:2Z</time></trkpt>
<trkpt lat="48.921501159668" lon="2.6653614044189"><ele></ele><time>2025-5-17T7:37:5Z</time></trkpt>
<trkpt lat="48.921447753906" lon="2.6653246879578"><ele></ele><time>2025-5-17T7:37:8Z</time></trkpt>
<trkpt lat="48.921360015869" lon="2.6652693748474"><ele></ele><time>2025-5-17T7:37:11Z</time></trkpt>
<trkpt lat="48.921360015869" lon="2.6652693748474"><ele></ele><time>2025-5-17T7:37:14Z</time></trkpt>
<trkpt lat="48.921360015869" lon="2.6652693748474"><ele></ele><time>2025-5-17T7:37:17Z</time></trkpt>
<trkpt lat="48.92126083374" lon="2.6652097702026"><ele></ele><time>2025-5-17T7:37:20Z</time></trkpt>
<trkpt lat="48.92126083374" lon="2.6652097702026"><ele></ele><time>2025-5-17T7:37:23Z</time></trkpt>
<trkpt lat="48.921161651611" lon="2.6651585102081"><ele></ele><time>2025-5-17T7:37:26Z</time></trkpt>
<trkpt lat="48.921047210693" lon="2.665109872818"><ele></ele><time>2025-5-17T7:37:29Z</time></trkpt>
<trkpt lat="48.920978546143" lon="2.6650836467743"><ele></ele><time>2025-5-17T7:37:32Z</time></trkpt>
<trkpt lat="48.920921325684" lon="2.6650638580322"><ele></ele><time>2025-5-17T7:37:35Z</time></trkpt>
<trkpt lat="48.920921325684" lon="2.6650638580322"><ele></ele><time>2025-5-17T7:37:38Z</time></trkpt>
<trkpt lat="48.920791625977" lon="2.665034532547"><ele></ele><time>2025-5-17T7:37:41Z</time></trkpt>
<trkpt lat="48.920719146729" lon="2.665020942688"><ele></ele><time>2025-5-17T7:37:44Z</time></trkpt>
<trkpt lat="48.920719146729" lon="2.665020942688"><ele></ele><time>2025-5-17T7:37:47Z</time></trkpt>
<trkpt lat="48.920650482178" lon="2.665011882782"><ele></ele><time>2025-5-17T7:37:50Z</time></trkpt>
<trkpt lat="48.920574188232" lon="2.6650002002716"><ele></ele><time>2025-5-17T7:37:53Z</time></trkpt>
<trkpt lat="48.920505523682" lon="2.664990901947"><ele></ele><time>2025-5-17T7:37:56Z</time></trkpt>
<trkpt lat="48.920505523682" lon="2.664990901947"><ele></ele><time>2025-5-17T7:37:59Z</time></trkpt>
<trkpt lat="48.920433044434" lon="2.6649873256683"><ele></ele><time>2025-5-17T7:38:2Z</time></trkpt>
<trkpt lat="48.920352935791" lon="2.6649878025055"><ele></ele><time>2025-5-17T7:38:5Z</time></trkpt>
<trkpt lat="48.920276641846" lon="2.664984703064"><ele></ele><time>2025-5-17T7:38:8Z</time></trkpt>
<trkpt lat="48.920276641846" lon="2.664984703064"><ele></ele><time>2025-5-17T7:38:11Z</time></trkpt>
<trkpt lat="48.920207977295" lon="2.6649825572968"><ele></ele><time>2025-5-17T7:38:14Z</time></trkpt>
<trkpt lat="48.920135498047" lon="2.6649839878082"><ele></ele><time>2025-5-17T7:38:17Z</time></trkpt>
<trkpt lat="48.920063018799" lon="2.6649885177612"><ele></ele><time>2025-5-17T7:38:20Z</time></trkpt>
<trkpt lat="48.920063018799" lon="2.6649885177612"><ele></ele><time>2025-5-17T7:38:23Z</time></trkpt>
<trkpt lat="48.919975280762" lon="2.6649951934814"><ele></ele><time>2025-5-17T7:38:26Z</time></trkpt>
<trkpt lat="48.919887542725" lon="2.6649987697601"><ele></ele><time>2025-5-17T7:38:29Z</time></trkpt>
<trkpt lat="48.919811248779" lon="2.6649997234344"><ele></ele><time>2025-5-17T7:38:32Z</time></trkpt>
<trkpt lat="48.919811248779" lon="2.6649997234344"><ele></ele><time>2025-5-17T7:38:35Z</time></trkpt>
<trkpt lat="48.919719696045" lon="2.665002822876"><ele></ele><time>2025-5-17T7:38:38Z</time></trkpt>
<trkpt lat="48.919635772705" lon="2.6650025844574"><ele></ele><time>2025-5-17T7:38:41Z</time></trkpt>
<trkpt lat="48.919555664062" lon="2.6650035381317"><ele></ele><time>2025-5-17T7:38:44Z</time></trkpt>
<trkpt lat="48.919555664062" lon="2.6650035381317"><ele></ele><time>2025-5-17T7:38:47Z</time></trkpt>
<trkpt lat="48.919471740723" lon="2.6650106906891"><ele></ele><time>2025-5-17T7:38:50Z</time></trkpt>
<trkpt lat="48.919395446777" lon="2.6650152206421"><ele></ele><time>2025-5-17T7:38:53Z</time></trkpt>
<trkpt lat="48.919330596924" lon="2.6650168895721"><ele></ele><time>2025-5-17T7:38:56Z</time></trkpt>
<trkpt lat="48.919330596924" lon="2.6650168895721"><ele></ele><time>2025-5-17T7:38:59Z</time></trkpt>
<trkpt lat="48.91926574707" lon="2.6650187969208"><ele></ele><time>2025-5-17T7:39:2Z</time></trkpt>
<trkpt lat="48.919200897217" lon="2.665020942688"><ele></ele><time>2025-5-17T7:39:5Z</time></trkpt>
<trkpt lat="48.919200897217" lon="2.665020942688"><ele></ele><time>2025-5-17T7:39:8Z</time></trkpt>
<trkpt lat="48.919200897217" lon="2.665020942688"><ele></ele><time>2025-5-17T7:39:11Z</time></trkpt>
<trkpt lat="48.919086456299" lon="2.6650252342224"><ele></ele><time>2025-5-17T7:39:14Z</time></trkpt>
<trkpt lat="48.919021606445" lon="2.6650319099426"><ele></ele><time>2025-5-17T7:39:17Z</time></trkpt>
<trkpt lat="48.919021606445" lon="2.6650319099426"><ele></ele><time>2025-5-17T7:39:20Z</time></trkpt>
<trkpt lat="48.919021606445" lon="2.6650319099426"><ele></ele><time>2025-5-17T7:39:23Z</time></trkpt>
<trkpt lat="48.918937683105" lon="2.6650331020355"><ele></ele><time>2025-5-17T7:39:26Z</time></trkpt>
<trkpt lat="48.918937683105" lon="2.6650331020355"><ele></ele><time>2025-5-17T7:39:29Z</time></trkpt>
<trkpt lat="48.918937683105" lon="2.6650331020355"><ele></ele><time>2025-5-17T7:39:32Z</time></trkpt>
<trkpt lat="48.918937683105" lon="2.6650331020355"><ele></ele><time>2025-5-17T7:39:35Z</time></trkpt>
<trkpt lat="48.918884277344" lon="2.6649751663208"><ele></ele><time>2025-5-17T7:39:38Z</time></trkpt>
<trkpt lat="48.918884277344" lon="2.6649751663208"><ele></ele><time>2025-5-17T7:39:41Z</time></trkpt>
<trkpt lat="48.918815612793" lon="2.6649303436279"><ele></ele><time>2025-5-17T7:39:44Z</time></trkpt>
<trkpt lat="48.918815612793" lon="2.6649303436279"><ele></ele><time>2025-5-17T7:39:47Z</time></trkpt>
<trkpt lat="48.918815612793" lon="2.6649303436279"><ele></ele><time>2025-5-17T7:39:50Z</time></trkpt>
<trkpt lat="48.918773651123" lon="2.6649618148804"><ele></ele><time>2025-5-17T7:39:53Z</time></trkpt>
<trkpt lat="48.918773651123" lon="2.6649618148804"><ele></ele><time>2025-5-17T7:39:56Z</time></trkpt>
<trkpt lat="48.918727874756" lon="2.6649954319"><ele></ele><time>2025-5-17T7:39:59Z</time></trkpt>
<trkpt lat="48.918663024902" lon="2.6650297641754"><ele></ele><time>2025-5-17T7:40:2Z</time></trkpt>
<trkpt lat="48.918594360352" lon="2.6650655269623"><ele></ele><time>2025-5-17T7:40:5Z</time></trkpt>
<trkpt lat="48.918594360352" lon="2.6650655269623"><ele></ele><time>2025-5-17T7:40:8Z</time></trkpt>
<trkpt lat="48.918518066406" lon="2.6651003360748"><ele></ele><time>2025-5-17T7:40:11Z</time></trkpt>
<trkpt lat="48.918376922607" lon="2.6651604175568"><ele></ele><time>2025-5-17T7:40:14Z</time></trkpt>
<trkpt lat="48.918376922607" lon="2.6651604175568"><ele></ele><time>2025-5-17T7:40:17Z</time></trkpt>
<trkpt lat="48.918376922607" lon="2.6651604175568"><ele></ele><time>2025-5-17T7:40:20Z</time></trkpt>
<trkpt lat="48.918209075928" lon="2.6651616096497"><ele></ele><time>2025-5-17T7:40:23Z</time></trkpt>
<trkpt lat="48.918109893799" lon="2.6651439666748"><ele></ele><time>2025-5-17T7:40:26Z</time></trkpt>
<trkpt lat="48.918003082275" lon="2.6651401519775"><ele></ele><time>2025-5-17T7:40:29Z</time></trkpt>
<trkpt lat="48.917919158936" lon="2.6651473045349"><ele></ele><time>2025-5-17T7:40:32Z</time></trkpt>
<trkpt lat="48.917835235596" lon="2.665155172348"><ele></ele><time>2025-5-17T7:40:35Z</time></trkpt>
<trkpt lat="48.91775894165" lon="2.6651546955109"><ele></ele><time>2025-5-17T7:40:38Z</time></trkpt>
<trkpt lat="48.917694091797" lon="2.665155172348"><ele></ele><time>2025-5-17T7:40:41Z</time></trkpt>
<trkpt lat="48.917613983154" lon="2.6651492118835"><ele></ele><time>2025-5-17T7:40:44Z</time></trkpt>
<trkpt lat="48.917530059814" lon="2.6651420593262"><ele></ele><time>2025-5-17T7:40:47Z</time></trkpt>
<trkpt lat="48.917446136475" lon="2.665141582489"><ele></ele><time>2025-5-17T7:40:50Z</time></trkpt>
<trkpt lat="48.917366027832" lon="2.6651480197906"><ele></ele><time>2025-5-17T7:40:53Z</time></trkpt>
<trkpt lat="48.917285919189" lon="2.6651661396027"><ele></ele><time>2025-5-17T7:40:56Z</time></trkpt>
<trkpt lat="48.917224884033" lon="2.6652159690857"><ele></ele><time>2025-5-17T7:40:59Z</time></trkpt>
<trkpt lat="48.917194366455" lon="2.6652839183807"><ele></ele><time>2025-5-17T7:41:2Z</time></trkpt>
<trkpt lat="48.917163848877" lon="2.6653699874878"><ele></ele><time>2025-5-17T7:41:5Z</time></trkpt>
<trkpt lat="48.917129516602" lon="2.6654689311981"><ele></ele><time>2025-5-17T7:41:8Z</time></trkpt>
<trkpt lat="48.917072296143" lon="2.6655580997467"><ele></ele><time>2025-5-17T7:41:11Z</time></trkpt>
<trkpt lat="48.917015075684" lon="2.6656076908112"><ele></ele><time>2025-5-17T7:41:14Z</time></trkpt>
<trkpt lat="48.91695022583" lon="2.6656501293182"><ele></ele><time>2025-5-17T7:41:17Z</time></trkpt>
<trkpt lat="48.91695022583" lon="2.6656501293182"><ele></ele><time>2025-5-17T7:41:20Z</time></trkpt>
<trkpt lat="48.916809082031" lon="2.6657083034515"><ele></ele><time>2025-5-17T7:41:23Z</time></trkpt>
<trkpt lat="48.916721343994" lon="2.665730714798"><ele></ele><time>2025-5-17T7:41:26Z</time></trkpt>
<trkpt lat="48.91654586792" lon="2.6657309532166"><ele></ele><time>2025-5-17T7:41:29Z</time></trkpt>
<trkpt lat="48.91646194458" lon="2.6657254695892"><ele></ele><time>2025-5-17T7:41:32Z</time></trkpt>
<trkpt lat="48.91637802124" lon="2.6657330989838"><ele></ele><time>2025-5-17T7:41:35Z</time></trkpt>
<trkpt lat="48.91637802124" lon="2.6657330989838"><ele></ele><time>2025-5-17T7:41:38Z</time></trkpt>
<trkpt lat="48.916221618652" lon="2.6657588481903"><ele></ele><time>2025-5-17T7:41:41Z</time></trkpt>
<trkpt lat="48.91614151001" lon="2.6657829284668"><ele></ele><time>2025-5-17T7:41:44Z</time></trkpt>
<trkpt lat="48.916053771973" lon="2.6658113002777"><ele></ele><time>2025-5-17T7:41:47Z</time></trkpt>
<trkpt lat="48.91597366333" lon="2.6658344268799"><ele></ele><time>2025-5-17T7:41:50Z</time></trkpt>
<trkpt lat="48.915904998779" lon="2.6658565998077"><ele></ele><time>2025-5-17T7:41:53Z</time></trkpt>
<trkpt lat="48.915904998779" lon="2.6658565998077"><ele></ele><time>2025-5-17T7:41:56Z</time></trkpt>
<trkpt lat="48.915634155273" lon="2.6659409999847"><ele></ele><time>2025-5-17T7:41:59Z</time></trkpt>
<trkpt lat="48.915634155273" lon="2.6659409999847"><ele></ele><time>2025-5-17T7:42:2Z</time></trkpt>
<trkpt lat="48.915515899658" lon="2.6659076213837"><ele></ele><time>2025-5-17T7:42:5Z</time></trkpt>
<trkpt lat="48.915454864502" lon="2.665876865387"><ele></ele><time>2025-5-17T7:42:8Z</time></trkpt>
<trkpt lat="48.915390014648" lon="2.6658315658569"><ele></ele><time>2025-5-17T7:42:11Z</time></trkpt>
<trkpt lat="48.915309906006" lon="2.6657791137695"><ele></ele><time>2025-5-17T7:42:14Z</time></trkpt>
<trkpt lat="48.915241241455" lon="2.665730714798"><ele></ele><time>2025-5-17T7:42:17Z</time></trkpt>
<trkpt lat="48.915176391602" lon="2.6656901836395"><ele></ele><time>2025-5-17T7:42:20Z</time></trkpt>
<trkpt lat="48.915176391602" lon="2.6656901836395"><ele></ele><time>2025-5-17T7:42:23Z</time></trkpt>
<trkpt lat="48.915050506592" lon="2.6656329631805"><ele></ele><time>2025-5-17T7:42:26Z</time></trkpt>
<trkpt lat="48.914962768555" lon="2.6655917167664"><ele></ele><time>2025-5-17T7:42:29Z</time></trkpt>
<trkpt lat="48.914962768555" lon="2.6655917167664"><ele></ele><time>2025-5-17T7:42:32Z</time></trkpt>
<trkpt lat="48.914897918701" lon="2.6655523777008"><ele></ele><time>2025-5-17T7:42:35Z</time></trkpt>
<trkpt lat="48.914836883545" lon="2.6655144691467"><ele></ele><time>2025-5-17T7:42:38Z</time></trkpt>
<trkpt lat="48.914772033691" lon="2.6654798984528"><ele></ele><time>2025-5-17T7:42:41Z</time></trkpt>
<trkpt lat="48.914772033691" lon="2.6654798984528"><ele></ele><time>2025-5-17T7:42:44Z</time></trkpt>
<trkpt lat="48.914707183838" lon="2.6654334068298"><ele></ele><time>2025-5-17T7:42:47Z</time></trkpt>
<trkpt lat="48.914646148682" lon="2.6653656959534"><ele></ele><time>2025-5-17T7:42:50Z</time></trkpt>
<trkpt lat="48.914596557617" lon="2.6652777194977"><ele></ele><time>2025-5-17T7:42:53Z</time></trkpt>
<trkpt lat="48.914596557617" lon="2.6652777194977"><ele></ele><time>2025-5-17T7:42:56Z</time></trkpt>
<trkpt lat="48.914554595947" lon="2.6651744842529"><ele></ele><time>2025-5-17T7:42:59Z</time></trkpt>
<trkpt lat="48.914554595947" lon="2.6651744842529"><ele></ele><time>2025-5-17T7:43:2Z</time></trkpt>
<trkpt lat="48.914554595947" lon="2.6651744842529"><ele></ele><time>2025-5-17T7:43:5Z</time></trkpt>
<trkpt lat="48.914451599121" lon="2.6652824878693"><ele></ele><time>2025-5-17T7:43:8Z</time></trkpt>
<trkpt lat="48.914352416992" lon="2.6653184890747"><ele></ele><time>2025-5-17T7:43:11Z</time></trkpt>
<trkpt lat="48.914352416992" lon="2.6653184890747"><ele></ele><time>2025-5-17T7:43:14Z</time></trkpt>
<trkpt lat="48.914283752441" lon="2.665340423584"><ele></ele><time>2025-5-17T7:43:17Z</time></trkpt>
<trkpt lat="48.914234161377" lon="2.6653785705566"><ele></ele><time>2025-5-17T7:43:20Z</time></trkpt>
<trkpt lat="48.914234161377" lon="2.6653785705566"><ele></ele><time>2025-5-17T7:43:23Z</time></trkpt>
<trkpt lat="48.914169311523" lon="2.6653778553009"><ele></ele><time>2025-5-17T7:43:26Z</time></trkpt>
<trkpt lat="48.914169311523" lon="2.6653778553009"><ele></ele><time>2025-5-17T7:43:29Z</time></trkpt>
<trkpt lat="48.914131164551" lon="2.6652603149414"><ele></ele><time>2025-5-17T7:43:32Z</time></trkpt>
<trkpt lat="48.914131164551" lon="2.6652603149414"><ele></ele><time>2025-5-17T7:43:35Z</time></trkpt>
<trkpt lat="48.914108276367" lon="2.6651742458344"><ele></ele><time>2025-5-17T7:43:38Z</time></trkpt>
<trkpt lat="48.914093017578" lon="2.6650714874268"><ele></ele><time>2025-5-17T7:43:41Z</time></trkpt>
<trkpt lat="48.9140625" lon="2.6649367809296"><ele></ele><time>2025-5-17T7:43:44Z</time></trkpt>
<trkpt lat="48.9140625" lon="2.6649367809296"><ele></ele><time>2025-5-17T7:43:47Z</time></trkpt>
<trkpt lat="48.914035797119" lon="2.6648187637329"><ele></ele><time>2025-5-17T7:43:50Z</time></trkpt>
<trkpt lat="48.914016723633" lon="2.6647326946259"><ele></ele><time>2025-5-17T7:43:53Z</time></trkpt>
<trkpt lat="48.914016723633" lon="2.6647326946259"><ele></ele><time>2025-5-17T7:43:56Z</time></trkpt>
<trkpt lat="48.913993835449" lon="2.6646327972412"><ele></ele><time>2025-5-17T7:43:59Z</time></trkpt>
<trkpt lat="48.913963317871" lon="2.6645188331604"><ele></ele><time>2025-5-17T7:44:2Z</time></trkpt>
<trkpt lat="48.913925170898" lon="2.6643645763397"><ele></ele><time>2025-5-17T7:44:5Z</time></trkpt>
<trkpt lat="48.913925170898" lon="2.6643645763397"><ele></ele><time>2025-5-17T7:44:8Z</time></trkpt>
<trkpt lat="48.913890838623" lon="2.6641948223114"><ele></ele><time>2025-5-17T7:44:11Z</time></trkpt>
<trkpt lat="48.91385269165" lon="2.6640043258667"><ele></ele><time>2025-5-17T7:44:14Z</time></trkpt>
<trkpt lat="48.913803100586" lon="2.6637787818909"><ele></ele><time>2025-5-17T7:44:17Z</time></trkpt>
<trkpt lat="48.913803100586" lon="2.6637787818909"><ele></ele><time>2025-5-17T7:44:20Z</time></trkpt>
<trkpt lat="48.913768768311" lon="2.6635589599609"><ele></ele><time>2025-5-17T7:44:23Z</time></trkpt>
<trkpt lat="48.913730621338" lon="2.6633462905884"><ele></ele><time>2025-5-17T7:44:26Z</time></trkpt>
<trkpt lat="48.91370010376" lon="2.6631524562836"><ele></ele><time>2025-5-17T7:44:29Z</time></trkpt>
<trkpt lat="48.91370010376" lon="2.6631524562836"><ele></ele><time>2025-5-17T7:44:32Z</time></trkpt>
<trkpt lat="48.913696289062" lon="2.662957906723"><ele></ele><time>2025-5-17T7:44:35Z</time></trkpt>
<trkpt lat="48.913715362549" lon="2.6627769470215"><ele></ele><time>2025-5-17T7:44:38Z</time></trkpt>
<trkpt lat="48.913726806641" lon="2.6626336574554"><ele></ele><time>2025-5-17T7:44:41Z</time></trkpt>
<trkpt lat="48.913726806641" lon="2.6626336574554"><ele></ele><time>2025-5-17T7:44:44Z</time></trkpt>
<trkpt lat="48.913688659668" lon="2.6624863147736"><ele></ele><time>2025-5-17T7:44:47Z</time></trkpt>
<trkpt lat="48.913639068604" lon="2.6622965335846"><ele></ele><time>2025-5-17T7:44:50Z</time></trkpt>
<trkpt lat="48.913631439209" lon="2.6621205806732"><ele></ele><time>2025-5-17T7:44:53Z</time></trkpt>
<trkpt lat="48.913635253906" lon="2.6619267463684"><ele></ele><time>2025-5-17T7:44:56Z</time></trkpt>
<trkpt lat="48.913642883301" lon="2.6617331504822"><ele></ele><time>2025-5-17T7:44:59Z</time></trkpt>
<trkpt lat="48.913642883301" lon="2.6617331504822"><ele></ele><time>2025-5-17T7:45:2Z</time></trkpt>
<trkpt lat="48.913646697998" lon="2.6615772247314"><ele></ele><time>2025-5-17T7:45:5Z</time></trkpt>
<trkpt lat="48.913654327393" lon="2.6614422798157"><ele></ele><time>2025-5-17T7:45:8Z</time></trkpt>
<trkpt lat="48.913654327393" lon="2.6614422798157"><ele></ele><time>2025-5-17T7:45:11Z</time></trkpt>
<trkpt lat="48.913654327393" lon="2.6614422798157"><ele></ele><time>2025-5-17T7:45:14Z</time></trkpt>
<trkpt lat="48.913650512695" lon="2.6610960960388"><ele></ele><time>2025-5-17T7:45:17Z</time></trkpt>
<trkpt lat="48.913642883301" lon="2.6609418392181"><ele></ele><time>2025-5-17T7:45:20Z</time></trkpt>
<trkpt lat="48.913627624512" lon="2.6608231067657"><ele></ele><time>2025-5-17T7:45:23Z</time></trkpt>
<trkpt lat="48.913627624512" lon="2.6608231067657"><ele></ele><time>2025-5-17T7:45:26Z</time></trkpt>
<trkpt lat="48.913612365723" lon="2.6606838703156"><ele></ele><time>2025-5-17T7:45:29Z</time></trkpt>
<trkpt lat="48.913608551025" lon="2.6604061126709"><ele></ele><time>2025-5-17T7:45:32Z</time></trkpt>
<trkpt lat="48.913608551025" lon="2.6604061126709"><ele></ele><time>2025-5-17T7:45:35Z</time></trkpt>
<trkpt lat="48.913631439209" lon="2.6602096557617"><ele></ele><time>2025-5-17T7:45:38Z</time></trkpt>
<trkpt lat="48.91365814209" lon="2.6600294113159"><ele></ele><time>2025-5-17T7:45:41Z</time></trkpt>
<trkpt lat="48.913684844971" lon="2.6598794460297"><ele></ele><time>2025-5-17T7:45:44Z</time></trkpt>
<trkpt lat="48.913684844971" lon="2.6598794460297"><ele></ele><time>2025-5-17T7:45:47Z</time></trkpt>
<trkpt lat="48.913707733154" lon="2.6597537994385"><ele></ele><time>2025-5-17T7:45:50Z</time></trkpt>
<trkpt lat="48.913726806641" lon="2.6596510410309"><ele></ele><time>2025-5-17T7:45:53Z</time></trkpt>
<trkpt lat="48.913745880127" lon="2.6595187187195"><ele></ele><time>2025-5-17T7:45:56Z</time></trkpt>
<trkpt lat="48.913745880127" lon="2.6595187187195"><ele></ele><time>2025-5-17T7:45:59Z</time></trkpt>
<trkpt lat="48.913764953613" lon="2.6594052314758"><ele></ele><time>2025-5-17T7:46:2Z</time></trkpt>
<trkpt lat="48.913776397705" lon="2.6593058109283"><ele></ele><time>2025-5-17T7:46:5Z</time></trkpt>
<trkpt lat="48.913791656494" lon="2.6592137813568"><ele></ele><time>2025-5-17T7:46:8Z</time></trkpt>
<trkpt lat="48.913791656494" lon="2.6591186523438"><ele></ele><time>2025-5-17T7:46:11Z</time></trkpt>
<trkpt lat="48.913799285889" lon="2.659019947052"><ele></ele><time>2025-5-17T7:46:14Z</time></trkpt>
<trkpt lat="48.913806915283" lon="2.6589233875275"><ele></ele><time>2025-5-17T7:46:17Z</time></trkpt>
<trkpt lat="48.913806915283" lon="2.6589233875275"><ele></ele><time>2025-5-17T7:46:20Z</time></trkpt>
<trkpt lat="48.913814544678" lon="2.6588118076324"><ele></ele><time>2025-5-17T7:46:23Z</time></trkpt>
<trkpt lat="48.913814544678" lon="2.6587212085724"><ele></ele><time>2025-5-17T7:46:26Z</time></trkpt>
<trkpt lat="48.913814544678" lon="2.6587212085724"><ele></ele><time>2025-5-17T7:46:29Z</time></trkpt>
<trkpt lat="48.913814544678" lon="2.6587212085724"><ele></ele><time>2025-5-17T7:46:32Z</time></trkpt>
<trkpt lat="48.913738250732" lon="2.6585772037506"><ele></ele><time>2025-5-17T7:46:35Z</time></trkpt>
<trkpt lat="48.913669586182" lon="2.658510684967"><ele></ele><time>2025-5-17T7:46:38Z</time></trkpt>
<trkpt lat="48.913612365723" lon="2.6584630012512"><ele></ele><time>2025-5-17T7:46:41Z</time></trkpt>
<trkpt lat="48.913612365723" lon="2.6584630012512"><ele></ele><time>2025-5-17T7:46:44Z</time></trkpt>
<trkpt lat="48.913555145264" lon="2.6584272384644"><ele></ele><time>2025-5-17T7:46:47Z</time></trkpt>
<trkpt lat="48.913455963135" lon="2.6583962440491"><ele></ele><time>2025-5-17T7:46:50Z</time></trkpt>
<trkpt lat="48.913341522217" lon="2.6583836078644"><ele></ele><time>2025-5-17T7:46:53Z</time></trkpt>
<trkpt lat="48.913341522217" lon="2.6583836078644"><ele></ele><time>2025-5-17T7:46:56Z</time></trkpt>
<trkpt lat="48.913234710693" lon="2.6583721637726"><ele></ele><time>2025-5-17T7:46:59Z</time></trkpt>
<trkpt lat="48.913089752197" lon="2.6583428382874"><ele></ele><time>2025-5-17T7:47:2Z</time></trkpt>
<trkpt lat="48.912925720215" lon="2.6582999229431"><ele></ele><time>2025-5-17T7:47:5Z</time></trkpt>
<trkpt lat="48.912925720215" lon="2.6582999229431"><ele></ele><time>2025-5-17T7:47:8Z</time></trkpt>
<trkpt lat="48.91276550293" lon="2.6582505702972"><ele></ele><time>2025-5-17T7:47:11Z</time></trkpt>
<trkpt lat="48.912590026855" lon="2.6581888198853"><ele></ele><time>2025-5-17T7:47:14Z</time></trkpt>
<trkpt lat="48.912395477295" lon="2.6581223011017"><ele></ele><time>2025-5-17T7:47:17Z</time></trkpt>
<trkpt lat="48.912395477295" lon="2.6581223011017"><ele></ele><time>2025-5-17T7:47:20Z</time></trkpt>
<trkpt lat="48.91219329834" lon="2.6580529212952"><ele></ele><time>2025-5-17T7:47:23Z</time></trkpt>
<trkpt lat="48.911991119385" lon="2.6579887866974"><ele></ele><time>2025-5-17T7:47:26Z</time></trkpt>
<trkpt lat="48.911777496338" lon="2.6579432487488"><ele></ele><time>2025-5-17T7:47:29Z</time></trkpt>
<trkpt lat="48.911777496338" lon="2.6579432487488"><ele></ele><time>2025-5-17T7:47:32Z</time></trkpt>
<trkpt lat="48.911560058594" lon="2.6579322814941"><ele></ele><time>2025-5-17T7:47:35Z</time></trkpt>
<trkpt lat="48.911338806152" lon="2.6579337120056"><ele></ele><time>2025-5-17T7:47:38Z</time></trkpt>
<trkpt lat="48.911121368408" lon="2.6579082012177"><ele></ele><time>2025-5-17T7:47:41Z</time></trkpt>
<trkpt lat="48.911121368408" lon="2.6579082012177"><ele></ele><time>2025-5-17T7:47:44Z</time></trkpt>
<trkpt lat="48.91092300415" lon="2.6577842235565"><ele></ele><time>2025-5-17T7:47:47Z</time></trkpt>
<trkpt lat="48.910736083984" lon="2.6576261520386"><ele></ele><time>2025-5-17T7:47:50Z</time></trkpt>
<trkpt lat="48.91056060791" lon="2.6574518680573"><ele></ele><time>2025-5-17T7:47:53Z</time></trkpt>
<trkpt lat="48.91056060791" lon="2.6574518680573"><ele></ele><time>2025-5-17T7:47:56Z</time></trkpt>
<trkpt lat="48.910396575928" lon="2.6572782993317"><ele></ele><time>2025-5-17T7:47:59Z</time></trkpt>
<trkpt lat="48.910236358643" lon="2.657105922699"><ele></ele><time>2025-5-17T7:48:2Z</time></trkpt>
<trkpt lat="48.910095214844" lon="2.6569490432739"><ele></ele><time>2025-5-17T7:48:5Z</time></trkpt>
<trkpt lat="48.910095214844" lon="2.6569490432739"><ele></ele><time>2025-5-17T7:48:8Z</time></trkpt>
<trkpt lat="48.909938812256" lon="2.6567893028259"><ele></ele><time>2025-5-17T7:48:11Z</time></trkpt>
<trkpt lat="48.90979385376" lon="2.6566388607025"><ele></ele><time>2025-5-17T7:48:14Z</time></trkpt>
<trkpt lat="48.909652709961" lon="2.6564919948578"><ele></ele><time>2025-5-17T7:48:17Z</time></trkpt>
<trkpt lat="48.909652709961" lon="2.6564919948578"><ele></ele><time>2025-5-17T7:48:20Z</time></trkpt>
<trkpt lat="48.909507751465" lon="2.656357049942"><ele></ele><time>2025-5-17T7:48:23Z</time></trkpt>
<trkpt lat="48.909362792969" lon="2.6562442779541"><ele></ele><time>2025-5-17T7:48:26Z</time></trkpt>
<trkpt lat="48.909214019775" lon="2.6561458110809"><ele></ele><time>2025-5-17T7:48:29Z</time></trkpt>
<trkpt lat="48.909214019775" lon="2.6561458110809"><ele></ele><time>2025-5-17T7:48:32Z</time></trkpt>
<trkpt lat="48.90905380249" lon="2.6560606956482"><ele></ele><time>2025-5-17T7:48:35Z</time></trkpt>
<trkpt lat="48.908897399902" lon="2.6559853553772"><ele></ele><time>2025-5-17T7:48:38Z</time></trkpt>
<trkpt lat="48.908752441406" lon="2.6559195518494"><ele></ele><time>2025-5-17T7:48:41Z</time></trkpt>
<trkpt lat="48.908752441406" lon="2.6559195518494"><ele></ele><time>2025-5-17T7:48:44Z</time></trkpt>
<trkpt lat="48.908603668213" lon="2.6558573246002"><ele></ele><time>2025-5-17T7:48:47Z</time></trkpt>
<trkpt lat="48.908458709717" lon="2.655796289444"><ele></ele><time>2025-5-17T7:48:50Z</time></trkpt>
<trkpt lat="48.908332824707" lon="2.6557347774506"><ele></ele><time>2025-5-17T7:48:53Z</time></trkpt>
<trkpt lat="48.908332824707" lon="2.6557347774506"><ele></ele><time>2025-5-17T7:48:56Z</time></trkpt>
<trkpt lat="48.908226013184" lon="2.6556806564331"><ele></ele><time>2025-5-17T7:48:59Z</time></trkpt>
<trkpt lat="48.908149719238" lon="2.6556420326233"><ele></ele><time>2025-5-17T7:49:2Z</time></trkpt>
<trkpt lat="48.908149719238" lon="2.6556420326233"><ele></ele><time>2025-5-17T7:49:5Z</time></trkpt>
<trkpt lat="48.908149719238" lon="2.6556420326233"><ele></ele><time>2025-5-17T7:49:8Z</time></trkpt>
<trkpt lat="48.908065795898" lon="2.6555969715118"><ele></ele><time>2025-5-17T7:49:11Z</time></trkpt>
<trkpt lat="48.908065795898" lon="2.6555969715118"><ele></ele><time>2025-5-17T7:49:14Z</time></trkpt>
<trkpt lat="48.908065795898" lon="2.6555969715118"><ele></ele><time>2025-5-17T7:49:17Z</time></trkpt>
<trkpt lat="48.907855987549" lon="2.655508518219"><ele></ele><time>2025-5-17T7:49:20Z</time></trkpt>
<trkpt lat="48.907855987549" lon="2.655508518219"><ele></ele><time>2025-5-17T7:49:23Z</time></trkpt>
<trkpt lat="48.907730102539" lon="2.6554484367371"><ele></ele><time>2025-5-17T7:49:26Z</time></trkpt>
<trkpt lat="48.90763092041" lon="2.6553938388824"><ele></ele><time>2025-5-17T7:49:29Z</time></trkpt>
<trkpt lat="48.907535552979" lon="2.6553461551666"><ele></ele><time>2025-5-17T7:49:32Z</time></trkpt>
<trkpt lat="48.907432556152" lon="2.6552991867065"><ele></ele><time>2025-5-17T7:49:35Z</time></trkpt>
<trkpt lat="48.907329559326" lon="2.6552531719208"><ele></ele><time>2025-5-17T7:49:38Z</time></trkpt>
<trkpt lat="48.907222747803" lon="2.6551988124847"><ele></ele><time>2025-5-17T7:49:41Z</time></trkpt>
<trkpt lat="48.907135009766" lon="2.6551494598389"><ele></ele><time>2025-5-17T7:49:44Z</time></trkpt>
<trkpt lat="48.907051086426" lon="2.6550922393799"><ele></ele><time>2025-5-17T7:49:47Z</time></trkpt>
<trkpt lat="48.906951904297" lon="2.6550240516663"><ele></ele><time>2025-5-17T7:49:50Z</time></trkpt>
<trkpt lat="48.90686416626" lon="2.65496134758"><ele></ele><time>2025-5-17T7:49:53Z</time></trkpt>
<trkpt lat="48.906791687012" lon="2.6549053192139"><ele></ele><time>2025-5-17T7:49:56Z</time></trkpt>
<trkpt lat="48.906707763672" lon="2.6548321247101"><ele></ele><time>2025-5-17T7:49:59Z</time></trkpt>
<trkpt lat="48.906631469727" lon="2.6547644138336"><ele></ele><time>2025-5-17T7:50:2Z</time></trkpt>
<trkpt lat="48.906558990479" lon="2.6547014713287"><ele></ele><time>2025-5-17T7:50:5Z</time></trkpt>
<trkpt lat="48.906558990479" lon="2.6547014713287"><ele></ele><time>2025-5-17T7:50:8Z</time></trkpt>
<trkpt lat="48.90648651123" lon="2.6546354293823"><ele></ele><time>2025-5-17T7:50:11Z</time></trkpt>
<trkpt lat="48.906406402588" lon="2.6545622348785"><ele></ele><time>2025-5-17T7:50:14Z</time></trkpt>
<trkpt lat="48.90633392334" lon="2.6544857025146"><ele></ele><time>2025-5-17T7:50:17Z</time></trkpt>
<trkpt lat="48.906265258789" lon="2.6544132232666"><ele></ele><time>2025-5-17T7:50:20Z</time></trkpt>
<trkpt lat="48.906188964844" lon="2.6543281078339"><ele></ele><time>2025-5-17T7:50:23Z</time></trkpt>
<trkpt lat="48.906116485596" lon="2.6542479991913"><ele></ele><time>2025-5-17T7:50:26Z</time></trkpt>
<trkpt lat="48.90604019165" lon="2.6541655063629"><ele></ele><time>2025-5-17T7:50:29Z</time></trkpt>
<trkpt lat="48.905967712402" lon="2.6540818214417"><ele></ele><time>2025-5-17T7:50:32Z</time></trkpt>
<trkpt lat="48.905967712402" lon="2.6540818214417"><ele></ele><time>2025-5-17T7:50:35Z</time></trkpt>
<trkpt lat="48.905895233154" lon="2.6539936065674"><ele></ele><time>2025-5-17T7:50:38Z</time></trkpt>
<trkpt lat="48.905818939209" lon="2.653913974762"><ele></ele><time>2025-5-17T7:50:41Z</time></trkpt>
<trkpt lat="48.905754089355" lon="2.6538417339325"><ele></ele><time>2025-5-17T7:50:44Z</time></trkpt>
<trkpt lat="48.905666351318" lon="2.6537463665009"><ele></ele><time>2025-5-17T7:50:47Z</time></trkpt>
<trkpt lat="48.905574798584" lon="2.6536505222321"><ele></ele><time>2025-5-17T7:50:50Z</time></trkpt>
<trkpt lat="48.905479431152" lon="2.6535527706146"><ele></ele><time>2025-5-17T7:50:53Z</time></trkpt>
<trkpt lat="48.905384063721" lon="2.65345287323"><ele></ele><time>2025-5-17T7:50:56Z</time></trkpt>
<trkpt lat="48.905281066895" lon="2.6533553600311"><ele></ele><time>2025-5-17T7:50:59Z</time></trkpt>
<trkpt lat="48.905281066895" lon="2.6533553600311"><ele></ele><time>2025-5-17T7:51:2Z</time></trkpt>
<trkpt lat="48.905181884766" lon="2.6532633304596"><ele></ele><time>2025-5-17T7:51:5Z</time></trkpt>
<trkpt lat="48.905075073242" lon="2.653169631958"><ele></ele><time>2025-5-17T7:51:8Z</time></trkpt>
<trkpt lat="48.904975891113" lon="2.6530780792236"><ele></ele><time>2025-5-17T7:51:11Z</time></trkpt>
<trkpt lat="48.90486907959" lon="2.6529824733734"><ele></ele><time>2025-5-17T7:51:14Z</time></trkpt>
<trkpt lat="48.904762268066" lon="2.6528902053833"><ele></ele><time>2025-5-17T7:51:17Z</time></trkpt>
<trkpt lat="48.904762268066" lon="2.6528902053833"><ele></ele><time>2025-5-17T7:51:20Z</time></trkpt>
<trkpt lat="48.904655456543" lon="2.6528010368347"><ele></ele><time>2025-5-17T7:51:23Z</time></trkpt>
<trkpt lat="48.904552459717" lon="2.6527111530304"><ele></ele><time>2025-5-17T7:51:26Z</time></trkpt>
<trkpt lat="48.904445648193" lon="2.6526131629944"><ele></ele><time>2025-5-17T7:51:29Z</time></trkpt>
<trkpt lat="48.904342651367" lon="2.6525247097015"><ele></ele><time>2025-5-17T7:51:32Z</time></trkpt>
<trkpt lat="48.904251098633" lon="2.6524403095245"><ele></ele><time>2025-5-17T7:51:35Z</time></trkpt>
<trkpt lat="48.904251098633" lon="2.6524403095245"><ele></ele><time>2025-5-17T7:51:38Z</time></trkpt>
<trkpt lat="48.904151916504" lon="2.6523532867432"><ele></ele><time>2025-5-17T7:51:41Z</time></trkpt>
<trkpt lat="48.904048919678" lon="2.6522626876831"><ele></ele><time>2025-5-17T7:51:44Z</time></trkpt>
<trkpt lat="48.903945922852" lon="2.6521751880646"><ele></ele><time>2025-5-17T7:51:47Z</time></trkpt>
<trkpt lat="48.903945922852" lon="2.6521751880646"><ele></ele><time>2025-5-17T7:51:50Z</time></trkpt>
<trkpt lat="48.903846740723" lon="2.6520967483521"><ele></ele><time>2025-5-17T7:51:53Z</time></trkpt>
<trkpt lat="48.903751373291" lon="2.6520104408264"><ele></ele><time>2025-5-17T7:51:56Z</time></trkpt>
<trkpt lat="48.903659820557" lon="2.6519196033478"><ele></ele><time>2025-5-17T7:51:59Z</time></trkpt>
<trkpt lat="48.903659820557" lon="2.6519196033478"><ele></ele><time>2025-5-17T7:52:2Z</time></trkpt>
<trkpt lat="48.903579711914" lon="2.6518290042877"><ele></ele><time>2025-5-17T7:52:5Z</time></trkpt>
<trkpt lat="48.903499603271" lon="2.651727437973"><ele></ele><time>2025-5-17T7:52:8Z</time></trkpt>
<trkpt lat="48.903423309326" lon="2.6516132354736"><ele></ele><time>2025-5-17T7:52:11Z</time></trkpt>
<trkpt lat="48.903423309326" lon="2.6516132354736"><ele></ele><time>2025-5-17T7:52:14Z</time></trkpt>
<trkpt lat="48.903347015381" lon="2.6514840126038"><ele></ele><time>2025-5-17T7:52:17Z</time></trkpt>
<trkpt lat="48.90327835083" lon="2.6513516902924"><ele></ele><time>2025-5-17T7:52:20Z</time></trkpt>
<trkpt lat="48.903209686279" lon="2.651211977005"><ele></ele><time>2025-5-17T7:52:23Z</time></trkpt>
<trkpt lat="48.903209686279" lon="2.651211977005"><ele></ele><time>2025-5-17T7:52:26Z</time></trkpt>
<trkpt lat="48.903144836426" lon="2.6510655879974"><ele></ele><time>2025-5-17T7:52:29Z</time></trkpt>
<trkpt lat="48.903087615967" lon="2.6509284973145"><ele></ele><time>2025-5-17T7:52:32Z</time></trkpt>
<trkpt lat="48.903030395508" lon="2.650799036026"><ele></ele><time>2025-5-17T7:52:35Z</time></trkpt>
<trkpt lat="48.903030395508" lon="2.650799036026"><ele></ele><time>2025-5-17T7:52:38Z</time></trkpt>
<trkpt lat="48.902969360352" lon="2.6506612300873"><ele></ele><time>2025-5-17T7:52:41Z</time></trkpt>
<trkpt lat="48.902908325195" lon="2.6505315303802"><ele></ele><time>2025-5-17T7:52:44Z</time></trkpt>
<trkpt lat="48.902858734131" lon="2.650422334671"><ele></ele><time>2025-5-17T7:52:47Z</time></trkpt>
<trkpt lat="48.902858734131" lon="2.650422334671"><ele></ele><time>2025-5-17T7:52:50Z</time></trkpt>
<trkpt lat="48.902797698975" lon="2.6503021717072"><ele></ele><time>2025-5-17T7:52:53Z</time></trkpt>
<trkpt lat="48.902729034424" lon="2.6501796245575"><ele></ele><time>2025-5-17T7:52:56Z</time></trkpt>
<trkpt lat="48.902648925781" lon="2.6500482559204"><ele></ele><time>2025-5-17T7:52:59Z</time></trkpt>
<trkpt lat="48.902648925781" lon="2.6500482559204"><ele></ele><time>2025-5-17T7:53:2Z</time></trkpt>
<trkpt lat="48.902561187744" lon="2.6499090194702"><ele></ele><time>2025-5-17T7:53:5Z</time></trkpt>
<trkpt lat="48.902462005615" lon="2.6497797966003"><ele></ele><time>2025-5-17T7:53:8Z</time></trkpt>
<trkpt lat="48.902370452881" lon="2.6496725082397"><ele></ele><time>2025-5-17T7:53:11Z</time></trkpt>
<trkpt lat="48.902370452881" lon="2.6496725082397"><ele></ele><time>2025-5-17T7:53:14Z</time></trkpt>
<trkpt lat="48.902275085449" lon="2.6495666503906"><ele></ele><time>2025-5-17T7:53:17Z</time></trkpt>
<trkpt lat="48.90217590332" lon="2.6494741439819"><ele></ele><time>2025-5-17T7:53:20Z</time></trkpt>
<trkpt lat="48.902069091797" lon="2.6493721008301"><ele></ele><time>2025-5-17T7:53:23Z</time></trkpt>
<trkpt lat="48.901958465576" lon="2.64927983284"><ele></ele><time>2025-5-17T7:53:26Z</time></trkpt>
<trkpt lat="48.901844024658" lon="2.6492002010345"><ele></ele><time>2025-5-17T7:53:29Z</time></trkpt>
<trkpt lat="48.901725769043" lon="2.6491022109985"><ele></ele><time>2025-5-17T7:53:32Z</time></trkpt>
<trkpt lat="48.90161895752" lon="2.6490211486816"><ele></ele><time>2025-5-17T7:53:35Z</time></trkpt>
<trkpt lat="48.901508331299" lon="2.648942232132"><ele></ele><time>2025-5-17T7:53:38Z</time></trkpt>
<trkpt lat="48.901416778564" lon="2.6488773822784"><ele></ele><time>2025-5-17T7:53:41Z</time></trkpt>
<trkpt lat="48.901336669922" lon="2.6488075256348"><ele></ele><time>2025-5-17T7:53:44Z</time></trkpt>
<trkpt lat="48.901245117188" lon="2.6487214565277"><ele></ele><time>2025-5-17T7:53:47Z</time></trkpt>
<trkpt lat="48.901176452637" lon="2.6486501693726"><ele></ele><time>2025-5-17T7:53:50Z</time></trkpt>
<trkpt lat="48.901126861572" lon="2.6486027240753"><ele></ele><time>2025-5-17T7:53:53Z</time></trkpt>
<trkpt lat="48.901065826416" lon="2.6485505104065"><ele></ele><time>2025-5-17T7:53:56Z</time></trkpt>
<trkpt lat="48.901065826416" lon="2.6485505104065"><ele></ele><time>2025-5-17T7:53:59Z</time></trkpt>
<trkpt lat="48.90100479126" lon="2.6484966278076"><ele></ele><time>2025-5-17T7:54:2Z</time></trkpt>
<trkpt lat="48.900928497314" lon="2.6484382152557"><ele></ele><time>2025-5-17T7:54:5Z</time></trkpt>
<trkpt lat="48.900848388672" lon="2.6483800411224"><ele></ele><time>2025-5-17T7:54:8Z</time></trkpt>
<trkpt lat="48.900768280029" lon="2.6483340263367"><ele></ele><time>2025-5-17T7:54:11Z</time></trkpt>
<trkpt lat="48.900680541992" lon="2.6482937335968"><ele></ele><time>2025-5-17T7:54:14Z</time></trkpt>
<trkpt lat="48.900604248047" lon="2.6482779979706"><ele></ele><time>2025-5-17T7:54:17Z</time></trkpt>
<trkpt lat="48.900508880615" lon="2.6482570171356"><ele></ele><time>2025-5-17T7:54:20Z</time></trkpt>
<trkpt lat="48.900413513184" lon="2.6482405662537"><ele></ele><time>2025-5-17T7:54:23Z</time></trkpt>
<trkpt lat="48.900314331055" lon="2.6482193470001"><ele></ele><time>2025-5-17T7:54:26Z</time></trkpt>
<trkpt lat="48.900218963623" lon="2.6481807231903"><ele></ele><time>2025-5-17T7:54:29Z</time></trkpt>
<trkpt lat="48.900127410889" lon="2.648138999939"><ele></ele><time>2025-5-17T7:54:32Z</time></trkpt>
<trkpt lat="48.900012969971" lon="2.6481218338013"><ele></ele><time>2025-5-17T7:54:35Z</time></trkpt>
<trkpt lat="48.899887084961" lon="2.6481177806854"><ele></ele><time>2025-5-17T7:54:38Z</time></trkpt>
<trkpt lat="48.899753570557" lon="2.6481146812439"><ele></ele><time>2025-5-17T7:54:41Z</time></trkpt>
<trkpt lat="48.899608612061" lon="2.6481108665466"><ele></ele><time>2025-5-17T7:54:44Z</time></trkpt>
<trkpt lat="48.899471282959" lon="2.6481051445007"><ele></ele><time>2025-5-17T7:54:47Z</time></trkpt>
<trkpt lat="48.899345397949" lon="2.648078918457"><ele></ele><time>2025-5-17T7:54:50Z</time></trkpt>
<trkpt lat="48.899219512939" lon="2.6480307579041"><ele></ele><time>2025-5-17T7:54:53Z</time></trkpt>
<trkpt lat="48.899116516113" lon="2.6479396820068"><ele></ele><time>2025-5-17T7:54:56Z</time></trkpt>
<trkpt lat="48.89900970459" lon="2.6478261947632"><ele></ele><time>2025-5-17T7:54:59Z</time></trkpt>
<trkpt lat="48.898906707764" lon="2.6477010250092"><ele></ele><time>2025-5-17T7:55:2Z</time></trkpt>
<trkpt lat="48.898807525635" lon="2.6475877761841"><ele></ele><time>2025-5-17T7:55:5Z</time></trkpt>
<trkpt lat="48.898712158203" lon="2.6474857330322"><ele></ele><time>2025-5-17T7:55:8Z</time></trkpt>
<trkpt lat="48.898712158203" lon="2.6474857330322"><ele></ele><time>2025-5-17T7:55:11Z</time></trkpt>
<trkpt lat="48.898609161377" lon="2.6473717689514"><ele></ele><time>2025-5-17T7:55:14Z</time></trkpt>
<trkpt lat="48.898502349854" lon="2.6472563743591"><ele></ele><time>2025-5-17T7:55:17Z</time></trkpt>
<trkpt lat="48.898399353027" lon="2.6471343040466"><ele></ele><time>2025-5-17T7:55:20Z</time></trkpt>
<trkpt lat="48.898303985596" lon="2.6470210552216"><ele></ele><time>2025-5-17T7:55:23Z</time></trkpt>
<trkpt lat="48.898220062256" lon="2.6469175815582"><ele></ele><time>2025-5-17T7:55:26Z</time></trkpt>
<trkpt lat="48.898120880127" lon="2.6468100547791"><ele></ele><time>2025-5-17T7:55:29Z</time></trkpt>
<trkpt lat="48.898017883301" lon="2.6467006206512"><ele></ele><time>2025-5-17T7:55:32Z</time></trkpt>
<trkpt lat="48.897914886475" lon="2.646589756012"><ele></ele><time>2025-5-17T7:55:35Z</time></trkpt>
<trkpt lat="48.897819519043" lon="2.6464893817902"><ele></ele><time>2025-5-17T7:55:38Z</time></trkpt>
<trkpt lat="48.897727966309" lon="2.6463871002197"><ele></ele><time>2025-5-17T7:55:41Z</time></trkpt>
<trkpt lat="48.89762878418" lon="2.646290063858"><ele></ele><time>2025-5-17T7:55:44Z</time></trkpt>
<trkpt lat="48.897548675537" lon="2.64621925354"><ele></ele><time>2025-5-17T7:55:47Z</time></trkpt>
<trkpt lat="48.897514343262" lon="2.6461405754089"><ele></ele><time>2025-5-17T7:55:50Z</time></trkpt>
<trkpt lat="48.897521972656" lon="2.6460282802582"><ele></ele><time>2025-5-17T7:55:53Z</time></trkpt>
<trkpt lat="48.897541046143" lon="2.6459171772003"><ele></ele><time>2025-5-17T7:55:56Z</time></trkpt>
<trkpt lat="48.897529602051" lon="2.6458232402802"><ele></ele><time>2025-5-17T7:55:59Z</time></trkpt>
<trkpt lat="48.89750289917" lon="2.6457359790802"><ele></ele><time>2025-5-17T7:56:2Z</time></trkpt>
<trkpt lat="48.89750289917" lon="2.6457359790802"><ele></ele><time>2025-5-17T7:56:5Z</time></trkpt>
<trkpt lat="48.897472381592" lon="2.6456198692322"><ele></ele><time>2025-5-17T7:56:8Z</time></trkpt>
<trkpt lat="48.897445678711" lon="2.6455380916595"><ele></ele><time>2025-5-17T7:56:11Z</time></trkpt>
<trkpt lat="48.897415161133" lon="2.6454536914825"><ele></ele><time>2025-5-17T7:56:14Z</time></trkpt>
<trkpt lat="48.897399902344" lon="2.6453669071198"><ele></ele><time>2025-5-17T7:56:17Z</time></trkpt>
<trkpt lat="48.897380828857" lon="2.6451668739319"><ele></ele><time>2025-5-17T7:56:20Z</time></trkpt>
<trkpt lat="48.897365570068" lon="2.6450519561768"><ele></ele><time>2025-5-17T7:56:23Z</time></trkpt>
<trkpt lat="48.897327423096" lon="2.6449036598206"><ele></ele><time>2025-5-17T7:56:26Z</time></trkpt>
<trkpt lat="48.897289276123" lon="2.6448001861572"><ele></ele><time>2025-5-17T7:56:29Z</time></trkpt>
<trkpt lat="48.897228240967" lon="2.644761800766"><ele></ele><time>2025-5-17T7:56:32Z</time></trkpt>
<trkpt lat="48.897174835205" lon="2.6447093486786"><ele></ele><time>2025-5-17T7:56:35Z</time></trkpt>
<trkpt lat="48.897174835205" lon="2.6447093486786"><ele></ele><time>2025-5-17T7:56:38Z</time></trkpt>
<trkpt lat="48.897109985352" lon="2.6445398330688"><ele></ele><time>2025-5-17T7:56:41Z</time></trkpt>
<trkpt lat="48.897087097168" lon="2.6444473266602"><ele></ele><time>2025-5-17T7:56:44Z</time></trkpt>
<trkpt lat="48.897045135498" lon="2.644350528717"><ele></ele><time>2025-5-17T7:56:47Z</time></trkpt>
<trkpt lat="48.897006988525" lon="2.6442580223083"><ele></ele><time>2025-5-17T7:56:50Z</time></trkpt>
<trkpt lat="48.896934509277" lon="2.6441781520844"><ele></ele><time>2025-5-17T7:56:53Z</time></trkpt>
<trkpt lat="48.896831512451" lon="2.6441040039062"><ele></ele><time>2025-5-17T7:56:56Z</time></trkpt>
<trkpt lat="48.89673614502" lon="2.6440281867981"><ele></ele><time>2025-5-17T7:56:59Z</time></trkpt>
<trkpt lat="48.896667480469" lon="2.643905878067"><ele></ele><time>2025-5-17T7:57:2Z</time></trkpt>
<trkpt lat="48.896625518799" lon="2.643746137619"><ele></ele><time>2025-5-17T7:57:5Z</time></trkpt>
<trkpt lat="48.896579742432" lon="2.6435942649841"><ele></ele><time>2025-5-17T7:57:8Z</time></trkpt>
<trkpt lat="48.896530151367" lon="2.6434972286224"><ele></ele><time>2025-5-17T7:57:11Z</time></trkpt>
<trkpt lat="48.89652633667" lon="2.6433999538422"><ele></ele><time>2025-5-17T7:57:14Z</time></trkpt>
<trkpt lat="48.896560668945" lon="2.643274307251"><ele></ele><time>2025-5-17T7:57:17Z</time></trkpt>
<trkpt lat="48.896595001221" lon="2.6431651115417"><ele></ele><time>2025-5-17T7:57:20Z</time></trkpt>
<trkpt lat="48.896595001221" lon="2.6431651115417"><ele></ele><time>2025-5-17T7:57:23Z</time></trkpt>
<trkpt lat="48.896530151367" lon="2.6430068016052"><ele></ele><time>2025-5-17T7:57:26Z</time></trkpt>
<trkpt lat="48.896469116211" lon="2.6429181098938"><ele></ele><time>2025-5-17T7:57:29Z</time></trkpt>
<trkpt lat="48.896396636963" lon="2.6427865028381"><ele></ele><time>2025-5-17T7:57:32Z</time></trkpt>
<trkpt lat="48.896331787109" lon="2.6426584720612"><ele></ele><time>2025-5-17T7:57:35Z</time></trkpt>
<trkpt lat="48.896270751953" lon="2.6425359249115"><ele></ele><time>2025-5-17T7:57:38Z</time></trkpt>
<trkpt lat="48.896194458008" lon="2.64240193367"><ele></ele><time>2025-5-17T7:57:41Z</time></trkpt>
<trkpt lat="48.89612197876" lon="2.6422724723816"><ele></ele><time>2025-5-17T7:57:44Z</time></trkpt>
<trkpt lat="48.896041870117" lon="2.6421296596527"><ele></ele><time>2025-5-17T7:57:47Z</time></trkpt>
<trkpt lat="48.895961761475" lon="2.641982793808"><ele></ele><time>2025-5-17T7:57:50Z</time></trkpt>
<trkpt lat="48.895881652832" lon="2.6418461799622"><ele></ele><time>2025-5-17T7:57:53Z</time></trkpt>
<trkpt lat="48.895805358887" lon="2.6417188644409"><ele></ele><time>2025-5-17T7:57:56Z</time></trkpt>
<trkpt lat="48.895805358887" lon="2.6417188644409"><ele></ele><time>2025-5-17T7:57:59Z</time></trkpt>
<trkpt lat="48.895729064941" lon="2.6415827274323"><ele></ele><time>2025-5-17T7:58:2Z</time></trkpt>
<trkpt lat="48.895656585693" lon="2.6414511203766"><ele></ele><time>2025-5-17T7:58:5Z</time></trkpt>
<trkpt lat="48.895587921143" lon="2.6413195133209"><ele></ele><time>2025-5-17T7:58:8Z</time></trkpt>
<trkpt lat="48.895526885986" lon="2.6412012577057"><ele></ele><time>2025-5-17T7:58:11Z</time></trkpt>
<trkpt lat="48.895450592041" lon="2.641077041626"><ele></ele><time>2025-5-17T7:58:14Z</time></trkpt>
<trkpt lat="48.895393371582" lon="2.6409764289856"><ele></ele><time>2025-5-17T7:58:17Z</time></trkpt>
<trkpt lat="48.895336151123" lon="2.6408705711365"><ele></ele><time>2025-5-17T7:58:20Z</time></trkpt>
<trkpt lat="48.895278930664" lon="2.6407380104065"><ele></ele><time>2025-5-17T7:58:23Z</time></trkpt>
<trkpt lat="48.895217895508" lon="2.6406168937683"><ele></ele><time>2025-5-17T7:58:26Z</time></trkpt>
<trkpt lat="48.895141601562" lon="2.6404733657837"><ele></ele><time>2025-5-17T7:58:29Z</time></trkpt>
<trkpt lat="48.895065307617" lon="2.6403374671936"><ele></ele><time>2025-5-17T7:58:32Z</time></trkpt>
<trkpt lat="48.894992828369" lon="2.6402127742767"><ele></ele><time>2025-5-17T7:58:35Z</time></trkpt>
<trkpt lat="48.894924163818" lon="2.6400802135468"><ele></ele><time>2025-5-17T7:58:38Z</time></trkpt>
<trkpt lat="48.89485168457" lon="2.6399269104004"><ele></ele><time>2025-5-17T7:58:41Z</time></trkpt>
<trkpt lat="48.894786834717" lon="2.6397988796234"><ele></ele><time>2025-5-17T7:58:44Z</time></trkpt>
<trkpt lat="48.894714355469" lon="2.6396775245667"><ele></ele><time>2025-5-17T7:58:47Z</time></trkpt>
<trkpt lat="48.894641876221" lon="2.639556646347"><ele></ele><time>2025-5-17T7:58:50Z</time></trkpt>
<trkpt lat="48.894561767578" lon="2.6394209861755"><ele></ele><time>2025-5-17T7:58:53Z</time></trkpt>
<trkpt lat="48.894477844238" lon="2.6392660140991"><ele></ele><time>2025-5-17T7:58:56Z</time></trkpt>
<trkpt lat="48.894412994385" lon="2.6391308307648"><ele></ele><time>2025-5-17T7:58:59Z</time></trkpt>
<trkpt lat="48.894329071045" lon="2.6389911174774"><ele></ele><time>2025-5-17T7:59:2Z</time></trkpt>
<trkpt lat="48.8942527771" lon="2.6388583183289"><ele></ele><time>2025-5-17T7:59:5Z</time></trkpt>
<trkpt lat="48.894180297852" lon="2.638726234436"><ele></ele><time>2025-5-17T7:59:8Z</time></trkpt>
<trkpt lat="48.894104003906" lon="2.6386137008667"><ele></ele><time>2025-5-17T7:59:11Z</time></trkpt>
<trkpt lat="48.894004821777" lon="2.6385550498962"><ele></ele><time>2025-5-17T7:59:14Z</time></trkpt>
<trkpt lat="48.893882751465" lon="2.6385662555695"><ele></ele><time>2025-5-17T7:59:17Z</time></trkpt>
<trkpt lat="48.893772125244" lon="2.6385822296143"><ele></ele><time>2025-5-17T7:59:20Z</time></trkpt>
<trkpt lat="48.893665313721" lon="2.6385977268219"><ele></ele><time>2025-5-17T7:59:23Z</time></trkpt>
<trkpt lat="48.893566131592" lon="2.6386096477509"><ele></ele><time>2025-5-17T7:59:26Z</time></trkpt>
<trkpt lat="48.893482208252" lon="2.6385793685913"><ele></ele><time>2025-5-17T7:59:29Z</time></trkpt>
<trkpt lat="48.89342880249" lon="2.6384763717651"><ele></ele><time>2025-5-17T7:59:32Z</time></trkpt>
<trkpt lat="48.893379211426" lon="2.6383481025696"><ele></ele><time>2025-5-17T7:59:35Z</time></trkpt>
<trkpt lat="48.893379211426" lon="2.6383481025696"><ele></ele><time>2025-5-17T7:59:38Z</time></trkpt>
<trkpt lat="48.893310546875" lon="2.6382398605347"><ele></ele><time>2025-5-17T7:59:41Z</time></trkpt>
<trkpt lat="48.893310546875" lon="2.6382398605347"><ele></ele><time>2025-5-17T7:59:44Z</time></trkpt>
<trkpt lat="48.893207550049" lon="2.6382210254669"><ele></ele><time>2025-5-17T7:59:47Z</time></trkpt>
<trkpt lat="48.893157958984" lon="2.6381459236145"><ele></ele><time>2025-5-17T7:59:50Z</time></trkpt>
<trkpt lat="48.893112182617" lon="2.6380255222321"><ele></ele><time>2025-5-17T7:59:53Z</time></trkpt>
<trkpt lat="48.893070220947" lon="2.6378953456879"><ele></ele><time>2025-5-17T7:59:56Z</time></trkpt>
<trkpt lat="48.893009185791" lon="2.637757062912"><ele></ele><time>2025-5-17T7:59:59Z</time></trkpt>
<trkpt lat="48.892948150635" lon="2.6376159191132"><ele></ele><time>2025-5-17T8:0:2Z</time></trkpt>
<trkpt lat="48.89289855957" lon="2.6374769210815"><ele></ele><time>2025-5-17T8:0:5Z</time></trkpt>
<trkpt lat="48.892833709717" lon="2.6373403072357"><ele></ele><time>2025-5-17T8:0:8Z</time></trkpt>
<trkpt lat="48.892768859863" lon="2.6372811794281"><ele></ele><time>2025-5-17T8:0:11Z</time></trkpt>
<trkpt lat="48.892715454102" lon="2.6372089385986"><ele></ele><time>2025-5-17T8:0:14Z</time></trkpt>
<trkpt lat="48.892696380615" lon="2.6370985507965"><ele></ele><time>2025-5-17T8:0:17Z</time></trkpt>
<trkpt lat="48.892639160156" lon="2.6369941234589"><ele></ele><time>2025-5-17T8:0:20Z</time></trkpt>
<trkpt lat="48.892585754395" lon="2.6368498802185"><ele></ele><time>2025-5-17T8:0:23Z</time></trkpt>
<trkpt lat="48.892517089844" lon="2.6367075443268"><ele></ele><time>2025-5-17T8:0:26Z</time></trkpt>
<trkpt lat="48.892478942871" lon="2.6365940570831"><ele></ele><time>2025-5-17T8:0:29Z</time></trkpt>
<trkpt lat="48.892436981201" lon="2.6364822387695"><ele></ele><time>2025-5-17T8:0:32Z</time></trkpt>
<trkpt lat="48.892387390137" lon="2.6363501548767"><ele></ele><time>2025-5-17T8:0:35Z</time></trkpt>
<trkpt lat="48.892345428467" lon="2.636209487915"><ele></ele><time>2025-5-17T8:0:38Z</time></trkpt>
<trkpt lat="48.892345428467" lon="2.636209487915"><ele></ele><time>2025-5-17T8:0:41Z</time></trkpt>
<trkpt lat="48.892311096191" lon="2.6360554695129"><ele></ele><time>2025-5-17T8:0:44Z</time></trkpt>
<trkpt lat="48.892272949219" lon="2.6359066963196"><ele></ele><time>2025-5-17T8:0:47Z</time></trkpt>
<trkpt lat="48.892227172852" lon="2.6357934474945"><ele></ele><time>2025-5-17T8:0:50Z</time></trkpt>
<trkpt lat="48.892147064209" lon="2.6356818675995"><ele></ele><time>2025-5-17T8:0:53Z</time></trkpt>
<trkpt lat="48.892078399658" lon="2.6355447769165"><ele></ele><time>2025-5-17T8:0:56Z</time></trkpt>
<trkpt lat="48.892013549805" lon="2.6353883743286"><ele></ele><time>2025-5-17T8:0:59Z</time></trkpt>
<trkpt lat="48.891952514648" lon="2.6352508068085"><ele></ele><time>2025-5-17T8:1:2Z</time></trkpt>
<trkpt lat="48.891895294189" lon="2.6351022720337"><ele></ele><time>2025-5-17T8:1:5Z</time></trkpt>
<trkpt lat="48.891895294189" lon="2.6351022720337"><ele></ele><time>2025-5-17T8:1:8Z</time></trkpt>
<trkpt lat="48.891834259033" lon="2.6349289417267"><ele></ele><time>2025-5-17T8:1:11Z</time></trkpt>
<trkpt lat="48.891773223877" lon="2.6347703933716"><ele></ele><time>2025-5-17T8:1:14Z</time></trkpt>
<trkpt lat="48.891719818115" lon="2.6346483230591"><ele></ele><time>2025-5-17T8:1:17Z</time></trkpt>
<trkpt lat="48.891654968262" lon="2.634584903717"><ele></ele><time>2025-5-17T8:1:20Z</time></trkpt>
<trkpt lat="48.891605377197" lon="2.6345093250275"><ele></ele><time>2025-5-17T8:1:23Z</time></trkpt>
<trkpt lat="48.891563415527" lon="2.6343905925751"><ele></ele><time>2025-5-17T8:1:26Z</time></trkpt>
<trkpt lat="48.891532897949" lon="2.6342766284943"><ele></ele><time>2025-5-17T8:1:29Z</time></trkpt>
<trkpt lat="48.891498565674" lon="2.6341633796692"><ele></ele><time>2025-5-17T8:1:32Z</time></trkpt>
<trkpt lat="48.891452789307" lon="2.6340527534485"><ele></ele><time>2025-5-17T8:1:35Z</time></trkpt>
<trkpt lat="48.891414642334" lon="2.6339654922485"><ele></ele><time>2025-5-17T8:1:38Z</time></trkpt>
<trkpt lat="48.89134979248" lon="2.6338505744934"><ele></ele><time>2025-5-17T8:1:41Z</time></trkpt>
<trkpt lat="48.891304016113" lon="2.6337616443634"><ele></ele><time>2025-5-17T8:1:44Z</time></trkpt>
<trkpt lat="48.891254425049" lon="2.6336715221405"><ele></ele><time>2025-5-17T8:1:47Z</time></trkpt>
<trkpt lat="48.89119720459" lon="2.6335887908936"><ele></ele><time>2025-5-17T8:1:50Z</time></trkpt>
<trkpt lat="48.89115524292" lon="2.6335191726685"><ele></ele><time>2025-5-17T8:1:53Z</time></trkpt>
<trkpt lat="48.89115524292" lon="2.6335191726685"><ele></ele><time>2025-5-17T8:1:56Z</time></trkpt>
<trkpt lat="48.891094207764" lon="2.6333887577057"><ele></ele><time>2025-5-17T8:1:59Z</time></trkpt>
<trkpt lat="48.891094207764" lon="2.6333887577057"><ele></ele><time>2025-5-17T8:2:2Z</time></trkpt>
<trkpt lat="48.891006469727" lon="2.6333003044128"><ele></ele><time>2025-5-17T8:2:5Z</time></trkpt>
<trkpt lat="48.890937805176" lon="2.6332075595856"><ele></ele><time>2025-5-17T8:2:8Z</time></trkpt>
<trkpt lat="48.890899658203" lon="2.6331384181976"><ele></ele><time>2025-5-17T8:2:11Z</time></trkpt>
<trkpt lat="48.890899658203" lon="2.6331384181976"><ele></ele><time>2025-5-17T8:2:14Z</time></trkpt>
<trkpt lat="48.890865325928" lon="2.6329827308655"><ele></ele><time>2025-5-17T8:2:17Z</time></trkpt>
<trkpt lat="48.890865325928" lon="2.6329827308655"><ele></ele><time>2025-5-17T8:2:20Z</time></trkpt>
<trkpt lat="48.890865325928" lon="2.6328403949738"><ele></ele><time>2025-5-17T8:2:23Z</time></trkpt>
<trkpt lat="48.890865325928" lon="2.6328403949738"><ele></ele><time>2025-5-17T8:2:26Z</time></trkpt>
<trkpt lat="48.890811920166" lon="2.6327018737793"><ele></ele><time>2025-5-17T8:2:29Z</time></trkpt>
<trkpt lat="48.890769958496" lon="2.6326279640198"><ele></ele><time>2025-5-17T8:2:32Z</time></trkpt>
<trkpt lat="48.890769958496" lon="2.6326279640198"><ele></ele><time>2025-5-17T8:2:35Z</time></trkpt>
<trkpt lat="48.890735626221" lon="2.6325354576111"><ele></ele><time>2025-5-17T8:2:38Z</time></trkpt>
<trkpt lat="48.890705108643" lon="2.6324303150177"><ele></ele><time>2025-5-17T8:2:41Z</time></trkpt>
<trkpt lat="48.890670776367" lon="2.6323039531708"><ele></ele><time>2025-5-17T8:2:44Z</time></trkpt>
<trkpt lat="48.890670776367" lon="2.6323039531708"><ele></ele><time>2025-5-17T8:2:47Z</time></trkpt>
<trkpt lat="48.890625" lon="2.6321671009064"><ele></ele><time>2025-5-17T8:2:50Z</time></trkpt>
<trkpt lat="48.890563964844" lon="2.6320056915283"><ele></ele><time>2025-5-17T8:2:53Z</time></trkpt>
<trkpt lat="48.890472412109" lon="2.631863117218"><ele></ele><time>2025-5-17T8:2:56Z</time></trkpt>
<trkpt lat="48.890472412109" lon="2.631863117218"><ele></ele><time>2025-5-17T8:2:59Z</time></trkpt>
<trkpt lat="48.890365600586" lon="2.6316819190979"><ele></ele><time>2025-5-17T8:3:2Z</time></trkpt>
<trkpt lat="48.890239715576" lon="2.6314671039581"><ele></ele><time>2025-5-17T8:3:5Z</time></trkpt>
<trkpt lat="48.890132904053" lon="2.6312739849091"><ele></ele><time>2025-5-17T8:3:8Z</time></trkpt>
<trkpt lat="48.890132904053" lon="2.6312739849091"><ele></ele><time>2025-5-17T8:3:11Z</time></trkpt>
<trkpt lat="48.890048980713" lon="2.6311013698578"><ele></ele><time>2025-5-17T8:3:14Z</time></trkpt>
<trkpt lat="48.889965057373" lon="2.6309373378754"><ele></ele><time>2025-5-17T8:3:17Z</time></trkpt>
<trkpt lat="48.889877319336" lon="2.6307742595673"><ele></ele><time>2025-5-17T8:3:20Z</time></trkpt>
<trkpt lat="48.889877319336" lon="2.6307742595673"><ele></ele><time>2025-5-17T8:3:23Z</time></trkpt>
<trkpt lat="48.889801025391" lon="2.6306321620941"><ele></ele><time>2025-5-17T8:3:26Z</time></trkpt>
<trkpt lat="48.889713287354" lon="2.6304838657379"><ele></ele><time>2025-5-17T8:3:29Z</time></trkpt>
<trkpt lat="48.889636993408" lon="2.6303429603577"><ele></ele><time>2025-5-17T8:3:32Z</time></trkpt>
<trkpt lat="48.889568328857" lon="2.6302170753479"><ele></ele><time>2025-5-17T8:3:35Z</time></trkpt>
<trkpt lat="48.889495849609" lon="2.6300890445709"><ele></ele><time>2025-5-17T8:3:38Z</time></trkpt>
<trkpt lat="48.889495849609" lon="2.6300890445709"><ele></ele><time>2025-5-17T8:3:41Z</time></trkpt>
<trkpt lat="48.889427185059" lon="2.6299576759338"><ele></ele><time>2025-5-17T8:3:44Z</time></trkpt>
<trkpt lat="48.889377593994" lon="2.629851102829"><ele></ele><time>2025-5-17T8:3:47Z</time></trkpt>
<trkpt lat="48.889324188232" lon="2.6297402381897"><ele></ele><time>2025-5-17T8:3:50Z</time></trkpt>
<trkpt lat="48.889266967773" lon="2.629629611969"><ele></ele><time>2025-5-17T8:3:53Z</time></trkpt>
<trkpt lat="48.889209747314" lon="2.6295294761658"><ele></ele><time>2025-5-17T8:3:56Z</time></trkpt>
<trkpt lat="48.889156341553" lon="2.6294329166412"><ele></ele><time>2025-5-17T8:3:59Z</time></trkpt>
<trkpt lat="48.889102935791" lon="2.6293346881866"><ele></ele><time>2025-5-17T8:4:2Z</time></trkpt>
<trkpt lat="48.889053344727" lon="2.6292457580566"><ele></ele><time>2025-5-17T8:4:5Z</time></trkpt>
<trkpt lat="48.888999938965" lon="2.6291520595551"><ele></ele><time>2025-5-17T8:4:8Z</time></trkpt>
<trkpt lat="48.888954162598" lon="2.6290619373322"><ele></ele><time>2025-5-17T8:4:11Z</time></trkpt>
<trkpt lat="48.888904571533" lon="2.6289710998535"><ele></ele><time>2025-5-17T8:4:14Z</time></trkpt>
<trkpt lat="48.888843536377" lon="2.6288604736328"><ele></ele><time>2025-5-17T8:4:17Z</time></trkpt>
<trkpt lat="48.888774871826" lon="2.6287362575531"><ele></ele><time>2025-5-17T8:4:20Z</time></trkpt>
<trkpt lat="48.888706207275" lon="2.6286172866821"><ele></ele><time>2025-5-17T8:4:23Z</time></trkpt>
<trkpt lat="48.888641357422" lon="2.6284966468811"><ele></ele><time>2025-5-17T8:4:26Z</time></trkpt>
<trkpt lat="48.888576507568" lon="2.6283800601959"><ele></ele><time>2025-5-17T8:4:29Z</time></trkpt>
<trkpt lat="48.888511657715" lon="2.6282613277435"><ele></ele><time>2025-5-17T8:4:32Z</time></trkpt>
<trkpt lat="48.888439178467" lon="2.6281361579895"><ele></ele><time>2025-5-17T8:4:35Z</time></trkpt>
<trkpt lat="48.888366699219" lon="2.6280069351196"><ele></ele><time>2025-5-17T8:4:38Z</time></trkpt>
<trkpt lat="48.888290405273" lon="2.6278722286224"><ele></ele><time>2025-5-17T8:4:41Z</time></trkpt>
<trkpt lat="48.888221740723" lon="2.6277387142181"><ele></ele><time>2025-5-17T8:4:44Z</time></trkpt>
<trkpt lat="48.888145446777" lon="2.6275992393494"><ele></ele><time>2025-5-17T8:4:47Z</time></trkpt>
<trkpt lat="48.888061523438" lon="2.6274435520172"><ele></ele><time>2025-5-17T8:4:50Z</time></trkpt>
<trkpt lat="48.8879737854" lon="2.6272869110107"><ele></ele><time>2025-5-17T8:4:53Z</time></trkpt>
<trkpt lat="48.887893676758" lon="2.6271433830261"><ele></ele><time>2025-5-17T8:4:56Z</time></trkpt>
<trkpt lat="48.887825012207" lon="2.6270222663879"><ele></ele><time>2025-5-17T8:4:59Z</time></trkpt>
<trkpt lat="48.887752532959" lon="2.6269152164459"><ele></ele><time>2025-5-17T8:5:2Z</time></trkpt>
<trkpt lat="48.887668609619" lon="2.6268420219421"><ele></ele><time>2025-5-17T8:5:5Z</time></trkpt>
<trkpt lat="48.887592315674" lon="2.626873254776"><ele></ele><time>2025-5-17T8:5:8Z</time></trkpt>
<trkpt lat="48.887519836426" lon="2.6269383430481"><ele></ele><time>2025-5-17T8:5:11Z</time></trkpt>
<trkpt lat="48.887462615967" lon="2.6270353794098"><ele></ele><time>2025-5-17T8:5:14Z</time></trkpt>
<trkpt lat="48.887401580811" lon="2.6271288394928"><ele></ele><time>2025-5-17T8:5:17Z</time></trkpt>
<trkpt lat="48.887348175049" lon="2.6271858215332"><ele></ele><time>2025-5-17T8:5:20Z</time></trkpt>
<trkpt lat="48.887298583984" lon="2.6272518634796"><ele></ele><time>2025-5-17T8:5:23Z</time></trkpt>
<trkpt lat="48.887245178223" lon="2.6273231506348"><ele></ele><time>2025-5-17T8:5:26Z</time></trkpt>
<trkpt lat="48.887187957764" lon="2.6273996829987"><ele></ele><time>2025-5-17T8:5:29Z</time></trkpt>
<trkpt lat="48.887119293213" lon="2.6274785995483"><ele></ele><time>2025-5-17T8:5:32Z</time></trkpt>
<trkpt lat="48.887073516846" lon="2.6275267601013"><ele></ele><time>2025-5-17T8:5:35Z</time></trkpt>
<trkpt lat="48.887073516846" lon="2.6275267601013"><ele></ele><time>2025-5-17T8:5:38Z</time></trkpt>
<trkpt lat="48.887016296387" lon="2.6275942325592"><ele></ele><time>2025-5-17T8:5:41Z</time></trkpt>
<trkpt lat="48.886951446533" lon="2.627669095993"><ele></ele><time>2025-5-17T8:5:44Z</time></trkpt>
<trkpt lat="48.886890411377" lon="2.6277379989624"><ele></ele><time>2025-5-17T8:5:47Z</time></trkpt>
<trkpt lat="48.886829376221" lon="2.6278088092804"><ele></ele><time>2025-5-17T8:5:50Z</time></trkpt>
<trkpt lat="48.886768341064" lon="2.6278827190399"><ele></ele><time>2025-5-17T8:5:53Z</time></trkpt>
<trkpt lat="48.886707305908" lon="2.6279599666595"><ele></ele><time>2025-5-17T8:5:56Z</time></trkpt>
<trkpt lat="48.88663482666" lon="2.6280052661896"><ele></ele><time>2025-5-17T8:5:59Z</time></trkpt>
<trkpt lat="48.886581420898" lon="2.6280333995819"><ele></ele><time>2025-5-17T8:6:2Z</time></trkpt>
<trkpt lat="48.886524200439" lon="2.6280727386475"><ele></ele><time>2025-5-17T8:6:5Z</time></trkpt>
<trkpt lat="48.886451721191" lon="2.6281454563141"><ele></ele><time>2025-5-17T8:6:8Z</time></trkpt>
<trkpt lat="48.886371612549" lon="2.6282391548157"><ele></ele><time>2025-5-17T8:6:11Z</time></trkpt>
<trkpt lat="48.886318206787" lon="2.6283373832703"><ele></ele><time>2025-5-17T8:6:14Z</time></trkpt>
<trkpt lat="48.886257171631" lon="2.6284112930298"><ele></ele><time>2025-5-17T8:6:17Z</time></trkpt>
<trkpt lat="48.88618850708" lon="2.6284897327423"><ele></ele><time>2025-5-17T8:6:20Z</time></trkpt>
<trkpt lat="48.886123657227" lon="2.6285629272461"><ele></ele><time>2025-5-17T8:6:23Z</time></trkpt>
<trkpt lat="48.886074066162" lon="2.6286261081696"><ele></ele><time>2025-5-17T8:6:26Z</time></trkpt>
<trkpt lat="48.886074066162" lon="2.6286261081696"><ele></ele><time>2025-5-17T8:6:29Z</time></trkpt>
<trkpt lat="48.886074066162" lon="2.6286261081696"><ele></ele><time>2025-5-17T8:6:32Z</time></trkpt>
<trkpt lat="48.886001586914" lon="2.6287422180176"><ele></ele><time>2025-5-17T8:6:35Z</time></trkpt>
<trkpt lat="48.88595199585" lon="2.6288208961487"><ele></ele><time>2025-5-17T8:6:38Z</time></trkpt>
<trkpt lat="48.885890960693" lon="2.6289052963257"><ele></ele><time>2025-5-17T8:6:41Z</time></trkpt>
<trkpt lat="48.885833740234" lon="2.6289827823639"><ele></ele><time>2025-5-17T8:6:44Z</time></trkpt>
<trkpt lat="48.885765075684" lon="2.6290376186371"><ele></ele><time>2025-5-17T8:6:47Z</time></trkpt>
<trkpt lat="48.885688781738" lon="2.6290326118469"><ele></ele><time>2025-5-17T8:6:50Z</time></trkpt>
<trkpt lat="48.885604858398" lon="2.6290020942688"><ele></ele><time>2025-5-17T8:6:53Z</time></trkpt>
<trkpt lat="48.885509490967" lon="2.6290380954742"><ele></ele><time>2025-5-17T8:6:56Z</time></trkpt>
<trkpt lat="48.885433197021" lon="2.6291043758392"><ele></ele><time>2025-5-17T8:6:59Z</time></trkpt>
<trkpt lat="48.885356903076" lon="2.6291980743408"><ele></ele><time>2025-5-17T8:7:2Z</time></trkpt>
<trkpt lat="48.885284423828" lon="2.6292872428894"><ele></ele><time>2025-5-17T8:7:5Z</time></trkpt>
<trkpt lat="48.885200500488" lon="2.6293869018555"><ele></ele><time>2025-5-17T8:7:8Z</time></trkpt>
<trkpt lat="48.885131835938" lon="2.6294696331024"><ele></ele><time>2025-5-17T8:7:11Z</time></trkpt>
<trkpt lat="48.885063171387" lon="2.6295480728149"><ele></ele><time>2025-5-17T8:7:14Z</time></trkpt>
<trkpt lat="48.884990692139" lon="2.6296379566193"><ele></ele><time>2025-5-17T8:7:17Z</time></trkpt>
<trkpt lat="48.884925842285" lon="2.6297221183777"><ele></ele><time>2025-5-17T8:7:20Z</time></trkpt>
<trkpt lat="48.884845733643" lon="2.6298158168793"><ele></ele><time>2025-5-17T8:7:23Z</time></trkpt>
<trkpt lat="48.884754180908" lon="2.6299200057983"><ele></ele><time>2025-5-17T8:7:26Z</time></trkpt>
<trkpt lat="48.884677886963" lon="2.6299974918365"><ele></ele><time>2025-5-17T8:7:29Z</time></trkpt>
<trkpt lat="48.884620666504" lon="2.6300749778748"><ele></ele><time>2025-5-17T8:7:32Z</time></trkpt>
<trkpt lat="48.88455581665" lon="2.6301627159119"><ele></ele><time>2025-5-17T8:7:35Z</time></trkpt>
<trkpt lat="48.8844871521" lon="2.6302466392517"><ele></ele><time>2025-5-17T8:7:38Z</time></trkpt>
<trkpt lat="48.884410858154" lon="2.6303234100342"><ele></ele><time>2025-5-17T8:7:41Z</time></trkpt>
<trkpt lat="48.884334564209" lon="2.6303963661194"><ele></ele><time>2025-5-17T8:7:44Z</time></trkpt>
<trkpt lat="48.884250640869" lon="2.6304564476013"><ele></ele><time>2025-5-17T8:7:47Z</time></trkpt>
<trkpt lat="48.884178161621" lon="2.6305305957794"><ele></ele><time>2025-5-17T8:7:50Z</time></trkpt>
<trkpt lat="48.884101867676" lon="2.6306023597717"><ele></ele><time>2025-5-17T8:7:53Z</time></trkpt>
<trkpt lat="48.88402557373" lon="2.6306748390198"><ele></ele><time>2025-5-17T8:7:56Z</time></trkpt>
<trkpt lat="48.883960723877" lon="2.6307647228241"><ele></ele><time>2025-5-17T8:7:59Z</time></trkpt>
<trkpt lat="48.883960723877" lon="2.6307647228241"><ele></ele><time>2025-5-17T8:8:2Z</time></trkpt>
<trkpt lat="48.883895874023" lon="2.630763053894"><ele></ele><time>2025-5-17T8:8:5Z</time></trkpt>
<trkpt lat="48.883895874023" lon="2.630763053894"><ele></ele><time>2025-5-17T8:8:8Z</time></trkpt>
<trkpt lat="48.883895874023" lon="2.630763053894"><ele></ele><time>2025-5-17T8:8:11Z</time></trkpt>
<trkpt lat="48.883895874023" lon="2.630763053894"><ele></ele><time>2025-5-17T8:8:14Z</time></trkpt>
<trkpt lat="48.883857727051" lon="2.6306967735291"><ele></ele><time>2025-5-17T8:8:17Z</time></trkpt>
<trkpt lat="48.883857727051" lon="2.6306967735291"><ele></ele><time>2025-5-17T8:8:20Z</time></trkpt>
</trkseg></trk></gpx>